# Wetter Temperatur Luftdruck Luftfeuchtigkeit Sichtweite Windgeschwindigkeit Windrichtung Zeit
1 Rain 25 1011 87 0 5.12 203 09:59 29.01.2020
2 Rain 25 1011 87 0 5.12 203 09:40 29.01.2020
3 Rain 25 1011 87 0 5.12 203 09:20 29.01.2020
4 Rain 25 1011 87 0 5.12 203 08:56 29.01.2020
5 Rain 25 1011 87 0 5.12 203 08:38 29.01.2020
6 Clouds 25 1013 87 0 4.8 207 08:18 29.01.2020
7 Clouds 25 1013 87 0 4.8 207 07:43 29.01.2020
8 Clouds 25 1013 87 0 4.8 207 07:23 29.01.2020
9 Clouds 25 1013 87 0 4.8 207 07:23 29.01.2020
10 Clouds 25 1013 87 0 4.8 207 06:38 29.01.2020
11 Clouds 25 1013 87 0 4.8 207 06:20 29.01.2020
12 Clouds 25 1013 87 0 4.8 207 05:54 29.01.2020
13 Clouds 25 1013 87 0 4.8 207 05:35 29.01.2020
14 Clouds 25 1013 87 0 4.33 207 04:39 29.01.2020
15 Clouds 25 1013 87 0 4.33 207 03:59 29.01.2020
16 Clouds 25 1013 87 0 4.33 207 02:39 29.01.2020
17 Clouds 26 1009 83 10000 4.6 150 01:34 29.01.2020
18 Clouds 27 1009 78 10000 5.1 160 00:39 29.01.2020
19 Clouds 27 1009 78 10000 5.1 160 00:21 29.01.2020
20 Clouds 28 1009 74 10000 6.2 150 23:41 28.01.2020
21 Clouds 28 1009 74 10000 6.2 150 23:20 28.01.2020
22 Clouds 28 1009 74 10000 4.1 180 22:56 28.01.2020
23 Clouds 28 1009 74 10000 4.1 180 22:56 28.01.2020
24 Clouds 28 1009 74 10000 4.1 180 22:36 28.01.2020
25 Clouds 28 1009 74 10000 4.1 180 22:18 28.01.2020
26 Clouds 28 1009 74 10000 4.1 180 22:18 28.01.2020
27 Clouds 29 1010 74 10000 4.6 180 21:39 28.01.2020
28 Clouds 29 1010 74 10000 4.6 180 21:20 28.01.2020
29 Clouds 29 1011 74 10000 4.6 170 20:46 28.01.2020
30 Clouds 29 1011 74 10000 4.6 170 20:27 28.01.2020
31 Clouds 28 1012 78 10000 4.1 180 19:58 28.01.2020
32 Clouds 28 1012 78 10000 4.1 180 19:38 28.01.2020
33 Clouds 28 1012 78 10000 4.1 180 19:19 28.01.2020
34 Clouds 27 1013 78 10000 3.6 190 18:54 28.01.2020
35 Clouds 27 1013 78 10000 3.6 190 18:36 28.01.2020
36 Clouds 27 1013 78 10000 3.6 190 18:18 28.01.2020
37 Clouds 27 1013 78 10000 4.1 190 17:54 28.01.2020
38 Clouds 27 1013 78 10000 4.1 190 17:36 28.01.2020
39 Clouds 27 1013 78 10000 4.1 190 17:18 28.01.2020
40 Clouds 27 1013 78 10000 3.1 240 16:41 28.01.2020
41 Clouds 27 1013 78 10000 3.1 240 16:22 28.01.2020
42 Clouds 26 1012 83 10000 3.6 180 15:55 28.01.2020
43 Clouds 26 1012 83 10000 3.6 180 15:37 28.01.2020
44 Clouds 26 1012 83 10000 3.6 180 15:18 28.01.2020
45 Clouds 25 1012 88 10000 3.1 190 14:43 28.01.2020
46 Clouds 25 1012 88 10000 3.1 190 14:19 28.01.2020
47 Clouds 24 1011 88 10000 3.1 190 13:42 28.01.2020
48 Clouds 24 1011 88 10000 3.1 190 13:24 28.01.2020
49 Rain 24 1013 86 0 3.2 222 12:45 28.01.2020
50 Rain 24 1013 86 0 3.2 222 12:25 28.01.2020
51 Rain 24 1013 86 0 3.2 222 11:59 28.01.2020
52 Rain 24 1013 86 0 3.2 222 11:40 28.01.2020
53 Rain 25 1012 86 0 3.29 225 11:21 28.01.2020
54 Rain 25 1012 86 0 3.29 225 10:43 28.01.2020
55 Rain 25 1012 86 0 3.29 225 10:24 28.01.2020
56 Rain 25 1012 86 0 3.29 225 09:59 28.01.2020
57 Rain 25 1012 86 0 3.29 225 09:39 28.01.2020
58 Rain 25 1012 86 0 3.29 225 09:20 28.01.2020
59 Rain 25 1012 86 0 3.29 225 08:44 28.01.2020
60 Rain 25 1012 86 0 3.29 225 08:25 28.01.2020
61 Clouds 25 1014 86 0 3.72 240 07:43 28.01.2020
62 Clouds 25 1014 86 0 3.72 240 07:23 28.01.2020
63 Clouds 25 1014 86 0 3.72 240 06:44 28.01.2020
64 Clouds 25 1014 86 0 3.72 240 06:23 28.01.2020
65 Clouds 25 1014 86 0 3.72 240 05:35 28.01.2020
66 Rain 25 1015 86 0 3.12 230 04:41 28.01.2020
67 Rain 25 1015 86 0 3.12 230 03:41 28.01.2020
68 Rain 25 1015 86 0 3.12 230 02:43 28.01.2020
69 Clouds 26 1011 88 10000 4.1 220 02:24 28.01.2020
70 Clouds 26 1011 88 10000 4.1 220 01:50 28.01.2020
71 Clouds 27 1011 83 10000 4.6 240 00:51 28.01.2020
72 Clouds 27 1011 83 10000 4.6 240 00:30 28.01.2020
73 Clouds 28 1011 78 10000 5.1 240 23:59 27.01.2020
74 Clouds 28 1011 78 10000 5.1 240 23:41 27.01.2020
75 Clouds 28 1011 78 10000 5.1 240 23:18 27.01.2020
76 Clouds 28 1011 78 10000 4.1 220 22:44 27.01.2020
77 Clouds 28 1011 78 10000 4.1 220 22:20 27.01.2020
78 Clouds 28 1012 78 10000 5.1 220 21:57 27.01.2020
79 Clouds 28 1012 78 10000 5.1 220 21:38 27.01.2020
80 Clouds 28 1012 78 10000 5.1 220 21:18 27.01.2020
81 Clouds 28 1012 78 10000 4.1 240 20:55 27.01.2020
82 Clouds 28 1012 78 10000 4.1 240 20:37 27.01.2020
83 Clouds 28 1012 78 10000 4.1 240 20:18 27.01.2020
84 Clouds 28 1013 78 10000 4.1 220 19:41 27.01.2020
85 Clouds 28 1013 78 10000 4.1 220 19:23 27.01.2020
86 Clouds 28 1013 78 10000 4.6 210 18:56 27.01.2020
87 Clouds 28 1013 78 10000 4.6 210 18:38 27.01.2020
88 Clouds 28 1013 78 10000 4.6 210 18:20 27.01.2020
89 Clouds 25 1015 79 0 2.87 226 17:40 27.01.2020
90 Clouds 27 1014 83 10000 3.6 200 17:21 27.01.2020
91 Clouds 27 1014 83 10000 3.6 200 16:59 27.01.2020
92 Clouds 27 1014 83 10000 3.6 200 16:41 27.01.2020
93 Clouds 27 1014 83 10000 3.6 200 16:23 27.01.2020
94 Clouds 25 1013 94 10000 3.1 200 15:55 27.01.2020
95 Clouds 25 1013 94 10000 3.1 200 15:37 27.01.2020
96 Clouds 25 1013 94 10000 3.1 200 15:37 27.01.2020
97 Clouds 25 1013 94 10000 3.1 200 15:18 27.01.2020
98 Clouds 25 1012 94 10000 2.6 210 14:42 27.01.2020
99 Clouds 25 1012 94 10000 2.6 210 14:22 27.01.2020
100 Rain 24 1011 100 10000 3.1 170 13:58 27.01.2020
101 Rain 24 1011 100 10000 3.1 170 13:39 27.01.2020
102 Rain 24 1011 100 10000 3.1 170 13:19 27.01.2020
103 Clouds 25 1013 81 0 3.62 239 12:45 27.01.2020
104 Clouds 25 1013 81 0 3.62 239 12:23 27.01.2020
105 Clouds 25 1013 81 0 3.62 239 11:58 27.01.2020
106 Clouds 25 1013 81 0 3.62 239 11:40 27.01.2020
107 Rain 24 1013 84 0 4.09 235 11:20 27.01.2020
108 Rain 24 1013 84 0 4.09 235 10:43 27.01.2020
109 Rain 24 1013 84 0 4.09 235 10:24 27.01.2020
110 Rain 24 1013 84 0 4.09 235 09:54 27.01.2020
111 Rain 24 1013 84 0 4.09 235 09:36 27.01.2020
112 Rain 24 1013 84 0 4.09 235 09:18 27.01.2020
113 Rain 24 1013 84 0 4.09 235 08:42 27.01.2020
114 Rain 24 1015 88 0 5.28 245 08:20 27.01.2020
115 Rain 25 1015 85 0 4.67 247 07:53 27.01.2020
116 Rain 25 1015 85 0 4.67 247 07:33 27.01.2020
117 Rain 25 1015 85 0 4.67 247 06:52 27.01.2020
118 Rain 25 1015 85 0 4.67 247 06:24 27.01.2020
119 Rain 25 1015 85 0 4.67 247 05:22 27.01.2020
120 Rain 25 1016 86 0 5.59 221 03:43 27.01.2020
121 Rain 25 1016 86 0 5.59 221 02:32 27.01.2020
122 Clouds 25 1011 94 10000 3.6 220 01:29 27.01.2020
123 Clouds 25 1011 94 10000 4.1 210 00:43 27.01.2020
124 Clouds 25 1011 94 10000 4.1 210 00:22 27.01.2020
125 Rain 26 1011 88 10000 4.6 220 23:59 26.01.2020
126 Rain 26 1011 88 10000 4.6 220 23:40 26.01.2020
127 Rain 26 1011 88 10000 4.6 220 23:18 26.01.2020
128 Rain 26 1011 88 10000 5.1 220 22:39 26.01.2020
129 Rain 26 1011 88 10000 5.1 220 22:20 26.01.2020
130 Drizzle 24 1012 100 5000 4.6 180 21:59 26.01.2020
131 Drizzle 24 1012 100 5000 4.6 180 21:40 26.01.2020
132 -273 0 0 0 0 0 21:22 26.01.2020
133 Clouds 24 1013 89 0 6.14 198 20:58 26.01.2020
134 Drizzle 25 1013 94 6000 4.6 170 20:39 26.01.2020
135 Drizzle 25 1013 94 6000 4.6 170 20:19 26.01.2020
136 Drizzle 25 1014 94 3000 4.6 180 19:59 26.01.2020
137 Drizzle 25 1014 94 3000 4.6 180 19:59 26.01.2020
138 Drizzle 25 1014 94 3000 4.6 180 19:59 26.01.2020
139 Drizzle 25 1014 94 3000 4.6 180 19:39 26.01.2020
140 Drizzle 25 1014 94 3000 4.6 180 19:21 26.01.2020
141 Drizzle 25 1014 94 3000 5.1 190 18:56 26.01.2020
142 Drizzle 25 1014 94 3000 5.1 190 18:38 26.01.2020
143 Drizzle 25 1014 94 3000 5.1 190 18:20 26.01.2020
144 Drizzle 25 1014 94 5000 6.7 220 17:55 26.01.2020
145 Drizzle 25 1014 94 5000 6.7 220 17:37 26.01.2020
146 Drizzle 25 1014 94 5000 6.7 220 17:18 26.01.2020
147 Drizzle 26 1014 88 10000 3.6 190 16:56 26.01.2020
148 Drizzle 26 1014 88 10000 3.6 190 16:38 26.01.2020
149 Drizzle 26 1014 88 10000 3.6 190 16:18 26.01.2020
150 Rain 24 1016 90 0 7.86 190 15:43 26.01.2020
151 Rain 24 1016 90 0 7.86 190 15:21 26.01.2020
152 Rain 24 1016 90 0 7.86 190 14:56 26.01.2020
153 Rain 24 1016 90 0 7.86 190 14:38 26.01.2020
154 Rain 24 1014 87 0 6.84 187 14:19 26.01.2020
155 Rain 24 1014 87 0 6.84 187 13:39 26.01.2020
156 Rain 25 1014 86 0 7.3 193 13:18 26.01.2020
157 Rain 25 1014 86 0 7.3 193 12:54 26.01.2020
158 Rain 25 1014 86 0 7.3 193 12:36 26.01.2020
159 Rain 25 1014 86 0 7.3 193 12:18 26.01.2020
160 Rain 25 1014 86 0 7.3 193 11:56 26.01.2020
161 Rain 25 1014 86 0 7.3 193 11:36 26.01.2020
162 Rain 25 1013 86 0 7.63 189 11:18 26.01.2020
163 Rain 25 1013 86 0 7.63 189 10:39 26.01.2020
164 Rain 25 1013 86 0 7.63 189 10:21 26.01.2020
165 Rain 25 1013 86 0 7.63 189 09:59 26.01.2020
166 Rain 25 1013 86 0 7.63 189 09:41 26.01.2020
167 Rain 25 1013 86 0 7.63 189 09:22 26.01.2020
168 Rain 25 1013 86 0 7.63 189 08:55 26.01.2020
169 Rain 25 1013 86 0 7.63 189 08:37 26.01.2020
170 Clouds 25 1015 85 0 5.94 185 08:18 26.01.2020
171 Clouds 25 1015 85 0 5.94 185 07:45 26.01.2020
172 Clouds 25 1015 85 0 5.94 185 07:22 26.01.2020
173 Clouds 25 1015 85 0 5.94 185 06:32 26.01.2020
174 Clouds 25 1015 85 0 5.94 185 05:37 26.01.2020
175 Clouds 25 1015 85 0 6.03 192 04:58 26.01.2020
176 Clouds 25 1015 85 0 6.03 192 02:59 26.01.2020
177 Clouds 25 1015 85 0 6.03 192 02:59 26.01.2020
178 Rain 25 1011 94 10000 5.1 190 01:59 26.01.2020
179 Rain 25 1011 94 10000 5.1 190 01:38 26.01.2020
180 Rain 25 1011 94 10000 5.1 190 01:19 26.01.2020
181 Rain 25 1012 86 0 6.45 198 00:39 26.01.2020
182 Rain 25 1012 86 0 6.45 198 00:20 26.01.2020
183 Rain 25 1012 86 0 6.45 198 00:20 26.01.2020
184 Rain 25 1012 86 0 6.45 198 23:37 25.01.2020
185 Clouds 25 1012 86 0 6.45 196 23:18 25.01.2020
186 Clouds 25 1012 86 0 6.45 196 23:18 25.01.2020
187 Clouds 25 1012 86 0 6.45 196 22:41 25.01.2020
188 Clouds 25 1012 86 0 6.45 196 22:20 25.01.2020
189 Clouds 25 1012 86 0 6.45 196 21:57 25.01.2020
190 Clouds 25 1012 86 0 6.45 196 21:39 25.01.2020
191 Clouds 25 1012 86 0 6.45 196 21:20 25.01.2020
192 Clouds 25 1012 86 0 6.45 196 20:44 25.01.2020
193 Clouds 25 1012 86 0 6.45 196 20:25 25.01.2020
194 Clouds 25 1015 85 0 6.6 195 19:56 25.01.2020
195 Clouds 25 1015 84 0 6.67 188 19:37 25.01.2020
196 Clouds 25 1015 85 0 6.6 195 19:18 25.01.2020
197 Clouds 25 1015 84 0 6.67 188 18:43 25.01.2020
198 Clouds 25 1015 84 0 6.67 188 18:22 25.01.2020
199 Clouds 25 1015 84 0 6.67 188 17:58 25.01.2020
200 Clouds 25 1015 84 0 6.67 188 17:38 25.01.2020
201 Clouds 25 1016 84 0 6.7 187 17:19 25.01.2020
202 Clouds 25 1016 84 0 6.7 187 16:43 25.01.2020
203 Clouds 25 1016 84 0 6.7 187 16:23 25.01.2020
204 Clouds 25 1016 84 0 6.7 187 15:58 25.01.2020
205 Clouds 25 1016 84 0 6.7 187 15:58 25.01.2020
206 Clouds 25 1016 84 0 6.7 187 15:39 25.01.2020
207 Clouds 25 1016 84 0 6.7 187 15:21 25.01.2020
208 Clouds 25 1016 84 0 6.7 187 14:43 25.01.2020
209 Clouds 24 1013 85 0 6.33 186 14:19 25.01.2020
210 Clouds 24 1013 85 0 6.33 186 13:45 25.01.2020
211 Clouds 24 1013 85 0 6.33 186 13:27 25.01.2020
212 Clouds 25 1013 84 0 6.15 187 12:58 25.01.2020
213 Clouds 25 1013 84 0 6.15 187 12:39 25.01.2020
214 Clouds 25 1013 84 0 6.15 187 12:20 25.01.2020
215 Clouds 25 1013 84 0 6.15 187 11:40 25.01.2020
216 Clouds 25 1012 83 0 5.15 193 11:20 25.01.2020
217 Clouds 25 1012 83 0 5.15 193 10:55 25.01.2020
218 Clouds 25 1012 83 0 5.15 193 10:37 25.01.2020
219 Clouds 25 1012 83 0 5.15 193 10:18 25.01.2020
220 Clouds 25 1012 83 0 5.15 193 09:40 25.01.2020
221 Clouds 25 1012 83 0 5.15 193 09:19 25.01.2020
222 Clouds 25 1012 83 0 5.15 193 08:42 25.01.2020
223 Clouds 25 1012 83 0 5.15 193 08:42 25.01.2020
224 Clouds 25 1014 83 0 4.25 183 07:57 25.01.2020
225 Clouds 25 1014 83 0 4.25 183 07:28 25.01.2020
226 Clouds 25 1014 83 0 4.25 183 06:31 25.01.2020
227 Clouds 25 1014 83 0 4.25 183 05:52 25.01.2020
228 Clouds 25 1014 83 0 4.25 183 05:32 25.01.2020
229 Clouds 25 1014 83 0 3.95 193 03:56 25.01.2020
230 Clouds 25 1014 83 0 3.95 193 03:37 25.01.2020
231 Clouds 25 1014 83 0 3.95 193 02:35 25.01.2020
232 Clouds 26 1009 83 10000 4.6 170 01:56 25.01.2020
233 Clouds 27 1008 78 10000 5.1 160 00:59 25.01.2020
234 Clouds 27 1008 78 10000 5.1 160 00:37 25.01.2020
235 Clouds 27 1008 78 10000 5.1 160 00:18 25.01.2020
236 Clouds 27 1008 78 10000 5.1 160 00:18 25.01.2020
237 Clouds 28 1008 74 10000 4.6 180 23:41 24.01.2020
238 Clouds 28 1008 74 10000 4.6 180 23:41 24.01.2020
239 Clouds 28 1008 74 10000 4.6 180 23:23 24.01.2020
240 Clouds 28 1008 74 10000 4.6 180 23:23 24.01.2020
241 Clouds 28 1008 74 10000 6.2 190 22:46 24.01.2020
242 Clouds 28 1008 74 10000 6.2 190 22:26 24.01.2020
243 Clouds 27 1009 78 10000 6.2 150 21:57 24.01.2020
244 Clouds 27 1009 78 10000 6.2 150 21:39 24.01.2020
245 Clouds 27 1009 78 10000 6.2 150 21:18 24.01.2020
246 Clouds 28 1011 74 10000 7.2 190 20:43 24.01.2020
247 Clouds 28 1011 74 10000 7.2 190 20:21 24.01.2020
248 Clouds 28 1012 74 10000 6.7 160 19:58 24.01.2020
249 Clouds 28 1012 74 10000 6.7 160 19:39 24.01.2020
250 Clouds 28 1012 74 10000 6.7 160 19:21 24.01.2020
251 Clouds 28 1012 74 10000 6.7 150 18:43 24.01.2020
252 Clouds 28 1012 74 10000 6.7 150 18:24 24.01.2020
253 Clouds 27 1012 78 10000 5.1 140 17:56 24.01.2020
254 Clouds 27 1012 78 10000 5.1 140 17:38 24.01.2020
255 Clouds 27 1012 78 10000 5.1 140 17:18 24.01.2020
256 Clouds 26 1015 83 10000 6.2 150 16:39 24.01.2020
257 Clouds 26 1015 83 10000 6.2 150 16:39 24.01.2020
258 Clouds 26 1015 83 10000 6.2 150 16:21 24.01.2020
259 Clouds 26 1015 83 10000 6.2 150 16:21 24.01.2020
260 Clouds 25 1012 88 10000 5.1 160 15:43 24.01.2020
261 Clouds 25 1012 88 10000 5.1 160 15:23 24.01.2020
262 Clouds 25 1011 88 10000 4.1 150 14:59 24.01.2020
263 Clouds 25 1011 88 10000 4.1 150 14:40 24.01.2020
264 Clouds 25 1011 88 10000 4.1 150 14:21 24.01.2020
265 Clouds 25 1010 88 10000 3.1 170 13:43 24.01.2020
266 Clouds 25 1010 88 10000 3.1 170 13:23 24.01.2020
267 Clouds 24 1012 85 0 3.38 164 12:44 24.01.2020
268 Clouds 24 1012 85 0 3.38 164 12:23 24.01.2020
269 Clouds 24 1012 85 0 3.38 164 11:57 24.01.2020
270 Clouds 24 1012 85 0 3.38 164 11:38 24.01.2020
271 Clouds 24 1011 87 0 4.12 190 11:18 24.01.2020
272 Clouds 24 1011 87 0 4.12 190 11:18 24.01.2020
273 Clouds 24 1011 87 0 4.12 190 10:41 24.01.2020
274 Clouds 24 1011 87 0 4.12 190 10:20 24.01.2020
275 Clouds 24 1011 87 0 4.12 190 09:42 24.01.2020
276 Clouds 24 1011 87 0 4.12 190 09:42 24.01.2020
277 Clouds 24 1011 87 0 4.12 190 09:24 24.01.2020
278 Clouds 24 1011 87 0 4.12 190 08:59 24.01.2020
279 Clouds 24 1011 87 0 4.12 190 08:38 24.01.2020
280 Clouds 24 1013 87 0 3.49 188 08:18 24.01.2020
281 Clouds 24 1013 87 0 3.49 188 07:43 24.01.2020
282 Clouds 24 1013 87 0 3.49 188 07:21 24.01.2020
283 Clouds 24 1013 87 0 3.49 188 06:43 24.01.2020
284 Clouds 24 1013 87 0 3.49 188 06:43 24.01.2020
285 Clouds 24 1013 87 0 3.49 188 06:23 24.01.2020
286 Clouds 24 1013 86 0 4.33 187 05:21 24.01.2020
287 Clouds 24 1013 86 0 4.33 187 03:29 24.01.2020
288 Clouds 24 1013 86 0 4.33 187 02:39 24.01.2020
289 Clouds 26 1009 83 10000 4.1 210 02:19 24.01.2020
290 Clouds 26 1009 83 10000 4.1 210 01:38 24.01.2020
291 Clouds 26 1008 83 10000 4.6 190 00:40 24.01.2020
292 Clouds 26 1008 83 10000 4.6 190 00:18 24.01.2020
293 Clouds 27 1008 78 10000 5.1 210 23:41 23.01.2020
294 Clouds 27 1008 78 10000 5.1 210 23:21 23.01.2020
295 Clouds 28 1008 74 10000 5.7 190 22:58 23.01.2020
296 Clouds 28 1008 74 10000 5.7 190 22:36 23.01.2020
297 Clouds 28 1008 74 10000 5.7 190 22:18 23.01.2020
298 Clouds 28 1009 74 10000 5.1 180 21:55 23.01.2020
299 Clouds 28 1009 74 10000 5.1 180 21:37 23.01.2020
300 Clouds 28 1009 74 10000 5.1 180 21:18 23.01.2020
301 Clouds 28 1010 74 10000 5.7 200 20:40 23.01.2020
302 Clouds 28 1010 74 10000 5.7 200 20:22 23.01.2020
303 Clouds 28 1011 78 10000 6.7 210 19:57 23.01.2020
304 Clouds 28 1011 78 10000 6.7 210 19:38 23.01.2020
305 Clouds 28 1011 78 10000 6.7 210 19:38 23.01.2020
306 Clouds 28 1011 78 10000 6.7 210 19:20 23.01.2020
307 Clouds 27 1012 78 10000 4.6 190 18:56 23.01.2020
308 Clouds 27 1012 78 10000 4.6 190 18:56 23.01.2020
309 Clouds 27 1012 78 10000 4.6 190 18:37 23.01.2020
310 Clouds 27 1012 78 10000 4.6 190 18:19 23.01.2020
311 Clouds 26 1013 83 10000 4.1 200 17:43 23.01.2020
312 Clouds 26 1013 83 10000 4.1 200 17:21 23.01.2020
313 Clouds 25 1012 88 10000 5.1 210 16:58 23.01.2020
314 Clouds 25 1012 88 10000 5.1 210 16:38 23.01.2020
315 Clouds 25 1012 88 10000 5.1 210 16:19 23.01.2020
316 Clouds 24 1012 94 10000 3.6 190 15:57 23.01.2020
317 Clouds 24 1012 94 10000 3.6 190 15:38 23.01.2020
318 Clouds 24 1012 94 10000 3.6 190 15:18 23.01.2020
319 Clouds 24 1012 94 10000 3.6 190 15:18 23.01.2020
320 Clouds 24 1011 94 10000 4.1 200 14:56 23.01.2020
321 Clouds 24 1011 94 10000 4.1 200 14:56 23.01.2020
322 Clouds 24 1011 94 10000 4.1 200 14:38 23.01.2020
323 Clouds 24 1011 94 10000 4.1 200 14:20 23.01.2020
324 Clouds 24 1010 94 0 4.1 190 13:45 23.01.2020
325 Clouds 24 1010 94 0 4.1 190 13:21 23.01.2020
326 Clouds 24 1013 85 0 5.61 189 12:55 23.01.2020
327 Clouds 24 1013 86 0 5.1 181 12:36 23.01.2020
328 Clouds 24 1013 85 0 5.61 189 12:18 23.01.2020
329 Clouds 24 1013 85 0 5.61 189 11:43 23.01.2020
330 Clouds 24 1013 85 0 5.61 189 11:24 23.01.2020
331 Clouds 24 1012 85 0 5.15 199 10:56 23.01.2020
332 Clouds 24 1012 85 0 5.15 199 10:38 23.01.2020
333 Clouds 24 1012 85 0 4.52 197 10:18 23.01.2020
334 Clouds 24 1012 85 0 5.15 199 09:40 23.01.2020
335 Clouds 24 1012 85 0 5.15 199 09:21 23.01.2020
336 Clouds 24 1012 85 0 5.15 199 08:43 23.01.2020
337 Clouds 24 1012 85 0 4.52 197 08:25 23.01.2020
338 Clouds 24 1014 85 0 4.43 196 07:51 23.01.2020
339 Clouds 24 1014 85 0 4.43 196 07:27 23.01.2020
340 Clouds 24 1014 85 0 4.43 196 06:55 23.01.2020
341 Clouds 24 1014 85 0 4.43 196 06:25 23.01.2020
342 Clouds 24 1014 85 0 4.43 196 05:59 23.01.2020
343 Clear 24 1014 85 0 4.81 201 04:25 23.01.2020
344 Clear 24 1014 85 0 4.81 201 02:48 23.01.2020
345 Clouds 26 1008 83 10000 4.6 210 01:50 23.01.2020
346 Clouds 26 1008 83 10000 5.7 200 00:29 23.01.2020
347 Clouds 27 1008 78 10000 5.1 190 23:57 22.01.2020
348 Clouds 27 1008 78 10000 5.1 190 23:39 22.01.2020
349 Clouds 27 1008 78 10000 5.1 190 23:20 22.01.2020
350 Clouds 28 1008 74 10000 6.2 190 22:42 22.01.2020
351 Clouds 28 1008 74 10000 6.2 190 22:23 22.01.2020
352 Clouds 29 1009 70 10000 6.2 200 21:56 22.01.2020
353 Clouds 29 1009 70 10000 6.2 200 21:36 22.01.2020
354 Clouds 29 1009 70 10000 6.2 200 21:18 22.01.2020
355 Clouds 28 1010 74 10000 6.7 190 20:41 22.01.2020
356 Clouds 28 1010 74 10000 6.7 190 20:23 22.01.2020
357 Clouds 28 1011 74 10000 4.6 190 19:58 22.01.2020
358 Clouds 28 1011 74 10000 4.6 190 19:39 22.01.2020
359 Clouds 28 1011 74 10000 4.6 190 19:19 22.01.2020
360 Clouds 28 1012 78 10000 5.7 220 18:57 22.01.2020
361 Clouds 28 1012 78 10000 5.7 220 18:38 22.01.2020
362 Clouds 28 1012 78 10000 5.7 220 18:20 22.01.2020
363 Clouds 27 1013 78 0 4.6 170 17:55 22.01.2020
364 Clouds 27 1013 78 0 4.6 170 17:55 22.01.2020
365 Clouds 27 1013 78 0 4.6 170 17:37 22.01.2020
366 Clouds 27 1013 78 0 4.6 170 17:19 22.01.2020
367 Clouds 27 1012 83 0 4.1 180 16:43 22.01.2020
368 Clouds 27 1012 83 0 4.1 180 16:23 22.01.2020
369 Clouds 25 1012 88 0 4.1 190 15:59 22.01.2020
370 Clouds 25 1012 88 0 4.1 190 15:40 22.01.2020
371 Clouds 25 1012 88 0 4.1 190 15:22 22.01.2020
372 Clouds 24 1011 88 10000 3.1 190 14:57 22.01.2020
373 Clouds 24 1011 88 10000 3.1 190 14:37 22.01.2020
374 Clouds 24 1011 88 10000 3.1 190 14:18 22.01.2020
375 Rain 24 1013 87 0 5.77 189 13:54 22.01.2020
376 Rain 24 1013 87 0 5.77 189 13:36 22.01.2020
377 Clouds 24 1013 84 0 6.18 196 13:18 22.01.2020
378 Clouds 24 1013 84 0 6.18 196 12:54 22.01.2020
379 Clouds 24 1013 84 0 6.18 196 12:36 22.01.2020
380 Clouds 24 1013 84 0 6.18 196 12:18 22.01.2020
381 Clouds 24 1013 84 0 6.18 196 12:18 22.01.2020
382 Clouds 24 1013 84 0 6.18 196 11:55 22.01.2020
383 Clouds 24 1013 84 0 6.18 196 11:36 22.01.2020
384 Clouds 24 1012 84 0 4.6 201 11:18 22.01.2020
385 Clouds 24 1012 84 0 4.6 201 10:42 22.01.2020
386 Clouds 24 1012 84 0 4.6 201 10:19 22.01.2020
387 Clouds 24 1012 84 0 4.6 201 09:43 22.01.2020
388 Clouds 24 1012 84 0 4.6 201 09:24 22.01.2020
389 Clouds 24 1012 84 0 4.6 201 08:57 22.01.2020
390 Clouds 24 1012 84 0 4.6 201 08:39 22.01.2020
391 Clouds 24 1014 86 0 3.84 212 08:20 22.01.2020
392 Clouds 24 1014 86 0 3.84 212 07:46 22.01.2020
393 Clouds 24 1014 86 0 3.84 212 07:28 22.01.2020
394 Clouds 24 1014 86 0 3.84 212 06:38 22.01.2020
395 Clouds 24 1014 86 0 3.84 212 06:20 22.01.2020
396 Clouds 25 1014 87 0 4.35 203 05:21 22.01.2020
397 Clouds 25 1014 87 0 4.35 203 03:30 22.01.2020
398 Clouds 25 1014 87 0 4.35 203 02:50 22.01.2020
399 Clouds 27 1009 78 10000 3.6 190 01:42 22.01.2020
400 Clouds 27 1009 78 10000 4.1 210 00:44 22.01.2020
401 Clouds 27 1009 78 10000 4.1 210 00:25 22.01.2020
402 Clouds 28 1009 74 10000 4.6 190 23:38 21.01.2020
403 Clouds 28 1009 74 10000 4.6 190 23:38 21.01.2020
404 Clouds 28 1009 74 10000 4.6 190 23:20 21.01.2020
405 Clouds 28 1010 74 10000 3.6 240 22:42 21.01.2020
406 Clouds 28 1010 74 10000 3.6 240 22:24 21.01.2020
407 Clouds 28 1010 74 10000 4.1 210 21:59 21.01.2020
408 Clouds 28 1010 74 10000 4.1 210 21:40 21.01.2020
409 Clouds 28 1010 74 10000 4.1 210 21:21 21.01.2020
410 Clouds 29 1012 74 10000 4.6 200 20:59 21.01.2020
411 Clouds 29 1012 74 10000 4.6 200 20:39 21.01.2020
412 Clouds 29 1012 74 10000 4.6 200 20:20 21.01.2020
413 Clouds 28 1012 78 10000 5.7 210 19:58 21.01.2020
414 Clouds 28 1012 78 10000 5.7 210 19:39 21.01.2020
415 Clouds 28 1012 78 10000 5.7 210 19:21 21.01.2020
416 Clouds 28 1013 78 10000 4.1 210 18:57 21.01.2020
417 Clouds 28 1013 78 10000 4.1 210 18:39 21.01.2020
418 Clouds 28 1013 78 10000 4.1 210 18:39 21.01.2020
419 Clouds 28 1013 78 10000 4.1 210 18:20 21.01.2020
420 Clouds 27 1013 83 10000 5.1 170 17:56 21.01.2020
421 Clouds 27 1013 83 10000 5.1 170 17:37 21.01.2020
422 Clouds 27 1013 83 10000 5.1 170 17:18 21.01.2020
423 Clouds 26 1013 88 10000 4.1 170 16:37 21.01.2020
424 Clouds 26 1013 88 10000 4.1 170 16:19 21.01.2020
425 Clouds 25 1013 94 10000 3.1 200 15:57 21.01.2020
426 Clouds 25 1013 94 10000 3.1 200 15:37 21.01.2020
427 Clouds 25 1013 94 10000 3.1 200 15:19 21.01.2020
428 Clouds 25 1012 94 10000 3.1 180 14:39 21.01.2020
429 Clouds 25 1012 94 10000 3.1 180 14:20 21.01.2020
430 Clouds 25 1011 94 10000 3.6 180 13:43 21.01.2020
431 Clouds 25 1011 94 10000 3.6 180 13:43 21.01.2020
432 Clouds 25 1011 94 10000 3.6 180 13:20 21.01.2020
433 Rain 24 1013 89 0 4.69 196 12:57 21.01.2020
434 Rain 24 1013 89 0 4.69 196 12:39 21.01.2020
435 Rain 24 1013 89 0 4.69 196 12:20 21.01.2020
436 Rain 24 1013 89 0 4.69 196 11:41 21.01.2020
437 Clouds 24 1012 89 0 4.74 198 11:22 21.01.2020
438 Clouds 24 1012 89 0 4.74 198 10:59 21.01.2020
439 Clouds 24 1012 89 0 4.74 198 10:40 21.01.2020
440 Clouds 24 1012 89 0 4.74 198 10:21 21.01.2020
441 Clouds 24 1012 89 0 4.74 198 09:42 21.01.2020
442 Clouds 24 1012 89 0 4.74 198 09:23 21.01.2020
443 Clouds 24 1012 89 0 4.74 198 08:55 21.01.2020
444 Clouds 24 1012 89 0 4.74 198 08:36 21.01.2020
445 Clouds 24 1012 89 0 4.74 198 08:36 21.01.2020
446 Clouds 25 1014 89 0 3.97 209 08:18 21.01.2020
447 Clouds 25 1014 89 0 3.7 213 07:41 21.01.2020
448 Clouds 25 1014 89 0 3.7 213 07:22 21.01.2020
449 Clouds 25 1014 89 0 3.7 213 06:49 21.01.2020
450 Clouds 25 1014 89 0 3.7 213 06:29 21.01.2020
451 Clouds 25 1014 89 0 3.7 213 05:42 21.01.2020
452 Clouds 25 1014 89 0 4.06 208 04:40 21.01.2020
453 Clouds 25 1014 89 0 4.06 208 02:57 21.01.2020
454 Clouds 26 1009 88 10000 3.1 190 01:55 21.01.2020
455 Clouds 26 1009 88 10000 3.1 190 01:18 21.01.2020
456 Clouds 27 1008 83 10000 3.6 180 00:37 21.01.2020
457 Clouds 27 1008 83 10000 4.1 200 23:59 20.01.2020
458 Clouds 27 1008 83 10000 4.1 200 23:38 20.01.2020
459 Clouds 27 1008 83 10000 4.1 200 23:19 20.01.2020
460 Clouds 28 1008 78 10000 5.1 210 22:56 20.01.2020
461 Clouds 28 1008 78 10000 5.1 210 22:37 20.01.2020
462 Clouds 28 1008 78 10000 5.1 210 22:37 20.01.2020
463 Clouds 28 1008 78 10000 5.1 210 22:19 20.01.2020
464 Clouds 28 1009 78 10000 5.7 200 21:57 20.01.2020
465 Clouds 28 1009 78 10000 5.7 200 21:37 20.01.2020
466 Clouds 28 1009 78 10000 5.7 200 21:37 20.01.2020
467 Clouds 28 1009 78 10000 5.7 200 21:18 20.01.2020
468 Clouds 29 1010 70 10000 4.1 200 20:55 20.01.2020
469 Clouds 29 1010 70 10000 4.1 200 20:36 20.01.2020
470 Clouds 29 1010 70 10000 4.1 200 20:18 20.01.2020
471 Clouds 29 1010 70 10000 4.1 200 20:18 20.01.2020
472 Clouds 28 1011 78 10000 6.2 180 19:56 20.01.2020
473 Clouds 28 1011 78 10000 6.2 180 19:37 20.01.2020
474 Clouds 28 1011 78 10000 6.2 180 19:18 20.01.2020
475 Clouds 28 1011 78 10000 5.7 190 18:42 20.01.2020
476 Clouds 28 1011 78 10000 5.7 190 18:21 20.01.2020
477 Clouds 27 1011 83 10000 6.2 160 17:40 20.01.2020
478 Clouds 27 1011 83 10000 6.2 160 17:19 20.01.2020
479 Clouds 27 1010 78 10000 7.7 160 16:58 20.01.2020
480 Clouds 27 1010 78 10000 7.7 160 16:37 20.01.2020
481 Clouds 27 1010 78 10000 7.7 160 16:18 20.01.2020
482 Clouds 27 1010 78 10000 7.7 160 16:18 20.01.2020
483 Clouds 26 1010 88 10000 7.7 160 15:41 20.01.2020
484 Clouds 26 1010 88 10000 7.7 160 15:22 20.01.2020
485 Clouds 25 1009 88 10000 4.6 170 15:00 20.01.2020
486 Clouds 25 1009 88 10000 4.6 170 14:41 20.01.2020
487 Clouds 25 1009 88 10000 4.6 170 14:21 20.01.2020
488 Clouds 25 1008 88 10000 4.1 160 13:57 20.01.2020
489 Clouds 25 1008 88 10000 4.1 160 13:38 20.01.2020
490 Clouds 25 1008 88 10000 4.1 160 13:20 20.01.2020
491 Rain 25 1012 91 0 5.44 171 12:44 20.01.2020
492 Rain 25 1012 91 0 5.44 171 12:25 20.01.2020
493 Rain 25 1012 91 0 5.44 171 12:25 20.01.2020
494 Rain 25 1012 91 0 5.44 171 11:56 20.01.2020
495 Rain 25 1012 91 0 5.44 171 11:37 20.01.2020
496 Rain 24 1011 91 0 2.82 195 11:18 20.01.2020
497 Rain 24 1011 91 0 2.82 195 10:46 20.01.2020
498 Rain 24 1011 91 0 2.82 195 10:21 20.01.2020
499 Rain 24 1011 91 0 2.82 195 09:42 20.01.2020
500 Rain 24 1011 91 0 2.82 195 09:24 20.01.2020
501 Rain 24 1011 91 0 2.82 195 08:56 20.01.2020
502 Rain 24 1011 91 0 2.82 195 08:35 20.01.2020
503 Rain 25 1012 92 0 4.56 188 07:59 20.01.2020
504 Rain 25 1012 92 0 4.56 188 07:41 20.01.2020
505 Rain 25 1012 92 0 4.56 188 07:21 20.01.2020
506 Rain 25 1012 92 0 4.56 188 06:44 20.01.2020
507 Rain 25 1012 92 0 4.56 188 06:22 20.01.2020
508 Rain 25 1012 92 0 4.56 188 05:38 20.01.2020
509 Rain 25 1012 91 0 5.31 186 05:19 20.01.2020
510 Rain 25 1012 91 0 5.31 186 04:23 20.01.2020
511 Rain 25 1007 94 10000 5.1 170 01:58 20.01.2020
512 Rain 25 1007 94 10000 5.1 170 01:39 20.01.2020
513 Clouds 26 1006 83 10000 6.2 160 00:56 20.01.2020
514 Clouds 26 1006 83 10000 6.2 160 00:38 20.01.2020
515 Clouds 26 1006 83 10000 6.2 160 00:38 20.01.2020
516 Clouds 26 1006 83 10000 6.2 160 00:20 20.01.2020
517 Clouds 27 1006 83 10000 7.2 170 23:38 19.01.2020
518 Clouds 27 1006 83 10000 7.2 170 23:18 19.01.2020
519 Rain 24 1009 93 0 4.66 175 22:55 19.01.2020
520 Rain 24 1009 93 0 4.66 175 22:37 19.01.2020
521 Clouds 27 1007 83 10000 7.2 160 22:19 19.01.2020
522 Clouds 27 1007 83 10000 7.2 160 21:56 19.01.2020
523 Clouds 27 1007 83 10000 7.2 160 21:37 19.01.2020
524 Clouds 27 1007 83 10000 7.2 160 21:19 19.01.2020
525 Clouds 28 1007 78 10000 7.7 180 20:56 19.01.2020
526 Clouds 28 1007 78 10000 7.7 180 20:37 19.01.2020
527 Clouds 28 1007 78 10000 7.7 180 20:19 19.01.2020
528 Clouds 27 1008 83 10000 6.7 170 19:55 19.01.2020
529 Clouds 27 1008 83 10000 6.7 170 19:37 19.01.2020
530 Clouds 27 1008 83 10000 6.7 170 19:19 19.01.2020
531 Clouds 27 1009 83 10000 6.2 180 18:55 19.01.2020
532 Clouds 27 1009 83 10000 6.2 180 18:55 19.01.2020
533 Clouds 27 1009 83 10000 6.2 180 18:36 19.01.2020
534 Clouds 27 1009 83 10000 6.2 180 18:18 19.01.2020
535 Rain 26 1009 88 10000 6.2 160 17:56 19.01.2020
536 Rain 26 1009 88 10000 6.2 160 17:38 19.01.2020
537 Rain 26 1009 88 10000 6.2 160 17:18 19.01.2020
538 Rain 25 1009 94 8000 5.1 170 16:55 19.01.2020
539 Rain 25 1009 94 8000 5.1 170 16:36 19.01.2020
540 Rain 25 1009 94 8000 5.1 170 16:18 19.01.2020
541 Rain 24 1009 100 6000 5.1 180 15:41 19.01.2020
542 Rain 24 1009 100 6000 5.1 180 15:22 19.01.2020
543 Rain 24 1008 100 5000 4.1 170 14:59 19.01.2020
544 Rain 24 1008 100 5000 4.1 170 14:40 19.01.2020
545 Rain 24 1008 100 5000 4.1 170 14:20 19.01.2020
546 Rain 24 1007 100 5000 6.2 170 13:58 19.01.2020
547 Rain 24 1007 100 5000 6.2 170 13:39 19.01.2020
548 Rain 24 1007 100 5000 6.2 170 13:21 19.01.2020
549 Rain 24 1010 92 0 5.18 183 12:58 19.01.2020
550 Rain 24 1010 92 0 5.18 183 12:58 19.01.2020
551 Rain 24 1010 92 0 5.18 183 12:40 19.01.2020
552 Rain 24 1010 92 0 5.18 183 12:40 19.01.2020
553 Rain 24 1010 92 0 5.18 183 12:21 19.01.2020
554 Rain 24 1010 92 0 5.18 183 11:56 19.01.2020
555 Rain 24 1010 92 0 5.18 183 11:37 19.01.2020
556 Rain 24 1009 93 0 4.61 180 11:18 19.01.2020
557 Rain 24 1009 93 0 4.61 180 10:39 19.01.2020
558 Rain 24 1009 93 0 4.61 180 10:39 19.01.2020
559 Rain 24 1009 93 0 4.61 180 10:20 19.01.2020
560 Rain 24 1009 93 0 4.61 180 09:57 19.01.2020
561 Rain 24 1009 93 0 4.61 180 09:57 19.01.2020
562 Rain 24 1009 93 0 4.61 180 09:38 19.01.2020
563 Rain 24 1009 93 0 4.61 180 09:19 19.01.2020
564 Rain 24 1009 93 0 4.61 180 08:55 19.01.2020
565 Rain 24 1009 93 0 4.61 180 08:32 19.01.2020
566 Clouds 24 1010 92 0 4.07 167 07:54 19.01.2020
567 Clouds 24 1010 92 0 4.07 167 07:28 19.01.2020
568 Clouds 24 1010 92 0 4.07 167 06:55 19.01.2020
569 Clouds 24 1010 92 0 4.07 167 06:21 19.01.2020
570 Clouds 25 1010 91 0 3.96 166 03:52 19.01.2020
571 Rain 25 1005 94 6000 5.1 170 02:32 19.01.2020
572 Rain 25 1005 94 6000 5.1 170 01:39 19.01.2020
573 Rain 25 1005 94 6000 5.1 170 01:18 19.01.2020
574 Rain 25 1008 89 0 4.16 154 00:41 19.01.2020
575 Rain 25 1008 89 0 4.16 154 00:41 19.01.2020
576 Rain 26 1005 88 10000 6.7 170 00:19 19.01.2020
577 Rain 26 1005 88 10000 6.7 170 23:42 18.01.2020
578 Rain 26 1005 88 10000 6.7 170 23:24 18.01.2020
579 Clouds 27 1005 83 10000 6.7 160 22:56 18.01.2020
580 Clouds 27 1005 83 10000 6.7 160 22:38 18.01.2020
581 Clouds 27 1005 83 10000 6.7 160 22:20 18.01.2020
582 Clouds 28 1006 78 10000 6.2 190 21:57 18.01.2020
583 Clouds 28 1006 78 10000 6.2 190 21:38 18.01.2020
584 Clouds 28 1006 78 10000 6.2 190 21:20 18.01.2020
585 Clouds 28 1006 78 10000 6.7 190 20:44 18.01.2020
586 Clouds 28 1006 78 10000 6.7 190 20:21 18.01.2020
587 Clouds 28 1007 78 10000 6.2 190 19:59 18.01.2020
588 Clouds 28 1007 78 10000 6.2 190 19:59 18.01.2020
589 Clouds 28 1007 78 10000 6.2 190 19:41 18.01.2020
590 Clouds 28 1007 78 10000 6.2 190 19:22 18.01.2020
591 Clouds 28 1008 78 10000 6.2 180 18:42 18.01.2020
592 Clouds 28 1008 78 10000 6.2 180 18:22 18.01.2020
593 Clouds 27 1009 83 10000 6.2 160 17:56 18.01.2020
594 Clouds 27 1009 83 10000 6.2 160 17:37 18.01.2020
595 Clouds 27 1009 83 10000 6.2 160 17:19 18.01.2020
596 Clouds 27 1009 78 10000 5.1 170 16:55 18.01.2020
597 Clouds 27 1009 78 10000 5.1 170 16:36 18.01.2020
598 Clouds 27 1009 78 10000 5.1 170 16:18 18.01.2020
599 Clouds 25 1008 88 10000 4.1 170 15:41 18.01.2020
600 -273 0 0 0 0 0 15:23 18.01.2020
601 Clouds 25 1007 88 10000 4.1 150 14:55 18.01.2020
602 Clouds 25 1007 88 10000 4.1 150 14:37 18.01.2020
603 Clouds 25 1007 88 10000 4.1 150 14:18 18.01.2020
604 Clouds 25 1007 88 10000 4.6 170 13:43 18.01.2020
605 Clouds 25 1007 88 10000 4.6 170 13:24 18.01.2020
606 Clouds 24 1010 90 0 3.06 163 12:56 18.01.2020
607 Clouds 24 1010 90 0 3.06 163 12:38 18.01.2020
608 Clouds 24 1010 90 0 3.06 163 12:19 18.01.2020
609 Clouds 24 1010 90 0 3.06 163 11:44 18.01.2020
610 Clouds 24 1009 92 0 2.79 160 11:21 18.01.2020
611 Clouds 24 1009 92 0 2.79 160 10:54 18.01.2020
612 Clouds 24 1009 92 0 2.79 160 10:36 18.01.2020
613 Clouds 24 1009 92 0 2.79 160 10:18 18.01.2020
614 Clouds 24 1009 92 0 2.79 160 09:42 18.01.2020
615 Clouds 24 1009 92 0 2.79 160 09:20 18.01.2020
616 Clouds 24 1009 92 0 2.79 160 08:55 18.01.2020
617 Clouds 24 1009 92 0 2.79 160 08:36 18.01.2020
618 Clouds 24 1010 93 0 2.91 159 08:18 18.01.2020
619 Clouds 24 1010 93 0 2.91 159 07:40 18.01.2020
620 Clouds 24 1010 93 0 2.91 159 07:20 18.01.2020
621 Clouds 24 1010 93 0 2.91 159 06:45 18.01.2020
622 Clouds 24 1010 93 0 2.91 159 05:52 18.01.2020
623 Clouds 24 1010 91 0 2.51 175 04:25 18.01.2020
624 Clouds 24 1010 91 0 2.51 175 02:49 18.01.2020
625 Clouds 26 1004 83 10000 6.2 170 01:40 18.01.2020
626 Clouds 27 1004 83 10000 7.2 170 00:39 18.01.2020
627 Clouds 27 1004 83 10000 7.2 170 00:20 18.01.2020
628 Clouds 27 1004 83 10000 6.7 190 23:58 17.01.2020
629 Clouds 27 1004 83 10000 6.7 190 23:39 17.01.2020
630 Clouds 27 1004 83 10000 6.7 190 23:18 17.01.2020
631 Clouds 27 1005 83 10000 6.7 170 22:41 17.01.2020
632 Clouds 27 1005 83 10000 6.7 170 22:20 17.01.2020
633 Rain 26 1005 88 10000 6.2 170 21:56 17.01.2020
634 Rain 26 1005 88 10000 6.2 170 21:37 17.01.2020
635 Rain 26 1005 88 10000 6.2 170 21:19 17.01.2020
636 Clouds 27 1006 78 10000 7.2 170 20:43 17.01.2020
637 Clouds 27 1006 78 10000 7.2 170 20:21 17.01.2020
638 Clouds 28 1007 74 10000 7.7 160 19:58 17.01.2020
639 Clouds 28 1007 74 10000 7.7 160 19:38 17.01.2020
640 Clouds 28 1007 74 10000 7.7 160 19:20 17.01.2020
641 Clouds 25 1009 88 0 5.2 138 18:58 17.01.2020
642 Clouds 25 1009 88 0 5.2 138 18:58 17.01.2020
643 Clouds 25 1009 88 0 5.2 138 18:38 17.01.2020
644 Clouds 27 1008 83 10000 7.2 170 18:20 17.01.2020
645 Clouds 27 1008 83 10000 7.2 170 17:40 17.01.2020
646 Clouds 27 1008 83 10000 7.2 170 17:21 17.01.2020
647 Clouds 25 1008 88 10000 7.2 150 16:57 17.01.2020
648 Clouds 25 1008 88 10000 7.2 150 16:57 17.01.2020
649 Clouds 25 1008 88 10000 7.2 150 16:38 17.01.2020
650 Clouds 25 1008 88 10000 7.2 150 16:18 17.01.2020
651 Rain 25 1007 88 8000 5.1 130 15:44 17.01.2020
652 Rain 25 1007 88 8000 5.1 130 15:26 17.01.2020
653 Rain 24 1007 100 8000 4.6 150 14:44 17.01.2020
654 Rain 24 1007 100 8000 4.6 150 14:26 17.01.2020
655 Rain 24 1006 100 3000 4.1 130 13:58 17.01.2020
656 Rain 24 1006 100 3000 4.1 130 13:37 17.01.2020
657 Rain 24 1006 100 3000 4.1 130 13:18 17.01.2020
658 Rain 24 1006 100 3000 4.1 130 13:18 17.01.2020
659 Rain 25 1009 88 0 4.75 125 12:42 17.01.2020
660 Rain 25 1009 88 0 4.75 125 12:42 17.01.2020
661 Rain 25 1009 88 0 4.75 125 12:21 17.01.2020
662 Rain 25 1009 88 0 4.75 125 11:38 17.01.2020
663 Clouds 24 1008 89 0 4.2 134 11:18 17.01.2020
664 Clouds 24 1008 89 0 4.2 134 10:43 17.01.2020
665 Clouds 24 1008 89 0 4.2 134 10:23 17.01.2020
666 Clouds 24 1008 89 0 4.2 134 09:58 17.01.2020
667 Clouds 24 1008 89 0 4.2 134 09:38 17.01.2020
668 Clouds 24 1008 89 0 4.2 134 09:19 17.01.2020
669 Clouds 24 1008 89 0 4.2 134 08:43 17.01.2020
670 Clouds 24 1008 89 0 4.2 134 08:24 17.01.2020
671 Clouds 24 1010 90 0 4.36 143 07:53 17.01.2020
672 Clouds 24 1010 90 0 4.36 143 07:31 17.01.2020
673 Clouds 24 1010 90 0 4.36 143 06:57 17.01.2020
674 Clouds 24 1010 90 0 4.36 143 06:38 17.01.2020
675 Clouds 24 1010 90 0 4.36 143 05:28 17.01.2020
676 Clouds 25 1010 90 0 4.82 147 03:39 17.01.2020
677 Clouds 25 1010 90 0 4.82 147 02:45 17.01.2020
678 Clouds 25 1007 88 0 4.62 148 01:46 17.01.2020
679 Clouds 25 1007 88 0 4.62 148 01:27 17.01.2020
680 Clouds 24 1008 89 0 4.3 152 00:44 17.01.2020
681 Clouds 27 1004 78 10000 7.7 160 00:20 17.01.2020
682 Clouds 27 1004 78 10000 7.7 160 23:42 16.01.2020
683 Clouds 27 1004 78 10000 7.7 160 23:24 16.01.2020
684 Clouds 27 1005 78 10000 6.7 160 22:43 16.01.2020
685 Clouds 27 1005 78 10000 6.7 160 22:22 16.01.2020
686 Clouds 27 1006 78 10000 7.7 140 21:57 16.01.2020
687 Clouds 27 1006 78 10000 7.7 140 21:39 16.01.2020
688 Clouds 27 1006 78 10000 7.7 140 21:19 16.01.2020
689 Clouds 27 1007 83 10000 7.7 160 20:59 16.01.2020
690 Clouds 27 1007 83 10000 7.7 160 20:39 16.01.2020
691 Clouds 27 1007 83 10000 7.7 160 20:20 16.01.2020
692 Clouds 27 1007 83 10000 7.7 150 19:56 16.01.2020
693 Clouds 27 1007 83 10000 7.7 150 19:38 16.01.2020
694 Clouds 27 1007 83 10000 7.7 150 19:38 16.01.2020
695 Clouds 27 1007 83 10000 7.7 150 19:19 16.01.2020
696 Clouds 27 1008 83 10000 8.2 160 18:55 16.01.2020
697 Clouds 27 1008 83 10000 8.2 160 18:37 16.01.2020
698 Clouds 27 1008 83 10000 8.2 160 18:37 16.01.2020
699 Clouds 27 1008 83 10000 8.2 160 18:18 16.01.2020
700 Clouds 25 1008 88 10000 7.7 160 17:42 16.01.2020
701 Clouds 25 1008 88 10000 7.7 160 17:23 16.01.2020
702 Rain 25 1008 94 8000 7.2 150 16:57 16.01.2020
703 Rain 25 1008 94 8000 7.2 150 16:39 16.01.2020
704 Rain 25 1008 94 8000 7.2 150 16:19 16.01.2020
705 Rain 25 1007 94 8000 6.7 150 15:44 16.01.2020
706 Rain 25 1007 94 8000 6.7 150 15:23 16.01.2020
707 Rain 25 1011 88 0 4.87 153 14:57 16.01.2020
708 Rain 25 1011 88 0 4.87 153 14:57 16.01.2020
709 Rain 25 1011 88 0 4.87 153 14:39 16.01.2020
710 Clouds 24 1008 89 0 6.82 157 14:20 16.01.2020
711 Clouds 24 1006 94 10000 6.7 150 13:45 16.01.2020
712 Clouds 24 1006 94 10000 6.7 150 13:26 16.01.2020
713 Rain 25 1009 89 0 6.25 152 12:47 16.01.2020
714 Rain 25 1009 89 0 6.25 152 12:29 16.01.2020
715 Rain 25 1009 89 0 6.25 152 12:29 16.01.2020
716 Rain 25 1009 89 0 6.25 152 11:59 16.01.2020
717 Rain 25 1009 89 0 6.25 152 11:41 16.01.2020
718 Rain 25 1009 89 0 6.25 152 11:23 16.01.2020
719 Rain 25 1008 89 0 5.98 148 10:55 16.01.2020
720 Rain 25 1008 89 0 5.98 148 10:36 16.01.2020
721 Rain 25 1008 89 0 5.98 148 10:18 16.01.2020
722 Rain 25 1008 89 0 5.98 148 09:41 16.01.2020
723 Rain 25 1008 89 0 5.98 148 09:23 16.01.2020
724 Rain 25 1008 89 0 5.98 148 08:55 16.01.2020
725 Rain 25 1008 89 0 5.98 148 08:36 16.01.2020
726 Rain 25 1009 90 0 5.65 140 07:59 16.01.2020
727 Rain 25 1009 90 0 5.65 140 07:41 16.01.2020
728 Rain 25 1009 90 0 5.65 140 07:23 16.01.2020
729 Rain 25 1009 90 0 5.65 140 06:45 16.01.2020
730 Rain 25 1009 90 0 5.65 140 06:22 16.01.2020
731 Rain 25 1009 90 0 5.65 140 05:46 16.01.2020
732 Clouds 25 1010 91 0 4.23 152 04:46 16.01.2020
733 Clouds 25 1010 91 0 4.23 152 03:28 16.01.2020
734 Clouds 25 1010 91 0 4.23 152 02:43 16.01.2020
735 Clouds 25 1005 83 10000 6.2 160 01:24 16.01.2020
736 Clouds 26 1005 88 10000 6.2 180 00:25 16.01.2020
737 Rain 26 1005 88 8000 6.7 160 23:56 15.01.2020
738 Rain 26 1005 88 8000 6.7 160 23:38 15.01.2020
739 Rain 26 1005 88 8000 6.7 160 23:18 15.01.2020
740 Clouds 27 1005 83 10000 6.7 160 22:42 15.01.2020
741 Clouds 27 1005 83 10000 6.7 160 22:20 15.01.2020
742 Clouds 27 1006 83 10000 6.2 150 21:59 15.01.2020
743 Clouds 27 1006 83 10000 6.2 150 21:40 15.01.2020
744 Clouds 27 1006 83 10000 6.2 150 21:22 15.01.2020
745 Clouds 25 1007 88 0 5.38 153 20:58 15.01.2020
746 Clouds 25 1007 88 0 5.38 153 20:40 15.01.2020
747 Clouds 28 1008 78 10000 7.2 150 20:22 15.01.2020
748 Clouds 28 1008 78 10000 7.2 150 19:57 15.01.2020
749 Clouds 28 1008 78 10000 7.2 150 19:38 15.01.2020
750 Clouds 28 1008 78 10000 7.2 150 19:20 15.01.2020
751 Clouds 28 1008 78 10000 7.2 150 19:20 15.01.2020
752 Clouds 28 1008 78 10000 7.7 160 18:57 15.01.2020
753 Clouds 28 1008 78 10000 7.7 160 18:57 15.01.2020
754 Clouds 28 1008 78 10000 7.7 160 18:38 15.01.2020
755 Clouds 28 1008 78 10000 7.7 160 18:20 15.01.2020
756 Clouds 26 1008 88 10000 6.2 160 17:58 15.01.2020
757 Clouds 26 1008 88 10000 6.2 160 17:40 15.01.2020
758 Clouds 26 1008 88 10000 6.2 160 17:21 15.01.2020
759 Rain 25 1008 94 8000 6.2 160 16:55 15.01.2020
760 Rain 25 1008 94 8000 6.2 160 16:55 15.01.2020
761 Rain 25 1008 94 8000 6.2 160 16:36 15.01.2020
762 Rain 25 1008 94 8000 6.2 160 16:18 15.01.2020
763 Rain 25 1008 88 8000 6.7 150 15:42 15.01.2020
764 Rain 25 1008 88 8000 6.7 150 15:20 15.01.2020
765 Clouds 25 1007 88 10000 6.2 160 14:45 15.01.2020
766 Clouds 25 1007 88 10000 6.2 160 14:23 15.01.2020
767 Clouds 24 1006 94 10000 5.7 160 13:58 15.01.2020
768 Clouds 24 1006 94 10000 5.7 160 13:40 15.01.2020
769 Clouds 24 1006 94 10000 5.7 160 13:40 15.01.2020
770 Clouds 24 1006 94 10000 5.7 160 13:22 15.01.2020
771 Clouds 25 1008 88 0 6.21 165 12:55 15.01.2020
772 Clouds 25 1008 88 0 6.21 165 12:36 15.01.2020
773 Clouds 25 1008 88 0 6.21 165 12:18 15.01.2020
774 Clouds 25 1008 88 0 6.21 165 11:38 15.01.2020
775 Clouds 25 1008 87 0 5.28 162 11:20 15.01.2020
776 Clouds 25 1008 87 0 5.28 162 10:47 15.01.2020
777 Clouds 25 1008 87 0 5.28 162 10:28 15.01.2020
778 Clouds 25 1008 87 0 5.28 162 09:57 15.01.2020
779 Clouds 25 1008 87 0 5.28 162 09:57 15.01.2020
780 Clouds 25 1008 87 0 5.28 162 09:38 15.01.2020
781 Clouds 25 1008 87 0 5.28 162 09:19 15.01.2020
782 Clouds 25 1008 87 0 5.28 162 08:44 15.01.2020
783 Clouds 25 1008 87 0 5.28 162 08:23 15.01.2020
784 Clouds 25 1010 88 0 5.57 151 07:54 15.01.2020
785 Clouds 25 1010 88 0 5.57 151 07:32 15.01.2020
786 Clouds 25 1010 88 0 5.57 151 06:48 15.01.2020
787 Clouds 25 1010 88 0 5.57 151 06:23 15.01.2020
788 Clouds 25 1010 89 0 4.76 155 04:45 15.01.2020
789 Clouds 25 1010 89 0 4.76 155 02:39 15.01.2020
790 Clouds 25 1005 88 10000 5.7 160 01:28 15.01.2020
791 Clouds 25 1005 88 10000 5.7 160 01:28 15.01.2020
792 Rain 25 1004 94 10000 5.7 160 00:59 15.01.2020
793 Rain 25 1004 94 10000 5.7 160 00:59 15.01.2020
794 Rain 25 1004 94 10000 5.7 160 00:36 15.01.2020
795 Rain 25 1004 94 10000 5.7 160 00:18 15.01.2020
796 Clouds 26 1004 83 10000 6.7 170 23:45 14.01.2020
797 Clouds 26 1004 83 10000 6.7 170 23:24 14.01.2020
798 Clouds 25 1007 87 0 6.24 160 22:41 14.01.2020
799 Clouds 28 1005 78 10000 7.2 180 22:20 14.01.2020
800 Clouds 28 1005 78 10000 7.2 180 21:59 14.01.2020
801 Clouds 28 1005 78 10000 7.2 180 21:41 14.01.2020
802 Clouds 28 1005 78 10000 7.2 180 21:22 14.01.2020
803 Clouds 28 1005 78 10000 7.2 170 20:59 14.01.2020
804 Clouds 25 1007 87 0 6.24 160 20:40 14.01.2020
805 Clouds 28 1007 78 10000 6.7 170 20:20 14.01.2020
806 Clouds 28 1007 78 10000 6.7 170 19:56 14.01.2020
807 Clouds 28 1007 78 10000 6.7 170 19:38 14.01.2020
808 Clouds 28 1007 78 10000 6.7 170 19:19 14.01.2020
809 Clouds 27 1007 83 10000 6.7 150 18:56 14.01.2020
810 Rain 25 1009 88 0 6.8 147 18:37 14.01.2020
811 Clouds 27 1008 83 10000 7.2 160 18:18 14.01.2020
812 Clouds 27 1008 83 10000 7.2 160 17:38 14.01.2020
813 Clouds 27 1008 83 10000 7.2 160 17:19 14.01.2020
814 Clouds 26 1008 88 10000 6.2 150 16:55 14.01.2020
815 Clouds 26 1008 88 10000 6.2 150 16:37 14.01.2020
816 Clouds 26 1008 88 10000 6.2 150 16:19 14.01.2020
817 Clouds 25 1007 88 10000 6.2 160 15:43 14.01.2020
818 Clouds 25 1007 88 10000 6.2 160 15:19 14.01.2020
819 Rain 24 1006 94 8000 5.1 160 14:47 14.01.2020
820 Rain 24 1006 94 8000 5.1 160 14:23 14.01.2020
821 Rain 25 1008 87 0 4.6 154 13:59 14.01.2020
822 Rain 23 1006 100 5000 4.6 170 13:40 14.01.2020
823 Rain 23 1006 100 5000 4.6 170 13:19 14.01.2020
824 Rain 25 1009 86 0 4.43 149 12:42 14.01.2020
825 Rain 25 1009 86 0 4.43 149 12:23 14.01.2020
826 Rain 25 1009 86 0 4.43 149 11:57 14.01.2020
827 Rain 25 1009 86 0 4.43 149 11:38 14.01.2020
828 Rain 25 1008 87 0 3.73 158 11:20 14.01.2020
829 Rain 25 1008 87 0 3.73 158 10:55 14.01.2020
830 Rain 25 1008 87 0 3.73 158 10:36 14.01.2020
831 Rain 25 1008 87 0 3.73 158 10:18 14.01.2020
832 Rain 25 1008 87 0 3.73 158 10:18 14.01.2020
833 Rain 25 1008 87 0 3.73 158 09:42 14.01.2020
834 Rain 25 1008 87 0 3.73 158 09:22 14.01.2020
835 Rain 25 1008 87 0 3.73 158 08:57 14.01.2020
836 Rain 25 1008 87 0 3.73 158 08:39 14.01.2020
837 Clear 25 1011 86 0 4.41 177 08:20 14.01.2020
838 Clear 25 1011 86 0 4.41 177 07:38 14.01.2020
839 Clear 25 1011 86 0 4.41 177 06:59 14.01.2020
840 Clear 25 1011 86 0 4.41 177 06:40 14.01.2020
841 Clear 25 1011 86 0 4.41 177 05:33 14.01.2020
842 Clouds 25 1011 84 0 4.68 167 04:22 14.01.2020
843 Clouds 25 1011 84 0 4.68 167 03:35 14.01.2020
844 Clouds 25 1006 88 10000 5.1 160 02:26 14.01.2020
845 Clouds 25 1006 88 10000 5.1 160 01:18 14.01.2020
846 Clouds 26 1005 83 10000 6.2 170 00:38 14.01.2020
847 Clouds 25 1009 82 0 4.36 165 23:59 13.01.2020
848 Clouds 25 1009 82 0 4.36 165 23:37 13.01.2020
849 Clouds 28 1006 74 10000 5.7 180 23:18 13.01.2020
850 Clouds 28 1006 74 10000 5.7 180 22:43 13.01.2020
851 Clouds 28 1006 74 10000 5.7 180 22:22 13.01.2020
852 Clouds 28 1006 74 10000 5.7 180 22:22 13.01.2020
853 Clouds 27 1007 78 10000 5.1 170 21:58 13.01.2020
854 Clouds 27 1007 78 10000 5.1 170 21:58 13.01.2020
855 Clouds 27 1007 78 10000 5.1 170 21:38 13.01.2020
856 Clouds 27 1007 78 10000 5.1 170 21:19 13.01.2020
857 Clouds 25 1008 81 0 4.4 153 20:59 13.01.2020
858 Clouds 25 1008 81 0 4.4 153 20:59 13.01.2020
859 Clouds 25 1008 81 0 4.4 153 20:59 13.01.2020
860 Clouds 25 1008 81 0 4.4 153 20:41 13.01.2020
861 Clouds 25 1008 81 0 4.23 152 20:22 13.01.2020
862 Clouds 25 1008 81 0 4.23 152 20:22 13.01.2020
863 Clouds 25 1010 82 0 4.75 148 19:59 13.01.2020
864 Clouds 25 1010 82 0 4.75 148 19:39 13.01.2020
865 Clouds 25 1010 82 0 4.75 148 19:20 13.01.2020
866 Clouds 25 1010 82 0 4.75 148 19:20 13.01.2020
867 Clouds 26 1008 83 10000 4.1 180 18:56 13.01.2020
868 Clouds 26 1008 83 10000 4.1 180 18:37 13.01.2020
869 Clouds 26 1008 83 10000 4.1 180 18:18 13.01.2020
870 Clouds 26 1009 83 10000 4.1 180 17:43 13.01.2020
871 Clouds 26 1009 83 10000 4.1 180 17:24 13.01.2020
872 Clouds 26 1009 83 10000 4.1 180 17:24 13.01.2020
873 Clouds 26 1009 83 10000 4.1 180 16:57 13.01.2020
874 Clouds 25 1012 82 0 5.07 143 16:38 13.01.2020
875 Clouds 25 1012 82 0 5.07 143 16:20 13.01.2020
876 Clouds 25 1012 82 0 5.07 143 15:44 13.01.2020
877 Clouds 25 1012 82 0 5.07 143 15:24 13.01.2020
878 Clouds 25 1012 82 0 5.07 143 14:58 13.01.2020
879 Clouds 25 1012 82 0 5.07 143 14:38 13.01.2020
880 Clouds 24 1009 82 0 4.98 149 14:20 13.01.2020
881 Clouds 24 1009 82 0 4.98 149 13:43 13.01.2020
882 Clouds 24 1009 82 0 4.98 149 13:43 13.01.2020
883 Clouds 24 1009 82 0 4.98 149 13:25 13.01.2020
884 Clouds 24 1010 82 0 4.92 145 12:59 13.01.2020
885 Clouds 24 1010 82 0 4.92 145 12:41 13.01.2020
886 Clouds 24 1010 82 0 4.92 145 12:23 13.01.2020
887 Clouds 24 1010 82 0 4.92 145 11:57 13.01.2020
888 Clouds 24 1010 82 0 4.92 145 11:37 13.01.2020
889 Clouds 24 1008 80 0 4.75 148 11:19 13.01.2020
890 Clouds 24 1008 80 0 4.75 148 10:55 13.01.2020
891 Clouds 24 1008 80 0 4.75 148 10:37 13.01.2020
892 Clouds 24 1008 80 0 4.75 148 10:19 13.01.2020
893 Clouds 24 1008 80 0 4.75 148 09:42 13.01.2020
894 Clouds 24 1008 80 0 4.75 148 09:23 13.01.2020
895 Clouds 24 1008 80 0 4.75 148 08:44 13.01.2020
896 Clouds 24 1010 79 0 3.99 136 08:22 13.01.2020
897 Clouds 24 1010 79 0 3.99 136 07:59 13.01.2020
898 Clouds 24 1010 79 0 3.99 136 07:41 13.01.2020
899 Clouds 24 1010 79 0 3.99 136 07:19 13.01.2020
900 Clouds 24 1010 79 0 3.99 136 06:37 13.01.2020
901 Clouds 24 1010 79 0 3.99 136 06:37 13.01.2020
902 Clouds 24 1010 79 0 3.99 136 05:36 13.01.2020
903 Clouds 24 1010 79 0 4.3 142 04:25 13.01.2020
904 Clouds 24 1010 79 0 4.3 142 03:34 13.01.2020
905 Clouds 24 1010 79 0 4.3 142 02:49 13.01.2020
906 Clouds 26 1005 78 10000 5.7 160 02:29 13.01.2020
907 Clouds 26 1005 78 10000 5.7 160 01:32 13.01.2020
908 Clouds 27 1005 74 10000 6.7 160 00:42 13.01.2020
909 Clouds 27 1005 74 10000 6.7 160 00:24 13.01.2020
910 Clouds 27 1005 74 10000 7.2 160 23:56 12.01.2020
911 Clouds 27 1005 74 10000 7.2 160 23:37 12.01.2020
912 Clouds 27 1005 74 10000 7.2 160 23:19 12.01.2020
913 Clouds 28 1005 69 10000 6.2 150 22:42 12.01.2020
914 Clouds 28 1005 69 10000 6.2 150 22:24 12.01.2020
915 Clouds 28 1005 69 10000 6.2 150 22:24 12.01.2020
916 Clouds 29 1006 70 10000 7.7 170 21:57 12.01.2020
917 Clouds 29 1006 70 10000 7.7 170 21:38 12.01.2020
918 Clouds 29 1006 70 10000 7.7 170 21:19 12.01.2020
919 Clouds 28 1006 69 10000 6.7 190 20:56 12.01.2020
920 Clouds 28 1006 69 10000 6.7 190 20:38 12.01.2020
921 Clouds 28 1006 69 10000 6.7 190 20:20 12.01.2020
922 Clouds 28 1007 69 10000 6.2 180 19:56 12.01.2020
923 Clouds 28 1007 69 10000 6.2 180 19:37 12.01.2020
924 Clouds 28 1007 69 10000 6.2 180 19:18 12.01.2020
925 Clouds 28 1008 69 10000 7.7 160 18:57 12.01.2020
926 Clouds 28 1008 69 10000 7.7 160 18:39 12.01.2020
927 Clouds 28 1008 69 10000 7.7 160 18:21 12.01.2020
928 Clouds 27 1008 74 10000 7.7 160 17:43 12.01.2020
929 Clouds 27 1008 74 10000 7.7 160 17:23 12.01.2020
930 Clouds 27 1008 74 10000 7.7 160 17:23 12.01.2020
931 Clouds 26 1008 83 10000 7.7 160 16:59 12.01.2020
932 Clouds 26 1008 83 10000 7.7 160 16:39 12.01.2020
933 Clouds 26 1008 83 10000 7.7 160 16:20 12.01.2020
934 Clouds 25 1008 83 10000 7.2 160 15:57 12.01.2020
935 Clouds 25 1008 83 10000 7.2 160 15:38 12.01.2020
936 Clouds 25 1008 83 10000 7.2 160 15:20 12.01.2020
937 Clouds 25 1007 88 10000 6.2 170 14:43 12.01.2020
938 Clouds 25 1007 88 10000 6.2 170 14:24 12.01.2020
939 Clouds 24 1007 94 10000 5.1 160 13:57 12.01.2020
940 Clouds 24 1007 94 10000 5.1 160 13:57 12.01.2020
941 Clouds 24 1007 94 10000 5.1 160 13:39 12.01.2020
942 Clouds 24 1007 94 10000 5.1 160 13:20 12.01.2020
943 Clouds 24 1007 94 10000 5.1 160 13:20 12.01.2020
944 Clouds 25 1010 77 0 5.48 154 12:56 12.01.2020
945 Clouds 25 1010 77 0 5.48 154 12:37 12.01.2020
946 Clouds 25 1010 77 0 5.48 154 12:19 12.01.2020
947 Clouds 25 1010 77 0 5.48 154 11:42 12.01.2020
948 Clouds 25 1010 77 0 5.48 154 11:22 12.01.2020
949 Clouds 25 1009 78 0 4.78 165 10:56 12.01.2020
950 Clouds 25 1009 78 0 4.78 165 10:37 12.01.2020
951 Clouds 25 1009 78 0 4.78 165 10:19 12.01.2020
952 Clouds 25 1009 78 0 4.78 165 09:42 12.01.2020
953 Clouds 25 1009 78 0 4.78 165 09:23 12.01.2020
954 Clouds 25 1009 78 0 4.78 165 08:48 12.01.2020
955 Rain 25 1009 78 0 4.83 165 08:24 12.01.2020
956 Clouds 25 1011 80 0 5.85 159 07:49 12.01.2020
957 Clouds 25 1011 80 0 5.85 159 07:30 12.01.2020
958 Clouds 25 1011 80 0 5.85 159 06:59 12.01.2020
959 Clouds 25 1011 80 0 5.85 159 06:59 12.01.2020
960 Clouds 25 1011 80 0 5.85 159 06:59 12.01.2020
961 Clouds 25 1011 80 0 5.85 159 06:36 12.01.2020
962 Clouds 25 1011 80 0 5.85 159 05:52 12.01.2020
963 Clouds 25 1011 80 0 6.02 150 04:56 12.01.2020
964 Clouds 25 1011 80 0 6.02 150 03:43 12.01.2020
965 Clouds 25 1011 80 0 6.02 150 02:46 12.01.2020
966 Clouds 26 1005 78 10000 6.2 170 02:24 12.01.2020
967 Clouds 26 1005 78 10000 6.2 170 01:34 12.01.2020
968 Clouds 26 1005 78 10000 7.2 180 00:46 12.01.2020
969 Clouds 26 1005 78 10000 7.2 180 00:22 12.01.2020
970 Clouds 27 1005 78 10000 7.2 180 23:56 11.01.2020
971 Clouds 27 1005 78 10000 7.2 180 23:38 11.01.2020
972 Clouds 27 1005 78 10000 7.2 180 23:18 11.01.2020
973 Clouds 28 1005 74 10000 7.7 150 22:56 11.01.2020
974 Clouds 28 1005 74 10000 7.7 150 22:37 11.01.2020
975 Clouds 28 1005 74 10000 7.7 150 22:19 11.01.2020
976 Clouds 28 1006 74 10000 7.7 150 21:44 11.01.2020
977 Clouds 28 1006 74 10000 7.7 150 21:19 11.01.2020
978 Clouds 28 1006 74 10000 7.7 150 21:19 11.01.2020
979 Clouds 28 1007 74 10000 8.2 170 20:56 11.01.2020
980 Clouds 28 1007 74 10000 8.2 170 20:38 11.01.2020
981 Clouds 28 1007 74 10000 8.2 170 20:19 11.01.2020
982 Clouds 29 1008 70 10000 8.2 170 19:55 11.01.2020
983 Clouds 29 1008 70 10000 8.2 170 19:37 11.01.2020
984 Clouds 29 1008 70 10000 8.2 170 19:19 11.01.2020
985 Clouds 29 1008 70 10000 8.2 170 19:19 11.01.2020
986 Clouds 29 1008 70 10000 9.3 170 18:55 11.01.2020
987 Clouds 29 1008 70 10000 9.3 170 18:36 11.01.2020
988 Clouds 29 1008 70 10000 9.3 170 18:18 11.01.2020
989 Clouds 29 1008 70 10000 9.3 170 18:18 11.01.2020
990 Clouds 28 1008 74 10000 8.7 170 17:55 11.01.2020
991 Clouds 28 1008 74 10000 8.7 170 17:36 11.01.2020
992 Clouds 28 1008 74 10000 8.7 170 17:18 11.01.2020
993 Clouds 28 1008 74 10000 8.7 170 17:18 11.01.2020
994 Clouds 27 1008 74 10000 8.2 170 16:43 11.01.2020
995 Clouds 27 1008 74 10000 8.2 170 16:22 11.01.2020
996 Clouds 26 1008 83 10000 7.7 160 15:42 11.01.2020
997 Clouds 26 1008 83 10000 7.7 160 15:24 11.01.2020
998 Rain 25 1007 88 10000 7.7 160 14:58 11.01.2020
999 Rain 25 1007 88 10000 7.7 160 14:40 11.01.2020
1000 Rain 25 1007 88 10000 7.7 160 14:22 11.01.2020
1001 Clouds 24 1006 88 10000 6.2 160 13:55 11.01.2020
1002 Clouds 24 1006 88 10000 6.2 160 13:55 11.01.2020
1003 Clouds 24 1006 88 10000 6.2 160 13:36 11.01.2020
1004 Clouds 24 1006 88 10000 6.2 160 13:18 11.01.2020
1005 Rain 25 1010 84 0 7.09 161 12:42 11.01.2020
1006 Rain 25 1010 84 0 7.09 161 12:24 11.01.2020
1007 Rain 25 1010 84 0 7.09 161 11:49 11.01.2020
1008 Rain 25 1010 84 0 7.09 161 11:28 11.01.2020
1009 Rain 25 1009 84 0 6.29 160 10:59 11.01.2020
1010 Rain 25 1009 84 0 6.29 160 10:40 11.01.2020
1011 Rain 25 1009 84 0 6.29 160 10:40 11.01.2020
1012 Rain 25 1009 84 0 6.29 160 10:22 11.01.2020
1013 Rain 25 1009 84 0 6.29 160 09:39 11.01.2020
1014 Rain 25 1009 84 0 6.29 160 09:21 11.01.2020
1015 Rain 25 1009 84 0 6.29 160 08:42 11.01.2020
1016 Rain 25 1009 84 0 7.26 159 08:22 11.01.2020
1017 Clouds 25 1010 84 0 7.39 155 07:44 11.01.2020
1018 Clouds 25 1010 84 0 7.39 155 07:26 11.01.2020
1019 Clouds 25 1010 84 0 7.39 155 06:52 11.01.2020
1020 Clouds 25 1010 84 0 7.39 155 06:52 11.01.2020
1021 Clouds 25 1010 84 0 7.39 155 05:50 11.01.2020
1022 Clouds 25 1011 84 0 6.59 156 04:47 11.01.2020
1023 Clouds 25 1011 84 0 6.59 156 04:29 11.01.2020
1024 Clouds 25 1011 84 0 6.59 156 02:58 11.01.2020
1025 Clouds 25 1011 84 0 6.59 156 02:38 11.01.2020
1026 Clouds 26 1004 78 10000 7.2 160 01:43 11.01.2020
1027 Clouds 26 1004 78 10000 7.2 160 01:20 11.01.2020
1028 Clouds 27 1004 74 10000 7.7 170 00:43 11.01.2020
1029 Clouds 27 1004 74 10000 7.7 170 00:18 11.01.2020
1030 Clouds 27 1004 78 10000 7.7 170 23:40 10.01.2020
1031 Clouds 27 1004 78 10000 7.7 170 23:40 10.01.2020
1032 Clouds 27 1004 78 10000 7.7 170 23:22 10.01.2020
1033 Clouds 27 1004 78 10000 8.7 170 22:58 10.01.2020
1034 Clouds 27 1004 78 10000 8.7 170 22:40 10.01.2020
1035 Clouds 27 1004 78 10000 8.7 170 22:40 10.01.2020
1036 Clouds 27 1004 78 10000 8.7 170 22:20 10.01.2020
1037 Clouds 28 1005 74 10000 8.7 160 21:57 10.01.2020
1038 Clouds 28 1005 74 10000 8.7 160 21:37 10.01.2020
1039 Clouds 28 1005 74 10000 8.7 160 21:19 10.01.2020
1040 Clouds 28 1006 74 10000 8.7 150 20:43 10.01.2020
1041 Clouds 28 1006 74 10000 8.7 150 20:24 10.01.2020
1042 Clouds 28 1006 74 10000 10.3 140 19:58 10.01.2020
1043 Clouds 28 1006 74 10000 10.3 140 19:38 10.01.2020
1044 Clouds 28 1006 74 10000 10.3 140 19:19 10.01.2020
1045 Clouds 27 1006 74 10000 9.8 150 18:43 10.01.2020
1046 Clouds 27 1006 74 10000 9.8 150 18:19 10.01.2020
1047 Clouds 26 1007 83 10000 8.7 160 17:57 10.01.2020
1048 Clouds 26 1007 83 10000 8.7 160 17:39 10.01.2020
1049 Clouds 26 1007 83 10000 8.7 160 17:20 10.01.2020
1050 Clouds 25 1007 83 10000 9.3 150 16:57 10.01.2020
1051 Clouds 25 1007 83 10000 9.3 150 16:38 10.01.2020
1052 Clouds 25 1007 83 10000 9.3 150 16:19 10.01.2020
1053 Rain 25 1007 88 10000 9.3 150 15:56 10.01.2020
1054 Rain 25 1007 88 10000 9.3 150 15:36 10.01.2020
1055 Rain 25 1007 88 10000 9.3 150 15:18 10.01.2020
1056 Rain 24 1007 94 10000 7.7 150 14:54 10.01.2020
1057 Rain 24 1007 94 10000 7.7 150 14:36 10.01.2020
1058 Rain 24 1007 94 10000 7.7 150 14:18 10.01.2020
1059 Rain 25 1009 83 0 7.1 133 13:41 10.01.2020
1060 Rain 25 1009 85 0 7.23 136 13:23 10.01.2020
1061 Rain 25 1009 85 0 7.23 136 12:58 10.01.2020
1062 Rain 25 1009 85 0 7.23 136 12:38 10.01.2020
1063 Rain 25 1009 85 0 7.23 136 12:19 10.01.2020
1064 Rain 25 1009 85 0 7.23 136 11:55 10.01.2020
1065 Rain 25 1009 85 0 7.23 136 11:37 10.01.2020
1066 Rain 25 1008 85 0 6.86 132 11:18 10.01.2020
1067 Rain 25 1008 85 0 6.86 132 10:42 10.01.2020
1068 Rain 25 1008 85 0 6.86 132 10:24 10.01.2020
1069 Rain 25 1008 85 0 6.86 132 09:56 10.01.2020
1070 Rain 25 1008 85 0 6.86 132 09:38 10.01.2020
1071 Rain 25 1008 85 0 6.86 132 09:20 10.01.2020
1072 Rain 25 1008 85 0 6.86 132 08:42 10.01.2020
1073 Rain 25 1008 85 0 6.43 135 08:23 10.01.2020
1074 Rain 25 1009 86 0 6.44 136 07:45 10.01.2020
1075 Rain 25 1009 86 0 6.44 136 07:26 10.01.2020
1076 Rain 25 1009 86 0 6.44 136 06:46 10.01.2020
1077 Rain 25 1009 86 0 6.44 136 06:26 10.01.2020
1078 Rain 25 1009 86 0 6.44 136 05:48 10.01.2020
1079 Clouds 25 1010 85 0 7.27 131 03:37 10.01.2020
1080 Clouds 25 1010 85 0 7.27 131 03:18 10.01.2020
1081 Clouds 25 1010 85 0 7.27 131 02:47 10.01.2020
1082 Rain 25 1005 88 10000 6.2 150 01:38 10.01.2020
1083 Rain 25 1005 88 10000 6.2 150 01:19 10.01.2020
1084 Rain 25 1005 94 8000 6.7 160 00:39 10.01.2020
1085 Rain 25 1005 94 8000 6.2 150 23:58 09.01.2020
1086 Rain 25 1005 94 8000 6.2 150 23:38 09.01.2020
1087 Rain 25 1005 94 8000 6.2 150 23:20 09.01.2020
1088 Rain 25 1006 94 8000 6.2 140 22:57 09.01.2020
1089 Rain 25 1006 94 8000 6.2 140 22:38 09.01.2020
1090 Rain 25 1006 94 8000 6.2 140 22:19 09.01.2020
1091 Rain 25 1007 94 5000 6.2 140 21:57 09.01.2020
1092 Rain 25 1007 94 5000 6.2 140 21:37 09.01.2020
1093 Rain 25 1007 94 5000 6.2 140 21:37 09.01.2020
1094 Rain 25 1007 94 5000 6.2 140 21:37 09.01.2020
1095 Rain 25 1007 94 5000 6.2 140 21:37 09.01.2020
1096 Rain 25 1007 94 5000 6.2 140 21:37 09.01.2020
1097 Rain 25 1007 94 5000 6.2 140 21:19 09.01.2020
1098 Rain 26 1007 94 5000 6.2 150 20:56 09.01.2020
1099 Rain 26 1007 94 5000 6.2 150 20:38 09.01.2020
1100 Rain 26 1007 94 5000 6.2 150 20:19 09.01.2020
1101 Rain 26 1007 94 5000 6.2 150 20:19 09.01.2020
1102 Rain 26 1007 94 5000 6.2 150 20:19 09.01.2020
1103 Rain 26 1008 94 8000 5.1 140 19:56 09.01.2020
1104 Rain 26 1008 94 8000 5.1 140 19:37 09.01.2020
1105 Rain 26 1008 94 8000 5.1 140 19:18 09.01.2020
1106 Rain 25 1009 94 8000 5.1 140 18:54 09.01.2020
1107 Rain 25 1009 94 8000 5.1 140 18:54 09.01.2020
1108 Rain 25 1009 94 8000 5.1 140 18:36 09.01.2020
1109 Rain 25 1009 94 8000 5.1 140 18:18 09.01.2020
1110 Rain 25 1009 94 8000 5.1 140 18:18 09.01.2020
1111 Rain 24 1009 94 5000 5.1 140 17:40 09.01.2020
1112 Rain 24 1009 94 5000 5.1 140 17:18 09.01.2020
1113 Rain 24 1010 94 5000 5.1 140 16:47 09.01.2020
1114 Rain 24 1010 94 5000 5.1 140 16:22 09.01.2020
1115 Rain 25 1012 86 0 8.08 129 15:44 09.01.2020
1116 Rain 25 1012 86 0 8.08 129 15:25 09.01.2020
1117 Rain 25 1012 86 0 8.08 129 14:59 09.01.2020
1118 Rain 25 1012 86 0 8.08 129 14:41 09.01.2020
1119 Rain 25 1011 86 0 7.71 135 14:19 09.01.2020
1120 Rain 25 1011 86 0 7.71 135 13:57 09.01.2020
1121 Rain 25 1011 86 0 7.71 135 13:38 09.01.2020
1122 Rain 25 1011 86 0 7.19 132 13:19 09.01.2020
1123 Rain 25 1011 86 0 7.19 132 12:57 09.01.2020
1124 Rain 25 1011 86 0 7.19 132 12:38 09.01.2020
1125 Rain 25 1011 86 0 7.19 132 12:18 09.01.2020
1126 Rain 25 1011 86 0 7.19 132 11:42 09.01.2020
1127 Rain 25 1011 86 0 7.19 132 11:24 09.01.2020
1128 Rain 25 1011 86 0 7.19 132 11:24 09.01.2020
1129 Rain 25 1010 87 0 6.78 136 10:58 09.01.2020
1130 Rain 25 1010 87 0 6.78 136 10:40 09.01.2020
1131 Rain 25 1010 87 0 6.78 136 10:21 09.01.2020
1132 Rain 25 1010 87 0 6.78 136 09:47 09.01.2020
1133 Rain 25 1010 87 0 6.78 136 09:25 09.01.2020
1134 Rain 25 1010 87 0 6.78 136 08:59 09.01.2020
1135 Rain 25 1010 87 0 6.78 136 08:39 09.01.2020
1136 Rain 25 1012 87 0 6.44 142 08:21 09.01.2020
1137 Rain 25 1012 87 0 6.44 142 07:48 09.01.2020
1138 Rain 25 1012 87 0 6.44 142 07:30 09.01.2020
1139 Rain 25 1012 87 0 6.44 142 06:40 09.01.2020
1140 Rain 25 1012 87 0 6.44 142 06:22 09.01.2020
1141 Rain 25 1012 87 0 6.44 142 05:51 09.01.2020
1142 Rain 25 1012 88 0 6.64 129 05:20 09.01.2020
1143 Rain 25 1012 88 0 6.64 129 04:39 09.01.2020
1144 Rain 25 1012 88 0 6.64 129 03:27 09.01.2020
1145 Rain 25 1012 88 0 6.64 129 02:46 09.01.2020
1146 Rain 24 1008 94 10000 4.6 140 01:42 09.01.2020
1147 Rain 25 1008 88 10000 3.1 120 00:57 09.01.2020
1148 Rain 25 1008 88 10000 3.1 120 00:37 09.01.2020
1149 Rain 25 1008 88 10000 3.1 120 00:19 09.01.2020
1150 Rain 24 1008 94 10000 4.1 130 23:39 08.01.2020
1151 Rain 24 1008 94 10000 4.1 130 23:20 08.01.2020
1152 Clouds 25 1010 85 0 6.32 141 22:40 08.01.2020
1153 Clouds 25 1010 85 0 6.32 141 22:22 08.01.2020
1154 Clouds 25 1010 85 0 6.32 141 21:58 08.01.2020
1155 Clouds 25 1010 85 0 6.32 141 21:40 08.01.2020
1156 Rain 24 1009 94 5000 4.1 160 21:20 08.01.2020
1157 Rain 25 1009 94 8000 5.1 160 20:59 08.01.2020
1158 Rain 25 1009 94 8000 5.1 160 20:40 08.01.2020
1159 Rain 25 1009 94 8000 5.1 160 20:20 08.01.2020
1160 Rain 25 1009 94 8000 5.1 160 20:20 08.01.2020
1161 Clouds 25 1012 84 0 6.21 137 19:57 08.01.2020
1162 Clouds 25 1012 84 0 6.21 137 19:38 08.01.2020
1163 Clouds 25 1012 84 0 6.21 137 19:19 08.01.2020
1164 Clouds 27 1011 78 10000 6.2 170 18:56 08.01.2020
1165 Clouds 27 1011 78 10000 6.2 170 18:37 08.01.2020
1166 Clouds 27 1011 78 10000 6.2 170 18:18 08.01.2020
1167 Clouds 26 1011 83 10000 6.2 160 17:56 08.01.2020
1168 Clouds 26 1011 83 10000 6.2 160 17:37 08.01.2020
1169 Clouds 26 1011 83 10000 6.2 160 17:18 08.01.2020
1170 Clouds 26 1011 83 10000 6.2 160 17:18 08.01.2020
1171 Clouds 26 1011 83 10000 5.7 160 16:54 08.01.2020
1172 Clouds 26 1011 83 10000 5.7 160 16:36 08.01.2020
1173 Clouds 26 1011 83 10000 5.7 160 16:18 08.01.2020
1174 Clouds 25 1010 88 10000 5.1 150 15:40 08.01.2020
1175 Clouds 25 1010 88 10000 5.1 150 15:20 08.01.2020
1176 Clouds 25 1009 88 10000 4.6 160 14:56 08.01.2020
1177 Clouds 25 1009 88 10000 4.6 160 14:38 08.01.2020
1178 Clouds 25 1009 88 10000 4.6 160 14:19 08.01.2020
1179 Clouds 24 1009 94 10000 4.6 160 13:40 08.01.2020
1180 Clouds 24 1009 94 10000 4.6 160 13:19 08.01.2020
1181 Clear 25 1012 83 0 4.88 124 12:42 08.01.2020
1182 Clear 25 1012 83 0 4.88 124 12:19 08.01.2020
1183 Clear 25 1012 83 0 4.88 124 11:55 08.01.2020
1184 Clear 25 1012 83 0 4.88 124 11:55 08.01.2020
1185 Clear 25 1012 83 0 4.88 124 11:37 08.01.2020
1186 Clear 25 1011 83 0 4.85 117 11:19 08.01.2020
1187 Clear 25 1011 83 0 4.85 117 10:55 08.01.2020
1188 Clear 25 1011 83 0 4.85 117 10:37 08.01.2020
1189 Clear 25 1011 83 0 4.85 117 10:18 08.01.2020
1190 Clear 25 1011 83 0 4.85 117 09:41 08.01.2020
1191 Clear 25 1011 83 0 4.85 117 09:19 08.01.2020
1192 Clear 25 1011 83 0 4.85 117 08:56 08.01.2020
1193 Clear 25 1011 83 0 4.85 117 08:37 08.01.2020
1194 Clouds 25 1013 85 0 4.85 121 08:18 08.01.2020
1195 Clouds 25 1013 85 0 4.85 121 07:48 08.01.2020
1196 Clouds 25 1013 85 0 4.85 121 07:29 08.01.2020
1197 Clouds 25 1013 85 0 4.85 121 07:29 08.01.2020
1198 Clouds 25 1013 85 0 4.85 121 06:44 08.01.2020
1199 Clouds 25 1013 85 0 4.85 121 05:59 08.01.2020
1200 Clouds 25 1013 85 0 4.85 121 05:38 08.01.2020
1201 Clouds 25 1013 84 0 3.84 140 04:54 08.01.2020
1202 Clouds 25 1013 84 0 3.84 140 04:24 08.01.2020
1203 Clouds 25 1013 84 0 3.84 140 02:45 08.01.2020
1204 Rain 24 1009 94 10000 2.6 210 02:19 08.01.2020
1205 Rain 24 1009 94 10000 2.6 210 01:40 08.01.2020
1206 Rain 26 1011 81 0 4.52 146 00:54 08.01.2020
1207 Rain 24 1008 94 5000 2.6 220 00:26 08.01.2020
1208 Rain 24 1008 94 5000 2.6 180 23:47 07.01.2020
1209 Rain 24 1008 94 5000 2.6 180 23:22 07.01.2020
1210 Rain 25 1008 94 5000 3.1 160 22:58 07.01.2020
1211 Rain 25 1008 94 5000 3.1 160 22:39 07.01.2020
1212 Rain 25 1008 94 5000 3.1 160 22:19 07.01.2020
1213 Rain 26 1009 94 8000 3.1 210 21:43 07.01.2020
1214 Rain 26 1009 94 8000 3.1 210 21:23 07.01.2020
1215 Rain 25 1010 80 0 5.23 148 20:59 07.01.2020
1216 Rain 25 1010 80 0 5.23 148 20:41 07.01.2020
1217 Rain 25 1010 80 0 5.23 148 20:41 07.01.2020
1218 Rain 25 1010 80 0 5.23 148 20:22 07.01.2020
1219 Rain 26 1011 88 10000 4.1 190 19:58 07.01.2020
1220 Rain 26 1011 88 10000 4.1 190 19:38 07.01.2020
1221 Rain 26 1011 88 10000 4.1 190 19:19 07.01.2020
1222 Rain 26 1011 88 10000 5.1 180 18:56 07.01.2020
1223 Rain 26 1011 88 10000 5.1 180 18:38 07.01.2020
1224 Rain 26 1011 88 10000 5.1 180 18:18 07.01.2020
1225 Rain 26 1011 88 10000 5.1 180 18:18 07.01.2020
1226 Clouds 28 1011 74 10000 5.1 180 17:55 07.01.2020
1227 Clouds 28 1011 74 10000 5.1 180 17:36 07.01.2020
1228 Clouds 28 1011 74 10000 5.1 180 17:18 07.01.2020
1229 Clouds 27 1011 78 10000 5.1 160 16:55 07.01.2020
1230 Clouds 27 1011 78 10000 5.1 160 16:36 07.01.2020
1231 Clouds 27 1011 78 10000 5.1 160 16:18 07.01.2020
1232 Clouds 26 1011 83 10000 4.1 160 15:42 07.01.2020
1233 Clouds 26 1011 83 10000 4.1 160 15:24 07.01.2020
1234 Clouds 24 1010 88 10000 3.6 150 14:58 07.01.2020
1235 Clouds 24 1010 88 10000 3.6 150 14:38 07.01.2020
1236 Clouds 24 1010 88 10000 3.6 150 14:19 07.01.2020
1237 Clouds 24 1010 88 10000 3.6 150 14:19 07.01.2020
1238 Clouds 24 1009 88 10000 4.1 150 13:44 07.01.2020
1239 Clouds 24 1009 88 10000 4.1 150 13:20 07.01.2020
1240 Rain 25 1011 82 0 2.24 141 12:55 07.01.2020
1241 Rain 25 1011 82 0 2.24 141 12:36 07.01.2020
1242 Rain 25 1011 82 0 2.24 141 12:18 07.01.2020
1243 Rain 25 1011 82 0 2.24 141 11:41 07.01.2020
1244 Clear 25 1011 82 0 2.6 157 11:22 07.01.2020
1245 Clear 25 1011 82 0 2.6 157 10:55 07.01.2020
1246 Clear 25 1011 82 0 2.6 157 10:37 07.01.2020
1247 Clear 25 1011 82 0 2.6 157 10:19 07.01.2020
1248 Clear 25 1011 82 0 2.6 157 09:38 07.01.2020
1249 Clear 25 1011 82 0 2.6 157 09:20 07.01.2020
1250 Clear 25 1011 82 0 2.6 157 08:47 07.01.2020
1251 Clear 25 1011 82 0 2.6 157 08:28 07.01.2020
1252 Rain 25 1012 83 0 3.87 133 07:55 07.01.2020
1253 Rain 25 1012 83 0 3.87 133 07:35 07.01.2020
1254 Rain 25 1012 83 0 3.87 133 06:54 07.01.2020
1255 Rain 25 1012 83 0 3.87 133 06:35 07.01.2020
1256 Rain 25 1012 83 0 3.87 133 05:57 07.01.2020
1257 Rain 25 1012 83 0 3.87 133 05:38 07.01.2020
1258 Rain 25 1013 85 0 3.35 128 03:29 07.01.2020
1259 Clouds 26 1009 83 10000 5.7 160 02:24 07.01.2020
1260 Clouds 26 1009 83 10000 5.7 160 01:57 07.01.2020
1261 Clouds 26 1009 83 10000 5.7 160 01:32 07.01.2020
1262 Clouds 26 1008 83 10000 5.7 170 00:37 07.01.2020
1263 Clouds 26 1008 83 10000 5.7 170 00:19 07.01.2020
1264 Clouds 26 1008 88 10000 5.1 170 23:55 06.01.2020
1265 Clouds 26 1008 88 10000 5.1 170 23:36 06.01.2020
1266 Clouds 26 1008 88 10000 5.1 170 23:36 06.01.2020
1267 Clouds 26 1008 88 10000 5.1 170 23:18 06.01.2020
1268 Clouds 28 1009 74 10000 6.2 180 22:42 06.01.2020
1269 Clouds 28 1009 74 10000 6.2 180 22:22 06.01.2020
1270 Clouds 28 1009 74 10000 6.7 180 21:56 06.01.2020
1271 Clouds 28 1009 74 10000 6.7 180 21:38 06.01.2020
1272 Clouds 28 1009 74 10000 6.7 180 21:20 06.01.2020
1273 Clouds 28 1009 74 10000 6.7 180 21:20 06.01.2020
1274 Clouds 29 1010 70 10000 6.2 180 20:56 06.01.2020
1275 Clouds 29 1010 70 10000 6.2 180 20:37 06.01.2020
1276 Clouds 29 1010 70 10000 6.2 180 20:19 06.01.2020
1277 Clouds 28 1015 74 10000 6.2 180 19:55 06.01.2020
1278 Clouds 28 1015 74 10000 6.2 180 19:37 06.01.2020
1279 Clouds 28 1015 74 10000 6.2 180 19:19 06.01.2020
1280 Clouds 28 1012 74 10000 7.2 160 18:45 06.01.2020
1281 Clouds 28 1012 74 10000 7.2 160 18:21 06.01.2020
1282 Clouds 28 1012 74 10000 7.7 150 17:56 06.01.2020
1283 Clouds 28 1012 74 10000 7.7 150 17:37 06.01.2020
1284 Clouds 28 1012 74 10000 7.7 150 17:18 06.01.2020
1285 Clouds 26 1012 83 10000 7.2 160 16:42 06.01.2020
1286 Clouds 26 1012 83 10000 7.2 160 16:42 06.01.2020
1287 Clouds 26 1012 83 10000 7.2 160 16:23 06.01.2020
1288 Clouds 25 1012 88 10000 5.1 160 15:59 06.01.2020
1289 Clouds 25 1012 88 10000 5.1 160 15:37 06.01.2020
1290 Clouds 25 1012 88 10000 5.1 160 15:37 06.01.2020
1291 Clouds 25 1012 88 10000 5.1 160 15:18 06.01.2020
1292 Rain 25 1011 88 10000 6.2 160 14:42 06.01.2020
1293 Rain 25 1011 88 10000 6.2 160 14:23 06.01.2020
1294 Rain 25 1011 88 10000 6.2 160 14:23 06.01.2020
1295 Clouds 25 1010 88 10000 4.6 160 13:59 06.01.2020
1296 Clouds 25 1010 88 10000 4.6 160 13:39 06.01.2020
1297 Clouds 25 1010 88 10000 4.6 160 13:21 06.01.2020
1298 Clouds 25 1010 88 10000 4.6 160 13:21 06.01.2020
1299 Clouds 24 1013 83 0 5.57 154 12:58 06.01.2020
1300 Clouds 24 1013 83 0 5.57 154 12:39 06.01.2020
1301 Clouds 24 1013 83 0 5.57 154 12:19 06.01.2020
1302 Clouds 24 1013 83 0 5.57 154 12:19 06.01.2020
1303 Clouds 24 1013 83 0 5.57 154 11:43 06.01.2020
1304 Clouds 24 1013 83 0 5.57 154 11:43 06.01.2020
1305 Clouds 24 1013 83 0 5.57 154 11:24 06.01.2020
1306 Clouds 24 1013 84 0 5.05 155 10:59 06.01.2020
1307 Clouds 24 1013 84 0 5.05 155 10:40 06.01.2020
1308 Clouds 24 1013 84 0 5.05 155 10:20 06.01.2020
1309 Clouds 24 1013 84 0 5.05 155 09:40 06.01.2020
1310 Clouds 24 1013 84 0 5.05 155 09:21 06.01.2020
1311 Clouds 24 1013 84 0 5.05 155 08:52 06.01.2020
1312 Clouds 24 1013 84 0 5.05 155 08:34 06.01.2020
1313 Clouds 25 1015 84 0 5.25 163 07:57 06.01.2020
1314 Clouds 25 1015 84 0 5.25 163 07:38 06.01.2020
1315 Clouds 25 1015 84 0 5.25 163 06:49 06.01.2020
1316 Clouds 25 1015 84 0 5.25 163 06:30 06.01.2020
1317 Clouds 25 1015 84 0 5.25 163 05:48 06.01.2020
1318 Clouds 25 1016 86 0 5.06 163 04:55 06.01.2020
1319 Clouds 25 1016 86 0 5.06 163 04:21 06.01.2020
1320 Clouds 25 1016 86 0 5.06 163 03:25 06.01.2020
1321 Clouds 25 1011 83 10000 6.2 150 02:25 06.01.2020
1322 Clouds 25 1011 83 10000 6.2 150 01:46 06.01.2020
1323 Clouds 25 1011 83 10000 6.2 150 01:28 06.01.2020
1324 Clouds 26 1011 78 10000 6.2 180 00:44 06.01.2020
1325 Clouds 26 1011 78 10000 6.2 180 00:24 06.01.2020
1326 Clouds 28 1011 74 10000 6.7 180 23:43 05.01.2020
1327 Clouds 28 1011 74 10000 6.7 180 23:43 05.01.2020
1328 Clouds 28 1011 74 10000 6.7 180 23:23 05.01.2020
1329 Clouds 28 1011 74 10000 6.7 180 23:23 05.01.2020
1330 Clouds 28 1011 74 10000 6.7 170 22:58 05.01.2020
1331 Clouds 28 1011 74 10000 6.7 170 22:39 05.01.2020
1332 Clouds 28 1011 74 10000 6.7 170 22:20 05.01.2020
1333 Clouds 28 1011 69 10000 6.2 180 21:55 05.01.2020
1334 Clouds 28 1011 69 10000 6.2 180 21:37 05.01.2020
1335 Clouds 28 1011 69 10000 6.2 180 21:37 05.01.2020
1336 Clouds 28 1011 69 10000 6.2 180 21:19 05.01.2020
1337 Clouds 28 1011 69 10000 6.2 180 21:19 05.01.2020
1338 Clouds 28 1012 69 10000 6.7 180 20:55 05.01.2020
1339 Clouds 28 1012 69 10000 6.7 180 20:36 05.01.2020
1340 Clouds 28 1012 69 10000 6.7 180 20:18 05.01.2020
1341 Clouds 27 1013 74 10000 6.2 170 19:56 05.01.2020
1342 Clouds 27 1013 74 10000 6.2 170 19:37 05.01.2020
1343 Clouds 27 1013 74 10000 6.2 170 19:18 05.01.2020
1344 Clouds 27 1014 74 10000 6.7 170 18:54 05.01.2020
1345 Clouds 27 1014 74 10000 6.7 170 18:36 05.01.2020
1346 Clouds 27 1014 74 10000 6.7 170 18:18 05.01.2020
1347 Clouds 27 1014 74 10000 6.7 170 18:18 05.01.2020
1348 Clouds 26 1014 83 10000 6.2 160 17:39 05.01.2020
1349 Clouds 26 1014 83 10000 6.2 160 17:20 05.01.2020
1350 Clouds 26 1014 83 10000 6.2 190 16:58 05.01.2020
1351 Clouds 26 1014 83 10000 6.2 190 16:40 05.01.2020
1352 Clouds 26 1014 83 10000 6.2 190 16:20 05.01.2020
1353 Clouds 25 1014 83 10000 5.1 180 15:41 05.01.2020
1354 Clouds 25 1014 83 10000 5.1 180 15:22 05.01.2020
1355 Clouds 25 1014 88 10000 4.6 170 14:58 05.01.2020
1356 Clouds 25 1014 88 10000 4.6 170 14:40 05.01.2020
1357 Clouds 25 1014 88 10000 4.6 170 14:22 05.01.2020
1358 Clouds 24 1013 88 10000 4.1 170 13:59 05.01.2020
1359 Clouds 24 1013 88 10000 4.1 170 13:39 05.01.2020
1360 Clouds 24 1013 88 10000 4.1 170 13:20 05.01.2020
1361 Rain 24 1016 84 0 4.55 172 12:57 05.01.2020
1362 Rain 24 1016 84 0 4.55 172 12:38 05.01.2020
1363 Rain 24 1016 84 0 4.55 172 12:20 05.01.2020
1364 Rain 24 1016 84 0 4.55 172 11:54 05.01.2020
1365 Rain 24 1016 84 0 4.55 172 11:36 05.01.2020
1366 Clouds 24 1014 85 0 4.67 185 11:18 05.01.2020
1367 Clouds 24 1014 85 0 4.67 185 10:40 05.01.2020
1368 Clouds 24 1014 85 0 4.67 185 10:20 05.01.2020
1369 Clouds 24 1014 85 0 4.67 185 09:43 05.01.2020
1370 Clouds 24 1014 85 0 4.67 185 09:23 05.01.2020
1371 Clouds 24 1014 85 0 4.67 185 08:56 05.01.2020
1372 Clouds 24 1014 85 0 4.67 185 08:38 05.01.2020
1373 Clouds 24 1016 84 0 4.63 183 08:20 05.01.2020
1374 Clouds 24 1016 84 0 4.35 184 07:39 05.01.2020
1375 Clouds 24 1016 84 0 4.35 184 07:21 05.01.2020
1376 Clouds 24 1016 84 0 4.35 184 06:47 05.01.2020
1377 Clouds 24 1016 84 0 4.35 184 05:41 05.01.2020
1378 Clouds 24 1016 83 0 4.68 190 04:56 05.01.2020
1379 Clouds 24 1016 83 0 4.68 190 04:18 05.01.2020
1380 Clouds 24 1016 83 0 4.68 190 03:27 05.01.2020
1381 Clouds 24 1016 83 0 4.68 190 02:33 05.01.2020
1382 Clouds 25 1011 83 10000 6.2 180 01:49 05.01.2020
1383 Clouds 25 1011 83 10000 6.2 180 01:20 05.01.2020
1384 Clouds 26 1011 74 10000 6.2 170 00:57 05.01.2020
1385 Clouds 26 1011 74 10000 6.2 170 00:57 05.01.2020
1386 Clouds 26 1011 74 10000 6.2 170 00:57 05.01.2020
1387 Clouds 26 1011 74 10000 6.2 170 00:39 05.01.2020
1388 Clouds 26 1011 74 10000 6.2 170 00:19 05.01.2020
1389 Clouds 27 1011 69 10000 6.7 160 23:41 04.01.2020
1390 Clouds 27 1011 69 10000 6.7 160 23:41 04.01.2020
1391 Clouds 27 1011 69 10000 6.7 160 23:20 04.01.2020
1392 Clouds 28 1011 69 10000 6.7 170 22:55 04.01.2020
1393 Clouds 28 1011 69 10000 6.7 170 22:37 04.01.2020
1394 Clouds 28 1011 69 10000 6.7 170 22:19 04.01.2020
1395 Clouds 28 1012 69 10000 6.7 180 21:55 04.01.2020
1396 Clouds 28 1012 69 10000 6.7 180 21:36 04.01.2020
1397 Clouds 28 1012 69 10000 6.7 180 21:18 04.01.2020
1398 Clouds 28 1013 69 10000 6.7 170 20:41 04.01.2020
1399 Clouds 28 1013 69 10000 6.7 170 20:22 04.01.2020
1400 Clouds 28 1013 69 10000 6.2 190 19:57 04.01.2020
1401 Clouds 28 1013 69 10000 6.2 190 19:39 04.01.2020
1402 Clouds 28 1013 69 10000 6.2 190 19:20 04.01.2020
1403 Clouds 28 1014 69 10000 7.2 180 18:56 04.01.2020
1404 Clouds 28 1014 69 10000 7.2 180 18:37 04.01.2020
1405 Clouds 28 1014 69 10000 7.2 180 18:19 04.01.2020
1406 Clouds 28 1015 69 10000 6.7 170 17:41 04.01.2020
1407 Clouds 28 1015 69 10000 6.7 170 17:23 04.01.2020
1408 Clouds 27 1015 74 10000 6.7 160 16:59 04.01.2020
1409 Clouds 27 1015 74 10000 6.7 160 16:40 04.01.2020
1410 Clouds 27 1015 74 10000 6.7 160 16:21 04.01.2020
1411 Clouds 26 1014 78 10000 6.2 160 15:56 04.01.2020
1412 Clouds 26 1014 78 10000 6.2 160 15:38 04.01.2020
1413 Clouds 26 1014 78 10000 6.2 160 15:18 04.01.2020
1414 Clouds 24 1014 83 10000 5.1 170 14:43 04.01.2020
1415 Clouds 24 1014 83 10000 5.1 170 14:20 04.01.2020
1416 Clouds 24 1013 83 10000 5.1 170 13:59 04.01.2020
1417 Clouds 24 1013 83 10000 5.1 170 13:39 04.01.2020
1418 Clouds 24 1013 83 10000 5.1 170 13:20 04.01.2020
1419 Rain 24 1015 86 0 5.59 188 12:57 04.01.2020
1420 Rain 24 1015 86 0 5.59 188 12:39 04.01.2020
1421 Rain 24 1015 86 0 5.59 188 12:19 04.01.2020
1422 Rain 24 1015 86 0 5.59 188 11:57 04.01.2020
1423 Rain 24 1015 86 0 5.59 188 11:57 04.01.2020
1424 Rain 24 1015 86 0 5.59 188 11:38 04.01.2020
1425 Rain 24 1015 86 0 5.59 188 11:38 04.01.2020
1426 Clouds 24 1014 86 0 5.22 187 11:18 04.01.2020
1427 Clouds 24 1014 86 0 5.22 187 10:41 04.01.2020
1428 Clouds 24 1014 86 0 5.22 187 10:22 04.01.2020
1429 Clouds 24 1014 86 0 5.22 187 09:48 04.01.2020
1430 Clouds 24 1014 86 0 5.22 187 09:26 04.01.2020
1431 Clouds 24 1014 86 0 5.22 187 08:49 04.01.2020
1432 Clouds 24 1014 86 0 5.2 193 08:29 04.01.2020
1433 Clouds 24 1015 87 0 5.39 166 07:59 04.01.2020
1434 Clouds 24 1015 87 0 5.39 166 07:40 04.01.2020
1435 Clouds 24 1015 87 0 5.39 166 06:46 04.01.2020
1436 Clouds 24 1015 87 0 5.39 166 05:59 04.01.2020
1437 Clear 24 1016 87 0 5.07 174 04:53 04.01.2020
1438 Clear 24 1016 87 0 5.07 174 04:32 04.01.2020
1439 Clear 24 1016 87 0 5.07 174 03:37 04.01.2020
1440 Clear 24 1016 87 0 5.07 174 03:18 04.01.2020
1441 Clouds 25 1011 83 10000 6.2 170 02:18 04.01.2020
1442 Clouds 25 1011 83 10000 6.2 170 01:45 04.01.2020
1443 Clouds 25 1011 83 10000 6.2 170 01:27 04.01.2020
1444 Clouds 26 1010 74 10000 6.7 160 00:29 04.01.2020
1445 Clouds 27 1010 74 10000 6.2 170 23:59 03.01.2020
1446 Clouds 27 1010 74 10000 6.2 170 23:59 03.01.2020
1447 Clouds 27 1010 74 10000 6.2 170 23:37 03.01.2020
1448 Clouds 27 1010 74 10000 6.2 170 23:18 03.01.2020
1449 Clouds 28 1010 69 10000 7.2 180 22:40 03.01.2020
1450 Clouds 28 1010 69 10000 7.2 180 22:19 03.01.2020
1451 Clouds 28 1011 69 10000 6.2 180 21:57 03.01.2020
1452 Clouds 28 1011 69 10000 6.2 180 21:38 03.01.2020
1453 Clouds 28 1011 69 10000 6.2 180 21:19 03.01.2020
1454 Clouds 28 1011 65 10000 7.2 170 20:55 03.01.2020
1455 Clouds 28 1011 65 10000 7.2 170 20:55 03.01.2020
1456 Clouds 28 1011 65 10000 7.2 170 20:36 03.01.2020
1457 Clouds 28 1011 65 10000 7.2 170 20:18 03.01.2020
1458 Clouds 24 1014 86 0 6.23 155 19:44 03.01.2020
1459 Clouds 28 1013 74 10000 7.2 180 19:23 03.01.2020
1460 Clouds 28 1013 74 10000 7.2 180 18:57 03.01.2020
1461 Clouds 28 1013 74 10000 7.2 180 18:38 03.01.2020
1462 Clouds 28 1013 74 10000 7.2 180 18:20 03.01.2020
1463 Clouds 27 1013 78 10000 7.2 170 17:42 03.01.2020
1464 Clouds 27 1013 78 10000 7.2 170 17:22 03.01.2020
1465 Clouds 27 1013 78 10000 7.2 170 16:58 03.01.2020
1466 Clouds 27 1013 78 10000 7.2 170 16:39 03.01.2020
1467 Clouds 27 1013 78 10000 7.2 170 16:20 03.01.2020
1468 Clouds 26 1012 74 10000 6.2 180 15:41 03.01.2020
1469 Clouds 26 1012 74 10000 6.2 180 15:19 03.01.2020
1470 Clouds 24 1012 83 10000 5.1 170 14:40 03.01.2020
1471 Clouds 24 1012 83 10000 5.1 170 14:40 03.01.2020
1472 Clouds 24 1012 83 10000 5.1 170 14:20 03.01.2020
1473 Clouds 24 1011 83 10000 6.7 180 13:59 03.01.2020
1474 Clouds 24 1011 83 10000 6.7 180 13:40 03.01.2020
1475 Clouds 24 1011 83 10000 6.7 180 13:21 03.01.2020
1476 Rain 24 1014 86 0 5.43 159 12:41 03.01.2020
1477 Rain 24 1014 86 0 5.43 159 12:22 03.01.2020
1478 Rain 24 1014 86 0 5.43 159 11:53 03.01.2020
1479 Rain 24 1014 86 0 5.43 159 11:34 03.01.2020
1480 Clouds 24 1012 87 0 5.9 175 10:58 03.01.2020
1481 Clouds 24 1012 87 0 5.9 175 10:39 03.01.2020
1482 Clouds 24 1012 87 0 5.9 175 10:21 03.01.2020
1483 Clouds 24 1012 87 0 5.9 175 09:55 03.01.2020
1484 Clouds 24 1012 87 0 5.9 175 09:37 03.01.2020
1485 Clouds 24 1012 87 0 5.9 175 09:19 03.01.2020
1486 Clouds 24 1012 87 0 5.9 175 08:44 03.01.2020
1487 Clouds 24 1014 88 0 3.98 170 08:22 03.01.2020
1488 Clouds 24 1014 88 0 3.98 170 07:43 03.01.2020
1489 Clouds 24 1014 88 0 3.98 170 07:19 03.01.2020
1490 Clouds 24 1014 88 0 3.98 170 06:59 03.01.2020
1491 Clouds 24 1014 88 0 3.98 170 06:40 03.01.2020
1492 Clouds 24 1014 88 0 3.98 170 06:22 03.01.2020
1493 Clouds 24 1014 88 0 3.98 170 06:22 03.01.2020
1494 Rain 24 1014 87 0 5.15 172 04:45 03.01.2020
1495 Rain 24 1014 87 0 5.15 172 03:38 03.01.2020
1496 Rain 24 1014 87 0 5.15 172 02:53 03.01.2020
1497 Clouds 25 1009 83 10000 5.1 180 01:50 03.01.2020
1498 Clouds 25 1009 83 10000 5.1 180 01:18 03.01.2020
1499 Clouds 25 1008 83 10000 6.7 180 00:34 03.01.2020
1500 Clouds 26 1008 83 10000 7.2 190 23:59 02.01.2020
1501 Clouds 26 1008 83 10000 7.2 190 23:39 02.01.2020
1502 Clouds 26 1008 83 10000 7.2 190 23:20 02.01.2020
1503 Rain 25 1008 83 10000 7.2 190 22:58 02.01.2020
1504 Rain 25 1008 83 10000 7.2 190 22:39 02.01.2020
1505 Rain 25 1008 83 10000 7.2 190 22:19 02.01.2020
1506 Clouds 27 1009 74 10000 7.7 190 21:55 02.01.2020
1507 Clouds 27 1009 74 10000 7.7 190 21:36 02.01.2020
1508 Clouds 27 1009 74 10000 7.7 190 21:18 02.01.2020
1509 Clouds 26 1010 83 10000 8.2 190 20:55 02.01.2020
1510 Clouds 26 1010 83 10000 8.2 190 20:36 02.01.2020
1511 Clouds 26 1010 83 10000 8.2 190 20:18 02.01.2020
1512 Clouds 27 1011 78 10000 7.2 180 19:54 02.01.2020
1513 Clouds 27 1011 78 10000 7.2 180 19:36 02.01.2020
1514 Clouds 27 1011 78 10000 7.2 180 19:36 02.01.2020
1515 Clouds 27 1011 78 10000 7.2 180 19:18 02.01.2020
1516 Clouds 26 1011 83 10000 6.2 180 18:42 02.01.2020
1517 Clouds 26 1011 83 10000 6.2 180 18:23 02.01.2020
1518 Clouds 26 1012 83 10000 5.7 190 17:58 02.01.2020
1519 Clouds 26 1012 83 10000 5.7 190 17:38 02.01.2020
1520 Clouds 26 1012 83 10000 5.7 190 17:19 02.01.2020
1521 Rain 24 1012 94 10000 5.1 170 16:57 02.01.2020
1522 Rain 24 1012 94 10000 5.1 170 16:39 02.01.2020
1523 Rain 24 1012 94 10000 5.1 170 16:20 02.01.2020
1524 Rain 24 1012 94 10000 5.1 190 15:57 02.01.2020
1525 Rain 24 1012 94 10000 5.1 190 15:57 02.01.2020
1526 Rain 24 1012 94 10000 5.1 190 15:37 02.01.2020
1527 Rain 24 1012 94 10000 5.1 190 15:19 02.01.2020
1528 Clouds 24 1011 94 10000 4.1 180 14:55 02.01.2020
1529 Clouds 24 1011 94 10000 4.1 180 14:36 02.01.2020
1530 Clouds 24 1011 94 10000 4.1 180 14:18 02.01.2020
1531 Clouds 24 1010 88 10000 4.6 180 13:47 02.01.2020
1532 Clouds 24 1010 88 10000 4.6 180 13:47 02.01.2020
1533 Clouds 24 1010 88 10000 4.6 180 13:29 02.01.2020
1534 Clouds 24 1012 86 0 5.26 175 12:44 02.01.2020
1535 Clouds 24 1012 86 0 5.26 175 12:25 02.01.2020
1536 Clouds 24 1012 86 0 5.26 175 11:43 02.01.2020
1537 Clouds 24 1012 86 0 5.26 175 11:25 02.01.2020
1538 Clouds 24 1011 87 0 6.12 174 10:57 02.01.2020
1539 Clouds 24 1011 87 0 6.12 174 10:38 02.01.2020
1540 Clouds 24 1011 87 0 6.12 174 10:19 02.01.2020
1541 Clouds 24 1011 87 0 6.12 174 09:41 02.01.2020
1542 Clouds 24 1011 87 0 6.12 174 09:22 02.01.2020
1543 Clouds 24 1011 87 0 6.12 174 08:44 02.01.2020
1544 Clouds 24 1011 87 0 6.12 174 08:25 02.01.2020
1545 Clouds 24 1013 87 0 6.24 184 07:48 02.01.2020
1546 Clouds 24 1013 87 0 6.24 184 07:28 02.01.2020
1547 Clouds 24 1013 87 0 6.24 184 06:43 02.01.2020
1548 Clouds 24 1013 87 0 6.24 184 05:54 02.01.2020
1549 Clouds 24 1013 87 0 6.23 191 04:38 02.01.2020
1550 Clouds 24 1013 87 0 6.23 191 04:19 02.01.2020
1551 Clouds 25 1008 88 10000 5.1 180 02:21 02.01.2020
1552 Clouds 25 1008 88 10000 5.1 180 01:57 02.01.2020
1553 Clouds 25 1008 88 10000 5.1 180 01:26 02.01.2020
1554 Clouds 25 1008 83 10000 6.2 170 00:52 02.01.2020
1555 Clouds 25 1008 83 10000 6.2 170 00:26 02.01.2020
1556 Clouds 27 1008 78 10000 6.2 180 23:43 01.01.2020
1557 Clouds 27 1008 78 10000 6.2 180 23:23 01.01.2020
1558 Clouds 27 1008 78 10000 6.2 170 22:39 01.01.2020
1559 Clouds 27 1008 78 10000 6.2 170 22:21 01.01.2020
1560 Clouds 28 1009 69 10000 6.2 180 21:59 01.01.2020
1561 Clouds 28 1009 69 10000 6.2 180 21:40 01.01.2020
1562 Clouds 28 1009 69 10000 6.2 180 21:20 01.01.2020
1563 Clouds 28 1009 69 10000 6.2 180 21:20 01.01.2020
1564 Clouds 27 1010 74 10000 6.7 170 20:58 01.01.2020
1565 Clouds 27 1010 74 10000 6.7 170 20:38 01.01.2020
1566 Clouds 27 1010 74 10000 6.7 170 20:20 01.01.2020
1567 Clouds 28 1011 74 10000 6.7 190 19:57 01.01.2020
1568 Clouds 28 1011 74 10000 6.7 190 19:38 01.01.2020
1569 Clouds 28 1011 74 10000 6.7 190 19:20 01.01.2020
1570 Clouds 27 1011 78 10000 5.1 200 18:57 01.01.2020
1571 Clouds 27 1011 78 10000 5.1 200 18:37 01.01.2020
1572 Clouds 27 1011 78 10000 5.1 200 18:37 01.01.2020
1573 Clouds 27 1011 78 10000 5.1 200 18:19 01.01.2020
1574 Rain 25 1012 88 10000 5.1 200 17:57 01.01.2020
1575 Rain 25 1012 88 10000 5.1 200 17:39 01.01.2020
1576 Rain 25 1012 88 10000 5.1 200 17:19 01.01.2020
1577 Clouds 26 1012 83 10000 6.2 210 16:56 01.01.2020
1578 Clouds 26 1012 83 10000 6.2 210 16:56 01.01.2020
1579 Clouds 26 1012 83 10000 6.2 210 16:37 01.01.2020
1580 Clouds 26 1012 83 10000 6.2 210 16:18 01.01.2020
1581 Clouds 25 1011 83 10000 6.2 180 15:54 01.01.2020
1582 Clouds 25 1011 83 10000 6.2 180 15:36 01.01.2020
1583 Clouds 25 1011 83 10000 6.2 180 15:18 01.01.2020
1584 Clouds 24 1010 88 10000 4.1 170 14:41 01.01.2020
1585 Clouds 24 1010 88 10000 4.1 170 14:22 01.01.2020
1586 Clouds 23 1010 94 10000 4.1 160 13:56 01.01.2020
1587 Clouds 23 1010 94 10000 4.1 160 13:56 01.01.2020
1588 Clouds 23 1010 94 10000 4.1 160 13:37 01.01.2020
1589 Clouds 23 1010 94 10000 4.1 160 13:19 01.01.2020
1590 Clouds 24 1011 87 0 4.53 188 12:57 01.01.2020
1591 Clouds 24 1011 87 0 4.53 188 12:39 01.01.2020
1592 Clouds 24 1011 87 0 4.53 188 12:19 01.01.2020
1593 Clouds 24 1011 87 0 4.53 188 11:43 01.01.2020
1594 Clouds 24 1011 87 0 4.53 188 11:23 01.01.2020
1595 Clouds 24 1011 87 0 2.97 200 10:59 01.01.2020
1596 Clouds 24 1011 87 0 2.97 200 10:41 01.01.2020
1597 Clouds 24 1011 87 0 2.97 200 10:21 01.01.2020
1598 Clouds 24 1011 87 0 2.97 200 09:57 01.01.2020
1599 Clouds 24 1011 87 0 2.97 200 09:37 01.01.2020
1600 Clouds 24 1011 87 0 2.97 200 09:18 01.01.2020
1601 Clouds 24 1011 87 0 2.97 200 09:18 01.01.2020
1602 Clouds 24 1011 87 0 2.97 200 08:55 01.01.2020
1603 Clouds 24 1011 87 0 2.97 200 08:36 01.01.2020
1604 Clouds 24 1011 87 0 2.97 200 08:36 01.01.2020
1605 Clouds 24 1011 87 0 2.97 200 08:36 01.01.2020
1606 Clouds 24 1011 87 0 2.97 200 08:36 01.01.2020
1607 Clear 24 1013 87 0 2.96 195 08:18 01.01.2020
1608 Clear 24 1013 88 0 2.85 189 07:48 01.01.2020
1609 Clear 24 1013 88 0 2.85 189 07:30 01.01.2020
1610 Clear 24 1013 88 0 2.85 189 06:44 01.01.2020
1611 Clear 24 1013 88 0 2.85 189 06:20 01.01.2020
1612 Clear 24 1014 88 0 3.93 181 04:44 01.01.2020
1613 Clear 24 1014 88 0 3.93 181 03:43 01.01.2020
1614 Clear 24 1014 88 0 3.93 181 03:22 01.01.2020
1615 Clear 24 1014 88 0 3.93 181 03:22 01.01.2020
1616 Clear 24 1014 88 0 3.93 181 02:55 01.01.2020
1617 Clear 24 1014 88 0 3.93 181 02:32 01.01.2020
1618 Clouds 25 1008 83 10000 5.1 160 01:45 01.01.2020
1619 Clouds 25 1008 83 10000 5.1 160 01:23 01.01.2020
1620 Clouds 26 1008 78 10000 6.2 170 00:54 01.01.2020
1621 Clouds 26 1008 78 10000 6.2 170 00:36 01.01.2020
1622 Clouds 26 1008 78 10000 6.2 170 00:18 01.01.2020
1623 Clouds 27 1008 74 10000 6.2 160 23:38 31.12.2019
1624 Clouds 27 1008 74 10000 6.2 160 23:19 31.12.2019
1625 Clouds 28 1008 69 10000 5.1 180 22:56 31.12.2019
1626 Clouds 28 1008 69 10000 5.1 180 22:37 31.12.2019
1627 Clouds 28 1008 69 10000 5.1 180 22:18 31.12.2019
1628 Clouds 24 1009 86 0 4.06 177 21:44 31.12.2019
1629 Clouds 27 1010 78 10000 5.1 150 21:25 31.12.2019
1630 Clouds 27 1010 78 10000 5.1 150 20:58 31.12.2019
1631 Clouds 27 1010 78 10000 5.1 150 20:39 31.12.2019
1632 Clouds 27 1010 78 10000 5.1 150 20:21 31.12.2019
1633 Clouds 28 1011 74 10000 6.7 170 19:58 31.12.2019
1634 Clouds 28 1011 74 10000 6.7 170 19:40 31.12.2019
1635 Clouds 28 1011 74 10000 6.7 170 19:21 31.12.2019
1636 Clouds 27 1011 74 10000 6.7 160 18:57 31.12.2019
1637 Clouds 27 1011 74 10000 6.7 160 18:38 31.12.2019
1638 Clouds 27 1011 74 10000 6.7 160 18:38 31.12.2019
1639 Clouds 27 1011 74 10000 6.7 160 18:19 31.12.2019
1640 Clouds 27 1012 78 10000 6.7 170 17:56 31.12.2019
1641 Clouds 27 1012 78 10000 6.7 170 17:56 31.12.2019
1642 Clouds 27 1012 78 10000 6.7 170 17:36 31.12.2019
1643 Clouds 27 1012 78 10000 6.7 170 17:18 31.12.2019
1644 Clouds 25 1012 88 10000 6.2 170 16:56 31.12.2019
1645 Clouds 25 1012 88 10000 6.2 170 16:37 31.12.2019
1646 Clouds 25 1012 88 10000 6.2 170 16:18 31.12.2019
1647 Clouds 25 1011 88 10000 5.1 160 15:56 31.12.2019
1648 Clouds 25 1011 88 10000 5.1 160 15:38 31.12.2019
1649 Clouds 25 1011 88 10000 5.1 160 15:19 31.12.2019
1650 Clouds 24 1010 88 10000 4.1 160 14:55 31.12.2019
1651 Clouds 24 1010 88 10000 4.1 160 14:37 31.12.2019
1652 Clouds 24 1010 88 10000 4.1 160 14:18 31.12.2019
1653 Clouds 24 1009 88 10000 4.6 170 13:56 31.12.2019
1654 Clouds 24 1009 88 10000 4.6 170 13:37 31.12.2019
1655 Clouds 24 1009 88 10000 4.6 170 13:19 31.12.2019
1656 Rain 24 1011 90 0 3.99 180 12:55 31.12.2019
1657 Rain 24 1011 90 0 3.99 180 12:37 31.12.2019
1658 Rain 24 1011 90 0 3.99 180 12:18 31.12.2019
1659 Rain 24 1011 90 0 3.99 180 12:18 31.12.2019
1660 Rain 24 1011 90 0 3.99 180 11:54 31.12.2019
1661 Rain 24 1011 90 0 3.99 180 11:36 31.12.2019
1662 Rain 24 1011 90 0 3.99 180 11:36 31.12.2019
1663 Clouds 24 1011 90 0 4.4 193 11:18 31.12.2019
1664 Clouds 24 1011 90 0 4.4 193 10:54 31.12.2019
1665 Clouds 24 1011 90 0 4.4 193 10:36 31.12.2019
1666 Clouds 24 1011 90 0 4.4 193 10:18 31.12.2019
1667 Clouds 24 1011 90 0 4.4 193 10:18 31.12.2019
1668 Clouds 24 1011 90 0 4.4 193 09:54 31.12.2019
1669 Clouds 24 1011 90 0 4.4 193 09:36 31.12.2019
1670 Clouds 24 1011 90 0 4.4 193 09:18 31.12.2019
1671 Clouds 24 1011 90 0 4.4 193 08:42 31.12.2019
1672 Clouds 24 1011 90 0 4.4 193 08:42 31.12.2019
1673 Clouds 24 1013 90 0 5.26 195 08:21 31.12.2019
1674 Clouds 24 1013 90 0 5.26 195 07:44 31.12.2019
1675 Clouds 24 1013 90 0 5.26 195 07:22 31.12.2019
1676 Clouds 24 1013 90 0 5.26 195 06:51 31.12.2019
1677 Clouds 24 1013 90 0 5.26 195 06:23 31.12.2019
1678 Clouds 24 1013 90 0 5.26 195 06:23 31.12.2019
1679 Clouds 24 1013 90 0 5.2 191 04:54 31.12.2019
1680 Clouds 24 1013 90 0 5.2 191 04:21 31.12.2019
1681 Clouds 24 1013 90 0 5.2 191 02:57 31.12.2019
1682 Rain 23 1008 100 8000 5.7 170 02:19 31.12.2019
1683 Rain 23 1008 100 8000 5.7 170 01:48 31.12.2019
1684 Rain 23 1008 100 8000 5.7 170 01:48 31.12.2019
1685 Rain 23 1008 100 8000 5.7 170 01:28 31.12.2019
1686 Rain 24 1008 88 8000 5.1 170 00:47 31.12.2019
1687 Rain 24 1008 88 8000 5.1 170 00:23 31.12.2019
1688 Rain 24 1008 88 8000 5.1 170 00:23 31.12.2019
1689 Clouds 24 1010 88 0 5.89 198 23:57 30.12.2019
1690 Clouds 24 1010 88 0 5.89 198 23:38 30.12.2019
1691 Clouds 24 1010 88 0 5.72 198 23:20 30.12.2019
1692 Clouds 26 1008 83 10000 6.2 180 22:58 30.12.2019
1693 Clouds 26 1008 83 10000 6.2 180 22:39 30.12.2019
1694 Clouds 26 1008 83 10000 6.2 180 22:20 30.12.2019
1695 Clouds 27 1008 78 10000 6.7 170 21:56 30.12.2019
1696 Clouds 27 1008 78 10000 6.7 170 21:38 30.12.2019
1697 Clouds 27 1008 78 10000 6.7 170 21:38 30.12.2019
1698 Clouds 27 1008 78 10000 6.7 170 21:19 30.12.2019
1699 Clouds 28 1010 74 10000 6.7 180 20:56 30.12.2019
1700 Clouds 28 1010 74 10000 6.7 180 20:56 30.12.2019
1701 Clouds 28 1010 74 10000 6.7 180 20:38 30.12.2019
1702 Clouds 28 1010 74 10000 6.7 180 20:20 30.12.2019
1703 Clouds 27 1011 78 10000 6.7 180 19:57 30.12.2019
1704 Clouds 27 1011 78 10000 6.7 180 19:37 30.12.2019
1705 Clouds 27 1011 78 10000 6.7 180 19:19 30.12.2019
1706 Clouds 27 1012 78 10000 5.1 170 18:56 30.12.2019
1707 Clouds 27 1012 78 10000 5.1 170 18:37 30.12.2019
1708 Clouds 27 1012 78 10000 5.1 170 18:19 30.12.2019
1709 Clouds 26 1012 83 10000 5.1 170 17:54 30.12.2019
1710 Clouds 26 1012 83 10000 5.1 170 17:36 30.12.2019
1711 Clouds 26 1012 83 10000 5.1 170 17:18 30.12.2019
1712 Clouds 26 1012 83 10000 5.7 170 16:41 30.12.2019
1713 Clouds 26 1012 83 10000 5.7 170 16:21 30.12.2019
1714 Clouds 24 1011 94 10000 5.1 180 15:58 30.12.2019
1715 Clouds 24 1011 94 10000 5.1 180 15:40 30.12.2019
1716 Clouds 24 1011 94 10000 5.1 180 15:20 30.12.2019
1717 Clouds 24 1011 94 10000 5.1 180 15:20 30.12.2019
1718 Clouds 24 1011 94 10000 5.1 180 15:20 30.12.2019
1719 Drizzle 23 1011 94 10000 4.1 190 14:56 30.12.2019
1720 Drizzle 23 1011 94 10000 4.1 190 14:38 30.12.2019
1721 Drizzle 23 1011 94 10000 4.1 190 14:18 30.12.2019
1722 Drizzle 23 1010 94 10000 5.1 200 13:43 30.12.2019
1723 Drizzle 23 1010 94 10000 5.1 200 13:24 30.12.2019
1724 Clouds 24 1011 88 0 5.98 193 12:59 30.12.2019
1725 Clouds 24 1011 88 0 5.98 193 12:41 30.12.2019
1726 Clouds 24 1011 88 0 5.98 193 12:19 30.12.2019
1727 Clouds 24 1011 88 0 5.98 193 11:58 30.12.2019
1728 Clouds 24 1011 88 0 5.98 193 11:39 30.12.2019
1729 Clouds 24 1011 88 0 5.41 201 11:18 30.12.2019
1730 Clouds 24 1011 88 0 5.41 201 10:43 30.12.2019
1731 Clouds 24 1011 88 0 5.41 201 10:21 30.12.2019
1732 Clouds 24 1011 88 0 5.41 201 09:55 30.12.2019
1733 Clouds 24 1011 88 0 5.41 201 09:37 30.12.2019
1734 Clouds 24 1011 88 0 5.41 201 09:18 30.12.2019
1735 Clouds 24 1011 88 0 5.41 201 08:46 30.12.2019
1736 Clouds 24 1011 88 0 5.41 201 08:23 30.12.2019
1737 Clouds 24 1012 89 0 5.51 206 07:53 30.12.2019
1738 Clouds 24 1012 89 0 5.51 206 07:33 30.12.2019
1739 Clouds 24 1012 89 0 5.51 206 06:50 30.12.2019
1740 Clouds 24 1013 89 0 5.12 190 04:45 30.12.2019
1741 Clouds 24 1013 89 0 5.12 190 03:52 30.12.2019
1742 Clouds 24 1013 89 0 5.12 190 02:47 30.12.2019
1743 Clouds 24 1008 88 10000 4.6 210 02:29 30.12.2019
1744 Clouds 24 1008 88 10000 4.6 210 01:43 30.12.2019
1745 Clouds 24 1008 88 10000 4.6 210 01:19 30.12.2019
1746 Clouds 25 1008 88 10000 3.6 190 00:42 30.12.2019
1747 Clouds 25 1008 88 10000 5.1 170 23:58 29.12.2019
1748 Clouds 25 1008 88 10000 5.1 170 23:38 29.12.2019
1749 Clouds 25 1008 88 10000 5.1 170 23:38 29.12.2019
1750 Clouds 25 1008 88 10000 5.1 170 23:19 29.12.2019
1751 Clouds 25 1008 88 10000 5.7 180 22:41 29.12.2019
1752 Clouds 25 1008 88 10000 5.7 180 22:22 29.12.2019
1753 Clouds 26 1009 83 10000 5.1 190 21:56 29.12.2019
1754 Clouds 26 1009 83 10000 5.1 190 21:38 29.12.2019
1755 Clouds 26 1009 83 10000 5.1 190 21:19 29.12.2019
1756 Clouds 27 1010 78 10000 4.6 230 20:56 29.12.2019
1757 Clouds 27 1010 78 10000 4.6 230 20:38 29.12.2019
1758 Clouds 27 1010 78 10000 4.6 230 20:18 29.12.2019
1759 Clouds 25 1010 88 10000 4.1 220 19:56 29.12.2019
1760 Clouds 25 1010 88 10000 4.1 220 19:38 29.12.2019
1761 Clouds 25 1010 88 10000 4.1 220 19:19 29.12.2019
1762 Drizzle 25 1010 88 10000 4.1 210 18:55 29.12.2019
1763 Drizzle 25 1010 88 10000 4.1 210 18:55 29.12.2019
1764 Drizzle 25 1010 88 10000 4.1 210 18:37 29.12.2019
1765 Drizzle 25 1010 88 10000 4.1 210 18:18 29.12.2019
1766 Drizzle 24 1010 94 8000 3.6 200 17:56 29.12.2019
1767 Drizzle 24 1010 94 8000 3.6 200 17:37 29.12.2019
1768 Drizzle 24 1010 94 8000 3.6 200 17:37 29.12.2019
1769 Drizzle 24 1010 94 8000 3.6 200 17:19 29.12.2019
1770 Clouds 25 1010 88 10000 3.6 210 16:55 29.12.2019
1771 Clouds 25 1010 88 10000 3.6 210 16:36 29.12.2019
1772 Clouds 25 1010 88 10000 3.6 210 16:18 29.12.2019
1773 Clouds 24 1009 94 10000 4.1 200 15:55 29.12.2019
1774 Clouds 24 1009 94 10000 4.1 200 15:37 29.12.2019
1775 Clouds 24 1009 94 10000 4.1 200 15:18 29.12.2019
1776 Rain 24 1008 94 10000 2.6 190 14:47 29.12.2019
1777 Rain 24 1008 94 10000 2.6 190 14:19 29.12.2019
1778 Rain 24 1008 94 10000 3.1 200 14:00 29.12.2019
1779 Rain 24 1008 94 10000 3.1 200 13:40 29.12.2019
1780 Rain 24 1008 94 10000 3.1 200 13:40 29.12.2019
1781 Rain 24 1008 94 10000 3.1 200 13:22 29.12.2019
1782 Clouds 24 1010 87 0 4.66 204 12:58 29.12.2019
1783 Clouds 24 1010 87 0 4.66 204 12:39 29.12.2019
1784 Clouds 24 1010 87 0 4.66 204 12:21 29.12.2019
1785 Clouds 24 1010 87 0 4.66 204 11:43 29.12.2019
1786 Clouds 24 1010 85 0 3.72 205 11:22 29.12.2019
1787 Clouds 24 1010 85 0 3.72 205 10:57 29.12.2019
1788 Clouds 24 1010 85 0 3.72 205 10:39 29.12.2019
1789 Clouds 24 1010 85 0 3.72 205 10:18 29.12.2019
1790 Clouds 24 1010 85 0 3.72 205 09:45 29.12.2019
1791 Clouds 24 1010 85 0 3.72 205 09:27 29.12.2019
1792 Clouds 24 1010 85 0 3.72 205 08:55 29.12.2019
1793 Clouds 24 1010 85 0 3.72 205 08:37 29.12.2019
1794 Clouds 24 1012 87 0 4.35 201 08:18 29.12.2019
1795 Clouds 24 1012 87 0 4.35 201 07:43 29.12.2019
1796 Clouds 24 1012 87 0 4.35 201 07:25 29.12.2019
1797 Clouds 24 1012 87 0 4.35 201 06:28 29.12.2019
1798 Clouds 24 1012 87 0 4.35 201 05:55 29.12.2019
1799 Clouds 24 1012 87 0 4.88 194 04:59 29.12.2019
1800 Clouds 24 1012 87 0 4.88 194 04:30 29.12.2019
1801 Clouds 24 1012 87 0 4.88 194 03:32 29.12.2019
1802 Clouds 24 1006 88 10000 4.1 160 02:27 29.12.2019
1803 Clouds 24 1006 88 10000 4.1 160 01:47 29.12.2019
1804 Clouds 24 1006 88 10000 4.1 160 01:28 29.12.2019
1805 Drizzle 24 1007 88 10000 4.6 170 00:45 29.12.2019
1806 Drizzle 24 1007 88 10000 4.6 170 00:24 29.12.2019
1807 Clouds 26 1006 78 10000 5.1 170 23:45 28.12.2019
1808 Clouds 26 1006 78 10000 5.1 170 23:19 28.12.2019
1809 Clouds 26 1006 78 10000 5.1 170 23:19 28.12.2019
1810 Clouds 26 1006 78 10000 5.1 170 23:19 28.12.2019
1811 Clouds 26 1007 83 10000 6.7 200 22:54 28.12.2019
1812 Clouds 26 1007 83 10000 6.7 200 22:36 28.12.2019
1813 Clouds 26 1007 83 10000 6.7 200 22:18 28.12.2019
1814 Clouds 26 1008 83 10000 5.7 190 21:55 28.12.2019
1815 Clouds 26 1008 83 10000 5.7 190 21:36 28.12.2019
1816 Clouds 26 1008 83 10000 5.7 190 21:18 28.12.2019
1817 Clouds 27 1008 74 10000 4.6 180 20:38 28.12.2019
1818 Clouds 27 1008 74 10000 4.6 180 20:20 28.12.2019
1819 Clouds 27 1008 74 10000 5.1 190 19:59 28.12.2019
1820 Clouds 27 1008 74 10000 5.1 190 19:39 28.12.2019
1821 Clouds 27 1008 74 10000 5.1 190 19:21 28.12.2019
1822 Clouds 27 1009 74 10000 5.7 170 18:59 28.12.2019
1823 Clouds 27 1009 74 10000 5.7 170 18:40 28.12.2019
1824 Clouds 27 1009 74 10000 5.7 170 18:19 28.12.2019
1825 Clouds 26 1010 78 10000 4.1 190 17:55 28.12.2019
1826 Clouds 26 1010 78 10000 4.1 190 17:55 28.12.2019
1827 Clouds 26 1010 78 10000 4.1 190 17:37 28.12.2019
1828 Clouds 26 1010 78 10000 4.1 190 17:18 28.12.2019
1829 Clouds 26 1010 78 10000 4.1 190 17:18 28.12.2019
1830 Rain 25 1010 88 10000 3.6 170 16:46 28.12.2019
1831 Rain 25 1010 88 10000 3.6 170 16:26 28.12.2019
1832 Rain 23 1010 100 10000 4.1 190 15:47 28.12.2019
1833 Rain 23 1010 100 10000 4.1 190 15:24 28.12.2019
1834 Drizzle 23 1009 94 10000 3.1 180 14:59 28.12.2019
1835 Drizzle 23 1009 94 10000 3.1 180 14:39 28.12.2019
1836 Drizzle 23 1009 94 10000 3.1 180 14:20 28.12.2019
1837 Rain 23 1009 94 10000 4.1 180 13:56 28.12.2019
1838 Rain 23 1009 94 10000 4.1 180 13:37 28.12.2019
1839 Rain 23 1009 94 10000 4.1 180 13:18 28.12.2019
1840 Clouds 24 1011 87 0 4.57 173 12:42 28.12.2019
1841 Clouds 24 1011 87 0 4.57 173 12:23 28.12.2019
1842 Clouds 24 1011 87 0 4.57 173 11:56 28.12.2019
1843 Clouds 24 1011 87 0 4.57 173 11:37 28.12.2019
1844 Clouds 24 1010 87 0 3.66 165 11:18 28.12.2019
1845 Clouds 24 1010 87 0 3.66 165 10:43 28.12.2019
1846 Clouds 24 1010 87 0 3.66 165 10:21 28.12.2019
1847 Clouds 24 1010 87 0 3.66 165 09:57 28.12.2019
1848 Clouds 24 1010 87 0 3.66 165 09:39 28.12.2019
1849 Clouds 24 1010 87 0 3.66 165 09:19 28.12.2019
1850 Clouds 24 1010 87 0 3.66 165 08:43 28.12.2019
1851 Clouds 24 1010 87 0 3.91 169 08:25 28.12.2019
1852 Rain 24 1012 86 0 4.55 162 07:49 28.12.2019
1853 Rain 24 1012 86 0 4.55 162 07:27 28.12.2019
1854 Rain 24 1012 86 0 4.55 162 05:53 28.12.2019
1855 Clouds 24 1012 86 0 5.04 163 03:52 28.12.2019
1856 Clouds 24 1012 86 0 5.04 163 03:33 28.12.2019
1857 Clouds 24 1012 86 0 5.04 163 02:43 28.12.2019
1858 Clouds 25 1007 83 10000 5.1 170 01:59 28.12.2019
1859 Clouds 25 1007 83 10000 5.1 170 01:25 28.12.2019
1860 Clouds 25 1007 83 10000 5.7 160 00:51 28.12.2019
1861 Clouds 25 1007 83 10000 5.7 160 00:32 28.12.2019
1862 Clouds 26 1007 78 10000 6.7 170 00:00 28.12.2019
1863 Clouds 26 1007 78 10000 6.7 170 23:41 27.12.2019
1864 Clouds 26 1007 78 10000 6.7 170 23:19 27.12.2019
1865 Clouds 27 1007 74 10000 7.7 170 22:57 27.12.2019
1866 Clouds 27 1007 74 10000 7.7 170 22:57 27.12.2019
1867 Clouds 27 1007 74 10000 7.7 170 22:38 27.12.2019
1868 Clouds 27 1007 74 10000 7.7 170 22:20 27.12.2019
1869 Clouds 27 1008 74 10000 8.2 160 21:44 27.12.2019
1870 Clouds 27 1008 74 10000 8.2 160 21:25 27.12.2019
1871 Clouds 27 1009 74 10000 8.7 180 20:58 27.12.2019
1872 Clouds 27 1009 74 10000 8.7 180 20:40 27.12.2019
1873 Clouds 27 1009 74 10000 8.7 180 20:21 27.12.2019
1874 Clouds 26 1009 78 10000 8.2 170 19:42 27.12.2019
1875 Clouds 26 1009 78 10000 8.2 170 19:20 27.12.2019
1876 Clouds 26 1010 78 10000 7.2 160 18:58 27.12.2019
1877 Clouds 26 1010 78 10000 7.2 160 18:37 27.12.2019
1878 Clouds 26 1010 78 10000 7.2 160 18:19 27.12.2019
1879 Clouds 26 1010 78 10000 9.3 170 17:56 27.12.2019
1880 Clouds 26 1010 78 10000 9.3 170 17:38 27.12.2019
1881 Clouds 26 1010 78 10000 9.3 170 17:18 27.12.2019
1882 Clouds 26 1010 83 10000 8.7 170 16:44 27.12.2019
1883 Clouds 26 1010 83 10000 8.7 170 16:26 27.12.2019
1884 Clouds 25 1010 83 10000 9.3 160 15:59 27.12.2019
1885 Clouds 25 1010 83 10000 9.3 160 15:40 27.12.2019
1886 Clouds 25 1010 83 10000 9.3 160 15:20 27.12.2019
1887 Clouds 24 1009 88 10000 7.2 170 14:56 27.12.2019
1888 Clouds 24 1009 88 10000 7.2 170 14:38 27.12.2019
1889 Clouds 24 1009 88 10000 7.2 170 14:20 27.12.2019
1890 Clouds 24 1009 88 10000 6.7 180 13:47 27.12.2019
1891 Clouds 24 1009 88 10000 6.7 180 13:24 27.12.2019
1892 Clouds 24 1011 87 0 6.91 166 12:56 27.12.2019
1893 Clouds 24 1011 87 0 6.91 166 12:37 27.12.2019
1894 Clouds 24 1011 87 0 6.91 166 12:18 27.12.2019
1895 Clouds 24 1011 87 0 6.91 166 12:18 27.12.2019
1896 Clouds 24 1011 87 0 6.91 166 11:42 27.12.2019
1897 Clouds 24 1011 88 0 6.06 179 11:20 27.12.2019
1898 Clouds 24 1011 88 0 6.06 179 10:47 27.12.2019
1899 Clouds 24 1011 88 0 6.06 179 10:24 27.12.2019
1900 Clouds 24 1011 88 0 6.06 179 09:59 27.12.2019
1901 Clouds 24 1011 88 0 6.06 179 09:39 27.12.2019
1902 Clouds 24 1011 88 0 6.06 179 09:21 27.12.2019
1903 Clouds 24 1011 88 0 6.06 179 08:49 27.12.2019
1904 Clouds 24 1010 88 0 5.98 174 08:30 27.12.2019
1905 Clouds 24 1012 89 0 6.11 179 07:48 27.12.2019
1906 Clouds 24 1012 89 0 6.11 179 07:25 27.12.2019
1907 Clouds 24 1012 89 0 6.11 179 06:33 27.12.2019
1908 Clouds 24 1012 89 0 4.82 191 04:48 27.12.2019
1909 Clouds 25 1007 83 10000 6.7 170 02:29 27.12.2019
1910 Clouds 25 1007 83 10000 6.7 170 01:48 27.12.2019
1911 Clouds 25 1007 83 10000 6.7 170 01:23 27.12.2019
1912 Clouds 25 1006 83 10000 6.7 180 00:51 27.12.2019
1913 Clouds 25 1006 83 10000 6.7 180 00:33 27.12.2019
1914 Clouds 25 1006 83 10000 6.7 170 23:56 26.12.2019
1915 Clouds 25 1006 83 10000 6.7 170 23:38 26.12.2019
1916 Clouds 25 1006 83 10000 6.7 170 23:20 26.12.2019
1917 Clouds 26 1006 83 10000 6.2 170 22:41 26.12.2019
1918 Clouds 26 1006 83 10000 6.2 170 22:19 26.12.2019
1919 Rain 26 1007 83 10000 4.1 190 21:40 26.12.2019
1920 Rain 26 1007 83 10000 4.1 190 21:22 26.12.2019
1921 Rain 26 1007 83 10000 7.2 170 20:59 26.12.2019
1922 Rain 26 1007 83 10000 7.2 170 20:41 26.12.2019
1923 Rain 26 1007 83 10000 7.2 170 20:22 26.12.2019
1924 Clouds 25 1008 88 10000 5.7 180 19:56 26.12.2019
1925 Clouds 25 1008 88 10000 5.7 180 19:38 26.12.2019
1926 Clouds 25 1008 88 10000 5.7 180 19:20 26.12.2019
1927 Clouds 25 1009 88 10000 3.6 180 18:57 26.12.2019
1928 Clouds 25 1009 88 10000 3.6 180 18:37 26.12.2019
1929 Clouds 25 1009 88 10000 3.6 180 18:18 26.12.2019
1930 Rain 24 1009 94 10000 4.1 170 17:42 26.12.2019
1931 Rain 24 1009 94 10000 4.1 170 17:22 26.12.2019
1932 Clouds 24 1012 88 0 7.57 165 16:50 26.12.2019
1933 Clouds 24 1012 88 0 7.57 165 16:28 26.12.2019
1934 Rain 24 1009 94 10000 5.1 190 15:58 26.12.2019
1935 Rain 24 1009 94 10000 5.1 190 15:39 26.12.2019
1936 Rain 24 1009 94 10000 5.1 190 15:19 26.12.2019
1937 Drizzle 23 1008 94 10000 4.1 190 14:41 26.12.2019
1938 Drizzle 23 1008 94 10000 4.1 190 14:23 26.12.2019
1939 Drizzle 23 1008 94 10000 4.1 190 14:23 26.12.2019
1940 Drizzle 23 1007 94 8000 4.6 150 13:55 26.12.2019
1941 Drizzle 23 1007 94 8000 4.6 150 13:36 26.12.2019
1942 Drizzle 23 1007 94 8000 4.6 150 13:18 26.12.2019
1943 Clouds 24 1010 86 0 7.52 163 12:45 26.12.2019
1944 Clouds 24 1010 86 0 7.52 163 12:25 26.12.2019
1945 Clouds 24 1010 86 0 7.52 163 11:59 26.12.2019
1946 Clouds 24 1010 86 0 7.52 163 11:40 26.12.2019
1947 Clouds 24 1010 86 0 7.52 163 11:40 26.12.2019
1948 Clouds 24 1009 87 0 5.84 163 11:21 26.12.2019
1949 Clouds 24 1009 87 0 5.84 163 10:50 26.12.2019
1950 Clouds 24 1009 87 0 5.84 163 10:26 26.12.2019
1951 Clouds 24 1009 87 0 5.84 163 09:55 26.12.2019
1952 Clouds 24 1009 87 0 5.84 163 09:36 26.12.2019
1953 Clouds 24 1009 87 0 5.84 163 09:18 26.12.2019
1954 Clouds 24 1009 87 0 5.84 163 08:39 26.12.2019
1955 Clouds 24 1010 87 0 5.39 164 08:20 26.12.2019
1956 Clouds 24 1010 87 0 5.39 164 07:41 26.12.2019
1957 Clouds 24 1010 87 0 5.39 164 07:19 26.12.2019
1958 Clouds 24 1010 87 0 5.39 164 06:37 26.12.2019
1959 Clouds 24 1010 87 0 5.39 164 06:19 26.12.2019
1960 Clouds 24 1010 87 0 5.39 164 05:41 26.12.2019
1961 Clouds 24 1010 87 0 5.25 169 04:33 26.12.2019
1962 Clouds 24 1010 87 0 5.25 169 03:31 26.12.2019
1963 Clouds 24 1010 87 0 5.25 169 02:46 26.12.2019
1964 Clouds 25 1005 83 10000 5.1 170 02:25 26.12.2019
1965 Clouds 25 1005 83 10000 5.1 170 01:44 26.12.2019
1966 Clouds 25 1005 83 10000 5.1 170 01:24 26.12.2019
1967 Clouds 26 1005 78 10000 6.2 180 00:44 26.12.2019
1968 Clouds 26 1005 78 10000 6.2 180 00:23 26.12.2019
1969 Clouds 27 1005 74 10000 5.7 190 23:57 25.12.2019
1970 Clouds 27 1005 74 10000 5.7 190 23:36 25.12.2019
1971 Clouds 27 1005 74 10000 5.7 190 23:18 25.12.2019
1972 Clouds 27 1005 74 10000 6.2 190 22:55 25.12.2019
1973 Clouds 27 1005 74 10000 6.2 190 22:37 25.12.2019
1974 Clouds 27 1005 74 10000 6.2 190 22:18 25.12.2019
1975 Clouds 27 1005 74 10000 6.7 190 21:40 25.12.2019
1976 Clouds 27 1005 74 10000 6.7 190 21:22 25.12.2019
1977 Clouds 27 1006 74 10000 8.2 170 20:59 25.12.2019
1978 Clouds 27 1006 74 10000 8.2 170 20:40 25.12.2019
1979 Clouds 27 1006 74 10000 8.2 170 20:19 25.12.2019
1980 Clouds 27 1007 74 10000 6.7 160 19:57 25.12.2019
1981 Clouds 27 1007 74 10000 6.7 160 19:39 25.12.2019
1982 Clouds 27 1007 74 10000 6.7 160 19:21 25.12.2019
1983 Clouds 27 1008 74 10000 6.2 190 18:39 25.12.2019
1984 Clouds 27 1008 74 10000 6.2 190 18:20 25.12.2019
1985 Clouds 26 1009 78 10000 4.6 170 17:43 25.12.2019
1986 Clouds 26 1009 78 10000 4.6 170 17:21 25.12.2019
1987 Clouds 24 1009 88 10000 5.7 180 16:59 25.12.2019
1988 Clouds 24 1009 88 10000 5.7 180 16:39 25.12.2019
1989 Clouds 24 1009 88 10000 5.7 180 16:19 25.12.2019
1990 Clouds 24 1009 88 10000 3.6 180 15:57 25.12.2019
1991 Clouds 24 1009 88 10000 3.6 180 15:39 25.12.2019
1992 Clouds 24 1009 88 10000 3.6 180 15:39 25.12.2019
1993 Clouds 24 1009 88 10000 3.6 180 15:39 25.12.2019
1994 Clouds 24 1009 88 10000 3.6 180 15:21 25.12.2019
1995 Clouds 24 1008 88 10000 4.1 180 14:58 25.12.2019
1996 Clouds 24 1008 88 10000 4.1 180 14:40 25.12.2019
1997 Clouds 24 1008 88 10000 4.1 180 14:21 25.12.2019
1998 Clouds 23 1008 94 10000 5.1 180 13:55 25.12.2019
1999 Clouds 23 1008 94 10000 5.1 180 13:36 25.12.2019
2000 Clouds 23 1008 94 10000 5.1 180 13:18 25.12.2019
2001 Rain 24 1010 87 0 5.31 168 12:39 25.12.2019
2002 Rain 24 1010 87 0 5.31 168 12:20 25.12.2019
2003 Rain 24 1010 87 0 5.31 168 11:54 25.12.2019
2004 Rain 24 1010 87 0 5.31 168 11:36 25.12.2019
2005 Clouds 24 1009 86 0 4.41 171 11:18 25.12.2019
2006 Clouds 24 1009 86 0 4.41 171 10:37 25.12.2019
2007 Clouds 24 1009 86 0 4.41 171 10:19 25.12.2019
2008 Clouds 24 1009 86 0 4.41 171 09:49 25.12.2019
2009 Clouds 24 1009 86 0 4.41 171 09:30 25.12.2019
2010 Clouds 24 1009 86 0 4.41 171 08:47 25.12.2019
2011 Clouds 24 1009 85 0 4.52 173 08:29 25.12.2019
2012 Clouds 24 1011 84 0 4.35 176 07:50 25.12.2019
2013 Clouds 24 1011 84 0 4.35 176 07:31 25.12.2019
2014 Clouds 24 1011 84 0 4.35 176 06:50 25.12.2019
2015 Clouds 24 1011 84 0 4.35 176 06:22 25.12.2019
2016 Clouds 24 1012 85 0 4.17 171 05:18 25.12.2019
2017 Clouds 24 1012 85 0 4.17 171 04:39 25.12.2019
2018 Clouds 24 1012 85 0 4.17 171 04:18 25.12.2019
2019 Clouds 24 1012 85 0 4.17 171 03:40 25.12.2019
2020 Clouds 24 1012 85 0 4.17 171 02:39 25.12.2019
2021 Clouds 25 1007 83 10000 4.6 170 01:59 25.12.2019
2022 Clouds 25 1007 83 10000 4.6 170 01:25 25.12.2019
2023 Clouds 26 1006 78 10000 5.1 180 00:52 25.12.2019
2024 Clouds 26 1006 78 10000 5.1 180 00:29 25.12.2019
2025 Clouds 26 1006 78 10000 6.7 180 23:56 24.12.2019
2026 Clouds 26 1006 78 10000 6.7 180 23:37 24.12.2019
2027 Clouds 26 1006 78 10000 6.7 180 23:19 24.12.2019
2028 Clouds 27 1006 74 10000 5.7 180 22:40 24.12.2019
2029 Clouds 27 1006 74 10000 5.7 180 22:21 24.12.2019
2030 Clouds 27 1007 74 10000 7.2 190 21:43 24.12.2019
2031 Clouds 27 1007 74 10000 7.2 190 21:22 24.12.2019
2032 Clouds 27 1008 74 10000 5.1 200 20:54 24.12.2019
2033 Clouds 27 1008 74 10000 5.1 200 20:36 24.12.2019
2034 Clouds 27 1008 74 10000 5.1 200 20:18 24.12.2019
2035 Clouds 27 1008 74 10000 5.1 200 20:18 24.12.2019
2036 Clouds 27 1009 74 10000 6.2 170 19:43 24.12.2019
2037 Clouds 27 1009 74 10000 6.2 170 19:19 24.12.2019
2038 Clouds 27 1009 74 10000 5.7 180 18:43 24.12.2019
2039 Clouds 27 1009 74 10000 5.7 180 18:24 24.12.2019
2040 Clouds 26 1010 78 10000 4.1 180 17:58 24.12.2019
2041 Clouds 26 1010 78 10000 4.1 180 17:37 24.12.2019
2042 Clouds 26 1010 78 10000 4.1 180 17:19 24.12.2019
2043 Clouds 25 1010 83 10000 5.1 190 16:55 24.12.2019
2044 Clouds 25 1010 83 10000 5.1 190 16:36 24.12.2019
2045 Clouds 25 1010 83 10000 5.1 190 16:18 24.12.2019
2046 Clouds 24 1010 83 10000 4.6 140 15:54 24.12.2019
2047 Clouds 24 1010 83 10000 4.6 140 15:36 24.12.2019
2048 Clouds 24 1010 83 10000 4.6 140 15:36 24.12.2019
2049 Clouds 24 1010 83 10000 4.6 140 15:18 24.12.2019
2050 Clouds 24 1009 83 10000 5.7 150 14:41 24.12.2019
2051 Clouds 24 1009 83 10000 5.7 150 14:22 24.12.2019
2052 Clouds 24 1009 83 10000 4.6 160 13:57 24.12.2019
2053 Clouds 24 1009 83 10000 4.6 160 13:39 24.12.2019
2054 Clouds 24 1009 83 10000 4.6 160 13:21 24.12.2019
2055 Rain 23 1011 84 0 4.82 154 12:58 24.12.2019
2056 Rain 23 1011 84 0 4.82 154 12:58 24.12.2019
2057 Rain 23 1011 84 0 4.82 154 12:38 24.12.2019
2058 Rain 23 1011 84 0 4.82 154 12:19 24.12.2019
2059 Rain 23 1011 84 0 4.82 154 11:58 24.12.2019
2060 Rain 23 1011 84 0 4.82 154 11:38 24.12.2019
2061 Clouds 23 1010 84 0 4.41 166 11:20 24.12.2019
2062 Clouds 23 1010 84 0 4.41 166 10:57 24.12.2019
2063 Clouds 23 1010 84 0 4.41 166 10:38 24.12.2019
2064 Clouds 23 1010 84 0 4.41 166 10:20 24.12.2019
2065 Clouds 23 1010 84 0 4.41 166 09:58 24.12.2019
2066 Clouds 23 1010 84 0 4.41 166 09:40 24.12.2019
2067 Clouds 23 1010 84 0 4.41 166 09:21 24.12.2019
2068 Clouds 23 1010 84 0 4.41 166 08:47 24.12.2019
2069 Clouds 23 1010 84 0 4.67 171 08:25 24.12.2019
2070 Clouds 24 1011 82 0 4.6 172 07:59 24.12.2019
2071 Clouds 24 1011 82 0 4.6 172 07:39 24.12.2019
2072 Clouds 24 1011 82 0 4.6 172 07:21 24.12.2019
2073 Clouds 24 1011 82 0 4.6 172 07:21 24.12.2019
2074 Clouds 24 1011 82 0 4.6 172 06:40 24.12.2019
2075 Clouds 24 1011 82 0 4.6 172 06:19 24.12.2019
2076 Clouds 24 1011 82 0 4.6 172 05:51 24.12.2019
2077 Clouds 24 1012 84 0 4.48 173 05:19 24.12.2019
2078 Clouds 24 1012 84 0 4.48 173 05:19 24.12.2019
2079 Clouds 24 1012 84 0 4.48 173 04:21 24.12.2019
2080 Clouds 24 1012 84 0 4.48 173 03:46 24.12.2019
2081 Clouds 25 1007 78 10000 4.6 140 02:28 24.12.2019
2082 Clouds 25 1007 78 10000 4.6 140 01:54 24.12.2019
2083 Clouds 25 1007 78 10000 4.6 140 01:25 24.12.2019
2084 Clouds 26 1006 78 10000 5.1 170 00:56 24.12.2019
2085 Clouds 26 1006 78 10000 5.1 170 00:37 24.12.2019
2086 Clouds 26 1006 78 10000 5.1 170 00:19 24.12.2019
2087 Clouds 26 1006 78 10000 5.1 170 00:19 24.12.2019
2088 Clouds 26 1006 78 10000 5.7 200 23:41 23.12.2019
2089 Clouds 26 1006 78 10000 5.7 200 23:23 23.12.2019
2090 Clouds 27 1006 74 10000 5.1 190 22:56 23.12.2019
2091 Clouds 27 1006 74 10000 5.1 190 22:37 23.12.2019
2092 Clouds 27 1006 74 10000 5.1 190 22:19 23.12.2019
2093 Clouds 23 1008 82 0 4.98 170 21:55 23.12.2019
2094 Clouds 23 1008 82 0 4.98 170 21:36 23.12.2019
2095 Clouds 28 1008 69 10000 6.7 160 21:18 23.12.2019
2096 Clouds 28 1008 69 10000 6.7 160 20:57 23.12.2019
2097 Clouds 28 1008 69 10000 6.7 160 20:39 23.12.2019
2098 Clouds 28 1008 69 10000 6.7 160 20:39 23.12.2019
2099 Clouds 28 1008 69 10000 6.7 160 20:18 23.12.2019
2100 Clouds 28 1008 69 10000 7.2 160 19:56 23.12.2019
2101 Clouds 28 1008 69 10000 7.2 160 19:38 23.12.2019
2102 Clouds 28 1008 69 10000 7.2 160 19:19 23.12.2019
2103 Clouds 28 1008 69 10000 7.2 160 19:19 23.12.2019
2104 Clouds 27 1009 69 10000 8.2 150 18:57 23.12.2019
2105 Clouds 27 1009 69 10000 8.2 150 18:38 23.12.2019
2106 Clouds 27 1009 69 10000 8.2 150 18:20 23.12.2019
2107 Clouds 26 1010 78 10000 7.2 140 17:56 23.12.2019
2108 Clouds 26 1010 78 10000 7.2 140 17:37 23.12.2019
2109 Clouds 26 1010 78 10000 7.2 140 17:19 23.12.2019
2110 Clouds 25 1010 78 10000 7.7 160 16:42 23.12.2019
2111 Clouds 25 1010 78 10000 7.7 160 16:42 23.12.2019
2112 Clouds 25 1010 78 10000 7.7 160 16:19 23.12.2019
2113 Clouds 25 1010 83 10000 5.1 150 15:59 23.12.2019
2114 Clouds 25 1010 83 10000 5.1 150 15:39 23.12.2019
2115 Clouds 25 1010 83 10000 5.1 150 15:20 23.12.2019
2116 Clouds 24 1010 83 10000 4.6 150 14:59 23.12.2019
2117 Clouds 24 1010 83 10000 4.6 150 14:41 23.12.2019
2118 Clouds 24 1010 83 10000 4.6 150 14:23 23.12.2019
2119 Clouds 23 1009 88 10000 4.1 160 13:58 23.12.2019
2120 Clouds 23 1009 88 10000 4.1 160 13:40 23.12.2019
2121 Clouds 23 1009 88 10000 4.1 160 13:22 23.12.2019
2122 Clouds 23 1009 88 10000 4.1 160 13:22 23.12.2019
2123 Clouds 23 1011 82 0 5.5 171 12:57 23.12.2019
2124 Clouds 23 1011 82 0 5.5 171 12:39 23.12.2019
2125 Clouds 23 1011 82 0 5.5 171 12:19 23.12.2019
2126 Clouds 23 1011 82 0 5.5 171 11:44 23.12.2019
2127 Clouds 23 1011 82 0 5.5 171 11:26 23.12.2019
2128 Clouds 23 1010 81 0 5.51 180 10:59 23.12.2019
2129 Clouds 23 1010 81 0 5.51 180 10:40 23.12.2019
2130 Clouds 23 1010 81 0 5.51 180 10:20 23.12.2019
2131 Clouds 23 1010 81 0 5.51 180 09:59 23.12.2019
2132 Clouds 23 1010 81 0 5.51 180 09:39 23.12.2019
2133 Clouds 23 1010 81 0 5.51 180 09:21 23.12.2019
2134 Clouds 23 1010 81 0 5.51 180 08:56 23.12.2019
2135 Clouds 23 1010 81 0 5.51 180 08:38 23.12.2019
2136 Clouds 23 1011 82 0 5.37 191 08:19 23.12.2019
2137 Clouds 23 1011 82 0 5.37 191 07:43 23.12.2019
2138 Clouds 23 1011 82 0 5.37 191 07:20 23.12.2019
2139 Clouds 23 1011 82 0 5.37 191 06:52 23.12.2019
2140 Clouds 23 1011 82 0 5.37 191 06:25 23.12.2019
2141 Clouds 23 1011 82 0 5.37 191 05:50 23.12.2019
2142 Clouds 23 1011 82 0 5.37 191 05:26 23.12.2019
2143 Clouds 23 1012 83 0 4.83 205 04:31 23.12.2019
2144 Clouds 23 1012 83 0 4.83 205 02:58 23.12.2019
2145 Clouds 23 1012 83 0 4.83 205 02:40 23.12.2019
2146 Clouds 24 1007 83 10000 4.6 200 02:18 23.12.2019
2147 Clouds 24 1007 83 10000 4.6 200 01:41 23.12.2019
2148 Clouds 24 1007 83 10000 4.6 200 01:19 23.12.2019
2149 Clouds 25 1007 78 10000 5.1 210 00:41 23.12.2019
2150 Clouds 25 1007 78 10000 5.1 210 00:19 23.12.2019
2151 Clouds 25 1007 78 10000 5.7 230 23:39 22.12.2019
2152 Clouds 25 1007 78 10000 5.7 230 23:20 22.12.2019
2153 Clouds 26 1007 74 10000 4.6 190 22:58 22.12.2019
2154 Clouds 26 1007 74 10000 4.6 190 22:39 22.12.2019
2155 Clouds 26 1007 74 10000 4.6 190 22:19 22.12.2019
2156 Clouds 26 1008 74 10000 5.1 190 21:57 22.12.2019
2157 Clouds 26 1008 74 10000 5.1 190 21:39 22.12.2019
2158 Clouds 26 1008 74 10000 5.1 190 21:20 22.12.2019
2159 Clouds 26 1009 74 10000 4.6 200 20:56 22.12.2019
2160 Clouds 26 1009 74 10000 4.6 200 20:38 22.12.2019
2161 Clouds 26 1009 74 10000 4.6 200 20:18 22.12.2019
2162 Clouds 26 1009 74 10000 4.1 190 19:41 22.12.2019
2163 Clouds 26 1009 74 10000 4.1 190 19:21 22.12.2019
2164 Clouds 27 1010 74 10000 5.1 200 18:58 22.12.2019
2165 Clouds 27 1010 74 10000 5.1 200 18:38 22.12.2019
2166 Clouds 27 1010 74 10000 5.1 200 18:19 22.12.2019
2167 Clouds 26 1011 78 10000 6.2 170 17:55 22.12.2019
2168 Clouds 26 1011 78 10000 6.2 170 17:37 22.12.2019
2169 Clouds 26 1011 78 10000 6.2 170 17:18 22.12.2019
2170 Clouds 26 1011 74 10000 6.2 200 16:43 22.12.2019
2171 Clouds 26 1011 74 10000 6.2 200 16:43 22.12.2019
2172 Clouds 26 1011 74 10000 6.2 200 16:23 22.12.2019
2173 Clouds 26 1011 74 10000 4.1 210 15:59 22.12.2019
2174 Clouds 26 1011 74 10000 4.1 210 15:39 22.12.2019
2175 Clouds 26 1011 74 10000 4.1 210 15:21 22.12.2019
2176 Clouds 26 1011 74 10000 4.1 210 15:21 22.12.2019
2177 Clouds 24 1010 83 10000 3.6 180 14:59 22.12.2019
2178 Clouds 24 1010 83 10000 3.6 180 14:39 22.12.2019
2179 Clouds 24 1010 83 10000 3.6 180 14:19 22.12.2019
2180 Clouds 23 1009 88 10000 4.1 190 13:56 22.12.2019
2181 Clouds 23 1009 88 10000 4.1 190 13:38 22.12.2019
2182 Clouds 23 1009 88 10000 4.1 190 13:19 22.12.2019
2183 Clouds 23 1011 87 0 5.26 179 12:57 22.12.2019
2184 Clouds 23 1011 87 0 5.26 179 12:57 22.12.2019
2185 Clouds 23 1011 87 0 5.26 179 12:38 22.12.2019
2186 Clouds 23 1011 87 0 5.26 179 12:19 22.12.2019
2187 Clouds 23 1011 87 0 5.26 179 12:19 22.12.2019
2188 Clouds 23 1011 87 0 5.26 179 11:58 22.12.2019
2189 Clouds 23 1011 87 0 5.26 179 11:38 22.12.2019
2190 Clouds 22 1010 88 0 5.86 181 11:19 22.12.2019
2191 Clouds 22 1010 88 0 5.86 181 10:57 22.12.2019
2192 Clouds 22 1010 88 0 5.86 181 10:38 22.12.2019
2193 Clouds 22 1010 88 0 5.86 181 10:19 22.12.2019
2194 Clouds 22 1010 88 0 5.86 181 09:57 22.12.2019
2195 Clouds 22 1010 88 0 5.86 181 09:57 22.12.2019
2196 Clouds 22 1010 88 0 5.86 181 09:39 22.12.2019
2197 Clouds 22 1010 88 0 5.86 181 09:20 22.12.2019
2198 Clouds 22 1010 88 0 5.86 181 08:45 22.12.2019
2199 Clouds 23 1011 88 0 6.12 186 08:22 22.12.2019
2200 Clouds 23 1011 87 0 6.2 186 07:44 22.12.2019
2201 Clouds 23 1011 87 0 6.2 186 07:21 22.12.2019
2202 Clouds 23 1011 87 0 6.2 186 06:53 22.12.2019
2203 Clouds 23 1011 87 0 6.2 186 06:26 22.12.2019
2204 Clouds 23 1011 87 0 6.2 186 05:33 22.12.2019
2205 Clouds 23 1012 87 0 5.11 200 04:46 22.12.2019
2206 Clouds 23 1012 87 0 5.11 200 04:25 22.12.2019
2207 Clouds 23 1012 87 0 5.11 200 02:45 22.12.2019
2208 Clouds 24 1007 83 10000 5.7 220 02:21 22.12.2019
2209 Clouds 24 1007 83 10000 5.7 220 01:31 22.12.2019
2210 Clouds 25 1007 78 10000 5.1 200 00:54 22.12.2019
2211 Clouds 25 1007 78 10000 5.1 200 00:36 22.12.2019
2212 Clouds 25 1007 78 10000 5.1 200 00:18 22.12.2019
2213 Clouds 26 1007 74 10000 5.1 190 23:40 21.12.2019
2214 Clouds 26 1007 74 10000 5.1 190 23:21 21.12.2019
2215 Clouds 27 1007 69 10000 6.7 210 22:47 21.12.2019
2216 Clouds 27 1007 69 10000 6.7 210 22:20 21.12.2019
2217 Clouds 27 1007 74 10000 5.1 190 21:59 21.12.2019
2218 Clouds 27 1007 74 10000 5.1 190 21:40 21.12.2019
2219 Clouds 27 1007 74 10000 5.1 190 21:40 21.12.2019
2220 Clouds 27 1007 74 10000 5.1 190 21:21 21.12.2019
2221 Clouds 27 1008 74 10000 6.2 210 20:59 21.12.2019
2222 Clouds 27 1008 74 10000 6.2 210 20:59 21.12.2019
2223 Clouds 27 1008 74 10000 6.2 210 20:41 21.12.2019
2224 Clouds 27 1008 74 10000 6.2 210 20:22 21.12.2019
2225 Clouds 26 1009 78 10000 5.7 200 19:59 21.12.2019
2226 Clouds 26 1009 78 10000 5.7 200 19:41 21.12.2019
2227 Clouds 26 1009 78 10000 5.7 200 19:41 21.12.2019
2228 Clouds 26 1009 78 10000 5.7 200 19:20 21.12.2019
2229 Clouds 26 1010 78 10000 6.2 170 18:59 21.12.2019
2230 Clouds 26 1010 78 10000 6.2 170 18:40 21.12.2019
2231 Clouds 26 1010 78 10000 6.2 170 18:22 21.12.2019
2232 Clouds 25 1011 83 10000 6.2 190 17:55 21.12.2019
2233 Clouds 25 1011 83 10000 6.2 190 17:37 21.12.2019
2234 Clouds 25 1011 83 10000 6.2 190 17:18 21.12.2019
2235 Rain 25 1011 78 10000 6.7 170 16:41 21.12.2019
2236 Rain 25 1011 78 10000 6.7 170 16:19 21.12.2019
2237 Rain 25 1011 78 10000 6.7 170 16:19 21.12.2019
2238 Rain 24 1010 83 10000 4.6 180 15:58 21.12.2019
2239 Rain 24 1010 83 10000 4.6 180 15:39 21.12.2019
2240 Rain 24 1010 83 10000 4.6 180 15:20 21.12.2019
2241 Rain 23 1009 88 10000 9.3 180 14:57 21.12.2019
2242 Rain 23 1009 88 10000 9.3 180 14:39 21.12.2019
2243 Rain 23 1009 88 10000 9.3 180 14:39 21.12.2019
2244 Rain 23 1009 88 10000 9.3 180 14:20 21.12.2019
2245 Clouds 23 1011 86 0 5.29 174 13:56 21.12.2019
2246 Clouds 23 1011 86 0 5.29 174 13:38 21.12.2019
2247 Drizzle 22 1009 94 5000 5.7 170 13:18 21.12.2019
2248 Clouds 23 1011 85 0 5.54 169 12:55 21.12.2019
2249 Clouds 23 1011 85 0 5.54 169 12:37 21.12.2019
2250 Clouds 23 1011 85 0 5.54 169 12:18 21.12.2019
2251 Clouds 23 1011 85 0 5.54 169 11:44 21.12.2019
2252 Clouds 23 1011 85 0 5.54 169 11:26 21.12.2019
2253 Rain 23 1010 84 0 6.14 175 10:57 21.12.2019
2254 Rain 23 1010 84 0 6.14 175 10:57 21.12.2019
2255 Rain 23 1010 84 0 6.14 175 10:38 21.12.2019
2256 Rain 23 1010 84 0 6.14 175 10:20 21.12.2019
2257 Rain 23 1010 84 0 6.14 175 09:44 21.12.2019
2258 Rain 23 1010 84 0 6.14 175 09:22 21.12.2019
2259 Rain 23 1010 84 0 6.14 175 08:59 21.12.2019
2260 Rain 23 1010 84 0 6.14 175 08:39 21.12.2019
2261 Rain 23 1012 86 0 5.85 177 08:21 21.12.2019
2262 Rain 23 1012 85 0 5.84 180 07:44 21.12.2019
2263 Rain 23 1012 85 0 5.84 180 07:22 21.12.2019
2264 Rain 23 1012 85 0 5.84 180 06:45 21.12.2019
2265 Rain 23 1012 85 0 5.84 180 06:26 21.12.2019
2266 Rain 23 1012 85 0 5.84 180 05:51 21.12.2019
2267 Clouds 23 1012 85 0 5.87 184 04:58 21.12.2019
2268 Clouds 23 1012 85 0 5.87 184 03:57 21.12.2019
2269 Clouds 23 1012 85 0 5.87 184 02:52 21.12.2019
2270 Clouds 24 1008 83 10000 6.2 190 01:59 21.12.2019
2271 Clouds 24 1008 83 10000 6.2 190 01:28 21.12.2019
2272 Clouds 24 1007 83 10000 5.1 180 00:53 21.12.2019
2273 Clouds 24 1007 83 10000 5.1 180 00:33 21.12.2019
2274 Clouds 26 1007 69 10000 6.2 160 23:59 20.12.2019
2275 Clouds 26 1007 69 10000 6.2 160 23:38 20.12.2019
2276 Clouds 26 1007 69 10000 6.2 160 23:18 20.12.2019
2277 Clouds 26 1007 74 10000 5.1 170 22:40 20.12.2019
2278 Clouds 26 1007 74 10000 5.1 170 22:21 20.12.2019
2279 Clouds 26 1008 74 10000 6.7 160 21:58 20.12.2019
2280 Clouds 26 1008 74 10000 6.7 160 21:39 20.12.2019
2281 Clouds 26 1008 74 10000 6.7 160 21:19 20.12.2019
2282 Clouds 26 1009 78 10000 5.7 170 20:39 20.12.2019
2283 Clouds 26 1009 78 10000 5.7 170 20:20 20.12.2019
2284 Clouds 26 1010 78 10000 6.2 190 19:58 20.12.2019
2285 Clouds 26 1010 78 10000 6.2 190 19:40 20.12.2019
2286 Clouds 26 1010 78 10000 6.2 190 19:40 20.12.2019
2287 Clouds 26 1010 78 10000 6.2 190 19:19 20.12.2019
2288 Clouds 26 1010 78 10000 6.2 180 18:42 20.12.2019
2289 Clouds 26 1010 78 10000 6.2 180 18:24 20.12.2019
2290 Clouds 25 1011 83 10000 4.6 180 17:59 20.12.2019
2291 Clouds 25 1011 83 10000 4.6 180 17:41 20.12.2019
2292 Clouds 25 1011 83 10000 4.6 180 17:21 20.12.2019
2293 Clouds 25 1011 83 10000 4.6 180 17:21 20.12.2019
2294 Clouds 25 1011 83 10000 4.1 170 16:59 20.12.2019
2295 Clouds 25 1011 83 10000 4.1 170 16:39 20.12.2019
2296 Clouds 25 1011 83 10000 4.1 170 16:20 20.12.2019
2297 Clouds 24 1010 88 10000 4.6 130 15:56 20.12.2019
2298 Clouds 24 1010 88 10000 4.6 130 15:38 20.12.2019
2299 Clouds 24 1010 88 10000 4.6 130 15:19 20.12.2019
2300 Clouds 24 1009 83 10000 3.6 150 14:43 20.12.2019
2301 Clouds 24 1009 83 10000 3.6 150 14:25 20.12.2019
2302 Clouds 23 1009 88 10000 5.1 160 13:59 20.12.2019
2303 Clouds 23 1009 88 10000 5.1 160 13:59 20.12.2019
2304 Clouds 23 1009 88 10000 5.1 160 13:40 20.12.2019
2305 Clouds 23 1009 88 10000 5.1 160 13:20 20.12.2019
2306 Clouds 23 1011 85 0 6.18 173 12:57 20.12.2019
2307 Clouds 23 1011 85 0 6.18 173 12:37 20.12.2019
2308 Clouds 23 1011 85 0 6.18 173 12:18 20.12.2019
2309 Clouds 23 1011 85 0 6.18 173 11:57 20.12.2019
2310 Clouds 23 1011 85 0 6.18 173 11:39 20.12.2019
2311 Clouds 23 1010 85 0 6.71 165 11:18 20.12.2019
2312 Clouds 23 1010 85 0 6.71 165 10:56 20.12.2019
2313 Clouds 23 1010 85 0 6.71 165 10:38 20.12.2019
2314 Clouds 23 1010 85 0 6.71 165 10:20 20.12.2019
2315 Clouds 23 1010 85 0 6.71 165 10:20 20.12.2019
2316 Clouds 23 1010 85 0 6.71 165 09:43 20.12.2019
2317 Clouds 23 1010 85 0 6.71 165 09:22 20.12.2019
2318 Clouds 23 1010 85 0 6.71 165 08:58 20.12.2019
2319 Clouds 23 1010 85 0 6.71 165 08:40 20.12.2019
2320 Clouds 23 1012 85 0 6.93 162 08:21 20.12.2019
2321 Clouds 23 1012 85 0 6.93 162 07:57 20.12.2019
2322 Clouds 23 1012 85 0 6.93 162 07:57 20.12.2019
2323 Clouds 23 1012 85 0 6.93 162 07:38 20.12.2019
2324 Clouds 23 1012 85 0 6.93 162 07:18 20.12.2019
2325 Clouds 23 1012 85 0 6.93 162 06:46 20.12.2019
2326 Clouds 23 1012 85 0 6.93 162 06:28 20.12.2019
2327 Clouds 23 1012 85 0 6.93 162 05:48 20.12.2019
2328 Clouds 23 1012 86 0 6.29 173 05:18 20.12.2019
2329 Clouds 23 1012 86 0 6.29 173 03:49 20.12.2019
2330 Clouds 23 1012 86 0 6.29 173 03:20 20.12.2019
2331 Clouds 25 1007 78 10000 5.1 160 01:59 20.12.2019
2332 Clouds 25 1007 78 10000 5.1 160 01:35 20.12.2019
2333 Clouds 25 1007 78 10000 5.7 150 00:55 20.12.2019
2334 Clouds 25 1007 78 10000 5.7 150 00:35 20.12.2019
2335 Clouds 27 1006 69 10000 6.7 170 23:58 19.12.2019
2336 Clouds 27 1006 69 10000 6.7 170 23:39 19.12.2019
2337 Clouds 27 1006 69 10000 6.7 170 23:19 19.12.2019
2338 Clouds 27 1007 69 10000 7.7 180 22:39 19.12.2019
2339 Clouds 27 1007 69 10000 7.7 180 22:21 19.12.2019
2340 Clouds 27 1008 69 10000 7.2 180 21:56 19.12.2019
2341 Clouds 27 1008 69 10000 7.2 180 21:56 19.12.2019
2342 Clouds 27 1008 69 10000 7.2 180 21:38 19.12.2019
2343 Clouds 27 1008 69 10000 7.2 180 21:19 19.12.2019
2344 Clouds 27 1008 69 10000 7.7 160 20:56 19.12.2019
2345 Clouds 27 1008 69 10000 7.7 160 20:37 19.12.2019
2346 Clouds 27 1008 69 10000 7.7 160 20:19 19.12.2019
2347 Clouds 27 1009 69 10000 7.7 190 19:58 19.12.2019
2348 Clouds 27 1009 69 10000 7.7 190 19:39 19.12.2019
2349 Clouds 27 1009 69 10000 7.7 190 19:19 19.12.2019
2350 Clouds 27 1009 69 10000 7.7 190 19:19 19.12.2019
2351 Clouds 26 1009 74 10000 7.2 170 18:56 19.12.2019
2352 Clouds 26 1009 74 10000 7.2 170 18:38 19.12.2019
2353 Clouds 26 1009 74 10000 7.2 170 18:18 19.12.2019
2354 Clouds 26 1009 74 0 7.2 170 17:55 19.12.2019
2355 Clouds 26 1009 74 0 7.2 170 17:37 19.12.2019
2356 Clouds 26 1009 74 0 7.2 170 17:18 19.12.2019
2357 Clouds 26 1009 74 0 7.2 170 17:18 19.12.2019
2358 Clouds 25 1009 78 10000 7.7 140 16:54 19.12.2019
2359 Clouds 25 1009 78 10000 7.7 140 16:36 19.12.2019
2360 Clouds 25 1009 78 10000 7.7 140 16:18 19.12.2019
2361 Clouds 24 1009 83 10000 6.2 150 15:54 19.12.2019
2362 Clouds 24 1009 83 10000 6.2 150 15:36 19.12.2019
2363 Clouds 24 1009 83 10000 6.2 150 15:18 19.12.2019
2364 Clouds 23 1008 83 10000 5.1 160 14:42 19.12.2019
2365 Clouds 23 1008 83 10000 5.1 160 14:20 19.12.2019
2366 Clouds 23 1008 83 10000 6.2 160 13:57 19.12.2019
2367 Clouds 23 1008 83 10000 6.2 160 13:38 19.12.2019
2368 Clouds 23 1008 83 10000 6.2 160 13:19 19.12.2019
2369 Clouds 23 1011 84 0 5.72 149 12:55 19.12.2019
2370 Clouds 23 1011 84 0 5.72 149 12:37 19.12.2019
2371 Clouds 23 1011 84 0 5.72 149 12:18 19.12.2019
2372 Clouds 23 1011 84 0 5.72 149 11:57 19.12.2019
2373 Clouds 23 1011 84 0 5.72 149 11:39 19.12.2019
2374 Clouds 23 1010 85 0 6.22 151 11:18 19.12.2019
2375 Clouds 23 1010 85 0 6.22 151 10:55 19.12.2019
2376 Clouds 23 1010 85 0 6.22 151 10:36 19.12.2019
2377 Clouds 23 1010 85 0 6.22 151 10:18 19.12.2019
2378 Clouds 23 1010 85 0 6.22 151 10:18 19.12.2019
2379 Clouds 23 1010 85 0 6.22 151 10:18 19.12.2019
2380 Clouds 23 1010 85 0 6.22 151 09:38 19.12.2019
2381 Clouds 23 1010 85 0 6.22 151 09:20 19.12.2019
2382 Clouds 23 1010 85 0 6.22 151 08:58 19.12.2019
2383 Clouds 23 1010 85 0 6.22 151 08:39 19.12.2019
2384 Clouds 23 1011 85 0 5.89 159 08:19 19.12.2019
2385 Clouds 23 1011 85 0 5.89 159 07:56 19.12.2019
2386 Clouds 23 1011 85 0 5.89 159 07:37 19.12.2019
2387 Clouds 23 1011 85 0 5.89 159 07:19 19.12.2019
2388 Clouds 23 1011 85 0 5.89 159 06:46 19.12.2019
2389 Clouds 23 1011 85 0 5.89 159 06:27 19.12.2019
2390 Clouds 23 1011 85 0 5.89 159 05:49 19.12.2019
2391 Clouds 23 1011 85 0 5.89 159 05:28 19.12.2019
2392 Clouds 23 1011 84 0 6.2 173 04:41 19.12.2019
2393 Clouds 24 1006 83 10000 4.6 170 02:30 19.12.2019
2394 Clouds 24 1006 83 10000 4.6 170 01:43 19.12.2019
2395 Clouds 24 1006 83 10000 4.6 170 01:21 19.12.2019
2396 Clouds 25 1006 78 10000 6.2 170 00:39 19.12.2019
2397 Clouds 25 1006 78 10000 6.2 170 00:39 19.12.2019
2398 Clouds 25 1006 78 10000 6.2 170 00:19 19.12.2019
2399 Clouds 25 1006 78 10000 6.2 170 00:19 19.12.2019
2400 Clouds 25 1006 78 10000 4.6 160 23:45 18.12.2019
2401 Clouds 25 1006 78 10000 4.6 160 23:19 18.12.2019
2402 Clouds 25 1006 78 10000 4.6 160 23:19 18.12.2019
2403 Clouds 25 1006 78 10000 4.6 160 23:19 18.12.2019
2404 Clouds 25 1006 78 10000 6.7 170 22:58 18.12.2019
2405 Clouds 25 1006 78 10000 6.7 170 22:40 18.12.2019
2406 Clouds 25 1006 78 10000 6.7 170 22:40 18.12.2019
2407 Clouds 25 1006 78 10000 6.7 170 22:22 18.12.2019
2408 Clouds 24 1007 83 10000 7.2 180 21:59 18.12.2019
2409 Clouds 24 1007 83 10000 7.2 180 21:40 18.12.2019
2410 Clouds 24 1007 83 10000 7.2 180 21:20 18.12.2019
2411 Rain 24 1008 83 10000 6.7 160 20:57 18.12.2019
2412 Rain 24 1008 83 10000 6.7 160 20:38 18.12.2019
2413 Rain 24 1008 83 10000 6.7 160 20:20 18.12.2019
2414 Drizzle 23 1009 94 10000 5.7 150 19:57 18.12.2019
2415 Drizzle 23 1009 94 10000 5.7 150 19:39 18.12.2019
2416 Drizzle 23 1009 94 10000 5.7 150 19:19 18.12.2019
2417 Drizzle 22 1010 100 8000 6.7 170 18:55 18.12.2019
2418 Drizzle 22 1010 100 8000 6.7 170 18:37 18.12.2019
2419 Drizzle 22 1010 100 8000 6.7 170 18:18 18.12.2019
2420 Drizzle 22 1011 100 8000 5.7 160 17:55 18.12.2019
2421 Drizzle 22 1011 100 8000 5.7 160 17:55 18.12.2019
2422 Drizzle 22 1011 100 8000 5.7 160 17:37 18.12.2019
2423 Drizzle 22 1011 100 8000 5.7 160 17:18 18.12.2019
2424 Drizzle 22 1011 94 8000 5.1 160 16:42 18.12.2019
2425 Drizzle 22 1011 94 8000 5.1 160 16:23 18.12.2019
2426 Drizzle 23 1010 88 8000 3.6 160 15:57 18.12.2019
2427 Drizzle 23 1010 88 8000 3.6 160 15:39 18.12.2019
2428 Drizzle 23 1010 88 8000 3.6 160 15:21 18.12.2019
2429 Rain 23 1010 88 10000 4.1 170 14:56 18.12.2019
2430 Rain 23 1010 88 10000 4.1 170 14:38 18.12.2019
2431 Rain 23 1010 88 10000 4.1 170 14:19 18.12.2019
2432 Clouds 23 1009 88 10000 4.6 180 13:55 18.12.2019
2433 Clouds 23 1009 88 10000 4.6 180 13:36 18.12.2019
2434 Clouds 23 1009 88 10000 4.6 180 13:18 18.12.2019
2435 Clouds 23 1009 88 10000 4.6 180 13:18 18.12.2019
2436 Clouds 22 1012 81 0 5.8 173 12:40 18.12.2019
2437 Clouds 22 1012 81 0 5.8 173 12:21 18.12.2019
2438 Clouds 22 1012 81 0 5.8 173 11:57 18.12.2019
2439 Clouds 22 1012 81 0 5.8 173 11:39 18.12.2019
2440 Clouds 22 1011 81 0 6.25 181 11:20 18.12.2019
2441 Clouds 22 1011 81 0 6.25 181 10:58 18.12.2019
2442 Clouds 22 1011 81 0 6.25 181 10:39 18.12.2019
2443 Clouds 22 1011 81 0 6.25 181 10:20 18.12.2019
2444 Clouds 22 1011 81 0 6.25 181 10:20 18.12.2019
2445 Clouds 22 1011 81 0 6.25 181 09:57 18.12.2019
2446 Clouds 22 1011 81 0 6.25 181 09:19 18.12.2019
2447 Clouds 22 1011 81 0 6.25 181 08:42 18.12.2019
2448 Clouds 22 1011 81 0 6.25 181 08:42 18.12.2019
2449 Clouds 22 1011 81 0 6.18 184 08:24 18.12.2019
2450 Clouds 22 1011 82 0 6.74 179 07:56 18.12.2019
2451 Clouds 22 1011 82 0 6.74 179 07:56 18.12.2019
2452 Clouds 22 1011 82 0 6.74 179 07:38 18.12.2019
2453 Clouds 22 1011 82 0 6.74 179 07:19 18.12.2019
2454 Clouds 22 1011 82 0 6.74 179 06:50 18.12.2019
2455 Clouds 22 1011 82 0 6.74 179 06:22 18.12.2019
2456 Clouds 22 1011 82 0 6.74 179 05:30 18.12.2019
2457 Clouds 23 1012 81 0 4.9 181 03:45 18.12.2019
2458 Clouds 23 1012 81 0 4.9 181 02:43 18.12.2019
2459 Clouds 24 1007 83 10000 5.7 170 02:25 18.12.2019
2460 Clouds 24 1007 83 10000 5.7 170 01:43 18.12.2019
2461 Clouds 24 1007 83 10000 5.7 170 01:24 18.12.2019
2462 Clouds 25 1006 78 10000 6.2 170 00:42 18.12.2019
2463 Clouds 25 1006 78 10000 6.2 170 00:24 18.12.2019
2464 Clouds 25 1006 78 10000 6.2 170 00:24 18.12.2019
2465 Clouds 25 1006 78 10000 7.7 170 23:58 17.12.2019
2466 Clouds 25 1006 78 10000 7.7 170 23:39 17.12.2019
2467 Clouds 25 1006 78 10000 7.7 170 23:20 17.12.2019
2468 Clouds 25 1006 78 10000 7.7 170 22:56 17.12.2019
2469 Clouds 25 1006 78 10000 7.7 170 22:38 17.12.2019
2470 Clouds 25 1006 78 10000 7.7 170 22:19 17.12.2019
2471 Clouds 26 1007 69 10000 6.7 180 21:55 17.12.2019
2472 Clouds 26 1007 69 10000 6.7 180 21:37 17.12.2019
2473 Clouds 26 1007 69 10000 6.7 180 21:19 17.12.2019
2474 Clouds 26 1008 74 10000 7.7 170 20:57 17.12.2019
2475 Clouds 26 1008 74 10000 7.7 170 20:38 17.12.2019
2476 Clouds 26 1008 74 10000 7.7 170 20:18 17.12.2019
2477 Clouds 26 1009 74 10000 7.2 180 19:56 17.12.2019
2478 Clouds 26 1009 74 10000 7.2 180 19:37 17.12.2019
2479 Clouds 26 1009 74 10000 7.2 180 19:18 17.12.2019
2480 Clouds 26 1010 74 10000 7.2 180 18:43 17.12.2019
2481 Clouds 26 1010 74 10000 7.2 180 18:43 17.12.2019
2482 Clouds 26 1010 74 10000 7.2 180 18:23 17.12.2019
2483 Clouds 25 1011 78 10000 7.7 180 17:59 17.12.2019
2484 Clouds 25 1011 78 10000 7.7 180 17:41 17.12.2019
2485 Clouds 25 1011 78 10000 7.7 180 17:19 17.12.2019
2486 Clouds 25 1011 78 10000 7.2 160 16:56 17.12.2019
2487 Clouds 25 1011 78 10000 7.2 160 16:37 17.12.2019
2488 Clouds 25 1011 78 10000 7.2 160 16:37 17.12.2019
2489 Clouds 25 1011 78 10000 7.2 160 16:19 17.12.2019
2490 Clouds 24 1010 78 10000 6.7 180 15:56 17.12.2019
2491 Clouds 24 1010 78 10000 6.7 180 15:37 17.12.2019
2492 Clouds 24 1010 78 10000 6.7 180 15:19 17.12.2019
2493 Clouds 23 1009 83 10000 6.2 180 14:55 17.12.2019
2494 Clouds 23 1009 83 10000 6.2 180 14:36 17.12.2019
2495 Clouds 23 1009 83 10000 6.2 180 14:18 17.12.2019
2496 Clouds 23 1009 83 10000 4.6 170 13:55 17.12.2019
2497 Clouds 23 1009 83 10000 4.6 170 13:55 17.12.2019
2498 Clouds 23 1009 83 10000 4.6 170 13:37 17.12.2019
2499 Clouds 23 1009 83 10000 4.6 170 13:18 17.12.2019
2500 Rain 22 1011 81 0 5.76 178 12:41 17.12.2019
2501 Rain 22 1011 81 0 5.76 178 12:19 17.12.2019
2502 Rain 22 1011 81 0 5.76 178 12:19 17.12.2019
2503 Rain 22 1011 81 0 5.76 178 12:19 17.12.2019
2504 Rain 22 1011 81 0 5.76 178 12:19 17.12.2019
2505 Rain 22 1011 81 0 5.76 178 11:59 17.12.2019
2506 Rain 22 1011 81 0 5.76 178 11:37 17.12.2019
2507 Clouds 22 1011 81 0 5.89 178 11:19 17.12.2019
2508 Clouds 22 1011 81 0 5.89 178 11:19 17.12.2019
2509 Clouds 22 1011 81 0 5.89 178 10:59 17.12.2019
2510 Clouds 22 1011 81 0 5.89 178 10:40 17.12.2019
2511 Clouds 22 1011 81 0 5.89 178 10:21 17.12.2019
2512 Clouds 22 1011 81 0 5.89 178 09:59 17.12.2019
2513 Clouds 22 1011 81 0 5.89 178 09:41 17.12.2019
2514 Clouds 22 1011 81 0 5.89 178 09:20 17.12.2019
2515 Clouds 22 1011 81 0 5.89 178 08:56 17.12.2019
2516 Clouds 22 1011 81 0 5.89 178 08:38 17.12.2019
2517 Clouds 23 1012 82 0 6.47 182 08:19 17.12.2019
2518 Clouds 23 1012 82 0 6.47 182 07:45 17.12.2019
2519 Clouds 23 1012 82 0 6.47 182 07:26 17.12.2019
2520 Clouds 23 1012 82 0 6.47 182 06:56 17.12.2019
2521 Clouds 23 1012 82 0 6.47 182 06:34 17.12.2019
2522 Clouds 23 1012 82 0 6.47 182 05:52 17.12.2019
2523 Clouds 23 1012 82 0 6.47 182 05:34 17.12.2019
2524 Clouds 23 1013 83 0 5.63 175 04:25 17.12.2019
2525 Clouds 23 1013 83 0 5.63 175 02:33 17.12.2019
2526 Clouds 23 1013 83 0 5.63 175 02:33 17.12.2019
2527 Clouds 24 1007 78 10000 6.2 170 01:50 17.12.2019
2528 Clouds 25 1007 73 10000 7.2 170 00:56 17.12.2019
2529 Clouds 25 1007 73 10000 7.2 170 00:36 17.12.2019
2530 Clouds 25 1007 73 10000 7.2 170 00:18 17.12.2019
2531 Clouds 23 1010 82 0 4.68 176 23:40 16.12.2019
2532 Clouds 25 1007 78 10000 6.2 170 23:19 16.12.2019
2533 Clouds 25 1007 78 10000 6.2 170 22:55 16.12.2019
2534 Clouds 25 1007 78 10000 6.2 170 22:37 16.12.2019
2535 Clouds 25 1007 78 10000 6.2 170 22:19 16.12.2019
2536 Rain 25 1008 78 10000 6.2 160 21:54 16.12.2019
2537 Rain 25 1008 78 10000 6.2 160 21:36 16.12.2019
2538 Rain 25 1008 78 10000 6.2 160 21:18 16.12.2019
2539 Rain 24 1009 83 10000 6.7 170 20:56 16.12.2019
2540 Rain 24 1009 83 10000 6.7 170 20:37 16.12.2019
2541 Rain 24 1009 83 10000 6.7 170 20:37 16.12.2019
2542 Rain 24 1009 83 10000 6.7 170 20:18 16.12.2019
2543 Rain 26 1010 78 10000 6.7 170 19:55 16.12.2019
2544 Rain 26 1010 78 10000 6.7 170 19:36 16.12.2019
2545 Rain 26 1010 78 10000 6.7 170 19:18 16.12.2019
2546 Rain 26 1010 78 10000 6.7 170 19:18 16.12.2019
2547 Rain 26 1011 78 10000 6.7 170 18:42 16.12.2019
2548 Rain 26 1011 78 10000 6.7 170 18:20 16.12.2019
2549 Clouds 26 1011 78 10000 6.2 170 17:59 16.12.2019
2550 Clouds 26 1011 78 10000 6.2 170 17:41 16.12.2019
2551 Clouds 26 1011 78 10000 6.2 170 17:22 16.12.2019
2552 Clouds 25 1011 78 10000 6.2 190 16:59 16.12.2019
2553 Clouds 25 1011 78 10000 6.2 190 16:59 16.12.2019
2554 Clouds 25 1011 78 10000 6.2 190 16:39 16.12.2019
2555 Clouds 25 1011 78 10000 6.2 190 16:39 16.12.2019
2556 Clouds 25 1011 78 10000 6.2 190 16:20 16.12.2019
2557 Clouds 24 1011 83 10000 4.6 170 15:59 16.12.2019
2558 Clouds 24 1011 83 10000 4.6 170 15:59 16.12.2019
2559 Clouds 24 1011 83 10000 4.6 170 15:39 16.12.2019
2560 Clouds 24 1011 83 10000 4.6 170 15:21 16.12.2019
2561 Clouds 23 1014 81 0 5.75 150 14:58 16.12.2019
2562 Clouds 23 1014 81 0 5.75 150 14:38 16.12.2019
2563 Rain 22 1012 83 0 6.06 147 14:20 16.12.2019
2564 Rain 22 1012 83 0 6.06 147 13:58 16.12.2019
2565 Rain 22 1012 83 0 6.06 147 13:38 16.12.2019
2566 Rain 22 1012 84 0 5.88 150 13:20 16.12.2019
2567 Rain 23 1012 86 0 5.51 154 12:58 16.12.2019
2568 Rain 23 1012 86 0 5.51 154 12:40 16.12.2019
2569 Rain 23 1012 86 0 5.51 154 12:20 16.12.2019
2570 Rain 22 1012 84 0 5.88 150 11:59 16.12.2019
2571 Rain 22 1012 84 0 5.88 150 11:41 16.12.2019
2572 Rain 22 1012 85 0 5.32 151 11:21 16.12.2019
2573 Rain 22 1012 87 0 5.04 160 10:58 16.12.2019
2574 Rain 22 1012 87 0 5.04 160 10:40 16.12.2019
2575 Rain 22 1012 85 0 5.32 151 10:20 16.12.2019
2576 Rain 22 1012 85 0 5.32 151 09:46 16.12.2019
2577 Rain 22 1012 85 0 5.32 151 09:27 16.12.2019
2578 Rain 22 1012 87 0 5.04 160 08:57 16.12.2019
2579 Rain 22 1012 85 0 5.32 151 08:38 16.12.2019
2580 Rain 23 1013 86 0 4.52 167 08:18 16.12.2019
2581 Rain 23 1013 86 0 4.52 167 08:18 16.12.2019
2582 Rain 23 1013 86 0 4.52 167 07:44 16.12.2019
2583 Rain 23 1013 86 0 4.52 167 07:22 16.12.2019
2584 Rain 23 1013 86 0 4.52 167 06:45 16.12.2019
2585 Rain 23 1013 86 0 4.52 167 06:25 16.12.2019
2586 Rain 23 1013 86 0 4.52 167 05:50 16.12.2019
2587 Rain 23 1013 86 0 4.52 167 05:31 16.12.2019
2588 Clouds 23 1013 84 0 4.04 171 04:22 16.12.2019
2589 Clouds 24 1008 83 10000 5.7 170 02:19 16.12.2019
2590 Clouds 24 1008 83 10000 5.7 170 01:44 16.12.2019
2591 Clouds 24 1007 78 10000 6.2 170 00:42 16.12.2019
2592 Clouds 24 1007 78 10000 6.2 170 00:24 16.12.2019
2593 Clouds 25 1007 78 10000 6.7 170 23:58 15.12.2019
2594 Clouds 25 1007 78 10000 6.7 170 23:38 15.12.2019
2595 Clouds 25 1007 78 10000 6.7 170 23:19 15.12.2019
2596 Rain 25 1008 78 10000 6.7 160 22:55 15.12.2019
2597 Rain 25 1008 78 10000 6.7 160 22:37 15.12.2019
2598 Rain 25 1008 78 10000 6.7 160 22:18 15.12.2019
2599 Rain 25 1008 78 10000 6.7 160 22:18 15.12.2019
2600 Rain 26 1008 78 10000 7.7 150 21:55 15.12.2019
2601 Rain 26 1008 78 10000 7.7 150 21:37 15.12.2019
2602 Rain 26 1008 78 10000 7.7 150 21:19 15.12.2019
2603 Clouds 27 1009 69 10000 7.2 160 20:55 15.12.2019
2604 Clouds 27 1009 69 10000 7.2 160 20:37 15.12.2019
2605 Clouds 27 1009 69 10000 7.2 160 20:18 15.12.2019
2606 Clouds 27 1009 69 10000 7.2 160 20:18 15.12.2019
2607 Clouds 26 1010 74 10000 8.2 160 19:55 15.12.2019
2608 Clouds 26 1010 74 10000 8.2 160 19:37 15.12.2019
2609 Clouds 26 1010 74 10000 8.2 160 19:18 15.12.2019
2610 Clouds 26 1011 69 10000 8.2 170 18:55 15.12.2019
2611 Clouds 26 1011 69 10000 8.2 170 18:36 15.12.2019
2612 Clouds 26 1011 69 10000 8.2 170 18:18 15.12.2019
2613 Clouds 26 1011 69 10000 7.7 160 17:55 15.12.2019
2614 Clouds 26 1011 69 10000 7.7 160 17:36 15.12.2019
2615 Clouds 26 1011 69 10000 7.7 160 17:18 15.12.2019
2616 Clouds 25 1011 73 10000 7.7 170 16:42 15.12.2019
2617 Clouds 25 1011 73 10000 7.7 170 16:23 15.12.2019
2618 Clouds 24 1010 78 10000 7.2 170 15:57 15.12.2019
2619 Clouds 24 1010 78 10000 7.2 170 15:39 15.12.2019
2620 Clouds 24 1010 78 10000 7.2 170 15:19 15.12.2019
2621 Clouds 23 1009 83 10000 5.7 160 14:56 15.12.2019
2622 Clouds 23 1009 83 10000 5.7 160 14:37 15.12.2019
2623 Clouds 23 1009 83 10000 5.7 160 14:19 15.12.2019
2624 Clouds 22 1009 88 10000 4.1 160 13:58 15.12.2019
2625 Clouds 22 1009 88 10000 4.1 160 13:38 15.12.2019
2626 Clouds 22 1009 88 10000 4.1 160 13:19 15.12.2019
2627 Clouds 22 1012 82 0 4.28 158 12:57 15.12.2019
2628 Clouds 22 1012 82 0 4.28 158 12:39 15.12.2019
2629 Clouds 22 1012 82 0 4.28 158 12:20 15.12.2019
2630 Clouds 22 1012 82 0 4.28 158 12:20 15.12.2019
2631 Clouds 22 1012 82 0 4.28 158 11:56 15.12.2019
2632 Clouds 22 1012 82 0 4.28 158 11:37 15.12.2019
2633 Clear 22 1011 83 0 4.96 146 11:18 15.12.2019
2634 Clear 22 1011 83 0 4.96 146 10:55 15.12.2019
2635 Clear 22 1011 83 0 4.96 146 10:37 15.12.2019
2636 Clear 22 1011 83 0 4.96 146 10:18 15.12.2019
2637 Clear 22 1011 83 0 4.96 146 09:41 15.12.2019
2638 Clear 22 1011 83 0 4.96 146 09:20 15.12.2019
2639 Clear 22 1011 83 0 4.96 146 08:58 15.12.2019
2640 Clear 22 1011 83 0 4.96 146 08:39 15.12.2019
2641 Clouds 22 1013 82 0 5.46 151 08:21 15.12.2019
2642 Clouds 22 1013 82 0 5.46 151 07:56 15.12.2019
2643 Clouds 22 1013 82 0 5.46 151 07:34 15.12.2019
2644 Clouds 22 1013 82 0 5.46 151 06:51 15.12.2019
2645 Clouds 22 1013 82 0 5.46 151 06:20 15.12.2019
2646 Clouds 22 1013 82 0 5.46 151 05:26 15.12.2019
2647 Clouds 22 1014 80 0 6.3 163 04:47 15.12.2019
2648 Clouds 22 1014 80 0 6.3 163 03:29 15.12.2019
2649 Clouds 22 1014 80 0 6.3 163 02:34 15.12.2019
2650 Clouds 23 1008 83 10000 6.2 170 01:47 15.12.2019
2651 Clouds 23 1008 83 10000 6.2 170 01:28 15.12.2019
2652 Clouds 25 1008 73 10000 6.2 170 00:57 15.12.2019
2653 Clouds 25 1008 73 10000 6.2 170 00:38 15.12.2019
2654 Clouds 25 1008 73 10000 6.2 170 00:20 15.12.2019
2655 Clouds 25 1008 73 10000 6.7 190 23:39 14.12.2019
2656 Clouds 25 1008 73 10000 6.7 190 23:19 14.12.2019
2657 Clouds 26 1008 69 10000 6.7 190 22:57 14.12.2019
2658 Clouds 26 1008 69 10000 6.7 190 22:57 14.12.2019
2659 Clouds 26 1008 69 10000 6.7 190 22:39 14.12.2019
2660 Clouds 26 1008 69 10000 6.7 190 22:20 14.12.2019
2661 Clouds 21 1010 81 0 6.21 183 21:56 14.12.2019
2662 Clouds 21 1010 81 0 6.21 183 21:37 14.12.2019
2663 Clouds 26 1010 69 10000 6.7 180 21:18 14.12.2019
2664 Clouds 26 1010 69 10000 6.7 180 20:55 14.12.2019
2665 Clouds 26 1010 69 10000 6.7 180 20:37 14.12.2019
2666 Clouds 26 1010 69 10000 6.7 180 20:37 14.12.2019
2667 Clouds 26 1010 69 10000 6.7 180 20:19 14.12.2019
2668 Clouds 26 1011 69 10000 6.2 170 19:40 14.12.2019
2669 Clouds 26 1011 69 10000 6.2 170 19:21 14.12.2019
2670 Clouds 26 1012 69 10000 6.2 170 18:58 14.12.2019
2671 Clouds 26 1012 69 10000 6.2 170 18:39 14.12.2019
2672 Clouds 26 1012 69 10000 6.2 170 18:21 14.12.2019
2673 Clouds 25 1012 73 10000 6.2 190 17:59 14.12.2019
2674 Clouds 25 1012 73 10000 6.2 190 17:41 14.12.2019
2675 Clouds 25 1012 73 10000 6.2 190 17:22 14.12.2019
2676 Clouds 24 1012 73 10000 6.2 180 16:41 14.12.2019
2677 Clouds 24 1012 73 10000 6.2 180 16:19 14.12.2019
2678 Clouds 23 1011 78 10000 6.2 190 15:56 14.12.2019
2679 Clouds 23 1011 78 10000 6.2 190 15:38 14.12.2019
2680 Clouds 23 1011 78 10000 6.2 190 15:19 14.12.2019
2681 Clouds 23 1010 83 10000 6.2 190 14:56 14.12.2019
2682 Clouds 23 1010 83 10000 6.2 190 14:37 14.12.2019
2683 Clouds 23 1010 83 10000 6.2 190 14:37 14.12.2019
2684 Clouds 23 1010 83 10000 6.2 190 14:18 14.12.2019
2685 Clouds 23 1010 83 10000 5.1 190 13:44 14.12.2019
2686 Clouds 23 1010 83 10000 5.1 190 13:19 14.12.2019
2687 Clouds 22 1012 83 0 5.64 182 12:58 14.12.2019
2688 Clouds 21 1013 82 0 5.51 182 12:39 14.12.2019
2689 Clouds 21 1013 82 0 5.51 182 12:20 14.12.2019
2690 Clouds 21 1013 82 0 5.51 182 11:57 14.12.2019
2691 Clouds 21 1013 82 0 5.51 182 11:38 14.12.2019
2692 Clouds 22 1012 81 0 5.52 183 11:19 14.12.2019
2693 Clouds 22 1012 81 0 5.77 186 10:56 14.12.2019
2694 Clouds 22 1012 81 0 5.77 186 10:38 14.12.2019
2695 Clouds 22 1012 81 0 5.77 186 10:19 14.12.2019
2696 Clouds 22 1012 81 0 5.77 186 09:43 14.12.2019
2697 Clouds 22 1012 81 0 5.77 186 09:23 14.12.2019
2698 Clouds 22 1012 81 0 5.77 186 08:57 14.12.2019
2699 Clouds 22 1012 81 0 5.77 186 08:38 14.12.2019
2700 Clouds 22 1012 81 0 5.77 186 08:38 14.12.2019
2701 Clouds 22 1013 81 0 5.22 179 08:19 14.12.2019
2702 Clouds 22 1013 81 0 5.22 179 07:40 14.12.2019
2703 Clouds 22 1013 81 0 5.22 179 07:21 14.12.2019
2704 Clouds 22 1013 81 0 5.22 179 07:21 14.12.2019
2705 Clouds 22 1013 81 0 5.22 179 06:48 14.12.2019
2706 Clouds 22 1013 81 0 5.22 179 06:30 14.12.2019
2707 Clouds 22 1013 81 0 5.22 179 05:43 14.12.2019
2708 Clouds 22 1014 81 0 5.12 172 03:44 14.12.2019
2709 Clouds 23 1008 83 10000 5.1 170 02:23 14.12.2019
2710 Clouds 23 1008 83 10000 5.1 170 01:44 14.12.2019
2711 Clouds 23 1007 83 10000 6.2 170 00:59 14.12.2019
2712 Clouds 23 1007 83 10000 6.2 170 00:40 14.12.2019
2713 Clouds 23 1007 83 10000 6.2 170 00:20 14.12.2019
2714 Clouds 25 1007 69 10000 8.2 180 23:41 13.12.2019
2715 Clouds 25 1007 69 10000 8.2 180 23:19 13.12.2019
2716 Clouds 25 1007 69 10000 7.7 190 22:56 13.12.2019
2717 Clouds 25 1007 69 10000 7.7 190 22:37 13.12.2019
2718 Clouds 25 1007 69 10000 7.7 190 22:18 13.12.2019
2719 Clouds 25 1007 69 10000 7.7 190 22:18 13.12.2019
2720 Clouds 25 1008 69 10000 7.2 190 21:42 13.12.2019
2721 Clouds 25 1008 69 10000 7.2 190 21:21 13.12.2019
2722 Clouds 26 1008 69 10000 7.2 180 20:58 13.12.2019
2723 Clouds 22 1010 83 0 5.31 179 20:39 13.12.2019
2724 Clouds 25 1010 73 10000 6.2 200 20:20 13.12.2019
2725 Clouds 25 1010 73 10000 6.2 200 19:56 13.12.2019
2726 Clouds 25 1010 73 10000 6.2 200 19:56 13.12.2019
2727 Clouds 25 1010 73 10000 6.2 200 19:38 13.12.2019
2728 Clouds 25 1010 73 10000 6.2 200 19:19 13.12.2019
2729 Clouds 26 1011 69 10000 6.7 190 18:42 13.12.2019
2730 Clouds 26 1011 69 10000 6.7 190 18:20 13.12.2019
2731 Clouds 26 1011 69 10000 6.7 190 18:00 13.12.2019
2732 Clouds 26 1011 69 10000 6.7 190 17:39 13.12.2019
2733 Clouds 26 1011 69 10000 6.7 190 17:18 13.12.2019
2734 Clouds 26 1011 69 10000 6.7 190 17:18 13.12.2019
2735 Clouds 23 1011 78 10000 6.2 180 16:56 13.12.2019
2736 Clouds 23 1011 78 10000 6.2 180 16:38 13.12.2019
2737 Clouds 23 1011 78 10000 6.2 180 16:19 13.12.2019
2738 Clouds 23 1011 78 10000 5.1 170 15:42 13.12.2019
2739 Clouds 23 1011 78 10000 5.1 170 15:42 13.12.2019
2740 Clouds 23 1011 78 10000 5.1 170 15:21 13.12.2019
2741 Clouds 23 1011 78 10000 5.1 170 14:57 13.12.2019
2742 Clouds 23 1011 78 10000 5.1 170 14:37 13.12.2019
2743 Clouds 23 1011 78 10000 5.1 170 14:19 13.12.2019
2744 Clouds 22 1010 78 10000 5.7 170 13:43 13.12.2019
2745 Clouds 22 1010 78 10000 5.7 170 13:24 13.12.2019
2746 Clouds 22 1012 83 0 6.1 169 12:57 13.12.2019
2747 Clouds 22 1012 83 0 6.1 169 12:39 13.12.2019
2748 Clouds 22 1012 83 0 6.1 169 12:18 13.12.2019
2749 Clouds 22 1012 83 0 6.1 169 11:43 13.12.2019
2750 Clouds 22 1012 83 0 6.1 169 11:24 13.12.2019
2751 Clouds 22 1011 82 0 5.63 171 10:56 13.12.2019
2752 Clouds 22 1011 82 0 5.63 171 10:38 13.12.2019
2753 Clouds 22 1011 82 0 5.63 171 10:19 13.12.2019
2754 Clouds 22 1011 82 0 5.63 171 09:42 13.12.2019
2755 Clouds 22 1011 82 0 5.63 171 09:21 13.12.2019
2756 Clouds 22 1011 82 0 5.63 171 08:45 13.12.2019
2757 Clouds 22 1011 82 0 5.63 171 08:45 13.12.2019
2758 Clouds 22 1011 82 0 5.67 170 08:26 13.12.2019
2759 Clear 22 1013 81 0 5.88 179 07:49 13.12.2019
2760 Clear 22 1013 81 0 5.88 179 07:25 13.12.2019
2761 Clear 22 1013 81 0 5.88 179 06:57 13.12.2019
2762 Clear 22 1013 81 0 5.88 179 06:31 13.12.2019
2763 Clear 22 1013 81 0 5.88 179 05:51 13.12.2019
2764 Clear 22 1013 81 0 5.88 179 05:31 13.12.2019
2765 Clear 22 1014 80 0 5.51 179 04:53 13.12.2019
2766 Clear 22 1014 80 0 5.51 179 03:50 13.12.2019
2767 Clear 22 1014 80 0 5.51 179 02:35 13.12.2019
2768 Clear 23 1009 78 10000 6.2 180 01:50 13.12.2019
2769 Clouds 23 1009 78 10000 6.2 180 01:21 13.12.2019
2770 Clouds 24 1008 73 10000 6.7 180 00:46 13.12.2019
2771 Clouds 24 1008 73 10000 6.7 180 00:24 13.12.2019
2772 Clouds 26 1008 65 10000 7.2 180 23:41 12.12.2019
2773 Clouds 26 1008 65 10000 7.2 180 23:22 12.12.2019
2774 Clouds 26 1009 57 10000 7.7 180 22:56 12.12.2019
2775 Clouds 26 1009 57 10000 7.7 180 22:38 12.12.2019
2776 Clouds 26 1009 57 10000 7.7 180 22:19 12.12.2019
2777 Clouds 26 1009 65 10000 7.2 180 21:55 12.12.2019
2778 Clouds 26 1009 65 10000 7.2 180 21:37 12.12.2019
2779 Clouds 26 1009 65 10000 7.2 180 21:19 12.12.2019
2780 Clouds 27 1010 61 10000 8.7 160 20:56 12.12.2019
2781 Clouds 27 1010 61 10000 8.7 160 20:38 12.12.2019
2782 Clouds 27 1010 61 10000 8.7 160 20:20 12.12.2019
2783 Clouds 26 1011 65 10000 7.7 180 19:43 12.12.2019
2784 Clouds 26 1011 65 10000 7.7 180 19:43 12.12.2019
2785 Clouds 26 1011 65 10000 7.7 180 19:23 12.12.2019
2786 Clouds 26 1011 65 10000 8.2 160 18:58 12.12.2019
2787 Clouds 26 1011 65 10000 8.2 160 18:40 12.12.2019
2788 Clouds 26 1011 65 10000 8.2 160 18:21 12.12.2019
2789 Clouds 26 1011 69 10000 7.7 180 17:59 12.12.2019
2790 Clouds 26 1011 69 10000 7.7 180 17:40 12.12.2019
2791 Clouds 26 1011 69 10000 7.7 180 17:21 12.12.2019
2792 Clouds 25 1011 73 10000 8.2 160 16:59 12.12.2019
2793 Clouds 25 1011 73 10000 8.2 160 16:41 12.12.2019
2794 Clouds 25 1011 73 10000 8.2 160 16:21 12.12.2019
2795 Clouds 24 1011 78 10000 7.2 170 15:58 12.12.2019
2796 Clouds 24 1011 78 10000 7.2 170 15:40 12.12.2019
2797 Clouds 24 1011 78 10000 7.2 170 15:19 12.12.2019
2798 Clouds 22 1010 88 10000 5.7 170 14:56 12.12.2019
2799 Clouds 22 1010 88 10000 5.7 170 14:36 12.12.2019
2800 Clouds 22 1010 88 10000 5.7 170 14:18 12.12.2019
2801 Clouds 22 1010 88 10000 5.7 180 13:54 12.12.2019
2802 Clouds 22 1010 88 10000 5.7 180 13:36 12.12.2019
2803 Clouds 22 1010 88 10000 5.7 180 13:18 12.12.2019
2804 Clouds 22 1012 83 0 6.21 178 12:40 12.12.2019
2805 Clouds 22 1012 83 0 6.21 178 12:22 12.12.2019
2806 Clouds 22 1012 83 0 6.21 178 11:57 12.12.2019
2807 Clouds 22 1012 83 0 6.21 178 11:38 12.12.2019
2808 Clouds 22 1012 83 0 6.21 178 11:38 12.12.2019
2809 Clouds 22 1012 80 0 5.23 184 11:20 12.12.2019
2810 Clouds 22 1012 80 0 5.23 184 10:56 12.12.2019
2811 Clouds 22 1012 80 0 5.23 184 10:38 12.12.2019
2812 Clouds 22 1012 80 0 5.23 184 10:20 12.12.2019
2813 Clouds 22 1012 80 0 5.23 184 09:55 12.12.2019
2814 Clouds 22 1012 80 0 5.23 184 09:37 12.12.2019
2815 Clouds 22 1012 80 0 5.23 184 09:18 12.12.2019
2816 Clouds 22 1012 80 0 5.23 184 08:43 12.12.2019
2817 Clouds 22 1012 80 0 5.23 184 08:43 12.12.2019
2818 Clouds 22 1012 82 0 5.34 184 08:25 12.12.2019
2819 Clouds 22 1012 82 0 5.34 184 08:25 12.12.2019
2820 Clouds 22 1014 82 0 5.93 181 07:49 12.12.2019
2821 Clouds 22 1014 82 0 5.93 181 07:49 12.12.2019
2822 Clouds 22 1014 82 0 5.93 181 07:27 12.12.2019
2823 Clouds 22 1014 82 0 5.93 181 06:55 12.12.2019
2824 Clouds 22 1014 82 0 5.93 181 06:35 12.12.2019
2825 Clouds 22 1014 82 0 5.93 181 05:42 12.12.2019
2826 Clouds 22 1014 83 0 5.36 173 04:54 12.12.2019
2827 Clouds 22 1014 83 0 5.36 173 03:50 12.12.2019
2828 Clouds 22 1014 83 0 5.36 173 02:40 12.12.2019
2829 Clouds 23 1009 83 10000 7.2 160 02:21 12.12.2019
2830 Clouds 23 1009 83 10000 7.2 160 01:43 12.12.2019
2831 Clouds 23 1009 83 10000 7.2 160 01:24 12.12.2019
2832 Clouds 24 1009 78 10000 7.2 160 00:47 12.12.2019
2833 Clouds 24 1009 78 10000 7.2 160 00:20 12.12.2019
2834 Clouds 25 1008 78 10000 8.2 150 23:44 11.12.2019
2835 Clouds 25 1008 78 10000 8.2 150 23:21 11.12.2019
2836 Clouds 24 1009 83 10000 6.7 180 22:58 11.12.2019
2837 Clouds 24 1009 83 10000 6.7 180 22:39 11.12.2019
2838 Clouds 24 1009 83 10000 6.7 180 22:20 11.12.2019
2839 Clouds 25 1010 78 10000 6.2 170 21:57 11.12.2019
2840 Clouds 25 1010 78 10000 6.2 170 21:38 11.12.2019
2841 Clouds 25 1010 78 10000 6.2 170 21:20 11.12.2019
2842 Clouds 25 1011 78 10000 6.7 170 20:56 11.12.2019
2843 Clouds 25 1011 78 10000 6.7 170 20:56 11.12.2019
2844 Clouds 25 1011 78 10000 6.7 170 20:37 11.12.2019
2845 Clouds 25 1011 78 10000 6.7 170 20:19 11.12.2019
2846 Clouds 24 1012 83 10000 5.1 180 19:58 11.12.2019
2847 Clouds 24 1012 83 10000 5.1 180 19:39 11.12.2019
2848 Clouds 24 1012 83 10000 5.1 180 19:19 11.12.2019
2849 Clouds 24 1013 83 10000 5.7 180 18:42 11.12.2019
2850 Clouds 24 1013 83 10000 5.7 180 18:21 11.12.2019
2851 Clouds 24 1013 83 10000 4.1 170 17:57 11.12.2019
2852 Clouds 24 1013 83 10000 4.1 170 17:57 11.12.2019
2853 Clouds 24 1013 83 10000 4.1 170 17:39 11.12.2019
2854 Clouds 24 1013 83 10000 4.1 170 17:19 11.12.2019
2855 Clouds 23 1013 88 10000 4.6 170 16:57 11.12.2019
2856 Clouds 23 1013 88 10000 4.6 170 16:38 11.12.2019
2857 Clouds 23 1013 88 10000 4.6 170 16:20 11.12.2019
2858 Clouds 23 1012 88 10000 5.1 180 15:59 11.12.2019
2859 Clouds 23 1012 88 10000 5.1 180 15:39 11.12.2019
2860 Clouds 23 1012 88 10000 5.1 180 15:21 11.12.2019
2861 Clouds 22 1011 94 10000 5.1 180 14:56 11.12.2019
2862 Clouds 22 1011 94 10000 5.1 180 14:37 11.12.2019
2863 Clouds 22 1011 94 10000 5.1 180 14:19 11.12.2019
2864 Clouds 22 1011 94 10000 4.6 170 13:55 11.12.2019
2865 Clouds 22 1011 94 10000 4.6 170 13:36 11.12.2019
2866 Clouds 22 1011 94 10000 4.6 170 13:36 11.12.2019
2867 Clouds 22 1011 94 10000 4.6 170 13:18 11.12.2019
2868 Clouds 22 1011 94 10000 4.6 170 13:18 11.12.2019
2869 Rain 22 1013 87 0 5.85 168 12:54 11.12.2019
2870 Rain 22 1013 87 0 5.85 168 12:36 11.12.2019
2871 Rain 22 1013 87 0 5.85 168 12:18 11.12.2019
2872 Rain 22 1013 87 0 5.85 168 11:55 11.12.2019
2873 Rain 22 1013 87 0 5.85 168 11:37 11.12.2019
2874 Clouds 22 1012 88 0 5.74 164 11:18 11.12.2019
2875 Clouds 22 1012 88 0 5.74 164 10:41 11.12.2019
2876 Clouds 22 1012 88 0 5.74 164 10:23 11.12.2019
2877 Clouds 22 1012 88 0 5.74 164 09:58 11.12.2019
2878 Clouds 22 1012 88 0 5.74 164 09:38 11.12.2019
2879 Clouds 22 1012 88 0 5.74 164 09:20 11.12.2019
2880 Clouds 22 1012 88 0 5.74 164 08:56 11.12.2019
2881 Clouds 22 1012 88 0 5.74 164 08:37 11.12.2019
2882 Clouds 22 1013 89 0 4.89 179 08:18 11.12.2019
2883 Clouds 22 1013 89 0 4.89 179 07:44 11.12.2019
2884 Clouds 22 1013 89 0 4.89 179 07:24 11.12.2019
2885 Clouds 22 1013 89 0 4.89 179 06:46 11.12.2019
2886 Clouds 22 1013 89 0 4.89 179 06:25 11.12.2019
2887 Clouds 22 1013 89 0 4.89 179 05:56 11.12.2019
2888 Clouds 22 1013 89 0 4.89 179 05:35 11.12.2019
2889 Clouds 22 1013 89 0 4.75 182 04:51 11.12.2019
2890 Clouds 22 1013 89 0 4.75 182 03:29 11.12.2019
2891 Clouds 22 1013 89 0 4.75 182 02:35 11.12.2019
2892 Clouds 23 1008 88 10000 7.2 170 01:22 11.12.2019
2893 Clouds 24 1008 83 10000 7.2 170 00:38 11.12.2019
2894 Clouds 24 1008 83 10000 7.2 170 00:19 11.12.2019
2895 Clouds 25 1008 78 10000 7.2 180 23:44 10.12.2019
2896 Clouds 25 1008 78 10000 7.2 180 23:23 10.12.2019
2897 Clouds 25 1011 78 10000 7.2 160 22:56 10.12.2019
2898 Clouds 25 1011 78 10000 7.2 160 22:56 10.12.2019
2899 Clouds 25 1011 78 10000 7.2 160 22:38 10.12.2019
2900 Clouds 25 1011 78 10000 7.2 160 22:20 10.12.2019
2901 Clouds 25 1009 78 10000 7.2 180 21:54 10.12.2019
2902 Clouds 25 1009 78 10000 7.2 180 21:36 10.12.2019
2903 Clouds 25 1009 78 10000 7.2 180 21:18 10.12.2019
2904 Clouds 25 1011 78 10000 7.2 170 20:55 10.12.2019
2905 Clouds 25 1011 78 10000 7.2 170 20:55 10.12.2019
2906 Clouds 25 1011 78 10000 7.2 170 20:36 10.12.2019
2907 Clouds 25 1011 78 10000 7.2 170 20:18 10.12.2019
2908 Clouds 25 1011 78 10000 7.2 170 20:18 10.12.2019
2909 Clouds 25 1011 78 10000 7.2 170 20:18 10.12.2019
2910 Clouds 25 1011 78 10000 7.7 160 19:42 10.12.2019
2911 Clouds 25 1011 78 10000 7.7 160 19:24 10.12.2019
2912 Clouds 25 1012 78 10000 7.7 170 18:57 10.12.2019
2913 Clouds 25 1012 78 10000 7.7 170 18:38 10.12.2019
2914 Clouds 25 1012 78 10000 7.7 170 18:19 10.12.2019
2915 Clouds 25 1012 78 10000 7.7 170 17:54 10.12.2019
2916 Clouds 25 1012 78 10000 7.7 170 17:36 10.12.2019
2917 Clouds 25 1012 78 10000 7.7 170 17:18 10.12.2019
2918 Clouds 25 1011 78 10000 7.2 160 16:41 10.12.2019
2919 Clouds 25 1011 78 10000 7.2 160 16:20 10.12.2019
2920 Clouds 24 1011 78 10000 7.2 160 15:40 10.12.2019
2921 Clouds 24 1011 78 10000 7.2 160 15:19 10.12.2019
2922 Clouds 23 1010 88 10000 5.7 170 14:59 10.12.2019
2923 Clouds 23 1010 88 10000 5.7 170 14:41 10.12.2019
2924 Clouds 23 1010 88 10000 5.7 170 14:23 10.12.2019
2925 Clouds 22 1009 94 10000 5.7 160 13:58 10.12.2019
2926 Clouds 22 1009 94 10000 5.7 160 13:40 10.12.2019
2927 Clouds 22 1009 94 10000 5.7 160 13:20 10.12.2019
2928 Clouds 22 1012 87 0 6.49 167 12:49 10.12.2019
2929 Clouds 22 1012 87 0 6.49 167 12:28 10.12.2019
2930 Clouds 22 1012 87 0 6.49 167 11:59 10.12.2019
2931 Clouds 22 1012 87 0 6.49 167 11:40 10.12.2019
2932 Clouds 22 1012 88 0 6.24 173 11:21 10.12.2019
2933 Clouds 22 1012 88 0 6.24 173 10:43 10.12.2019
2934 Clouds 22 1012 88 0 6.24 173 10:25 10.12.2019
2935 Clouds 22 1012 88 0 6.24 173 09:57 10.12.2019
2936 Clouds 22 1012 88 0 6.24 173 09:39 10.12.2019
2937 Clouds 22 1012 88 0 6.24 173 09:20 10.12.2019
2938 Clouds 22 1012 88 0 6.24 173 08:58 10.12.2019
2939 Clouds 22 1012 88 0 6.24 173 08:39 10.12.2019
2940 Clouds 22 1012 89 0 6.49 173 08:20 10.12.2019
2941 Clouds 22 1012 89 0 6.49 173 07:45 10.12.2019
2942 Clouds 22 1012 89 0 6.49 173 07:27 10.12.2019
2943 Clouds 22 1012 89 0 6.49 173 06:55 10.12.2019
2944 Clouds 22 1012 89 0 6.49 173 06:37 10.12.2019
2945 Clouds 22 1012 89 0 6.49 173 06:19 10.12.2019
2946 Clouds 22 1012 89 0 6.49 173 05:47 10.12.2019
2947 Clouds 22 1013 91 0 4.92 166 04:23 10.12.2019
2948 Clouds 22 1013 91 0 4.92 166 03:25 10.12.2019
2949 Clouds 23 1008 88 10000 6.7 170 01:56 10.12.2019
2950 Clouds 23 1008 88 10000 6.7 170 01:28 10.12.2019
2951 Clouds 24 1007 83 10000 7.2 170 00:58 10.12.2019
2952 Clouds 24 1007 83 10000 7.2 170 00:26 10.12.2019
2953 Clouds 25 1007 73 10000 7.7 170 23:58 09.12.2019
2954 Clouds 25 1007 73 10000 7.7 170 23:39 09.12.2019
2955 Clouds 25 1007 73 10000 7.7 170 23:39 09.12.2019
2956 Clouds 25 1007 73 10000 7.7 170 23:20 09.12.2019
2957 Clouds 26 1008 69 10000 8.7 170 22:56 09.12.2019
2958 Clouds 26 1008 69 10000 8.7 170 22:38 09.12.2019
2959 Clouds 26 1008 69 10000 8.7 170 22:18 09.12.2019
2960 Clouds 25 1008 73 10000 8.7 160 21:55 09.12.2019
2961 Clouds 25 1008 73 10000 8.7 160 21:37 09.12.2019
2962 Clouds 25 1008 73 10000 8.7 160 21:18 09.12.2019
2963 Clouds 25 1009 73 10000 8.2 160 20:55 09.12.2019
2964 Clouds 25 1009 73 10000 8.2 160 20:37 09.12.2019
2965 Clouds 25 1009 73 10000 8.2 160 20:37 09.12.2019
2966 Clouds 25 1009 73 10000 8.2 160 20:37 09.12.2019
2967 Clouds 25 1009 73 10000 8.2 160 20:18 09.12.2019
2968 Clouds 25 1010 78 10000 6.2 170 19:54 09.12.2019
2969 Clouds 25 1010 78 10000 6.2 170 19:36 09.12.2019
2970 Clouds 25 1010 78 10000 6.2 170 19:18 09.12.2019
2971 Clouds 24 1011 78 10000 6.2 160 18:40 09.12.2019
2972 Clouds 24 1011 78 10000 6.2 160 18:20 09.12.2019
2973 Clouds 24 1011 78 10000 6.2 160 18:20 09.12.2019
2974 Clouds 23 1011 88 10000 6.2 170 17:59 09.12.2019
2975 Clouds 23 1011 88 10000 6.2 170 17:41 09.12.2019
2976 Clouds 23 1011 88 10000 6.2 170 17:21 09.12.2019
2977 Clouds 23 1011 88 10000 5.1 160 16:57 09.12.2019
2978 Clouds 23 1011 88 10000 5.1 160 16:39 09.12.2019
2979 Clouds 23 1011 88 10000 5.1 160 16:21 09.12.2019
2980 Clouds 23 1011 88 10000 4.6 160 15:56 09.12.2019
2981 Clouds 23 1011 88 10000 4.6 160 15:38 09.12.2019
2982 Clouds 23 1011 88 10000 4.6 160 15:19 09.12.2019
2983 Clouds 22 1010 94 10000 4.6 180 14:59 09.12.2019
2984 Clouds 22 1010 94 10000 4.6 180 14:40 09.12.2019
2985 Clouds 22 1010 94 10000 4.6 180 14:18 09.12.2019
2986 Clouds 21 1010 94 10000 3.6 190 13:55 09.12.2019
2987 Clouds 21 1010 94 10000 3.6 190 13:36 09.12.2019
2988 Clouds 21 1010 94 10000 3.6 190 13:18 09.12.2019
2989 Rain 22 1012 91 0 5.05 170 12:54 09.12.2019
2990 Rain 22 1012 91 0 5.05 170 12:36 09.12.2019
2991 Rain 22 1012 91 0 5.05 170 12:18 09.12.2019
2992 Rain 22 1012 91 0 5.05 170 11:40 09.12.2019
2993 Rain 22 1011 92 0 4.29 181 11:22 09.12.2019
2994 Rain 22 1011 92 0 4.29 181 10:59 09.12.2019
2995 Rain 22 1011 92 0 4.29 181 10:39 09.12.2019
2996 Rain 22 1011 92 0 4.29 181 10:19 09.12.2019
2997 Rain 22 1011 92 0 4.29 181 09:44 09.12.2019
2998 Rain 22 1011 92 0 4.29 181 09:24 09.12.2019
2999 Rain 22 1011 92 0 4.29 181 08:57 09.12.2019
3000 Rain 22 1011 92 0 4.29 181 08:38 09.12.2019
3001 Rain 22 1012 93 0 3.47 172 08:20 09.12.2019
3002 Rain 22 1013 91 0 2.97 178 07:48 09.12.2019
3003 Rain 22 1013 91 0 2.97 178 07:30 09.12.2019
3004 Rain 22 1013 91 0 2.97 178 06:55 09.12.2019
3005 Rain 22 1013 91 0 2.97 178 06:29 09.12.2019
3006 Rain 22 1013 91 0 2.97 178 05:30 09.12.2019
3007 Clouds 22 1013 92 0 3.43 151 04:58 09.12.2019
3008 Clouds 22 1013 92 0 3.43 151 04:25 09.12.2019
3009 Clouds 23 1009 88 10000 5.1 160 02:28 09.12.2019
3010 Clouds 23 1009 88 10000 5.1 160 01:45 09.12.2019
3011 Clouds 23 1008 88 10000 5.1 150 00:57 09.12.2019
3012 Clouds 23 1008 88 10000 5.1 150 00:32 09.12.2019
3013 Clouds 24 1008 83 10000 5.1 160 23:54 08.12.2019
3014 Clouds 24 1008 83 10000 5.1 160 23:36 08.12.2019
3015 Clouds 24 1008 83 10000 5.1 160 23:18 08.12.2019
3016 Clouds 24 1008 83 10000 6.7 170 22:56 08.12.2019
3017 Clouds 24 1008 83 10000 6.7 170 22:37 08.12.2019
3018 Clouds 24 1008 83 10000 6.7 170 22:18 08.12.2019
3019 Clouds 24 1009 83 10000 6.7 160 21:54 08.12.2019
3020 Clouds 24 1009 83 10000 6.7 160 21:54 08.12.2019
3021 Clouds 24 1009 83 10000 6.7 160 21:36 08.12.2019
3022 Clouds 24 1009 83 10000 6.7 160 21:18 08.12.2019
3023 Clouds 25 1010 78 10000 6.2 170 20:54 08.12.2019
3024 Clouds 25 1010 78 10000 6.2 170 20:54 08.12.2019
3025 Clouds 25 1010 78 10000 6.2 170 20:36 08.12.2019
3026 Clouds 25 1010 78 10000 6.2 170 20:18 08.12.2019
3027 Clouds 26 1011 74 10000 6.2 180 19:42 08.12.2019
3028 Clouds 26 1011 74 10000 6.2 180 19:24 08.12.2019
3029 Clouds 26 1011 69 10000 6.7 170 18:56 08.12.2019
3030 Clouds 26 1011 69 10000 6.7 170 18:37 08.12.2019
3031 Clouds 26 1011 69 10000 6.7 170 18:19 08.12.2019
3032 Clouds 25 1012 78 10000 6.2 180 17:57 08.12.2019
3033 Clouds 25 1012 78 10000 6.2 180 17:39 08.12.2019
3034 Clouds 25 1012 78 10000 6.2 180 17:20 08.12.2019
3035 Clouds 24 1012 78 10000 4.1 180 16:57 08.12.2019
3036 Clouds 24 1012 78 10000 4.1 180 16:39 08.12.2019
3037 Clouds 24 1012 78 10000 4.1 180 16:21 08.12.2019
3038 Clouds 24 1012 78 10000 4.1 160 15:56 08.12.2019
3039 Clouds 24 1012 78 10000 4.1 160 15:36 08.12.2019
3040 Clouds 24 1012 78 10000 4.1 160 15:18 08.12.2019
3041 Clouds 23 1011 83 10000 3.1 90 14:44 08.12.2019
3042 Clouds 23 1011 83 10000 3.1 90 14:24 08.12.2019
3043 Clouds 22 1011 88 10000 5.1 160 13:59 08.12.2019
3044 Clouds 22 1011 88 10000 5.1 160 13:40 08.12.2019
3045 Clouds 22 1011 88 10000 5.1 160 13:21 08.12.2019
3046 Clouds 22 1011 88 10000 5.1 160 13:21 08.12.2019
3047 Clouds 22 1013 87 0 2.77 152 12:57 08.12.2019
3048 Clouds 22 1013 87 0 2.77 152 12:38 08.12.2019
3049 Clouds 22 1013 87 0 2.77 152 12:18 08.12.2019
3050 Clouds 22 1013 87 0 2.77 152 11:57 08.12.2019
3051 Clouds 22 1013 87 0 2.77 152 11:37 08.12.2019
3052 Clouds 22 1012 85 0 3.32 153 11:19 08.12.2019
3053 Clouds 22 1012 85 0 3.32 153 10:40 08.12.2019
3054 Clouds 22 1012 85 0 3.32 153 10:21 08.12.2019
3055 Clouds 22 1012 85 0 3.32 153 09:58 08.12.2019
3056 Clouds 22 1012 85 0 3.32 153 09:39 08.12.2019
3057 Clouds 22 1012 85 0 3.32 153 09:20 08.12.2019
3058 Clouds 22 1012 85 0 3.32 153 09:20 08.12.2019
3059 Clouds 22 1012 85 0 3.32 153 08:59 08.12.2019
3060 Clouds 22 1012 85 0 3.32 153 08:39 08.12.2019
3061 Clouds 22 1012 85 0 3.32 153 08:39 08.12.2019
3062 Clouds 23 1013 84 0 2.92 165 08:21 08.12.2019
3063 Clouds 23 1013 84 0 2.92 165 07:44 08.12.2019
3064 Clouds 23 1013 84 0 2.92 165 07:20 08.12.2019
3065 Clouds 23 1013 84 0 2.92 165 06:51 08.12.2019
3066 Clouds 23 1013 84 0 2.92 165 06:23 08.12.2019
3067 Clouds 23 1013 84 0 2.92 165 05:51 08.12.2019
3068 Clouds 23 1015 87 0 2.8 165 05:18 08.12.2019
3069 Clouds 23 1015 87 0 2.8 165 03:54 08.12.2019
3070 Clouds 23 1015 87 0 2.8 165 03:36 08.12.2019
3071 Clouds 23 1015 87 0 2.8 165 02:40 08.12.2019
3072 Clouds 23 1011 83 10000 5.1 160 01:56 08.12.2019
3073 Clouds 23 1011 83 10000 5.1 160 01:27 08.12.2019
3074 Clouds 23 1011 83 10000 5.1 190 00:42 08.12.2019
3075 Clouds 23 1011 83 10000 5.1 190 00:21 08.12.2019
3076 Rain 23 1011 88 10000 6.2 180 23:42 07.12.2019
3077 Rain 23 1011 88 10000 6.2 180 23:21 07.12.2019
3078 Clouds 25 1011 73 10000 5.7 180 22:58 07.12.2019
3079 Clouds 25 1011 73 10000 5.7 180 22:40 07.12.2019
3080 Clouds 25 1011 73 10000 5.7 180 22:22 07.12.2019
3081 Clouds 25 1011 78 10000 4.6 170 21:56 07.12.2019
3082 Clouds 25 1011 78 10000 4.6 170 21:38 07.12.2019
3083 Clouds 25 1011 78 10000 4.6 170 21:20 07.12.2019
3084 Clouds 24 1012 83 10000 5.1 170 20:59 07.12.2019
3085 Clouds 24 1012 83 10000 5.1 170 20:37 07.12.2019
3086 Clouds 24 1012 83 10000 5.1 170 20:19 07.12.2019
3087 Clouds 25 1013 78 10000 5.7 170 19:56 07.12.2019
3088 Clouds 25 1013 78 10000 5.7 170 19:38 07.12.2019
3089 Clouds 25 1013 78 10000 5.7 170 19:20 07.12.2019
3090 Clouds 24 1014 83 10000 5.1 180 18:44 07.12.2019
3091 Clouds 24 1014 83 10000 5.1 180 18:21 07.12.2019
3092 Clouds 25 1014 78 10000 6.2 180 17:59 07.12.2019
3093 Clouds 25 1014 78 10000 6.2 180 17:41 07.12.2019
3094 Clouds 25 1014 78 10000 6.2 180 17:23 07.12.2019
3095 Clouds 24 1014 83 10000 6.2 170 16:58 07.12.2019
3096 Clouds 24 1014 83 10000 6.2 170 16:39 07.12.2019
3097 Clouds 24 1014 83 10000 6.2 170 16:20 07.12.2019
3098 Clouds 24 1014 83 10000 6.2 160 15:57 07.12.2019
3099 Clouds 24 1014 83 10000 6.2 160 15:38 07.12.2019
3100 Clouds 24 1014 83 10000 6.2 160 15:38 07.12.2019
3101 Clouds 24 1014 83 10000 6.2 160 15:20 07.12.2019
3102 Clouds 23 1013 88 10000 5.1 160 14:42 07.12.2019
3103 Clouds 23 1013 88 10000 5.1 160 14:19 07.12.2019
3104 Clouds 22 1013 88 10000 4.1 160 13:55 07.12.2019
3105 Clouds 22 1013 88 10000 4.1 160 13:37 07.12.2019
3106 Clouds 22 1013 88 10000 4.1 160 13:18 07.12.2019
3107 Clouds 22 1015 85 0 5.25 177 12:41 07.12.2019
3108 Clouds 22 1015 85 0 5.25 177 12:22 07.12.2019
3109 Clouds 22 1015 85 0 5.25 177 11:58 07.12.2019
3110 Clouds 22 1015 85 0 5.25 177 11:40 07.12.2019
3111 Clouds 22 1014 86 0 6.5 179 11:21 07.12.2019
3112 Clouds 22 1014 86 0 6.5 179 10:38 07.12.2019
3113 Clouds 22 1014 86 0 6.5 179 10:20 07.12.2019
3114 Clouds 22 1014 86 0 6.5 179 09:58 07.12.2019
3115 Clouds 22 1014 86 0 6.5 179 09:37 07.12.2019
3116 Clouds 22 1014 86 0 6.5 179 09:18 07.12.2019
3117 Clouds 22 1014 86 0 6.5 179 08:41 07.12.2019
3118 Clouds 22 1015 87 0 5.82 184 08:21 07.12.2019
3119 Clouds 22 1015 87 0 5.82 184 07:46 07.12.2019
3120 Clouds 22 1015 87 0 5.82 184 07:26 07.12.2019
3121 Clouds 22 1015 87 0 5.82 184 06:51 07.12.2019
3122 Clouds 22 1015 87 0 5.82 184 06:25 07.12.2019
3123 Clouds 22 1015 87 0 5.82 184 05:38 07.12.2019
3124 Clouds 22 1015 87 0 5.14 182 04:19 07.12.2019
3125 Clouds 22 1015 87 0 5.14 182 03:44 07.12.2019
3126 Clouds 23 1011 83 10000 5.1 180 02:21 07.12.2019
3127 Clouds 23 1011 83 10000 5.1 180 01:35 07.12.2019
3128 Rain 22 1011 88 10000 7.7 170 00:55 07.12.2019
3129 Rain 22 1011 88 10000 7.7 170 00:20 07.12.2019
3130 Clouds 24 1011 83 10000 6.7 180 23:56 06.12.2019
3131 Clouds 24 1011 83 10000 6.7 180 23:38 06.12.2019
3132 Clouds 24 1011 83 10000 6.7 180 23:18 06.12.2019
3133 Clouds 25 1011 78 10000 7.2 180 22:38 06.12.2019
3134 Clouds 25 1011 78 10000 7.2 180 22:20 06.12.2019
3135 Clouds 22 1012 88 0 6.51 175 21:58 06.12.2019
3136 Clouds 22 1012 88 0 6.51 175 21:39 06.12.2019
3137 Clouds 22 1012 88 0 6.51 175 21:39 06.12.2019
3138 Clouds 25 1012 78 10000 9.3 170 21:19 06.12.2019
3139 Clouds 25 1012 78 10000 9.3 170 20:42 06.12.2019
3140 Clouds 25 1012 78 10000 9.3 170 20:42 06.12.2019
3141 Clouds 25 1012 78 10000 9.3 170 20:42 06.12.2019
3142 Clouds 25 1012 78 10000 9.3 170 20:42 06.12.2019
3143 Clouds 25 1012 78 10000 9.3 170 20:24 06.12.2019
3144 Clouds 25 1012 78 10000 9.3 170 20:24 06.12.2019
3145 Clouds 25 1013 78 10000 7.7 170 19:59 06.12.2019
3146 Clouds 25 1013 78 10000 7.7 170 19:40 06.12.2019
3147 Clouds 25 1013 78 10000 7.7 170 19:22 06.12.2019
3148 Clouds 25 1013 78 10000 7.7 180 18:56 06.12.2019
3149 Clouds 25 1013 78 10000 7.7 180 18:38 06.12.2019
3150 Clouds 25 1013 78 10000 7.7 180 18:19 06.12.2019
3151 Clouds 25 1013 78 10000 8.2 180 17:55 06.12.2019
3152 Clouds 25 1013 78 10000 8.2 180 17:37 06.12.2019
3153 Clouds 25 1013 78 10000 8.2 180 17:19 06.12.2019
3154 Clouds 25 1013 78 10000 8.2 190 16:43 06.12.2019
3155 Clouds 25 1013 78 10000 8.2 190 16:24 06.12.2019
3156 Clouds 23 1013 83 10000 6.7 180 15:59 06.12.2019
3157 Clouds 23 1013 83 10000 6.7 180 15:40 06.12.2019
3158 Clouds 23 1013 83 10000 6.7 180 15:18 06.12.2019
3159 Clouds 23 1013 83 10000 6.7 180 15:18 06.12.2019
3160 Clouds 22 1013 88 10000 6.7 180 14:56 06.12.2019
3161 Clouds 22 1013 88 10000 6.7 180 14:37 06.12.2019
3162 Clouds 22 1013 88 10000 6.7 180 14:18 06.12.2019
3163 Clouds 22 1012 88 10000 5.7 180 13:42 06.12.2019
3164 Clouds 22 1012 88 10000 5.7 180 13:24 06.12.2019
3165 Clouds 22 1014 87 0 6.63 179 12:42 06.12.2019
3166 Clouds 22 1014 87 0 6.63 179 12:22 06.12.2019
3167 Clouds 22 1014 87 0 6.63 179 11:57 06.12.2019
3168 Clouds 22 1014 87 0 6.63 179 11:39 06.12.2019
3169 Clouds 22 1013 87 0 6.62 179 11:19 06.12.2019
3170 Clouds 22 1013 87 0 6.62 179 10:43 06.12.2019
3171 Clouds 22 1013 87 0 6.62 179 10:21 06.12.2019
3172 Clouds 22 1013 87 0 6.62 179 09:57 06.12.2019
3173 Clouds 22 1013 87 0 6.62 179 09:37 06.12.2019
3174 Clouds 22 1013 87 0 6.62 179 09:37 06.12.2019
3175 Clouds 22 1013 87 0 6.62 179 09:19 06.12.2019
3176 Clouds 22 1013 87 0 6.62 179 08:45 06.12.2019
3177 Clouds 22 1013 87 0 6.62 179 08:26 06.12.2019
3178 Clouds 23 1015 83 0 6.13 180 07:44 06.12.2019
3179 Clouds 23 1015 83 0 6.13 180 07:24 06.12.2019
3180 Clouds 23 1015 83 0 6.13 180 06:58 06.12.2019
3181 Clouds 23 1015 83 0 6.13 180 06:26 06.12.2019
3182 Clouds 23 1015 83 0 6.13 180 05:52 06.12.2019
3183 Clouds 23 1015 82 0 5.97 200 04:52 06.12.2019
3184 Clouds 22 1011 83 10000 6.7 170 01:49 06.12.2019
3185 Clouds 22 1011 83 10000 6.7 170 01:22 06.12.2019
3186 Clouds 24 1010 83 10000 6.7 180 00:39 06.12.2019
3187 Clouds 24 1010 83 10000 6.7 180 00:19 06.12.2019
3188 Clouds 25 1009 78 10000 7.2 180 23:38 05.12.2019
3189 Clouds 25 1009 78 10000 7.2 180 23:18 05.12.2019
3190 Clouds 26 1009 74 10000 7.2 180 22:55 05.12.2019
3191 Clouds 26 1009 74 10000 7.2 180 22:36 05.12.2019
3192 Clouds 26 1009 74 10000 7.2 180 22:18 05.12.2019
3193 Clouds 26 1010 74 10000 7.2 160 21:42 05.12.2019
3194 Clouds 26 1010 74 10000 7.2 160 21:24 05.12.2019
3195 Clouds 22 1012 87 0 6.03 178 20:58 05.12.2019
3196 Clouds 22 1012 87 0 6.03 178 20:40 05.12.2019
3197 Clouds 26 1012 74 10000 7.2 180 20:20 05.12.2019
3198 Clouds 26 1012 74 10000 7.2 180 19:44 05.12.2019
3199 Clouds 26 1012 74 10000 7.2 180 19:26 05.12.2019
3200 Clouds 25 1013 73 10000 7.2 180 18:59 05.12.2019
3201 Clouds 25 1013 73 10000 7.2 180 18:39 05.12.2019
3202 Clouds 25 1013 73 10000 7.2 180 18:21 05.12.2019
3203 Clouds 25 1013 78 10000 8.2 190 17:59 05.12.2019
3204 Clouds 25 1013 78 10000 8.2 190 17:59 05.12.2019
3205 Clouds 25 1013 78 10000 8.2 190 17:38 05.12.2019
3206 Clouds 25 1013 78 10000 8.2 190 17:19 05.12.2019
3207 Clouds 24 1013 83 10000 7.7 180 16:55 05.12.2019
3208 Clouds 24 1013 83 10000 7.7 180 16:37 05.12.2019
3209 Clouds 24 1013 83 10000 7.7 180 16:18 05.12.2019
3210 Clouds 24 1013 83 10000 6.2 180 15:55 05.12.2019
3211 Clouds 24 1013 83 10000 6.2 180 15:36 05.12.2019
3212 Clouds 24 1013 83 10000 6.2 180 15:18 05.12.2019
3213 Clouds 23 1012 83 10000 6.2 160 14:54 05.12.2019
3214 Clouds 23 1012 83 10000 6.2 160 14:36 05.12.2019
3215 Clouds 23 1012 83 10000 6.2 160 14:18 05.12.2019
3216 Clouds 22 1011 88 10000 7.2 170 13:54 05.12.2019
3217 Clouds 22 1011 88 10000 7.2 170 13:36 05.12.2019
3218 Clouds 22 1011 88 10000 7.2 170 13:18 05.12.2019
3219 Clouds 22 1013 88 0 6.14 175 12:41 05.12.2019
3220 Clouds 22 1013 88 0 6.14 175 12:23 05.12.2019
3221 Clouds 22 1013 88 0 6.14 175 11:56 05.12.2019
3222 Clouds 22 1013 88 0 6.14 175 11:37 05.12.2019
3223 Clouds 22 1012 88 0 5.16 185 11:18 05.12.2019
3224 Clouds 22 1012 88 0 5.16 185 10:54 05.12.2019
3225 Clouds 22 1012 88 0 5.16 185 10:54 05.12.2019
3226 Clouds 22 1012 88 0 5.16 185 10:36 05.12.2019
3227 Clouds 22 1012 88 0 5.16 185 10:18 05.12.2019
3228 Clouds 22 1012 88 0 5.16 185 09:42 05.12.2019
3229 Clouds 22 1012 88 0 5.16 185 09:20 05.12.2019
3230 Clouds 22 1012 88 0 5.16 185 08:57 05.12.2019
3231 Clouds 22 1012 88 0 5.16 185 08:37 05.12.2019
3232 Clouds 22 1013 86 0 4.16 183 08:19 05.12.2019
3233 Clouds 22 1013 86 0 4.16 183 07:44 05.12.2019
3234 Clouds 22 1013 86 0 4.16 183 07:24 05.12.2019
3235 Clouds 22 1013 86 0 4.16 183 06:49 05.12.2019
3236 Clouds 22 1013 86 0 4.16 183 06:24 05.12.2019
3237 Clouds 22 1013 86 0 4.16 183 05:58 05.12.2019
3238 Clouds 22 1013 86 0 4.16 183 05:58 05.12.2019
3239 Clouds 22 1013 86 0 4.16 183 05:38 05.12.2019
3240 Clouds 22 1014 86 0 3.06 179 05:18 05.12.2019
3241 Clouds 22 1014 86 0 3.06 179 03:43 05.12.2019
3242 Clouds 22 1014 86 0 3.06 179 02:42 05.12.2019
3243 Clouds 23 1009 83 10000 5.1 190 02:23 05.12.2019
3244 Clouds 23 1009 83 10000 5.1 190 01:51 05.12.2019
3245 Clouds 23 1009 83 10000 5.1 190 01:51 05.12.2019
3246 Clouds 23 1009 83 10000 5.1 190 01:24 05.12.2019
3247 Clouds 24 1009 78 10000 7.2 170 00:46 05.12.2019
3248 Clouds 24 1009 78 10000 7.2 170 00:21 05.12.2019
3249 Clouds 22 1011 85 0 3.9 180 23:56 04.12.2019
3250 Clouds 22 1011 85 0 3.9 180 23:37 04.12.2019
3251 Clouds 26 1008 74 10000 6.7 180 23:18 04.12.2019
3252 Clouds 26 1008 74 10000 6.7 180 22:39 04.12.2019
3253 Clouds 26 1008 74 10000 6.7 180 22:20 04.12.2019
3254 Clouds 26 1009 74 10000 6.2 180 21:58 04.12.2019
3255 Clouds 26 1009 74 10000 6.2 180 21:39 04.12.2019
3256 Clouds 26 1009 74 10000 6.2 180 21:19 04.12.2019
3257 Clouds 26 1010 74 10000 6.7 160 20:57 04.12.2019
3258 Clouds 26 1010 74 10000 6.7 160 20:39 04.12.2019
3259 Clouds 26 1010 74 10000 6.7 160 20:21 04.12.2019
3260 Clouds 25 1011 78 10000 4.6 190 19:55 04.12.2019
3261 Clouds 25 1011 78 10000 4.6 190 19:55 04.12.2019
3262 Clouds 25 1011 78 10000 4.6 190 19:37 04.12.2019
3263 Clouds 25 1011 78 10000 4.6 190 19:19 04.12.2019
3264 Clouds 24 1012 83 10000 5.1 200 18:42 04.12.2019
3265 Clouds 24 1012 83 10000 5.1 200 18:24 04.12.2019
3266 Clouds 25 1012 78 10000 6.2 180 17:58 04.12.2019
3267 Clouds 25 1012 78 10000 6.2 180 17:39 04.12.2019
3268 Clouds 25 1012 78 10000 6.2 180 17:20 04.12.2019
3269 Clouds 24 1012 83 10000 5.7 190 16:56 04.12.2019
3270 Clouds 24 1012 83 10000 5.7 190 16:38 04.12.2019
3271 Clouds 24 1012 83 10000 5.7 190 16:38 04.12.2019
3272 Clouds 24 1012 83 10000 5.7 190 16:19 04.12.2019
3273 Clouds 23 1012 88 10000 6.7 170 15:54 04.12.2019
3274 Clouds 23 1012 88 10000 6.7 170 15:36 04.12.2019
3275 Clouds 23 1012 88 10000 6.7 170 15:18 04.12.2019
3276 Clouds 22 1011 88 10000 3.6 160 14:41 04.12.2019
3277 Clouds 22 1011 88 10000 3.6 160 14:23 04.12.2019
3278 Clouds 22 1010 94 10000 4.1 180 13:56 04.12.2019
3279 Clouds 22 1010 94 10000 4.1 180 13:37 04.12.2019
3280 Clouds 22 1010 94 10000 4.1 180 13:18 04.12.2019
3281 Clouds 22 1012 85 0 3.86 200 12:42 04.12.2019
3282 Clouds 22 1012 85 0 3.86 200 12:23 04.12.2019
3283 Clouds 22 1012 85 0 3.86 200 11:45 04.12.2019
3284 Clouds 22 1012 85 0 3.86 200 11:26 04.12.2019
3285 Clouds 22 1012 86 0 4.01 188 10:58 04.12.2019
3286 Clouds 22 1012 86 0 4.01 188 10:40 04.12.2019
3287 Clouds 22 1012 86 0 4.01 188 10:22 04.12.2019
3288 Clouds 22 1012 86 0 4.01 188 09:44 04.12.2019
3289 Clouds 22 1012 86 0 4.01 188 09:24 04.12.2019
3290 Clouds 22 1012 86 0 4.01 188 08:54 04.12.2019
3291 Clouds 22 1012 86 0 4.01 188 08:36 04.12.2019
3292 Clouds 22 1013 85 0 3.2 180 08:18 04.12.2019
3293 Clouds 22 1013 85 0 3.2 180 07:41 04.12.2019
3294 Clouds 22 1013 85 0 3.2 180 07:22 04.12.2019
3295 Clouds 22 1013 85 0 3.2 180 06:33 04.12.2019
3296 Clouds 22 1013 85 0 3.2 180 05:47 04.12.2019
3297 Clouds 22 1014 84 0 3.67 177 04:39 04.12.2019
3298 Clouds 22 1014 84 0 3.67 177 03:53 04.12.2019
3299 Clouds 23 1010 88 10000 5.1 170 02:19 04.12.2019
3300 Clouds 23 1010 88 10000 4.6 170 00:49 04.12.2019
3301 Clouds 23 1010 88 10000 4.6 170 00:22 04.12.2019
3302 Clouds 24 1009 78 10000 4.1 180 23:55 03.12.2019
3303 Clouds 24 1009 78 10000 4.1 180 23:36 03.12.2019
3304 Clouds 24 1009 78 10000 4.1 180 23:18 03.12.2019
3305 Clouds 25 1009 78 10000 6.2 180 22:39 03.12.2019
3306 Clouds 25 1009 78 10000 6.2 180 22:39 03.12.2019
3307 Clouds 25 1009 78 10000 6.2 180 22:18 03.12.2019
3308 Clouds 25 1010 78 10000 6.2 190 21:57 03.12.2019
3309 Clouds 25 1010 78 10000 6.2 190 21:37 03.12.2019
3310 Clouds 25 1010 78 10000 6.2 190 21:18 03.12.2019
3311 Clouds 26 1011 69 10000 5.1 160 20:54 03.12.2019
3312 Clouds 26 1011 69 10000 5.1 160 20:36 03.12.2019
3313 Clouds 26 1011 69 10000 5.1 160 20:18 03.12.2019
3314 Clouds 26 1011 69 10000 5.7 190 19:54 03.12.2019
3315 Clouds 26 1011 69 10000 5.7 190 19:36 03.12.2019
3316 Clouds 26 1011 69 10000 5.7 190 19:18 03.12.2019
3317 Clouds 26 1012 74 10000 5.1 190 18:55 03.12.2019
3318 Clouds 26 1012 74 10000 5.1 190 18:36 03.12.2019
3319 Clouds 26 1012 74 10000 5.1 190 18:36 03.12.2019
3320 Clouds 26 1012 74 10000 5.1 190 18:18 03.12.2019
3321 Clouds 25 1012 73 10000 6.2 180 17:39 03.12.2019
3322 Clouds 25 1012 73 10000 6.2 180 17:19 03.12.2019
3323 Clouds 24 1013 83 10000 3.6 160 16:59 03.12.2019
3324 Clouds 24 1013 83 10000 3.6 160 16:39 03.12.2019
3325 Clouds 24 1013 83 10000 3.6 160 16:21 03.12.2019
3326 Clouds 23 1012 88 10000 4.6 150 15:58 03.12.2019
3327 Clouds 23 1012 88 10000 4.6 150 15:38 03.12.2019
3328 Clouds 23 1012 88 10000 4.6 150 15:19 03.12.2019
3329 Clouds 22 1011 88 10000 4.6 160 14:44 03.12.2019
3330 Clouds 22 1011 88 10000 4.6 160 14:20 03.12.2019
3331 Rain 22 1011 88 10000 3.6 170 13:58 03.12.2019
3332 Rain 22 1011 88 10000 3.6 170 13:37 03.12.2019
3333 Rain 22 1011 88 10000 3.6 170 13:19 03.12.2019
3334 Clouds 22 1013 89 0 4.21 177 12:42 03.12.2019
3335 Clouds 22 1013 89 0 4.21 177 12:19 03.12.2019
3336 Clouds 22 1013 89 0 4.21 177 11:59 03.12.2019
3337 Clouds 22 1013 89 0 4.21 177 11:39 03.12.2019
3338 Clouds 21 1012 90 0 4.3 182 11:21 03.12.2019
3339 Clouds 21 1012 90 0 4.3 182 10:59 03.12.2019
3340 Clouds 21 1012 90 0 4.3 182 10:41 03.12.2019
3341 Clouds 21 1012 90 0 4.3 182 10:21 03.12.2019
3342 Clouds 21 1012 90 0 4.3 182 09:56 03.12.2019
3343 Clouds 21 1012 90 0 4.3 182 09:38 03.12.2019
3344 Clouds 21 1012 90 0 4.3 182 09:19 03.12.2019
3345 Clouds 21 1012 90 0 4.3 182 08:41 03.12.2019
3346 Clouds 22 1013 89 0 4.93 176 08:22 03.12.2019
3347 Clouds 22 1013 89 0 4.93 176 07:54 03.12.2019
3348 Clouds 22 1013 89 0 4.93 176 07:31 03.12.2019
3349 Clouds 22 1013 89 0 4.93 176 06:59 03.12.2019
3350 Clouds 22 1013 89 0 4.93 176 06:22 03.12.2019
3351 Clouds 22 1013 89 0 4.93 176 05:57 03.12.2019
3352 Clouds 22 1014 90 0 5.28 178 04:48 03.12.2019
3353 Clouds 22 1014 90 0 5.28 178 03:36 03.12.2019
3354 Clouds 22 1014 90 0 5.28 178 03:18 03.12.2019
3355 Clouds 22 1014 90 0 5.28 178 02:43 03.12.2019
3356 Rain 22 1010 94 10000 5.1 170 02:24 03.12.2019
3357 Rain 22 1010 94 10000 5.1 170 01:41 03.12.2019
3358 Rain 22 1010 94 10000 5.1 170 01:21 03.12.2019
3359 Clouds 24 1009 83 10000 5.7 180 00:44 03.12.2019
3360 Clouds 24 1009 83 10000 5.7 180 00:44 03.12.2019
3361 Clouds 24 1009 83 10000 5.7 180 00:26 03.12.2019
3362 Clouds 25 1009 78 10000 6.2 160 23:44 02.12.2019
3363 Clouds 25 1009 78 10000 6.2 160 23:44 02.12.2019
3364 Clouds 25 1009 78 10000 6.2 160 23:25 02.12.2019
3365 Clouds 26 1008 74 10000 6.7 180 22:59 02.12.2019
3366 Clouds 26 1008 74 10000 6.7 180 22:39 02.12.2019
3367 Clouds 26 1008 74 10000 6.7 180 22:21 02.12.2019
3368 Clouds 26 1009 74 10000 6.2 180 21:57 02.12.2019
3369 Clouds 26 1009 74 10000 6.2 180 21:36 02.12.2019
3370 Clouds 26 1009 74 10000 6.2 180 21:18 02.12.2019
3371 Clouds 26 1010 74 10000 6.7 170 20:55 02.12.2019
3372 Clouds 26 1010 74 10000 6.7 170 20:55 02.12.2019
3373 Clouds 26 1010 74 10000 6.7 170 20:55 02.12.2019
3374 Clouds 26 1010 74 10000 6.7 170 20:37 02.12.2019
3375 Clouds 26 1010 74 10000 6.7 170 20:37 02.12.2019
3376 Clouds 26 1010 74 10000 6.7 170 20:18 02.12.2019
3377 Clouds 21 1013 89 0 5.9 164 19:42 02.12.2019
3378 Drizzle 24 1011 88 8000 5.1 190 19:21 02.12.2019
3379 Clouds 25 1012 78 10000 7.2 160 18:56 02.12.2019
3380 Clouds 25 1012 78 10000 7.2 160 18:37 02.12.2019
3381 Clouds 25 1012 78 10000 7.2 160 18:18 02.12.2019
3382 Clouds 25 1012 78 10000 7.2 160 18:18 02.12.2019
3383 Drizzle 23 1012 88 10000 5.1 160 17:41 02.12.2019
3384 Drizzle 23 1012 88 10000 5.1 160 17:21 02.12.2019
3385 Clouds 23 1012 83 10000 6.7 180 16:59 02.12.2019
3386 Clouds 23 1012 83 10000 6.7 180 16:39 02.12.2019
3387 Clouds 23 1012 83 10000 6.7 180 16:39 02.12.2019
3388 Clouds 23 1012 83 10000 6.7 180 16:18 02.12.2019
3389 Clouds 22 1012 88 10000 4.6 170 15:56 02.12.2019
3390 Clouds 22 1012 88 10000 4.6 170 15:38 02.12.2019
3391 Clouds 22 1012 88 10000 4.6 170 15:20 02.12.2019
3392 Drizzle 22 1011 88 10000 3.6 150 14:55 02.12.2019
3393 Drizzle 22 1011 88 10000 3.6 150 14:37 02.12.2019
3394 Drizzle 22 1011 88 10000 3.6 150 14:19 02.12.2019
3395 Rain 21 1010 94 10000 4.1 160 13:54 02.12.2019
3396 Rain 21 1010 94 10000 4.1 160 13:36 02.12.2019
3397 Rain 21 1010 94 10000 4.1 160 13:18 02.12.2019
3398 Clouds 22 1012 87 0 5.23 154 12:41 02.12.2019
3399 Clouds 22 1012 87 0 5.23 154 12:21 02.12.2019
3400 Clouds 22 1012 87 0 5.23 154 11:57 02.12.2019
3401 Clouds 22 1012 87 0 5.23 154 11:37 02.12.2019
3402 Clouds 22 1011 86 0 4.55 161 11:19 02.12.2019
3403 Clouds 22 1011 86 0 4.55 161 11:19 02.12.2019
3404 Clouds 22 1011 86 0 4.55 161 10:56 02.12.2019
3405 Clouds 22 1011 86 0 4.55 161 10:38 02.12.2019
3406 Clouds 22 1011 86 0 4.55 161 10:38 02.12.2019
3407 Clouds 22 1011 86 0 4.55 161 10:19 02.12.2019
3408 Clouds 22 1011 86 0 4.55 161 09:42 02.12.2019
3409 Clouds 22 1011 86 0 4.55 161 09:42 02.12.2019
3410 Clouds 22 1011 86 0 4.55 161 09:19 02.12.2019
3411 Clouds 22 1011 86 0 4.55 161 08:58 02.12.2019
3412 Clouds 22 1011 86 0 4.55 161 08:58 02.12.2019
3413 Clouds 22 1011 86 0 4.55 161 08:40 02.12.2019
3414 Clouds 22 1012 86 0 5.34 169 08:21 02.12.2019
3415 Clouds 22 1013 86 0 5.14 167 07:44 02.12.2019
3416 Clouds 22 1013 86 0 5.14 167 07:23 02.12.2019
3417 Clouds 22 1013 86 0 5.14 167 06:57 02.12.2019
3418 Clouds 22 1013 86 0 5.14 167 06:57 02.12.2019
3419 Clouds 22 1013 86 0 5.14 167 06:38 02.12.2019
3420 Clouds 22 1013 86 0 5.14 167 05:36 02.12.2019
3421 Clouds 22 1013 87 0 5.71 169 04:40 02.12.2019
3422 Clouds 22 1013 87 0 5.71 169 02:54 02.12.2019
3423 Clouds 22 1008 88 10000 5.1 160 02:31 02.12.2019
3424 Clouds 22 1008 88 10000 5.1 160 01:26 02.12.2019
3425 Clouds 23 1008 83 10000 5.7 160 00:58 02.12.2019
3426 Clouds 23 1008 83 10000 5.7 160 00:25 02.12.2019
3427 Clouds 23 1007 83 10000 6.7 160 23:55 01.12.2019
3428 Clouds 23 1007 83 10000 6.7 160 23:37 01.12.2019
3429 Clouds 23 1007 83 10000 6.7 160 23:19 01.12.2019
3430 Clouds 24 1007 83 10000 5.7 160 22:55 01.12.2019
3431 Clouds 24 1007 83 10000 5.7 160 22:36 01.12.2019
3432 Clouds 24 1007 83 10000 5.7 160 22:18 01.12.2019
3433 Clouds 24 1007 83 10000 5.7 160 22:18 01.12.2019
3434 Clouds 24 1007 83 10000 5.7 160 22:18 01.12.2019
3435 Clouds 24 1008 83 10000 7.2 180 21:54 01.12.2019
3436 Clouds 24 1008 83 10000 7.2 180 21:54 01.12.2019
3437 Clouds 24 1008 83 10000 7.2 180 21:36 01.12.2019
3438 Clouds 24 1008 83 10000 7.2 180 21:18 01.12.2019
3439 Clouds 25 1009 78 10000 6.7 190 20:54 01.12.2019
3440 Clouds 25 1009 78 10000 6.7 190 20:36 01.12.2019
3441 Clouds 25 1009 78 10000 6.7 190 20:36 01.12.2019
3442 Clouds 25 1009 78 10000 6.7 190 20:18 01.12.2019
3443 Drizzle 24 1011 83 10000 6.2 160 19:40 01.12.2019
3444 Drizzle 24 1011 83 10000 6.2 160 19:22 01.12.2019
3445 Clouds 24 1011 78 10000 4.1 170 18:58 01.12.2019
3446 Clouds 24 1011 78 10000 4.1 170 18:58 01.12.2019
3447 Clouds 24 1011 78 10000 4.1 170 18:39 01.12.2019
3448 Clouds 24 1011 78 10000 4.1 170 18:20 01.12.2019
3449 Clouds 24 1011 78 10000 6.2 180 18:00 01.12.2019
3450 Clouds 24 1011 78 10000 6.2 180 17:41 01.12.2019
3451 Clouds 24 1011 78 10000 6.2 180 17:23 01.12.2019
3452 Clouds 24 1011 78 10000 6.2 180 17:23 01.12.2019
3453 Clouds 24 1011 78 10000 6.2 180 17:23 01.12.2019
3454 Clouds 24 1011 78 10000 6.2 180 17:23 01.12.2019
3455 Clouds 24 1011 83 10000 8.2 170 16:56 01.12.2019
3456 Clouds 24 1011 83 10000 8.2 170 16:38 01.12.2019
3457 Clouds 24 1011 83 10000 8.2 170 16:20 01.12.2019
3458 Clouds 23 1011 83 10000 7.2 170 15:49 01.12.2019
3459 Clouds 23 1011 83 10000 7.2 170 15:30 01.12.2019
3460 Clouds 23 1011 83 10000 7.2 170 15:30 01.12.2019
3461 Clouds 22 1010 88 10000 4.1 160 14:43 01.12.2019
3462 Clouds 22 1010 88 10000 4.1 160 14:20 01.12.2019
3463 Clouds 22 1009 88 10000 3.1 180 13:59 01.12.2019
3464 Clouds 22 1009 88 10000 3.1 180 13:39 01.12.2019
3465 Clouds 22 1009 88 10000 3.1 180 13:19 01.12.2019
3466 Clouds 22 1012 86 0 5.24 182 12:43 01.12.2019
3467 Clouds 22 1012 86 0 5.24 182 11:58 01.12.2019
3468 Clouds 22 1012 86 0 5.24 182 11:39 01.12.2019
3469 Clouds 21 1011 85 0 4.5 181 11:19 01.12.2019
3470 Clouds 21 1011 85 0 4.5 181 10:43 01.12.2019
3471 Clouds 21 1011 85 0 4.5 181 10:21 01.12.2019
3472 Clouds 21 1011 85 0 4.5 181 09:55 01.12.2019
3473 Clouds 21 1011 85 0 4.5 181 09:36 01.12.2019
3474 Clouds 21 1011 85 0 4.5 181 09:18 01.12.2019
3475 Clouds 21 1011 85 0 4.5 181 08:42 01.12.2019
3476 Clouds 22 1012 86 0 4.43 178 08:19 01.12.2019
3477 Clouds 22 1012 86 0 4.43 178 07:50 01.12.2019
3478 Clouds 22 1012 86 0 4.43 178 07:29 01.12.2019
3479 Clouds 22 1012 86 0 4.43 178 06:54 01.12.2019
3480 Clouds 22 1012 86 0 4.43 178 06:21 01.12.2019
3481 Clouds 22 1012 86 0 4.43 178 05:45 01.12.2019
3482 Clouds 22 1012 83 0 3.06 177 04:30 01.12.2019
3483 Clouds 22 1012 83 0 3.06 177 02:47 01.12.2019
3484 Clouds 24 1010 83 10000 5.1 210 02:28 01.12.2019
3485 Clouds 24 1010 83 10000 5.1 210 01:55 01.12.2019
3486 Clouds 24 1010 83 10000 5.1 210 01:37 01.12.2019
3487 Clouds 23 1007 83 10000 4.6 190 00:50 01.12.2019
3488 Clouds 23 1007 83 10000 4.6 190 00:27 01.12.2019
3489 Clouds 25 1007 73 10000 5.1 180 23:57 30.11.2019
3490 Clouds 25 1007 73 10000 5.1 180 23:39 30.11.2019
3491 Clouds 25 1007 73 10000 5.1 180 23:20 30.11.2019
3492 Clouds 25 1008 73 10000 4.1 180 22:46 30.11.2019
3493 Clouds 25 1008 73 10000 4.1 180 22:28 30.11.2019
3494 Clouds 26 1008 69 10000 5.7 190 21:48 30.11.2019
3495 Clouds 26 1008 69 10000 5.7 190 21:29 30.11.2019
3496 Clouds 22 1009 83 0 4.54 184 20:58 30.11.2019
3497 Clouds 22 1009 83 0 4.54 184 20:40 30.11.2019
3498 Clouds 25 1010 73 10000 5.1 190 20:20 30.11.2019
3499 Clouds 25 1010 73 10000 5.1 190 19:57 30.11.2019
3500 Clouds 25 1010 73 10000 5.1 190 19:39 30.11.2019
3501 Clouds 25 1010 73 10000 5.1 190 19:21 30.11.2019
3502 Clouds 24 1011 78 10000 3.6 180 18:59 30.11.2019
3503 Clouds 24 1011 78 10000 3.6 180 18:39 30.11.2019
3504 Clouds 24 1011 78 10000 3.6 180 18:21 30.11.2019
3505 Clouds 23 1011 83 10000 3.1 190 17:58 30.11.2019
3506 Clouds 23 1011 83 10000 3.1 190 17:40 30.11.2019
3507 Clouds 23 1011 83 10000 3.1 190 17:22 30.11.2019
3508 Drizzle 22 1011 88 8000 2.6 200 16:58 30.11.2019
3509 Drizzle 22 1011 88 8000 2.6 200 16:58 30.11.2019
3510 Drizzle 22 1011 88 8000 2.6 200 16:40 30.11.2019
3511 Drizzle 22 1011 88 8000 2.6 200 16:21 30.11.2019
3512 Drizzle 22 1011 88 8000 2.6 200 16:21 30.11.2019
3513 Clouds 22 1011 88 10000 3.1 160 15:43 30.11.2019
3514 Clouds 22 1011 88 10000 3.1 160 15:20 30.11.2019
3515 Clouds 22 1010 88 10000 3.1 170 14:58 30.11.2019
3516 Clouds 22 1010 88 10000 3.1 170 14:39 30.11.2019
3517 Clouds 22 1010 88 10000 3.1 170 14:20 30.11.2019
3518 Clouds 22 1010 88 10000 4.1 180 13:59 30.11.2019
3519 Clouds 22 1010 88 10000 4.1 180 13:40 30.11.2019
3520 Clouds 22 1010 88 10000 4.1 180 13:22 30.11.2019
3521 Clouds 21 1011 83 0 3.84 205 12:47 30.11.2019
3522 Clouds 21 1011 83 0 3.84 205 12:29 30.11.2019
3523 Clouds 21 1011 83 0 3.84 205 11:59 30.11.2019
3524 Clouds 21 1011 83 0 3.84 205 11:40 30.11.2019
3525 Clouds 21 1010 83 0 3.45 214 11:18 30.11.2019
3526 Clouds 21 1010 83 0 3.45 214 10:45 30.11.2019
3527 Clouds 21 1010 83 0 3.45 214 10:21 30.11.2019
3528 Clouds 21 1010 83 0 3.45 214 09:59 30.11.2019
3529 Clouds 21 1010 83 0 3.45 214 09:41 30.11.2019
3530 Clouds 21 1010 83 0 3.45 214 09:20 30.11.2019
3531 Clouds 21 1010 83 0 3.45 214 08:41 30.11.2019
3532 Clouds 22 1012 81 0 3.03 183 08:19 30.11.2019
3533 Clouds 22 1012 81 0 3.03 183 07:44 30.11.2019
3534 Clouds 22 1012 81 0 3.03 183 07:25 30.11.2019
3535 Clouds 22 1012 81 0 3.03 183 06:46 30.11.2019
3536 Clouds 22 1012 81 0 3.03 183 06:28 30.11.2019
3537 Clouds 22 1012 81 0 3.03 183 05:30 30.11.2019
3538 Clouds 22 1013 81 0 2.83 177 03:40 30.11.2019
3539 Clouds 22 1009 88 10000 3.1 160 02:26 30.11.2019
3540 Clouds 22 1009 88 10000 3.1 160 01:56 30.11.2019
3541 Clouds 22 1009 88 10000 3.1 160 01:24 30.11.2019
3542 Clouds 22 1009 88 10000 4.1 180 00:46 30.11.2019
3543 Clouds 22 1009 88 10000 4.1 180 00:27 30.11.2019
3544 Drizzle 22 1009 88 10000 4.1 160 23:46 29.11.2019
3545 Drizzle 22 1009 88 10000 4.1 160 23:25 29.11.2019
3546 Drizzle 23 1009 83 8000 5.1 190 22:58 29.11.2019
3547 Drizzle 23 1009 83 8000 5.1 190 22:39 29.11.2019
3548 Drizzle 23 1009 83 8000 5.1 190 22:21 29.11.2019
3549 Clouds 24 1010 83 10000 5.1 190 21:41 29.11.2019
3550 Clouds 24 1010 83 10000 5.1 190 21:22 29.11.2019
3551 Clouds 24 1010 83 10000 5.7 190 20:56 29.11.2019
3552 Clouds 24 1010 83 10000 5.7 190 20:37 29.11.2019
3553 Clouds 24 1010 83 10000 5.7 190 20:18 29.11.2019
3554 Rain 24 1011 83 10000 6.2 170 19:55 29.11.2019
3555 Rain 24 1011 83 10000 6.2 170 19:37 29.11.2019
3556 Rain 24 1011 83 10000 6.2 170 19:37 29.11.2019
3557 Rain 24 1011 83 10000 6.2 170 19:19 29.11.2019
3558 Clouds 24 1011 78 10000 5.1 170 18:42 29.11.2019
3559 Clouds 24 1011 78 10000 5.1 170 18:24 29.11.2019
3560 Clouds 23 1012 83 10000 7.7 170 17:57 29.11.2019
3561 Clouds 23 1012 83 10000 7.7 170 17:39 29.11.2019
3562 Clouds 23 1012 83 10000 7.7 170 17:20 29.11.2019
3563 Clouds 23 1012 88 10000 7.2 180 16:43 29.11.2019
3564 Clouds 23 1012 88 10000 7.2 180 16:21 29.11.2019
3565 Clouds 22 1012 88 10000 5.1 170 15:56 29.11.2019
3566 Clouds 22 1012 88 10000 5.1 170 15:37 29.11.2019
3567 Clouds 22 1012 88 10000 5.1 170 15:19 29.11.2019
3568 Clouds 22 1011 88 10000 6.7 160 14:40 29.11.2019
3569 Clouds 22 1011 88 10000 6.7 160 14:21 29.11.2019
3570 Clouds 22 1011 88 10000 6.7 180 13:57 29.11.2019
3571 Clouds 22 1011 88 10000 6.7 180 13:37 29.11.2019
3572 Clouds 22 1011 88 10000 6.7 180 13:19 29.11.2019
3573 Clouds 22 1013 85 0 6.62 187 12:42 29.11.2019
3574 Clouds 22 1013 85 0 6.62 187 12:24 29.11.2019
3575 Clouds 22 1013 85 0 6.62 187 11:56 29.11.2019
3576 Clouds 22 1013 85 0 6.62 187 11:38 29.11.2019
3577 Clouds 22 1013 86 0 5.48 193 11:18 29.11.2019
3578 Clouds 22 1013 86 0 5.48 193 10:57 29.11.2019
3579 Clouds 22 1013 86 0 5.48 193 10:38 29.11.2019
3580 Clouds 22 1013 86 0 5.48 193 10:20 29.11.2019
3581 Clouds 22 1013 86 0 5.48 193 09:57 29.11.2019
3582 Clouds 22 1013 86 0 5.48 193 09:57 29.11.2019
3583 Clouds 22 1013 86 0 5.48 193 09:38 29.11.2019
3584 Clouds 22 1013 86 0 5.48 193 09:20 29.11.2019
3585 Clouds 22 1013 86 0 5.48 193 08:54 29.11.2019
3586 Clouds 22 1013 86 0 5.48 193 08:36 29.11.2019
3587 Clouds 22 1014 85 0 5.39 193 08:18 29.11.2019
3588 Clouds 22 1014 85 0 5.39 193 07:41 29.11.2019
3589 Clouds 22 1014 85 0 5.39 193 07:22 29.11.2019
3590 Clouds 22 1014 85 0 5.39 193 06:46 29.11.2019
3591 Clouds 22 1014 85 0 5.39 193 06:23 29.11.2019
3592 Clouds 22 1014 85 0 5.39 193 05:32 29.11.2019
3593 Clouds 22 1015 83 0 6.52 185 04:45 29.11.2019
3594 Clouds 22 1015 83 0 6.52 185 03:23 29.11.2019
3595 Clouds 22 1015 83 0 6.52 185 02:42 29.11.2019
3596 Clouds 22 1010 88 10000 5.7 180 02:20 29.11.2019
3597 Clouds 22 1010 88 10000 5.7 180 01:27 29.11.2019
3598 Clouds 23 1010 83 10000 6.2 180 00:50 29.11.2019
3599 Clouds 23 1010 83 10000 6.2 180 00:22 29.11.2019
3600 Clouds 23 1010 83 10000 7.2 170 23:57 28.11.2019
3601 Clouds 23 1010 83 10000 7.2 170 23:57 28.11.2019
3602 Clouds 23 1010 83 10000 7.2 170 23:39 28.11.2019
3603 Clouds 23 1010 83 10000 7.2 170 23:20 28.11.2019
3604 Clouds 23 1010 83 10000 6.7 170 22:54 28.11.2019
3605 Clouds 23 1010 83 10000 6.7 170 22:36 28.11.2019
3606 Clouds 23 1010 83 10000 6.7 170 22:18 28.11.2019
3607 Clouds 24 1011 78 10000 6.7 200 21:42 28.11.2019
3608 Clouds 24 1011 78 10000 6.7 200 21:21 28.11.2019
3609 Clouds 25 1011 73 10000 7.2 170 20:58 28.11.2019
3610 Clouds 25 1011 73 10000 7.2 170 20:39 28.11.2019
3611 Clouds 25 1011 73 10000 7.2 170 20:21 28.11.2019
3612 Clouds 25 1011 73 10000 7.2 170 20:21 28.11.2019
3613 Clouds 25 1012 73 10000 8.2 180 19:56 28.11.2019
3614 Clouds 25 1012 73 10000 8.2 180 19:37 28.11.2019
3615 Clouds 25 1012 73 10000 8.2 180 19:19 28.11.2019
3616 Clouds 25 1012 78 10000 8.7 180 18:56 28.11.2019
3617 Clouds 25 1012 78 10000 8.7 180 18:38 28.11.2019
3618 Clouds 25 1012 78 10000 8.7 180 18:18 28.11.2019
3619 Clouds 24 1012 78 10000 7.7 190 17:43 28.11.2019
3620 Clouds 24 1012 78 10000 7.7 190 17:25 28.11.2019
3621 Clouds 24 1012 78 10000 7.7 190 17:25 28.11.2019
3622 Clouds 23 1013 83 10000 5.7 170 16:59 28.11.2019
3623 Clouds 23 1013 83 10000 5.7 170 16:40 28.11.2019
3624 -273 0 0 0 0 0 16:40 28.11.2019
3625 Clouds 23 1013 83 10000 5.7 170 16:19 28.11.2019
3626 Clouds 22 1012 88 10000 6.7 170 15:56 28.11.2019
3627 Clouds 22 1012 88 10000 6.7 170 15:37 28.11.2019
3628 Clouds 22 1012 88 10000 6.7 170 15:19 28.11.2019
3629 Rain 22 1011 88 10000 8.2 190 14:42 28.11.2019
3630 Rain 22 1011 88 10000 8.2 190 14:24 28.11.2019
3631 Rain 21 1011 94 10000 5.7 180 13:59 28.11.2019
3632 Rain 21 1011 94 10000 5.7 180 13:41 28.11.2019
3633 Rain 21 1011 94 10000 5.7 180 13:22 28.11.2019
3634 Rain 21 1013 88 0 5.6 189 12:49 28.11.2019
3635 Rain 21 1013 88 0 5.6 189 12:29 28.11.2019
3636 Rain 21 1013 88 0 5.6 189 11:59 28.11.2019
3637 Rain 21 1013 88 0 5.6 189 11:59 28.11.2019
3638 Rain 21 1013 88 0 5.6 189 11:41 28.11.2019
3639 Rain 22 1012 85 0 6.57 189 11:21 28.11.2019
3640 Rain 22 1012 85 0 6.57 189 10:59 28.11.2019
3641 Rain 22 1012 85 0 6.57 189 10:40 28.11.2019
3642 Rain 22 1012 85 0 6.57 189 10:40 28.11.2019
3643 Rain 22 1012 85 0 6.57 189 10:20 28.11.2019
3644 Rain 22 1012 85 0 6.57 189 09:41 28.11.2019
3645 Rain 22 1012 85 0 6.57 189 09:23 28.11.2019
3646 Rain 22 1012 85 0 6.57 189 08:59 28.11.2019
3647 Rain 22 1012 85 0 6.57 189 08:59 28.11.2019
3648 Rain 22 1012 85 0 6.57 189 08:59 28.11.2019
3649 Rain 22 1012 85 0 6.57 189 08:39 28.11.2019
3650 Clouds 22 1013 84 0 7.01 192 08:21 28.11.2019
3651 Clouds 22 1013 85 0 7.31 193 07:42 28.11.2019
3652 Clouds 22 1013 85 0 7.31 193 07:24 28.11.2019
3653 Clouds 22 1013 85 0 7.31 193 06:51 28.11.2019
3654 Clouds 22 1013 85 0 7.31 193 06:31 28.11.2019
3655 Clouds 22 1013 85 0 7.31 193 05:51 28.11.2019
3656 Clouds 22 1014 83 0 6.4 192 05:18 28.11.2019
3657 Clouds 22 1014 83 0 6.4 192 02:46 28.11.2019
3658 Clouds 23 1009 83 10000 6.2 200 01:50 28.11.2019
3659 Clouds 24 1008 78 10000 7.7 190 00:48 28.11.2019
3660 Clouds 24 1008 78 10000 7.7 190 00:23 28.11.2019
3661 Clouds 24 1007 78 10000 7.2 210 23:55 27.11.2019
3662 Clouds 24 1007 78 10000 7.2 210 23:37 27.11.2019
3663 Clouds 24 1007 78 10000 7.2 210 23:19 27.11.2019
3664 Clouds 25 1008 73 10000 6.7 210 22:39 27.11.2019
3665 Clouds 25 1008 73 10000 6.7 210 22:20 27.11.2019
3666 Clouds 26 1008 69 10000 7.7 200 21:56 27.11.2019
3667 Clouds 26 1008 69 10000 7.7 200 21:38 27.11.2019
3668 Clouds 26 1008 69 10000 7.7 200 21:19 27.11.2019
3669 Clouds 26 1008 69 10000 7.7 200 21:19 27.11.2019
3670 Clouds 26 1009 74 10000 7.7 180 20:58 27.11.2019
3671 Clouds 26 1009 74 10000 7.7 180 20:39 27.11.2019
3672 Clouds 26 1009 74 10000 7.7 180 20:21 27.11.2019
3673 Clouds 26 1010 74 10000 7.2 180 19:57 27.11.2019
3674 Clouds 26 1010 74 10000 7.2 180 19:39 27.11.2019
3675 Clouds 26 1010 74 10000 7.2 180 19:19 27.11.2019
3676 Clouds 25 1010 78 10000 6.7 190 18:58 27.11.2019
3677 Clouds 25 1010 78 10000 6.7 190 18:37 27.11.2019
3678 Clouds 25 1010 78 10000 6.7 190 18:19 27.11.2019
3679 Clouds 24 1011 78 10000 7.2 180 17:56 27.11.2019
3680 Clouds 24 1011 78 10000 7.2 180 17:38 27.11.2019
3681 Clouds 24 1011 78 10000 7.2 180 17:20 27.11.2019
3682 Clouds 24 1012 78 10000 4.1 200 16:56 27.11.2019
3683 Clouds 24 1012 78 10000 4.1 200 16:37 27.11.2019
3684 Clouds 24 1012 78 10000 4.1 200 16:18 27.11.2019
3685 Rain 23 1012 83 10000 4.6 190 15:56 27.11.2019
3686 Rain 23 1012 83 10000 4.6 190 15:55 27.11.2019
3687 Rain 23 1012 83 10000 4.6 190 15:37 27.11.2019
3688 Rain 23 1012 83 10000 4.6 190 15:19 27.11.2019
3689 Rain 22 1011 83 10000 4.1 170 14:55 27.11.2019
3690 Rain 22 1011 83 10000 4.1 170 14:36 27.11.2019
3691 Rain 22 1011 83 10000 4.1 170 14:18 27.11.2019
3692 Clouds 22 1009 83 10000 5.7 180 13:55 27.11.2019
3693 Clouds 22 1009 83 10000 5.7 180 13:36 27.11.2019
3694 Clouds 22 1009 83 10000 5.7 180 13:18 27.11.2019
3695 Clouds 21 1011 85 0 6.88 183 12:40 27.11.2019
3696 Clouds 21 1011 85 0 6.88 183 12:20 27.11.2019
3697 Clouds 21 1011 85 0 6.88 183 11:54 27.11.2019
3698 Clouds 21 1011 85 0 6.88 183 11:36 27.11.2019
3699 Rain 21 1010 86 0 5.8 180 11:18 27.11.2019
3700 Rain 21 1010 86 0 5.8 180 11:18 27.11.2019
3701 Rain 21 1010 86 0 5.8 180 10:41 27.11.2019
3702 Rain 21 1010 86 0 5.8 180 10:23 27.11.2019
3703 Rain 21 1010 86 0 5.8 180 09:48 27.11.2019
3704 Rain 21 1010 86 0 5.8 180 09:26 27.11.2019
3705 Rain 21 1010 86 0 5.8 180 08:59 27.11.2019
3706 Rain 21 1010 86 0 5.8 180 08:41 27.11.2019
3707 Clouds 21 1011 87 0 5.55 184 08:22 27.11.2019
3708 Clouds 21 1011 87 0 5.55 184 07:47 27.11.2019
3709 Clouds 21 1011 87 0 5.55 184 07:28 27.11.2019
3710 Clouds 21 1011 87 0 5.55 184 06:48 27.11.2019
3711 Clouds 21 1011 87 0 5.55 184 06:29 27.11.2019
3712 Clouds 21 1011 87 0 5.55 184 05:43 27.11.2019
3713 Clouds 21 1012 85 0 5.53 185 05:19 27.11.2019
3714 Clouds 21 1012 85 0 5.53 185 04:41 27.11.2019
3715 Clouds 21 1012 85 0 5.53 185 03:55 27.11.2019
3716 Clouds 21 1012 85 0 5.53 185 03:23 27.11.2019
3717 Clouds 21 1012 85 0 5.53 185 02:54 27.11.2019
3718 Clouds 22 1006 88 10000 6.7 210 01:39 27.11.2019
3719 Clouds 23 1005 83 10000 5.7 200 00:45 27.11.2019
3720 Clouds 23 1005 83 10000 5.7 200 00:26 27.11.2019
3721 Clouds 24 1005 78 10000 7.7 180 23:49 26.11.2019
3722 Clouds 24 1005 78 10000 7.7 180 23:27 26.11.2019
3723 Clouds 24 1006 78 10000 8.7 180 22:59 26.11.2019
3724 Clouds 24 1006 78 10000 8.7 180 22:38 26.11.2019
3725 Clouds 24 1006 78 10000 8.7 180 22:19 26.11.2019
3726 Clouds 24 1006 78 10000 8.2 190 21:58 26.11.2019
3727 Clouds 24 1006 78 10000 8.2 190 21:58 26.11.2019
3728 Clouds 24 1006 78 10000 8.2 190 21:38 26.11.2019
3729 Clouds 24 1006 78 10000 8.2 190 21:19 26.11.2019
3730 Clouds 24 1007 78 10000 8.7 180 20:55 26.11.2019
3731 Clouds 24 1007 78 10000 8.7 180 20:37 26.11.2019
3732 Clouds 24 1007 78 10000 8.7 180 20:18 26.11.2019
3733 Clouds 24 1008 78 10000 7.2 180 19:55 26.11.2019
3734 Clouds 24 1008 78 10000 7.2 180 19:37 26.11.2019
3735 Clouds 24 1008 78 10000 7.2 180 19:18 26.11.2019
3736 Clouds 25 1008 73 10000 8.7 160 18:56 26.11.2019
3737 Clouds 25 1008 73 10000 8.7 160 18:38 26.11.2019
3738 Clouds 24 1009 78 10000 7.7 180 18:20 26.11.2019
3739 Clouds 24 1009 78 10000 7.7 180 17:54 26.11.2019
3740 Clouds 24 1009 78 10000 7.7 180 17:36 26.11.2019
3741 Clouds 23 1009 83 10000 7.7 190 17:18 26.11.2019
3742 Clouds 23 1009 83 10000 7.7 190 16:54 26.11.2019
3743 Clouds 23 1009 83 10000 7.7 190 16:36 26.11.2019
3744 Clouds 23 1009 83 10000 7.7 190 16:18 26.11.2019
3745 Clouds 22 1009 88 10000 7.2 170 15:39 26.11.2019
3746 Clouds 22 1009 88 10000 7.2 170 15:39 26.11.2019
3747 Clouds 22 1009 88 10000 7.2 170 15:21 26.11.2019
3748 Clouds 21 1008 94 10000 6.2 160 15:00 26.11.2019
3749 Clouds 21 1008 94 10000 6.2 160 14:41 26.11.2019
3750 Clouds 21 1008 94 10000 6.2 160 14:23 26.11.2019
3751 Clouds 21 1007 94 10000 6.7 170 13:43 26.11.2019
3752 Clouds 21 1007 94 10000 6.7 170 13:23 26.11.2019
3753 Clouds 21 1010 89 0 6.69 173 12:55 26.11.2019
3754 Clouds 21 1010 89 0 6.69 173 12:36 26.11.2019
3755 Clouds 21 1010 89 0 6.69 173 12:18 26.11.2019
3756 Clouds 21 1010 89 0 6.69 173 11:54 26.11.2019
3757 Clouds 21 1010 89 0 6.69 173 11:36 26.11.2019
3758 Rain 21 1009 88 0 4.88 175 11:18 26.11.2019
3759 Rain 21 1009 88 0 4.88 175 10:41 26.11.2019
3760 Rain 21 1009 88 0 4.88 175 10:21 26.11.2019
3761 Rain 21 1009 88 0 4.88 175 09:58 26.11.2019
3762 Rain 21 1009 88 0 4.88 175 09:40 26.11.2019
3763 Rain 21 1009 88 0 4.88 175 09:21 26.11.2019
3764 Rain 21 1009 88 0 4.88 175 08:46 26.11.2019
3765 Rain 21 1009 88 0 4.88 175 08:26 26.11.2019
3766 Rain 21 1010 87 0 5.42 168 07:51 26.11.2019
3767 Rain 21 1010 87 0 5.42 168 07:32 26.11.2019
3768 Rain 21 1010 87 0 5.42 168 06:59 26.11.2019
3769 Rain 21 1010 87 0 5.42 168 06:40 26.11.2019
3770 Rain 21 1010 87 0 5.42 168 05:58 26.11.2019
3771 Clouds 21 1011 86 0 5.49 179 04:47 26.11.2019
3772 Clouds 21 1011 86 0 5.49 179 02:53 26.11.2019
3773 Clouds 22 1006 88 10000 7.7 180 01:34 26.11.2019
3774 Clouds 23 1006 83 10000 7.7 180 00:53 26.11.2019
3775 Clouds 23 1006 83 10000 7.7 180 00:31 26.11.2019
3776 Clouds 24 1006 78 10000 7.7 180 23:55 25.11.2019
3777 Clouds 24 1006 78 10000 7.7 180 23:55 25.11.2019
3778 Clouds 24 1006 78 10000 7.7 180 23:36 25.11.2019
3779 Clouds 24 1006 78 10000 7.7 180 23:18 25.11.2019
3780 Clouds 24 1006 78 10000 6.7 190 22:39 25.11.2019
3781 Clouds 24 1006 78 10000 6.7 190 22:19 25.11.2019
3782 Clouds 24 1006 78 10000 7.2 200 21:59 25.11.2019
3783 Clouds 24 1006 78 10000 7.2 200 21:40 25.11.2019
3784 Clouds 24 1006 78 10000 7.2 200 21:21 25.11.2019
3785 Clouds 25 1008 73 10000 8.2 170 20:57 25.11.2019
3786 Clouds 25 1008 73 10000 8.2 170 20:39 25.11.2019
3787 Clouds 25 1008 73 10000 8.2 170 20:19 25.11.2019
3788 Clouds 25 1008 73 10000 9.8 160 19:56 25.11.2019
3789 Clouds 25 1008 73 10000 9.8 160 19:37 25.11.2019
3790 Clouds 25 1008 73 10000 9.8 160 19:37 25.11.2019
3791 Clouds 25 1008 73 10000 9.8 160 19:18 25.11.2019
3792 Clouds 24 1009 78 10000 8.2 170 18:57 25.11.2019
3793 Clouds 24 1009 78 10000 8.2 170 18:38 25.11.2019
3794 Clouds 24 1009 78 10000 8.2 170 18:38 25.11.2019
3795 Rain 23 1010 83 10000 7.2 170 18:20 25.11.2019
3796 Rain 23 1010 83 10000 7.2 170 17:57 25.11.2019
3797 Rain 23 1010 83 10000 7.2 170 17:38 25.11.2019
3798 Rain 22 1010 88 10000 7.7 160 17:19 25.11.2019
3799 Rain 22 1010 88 10000 7.7 160 16:56 25.11.2019
3800 Rain 22 1010 88 10000 7.7 160 16:37 25.11.2019
3801 Rain 22 1010 88 10000 7.7 160 16:19 25.11.2019
3802 Rain 22 1010 88 10000 5.1 160 15:42 25.11.2019
3803 Rain 22 1010 88 10000 5.1 160 15:21 25.11.2019
3804 Rain 21 1009 94 10000 4.6 160 14:59 25.11.2019
3805 Rain 21 1009 94 10000 4.6 160 14:40 25.11.2019
3806 Rain 21 1009 94 10000 4.6 160 14:22 25.11.2019
3807 Clouds 21 1008 94 10000 6.2 170 13:54 25.11.2019
3808 Clouds 21 1008 94 10000 6.2 170 13:36 25.11.2019
3809 Clouds 21 1008 94 10000 6.2 170 13:18 25.11.2019
3810 Clouds 21 1008 94 10000 6.2 170 13:18 25.11.2019
3811 Rain 20 1012 89 0 5.81 160 12:41 25.11.2019
3812 Rain 20 1012 89 0 5.81 160 12:22 25.11.2019
3813 Rain 20 1012 89 0 5.81 160 11:59 25.11.2019
3814 Rain 20 1012 89 0 5.81 160 11:39 25.11.2019
3815 Clouds 20 1011 87 0 5.99 173 11:20 25.11.2019
3816 Clouds 20 1011 87 0 5.99 173 10:46 25.11.2019
3817 Clouds 20 1011 87 0 5.99 173 10:27 25.11.2019
3818 Clouds 20 1011 87 0 5.99 173 09:59 25.11.2019
3819 Clouds 20 1011 87 0 5.99 173 09:40 25.11.2019
3820 Clouds 20 1011 87 0 5.99 173 09:22 25.11.2019
3821 Clouds 20 1011 87 0 5.99 173 08:41 25.11.2019
3822 Clouds 20 1012 85 0 5.51 179 08:22 25.11.2019
3823 Clouds 20 1012 85 0 5.65 176 07:44 25.11.2019
3824 Clouds 20 1012 85 0 5.65 176 07:24 25.11.2019
3825 Clouds 20 1012 85 0 5.65 176 06:50 25.11.2019
3826 Clouds 20 1012 85 0 5.65 176 06:22 25.11.2019
3827 Clouds 20 1012 85 0 5.65 176 05:40 25.11.2019
3828 Clouds 23 1012 88 10000 6.2 200 04:52 25.11.2019
3829 Clouds 24 1012 83 10000 6.2 210 03:24 25.11.2019
3830 Clouds 23 1011 88 10000 7.7 220 02:28 25.11.2019
3831 Clouds 22 1008 78 10000 5.1 190 01:41 25.11.2019
3832 Clouds 22 1008 78 10000 5.1 190 01:22 25.11.2019
3833 Clouds 23 1007 73 10000 4.1 180 00:24 25.11.2019
3834 Clouds 23 1007 73 10000 4.6 190 00:00 25.11.2019
3835 Clouds 23 1007 73 10000 4.6 190 00:00 25.11.2019
3836 Clouds 23 1007 73 10000 4.6 190 23:41 24.11.2019
3837 Clouds 23 1007 73 10000 4.6 190 23:19 24.11.2019
3838 Clouds 24 1008 69 10000 5.1 150 22:56 24.11.2019
3839 Clouds 24 1008 69 10000 5.1 150 22:37 24.11.2019
3840 Clouds 24 1008 69 10000 5.1 150 22:18 24.11.2019
3841 Clouds 24 1008 69 10000 5.1 150 22:18 24.11.2019
3842 Clouds 24 1008 69 10000 6.2 180 21:42 24.11.2019
3843 Clouds 24 1008 69 10000 6.2 180 21:22 24.11.2019
3844 Clouds 24 1009 69 10000 6.7 170 20:59 24.11.2019
3845 Clouds 24 1009 69 10000 6.7 170 20:59 24.11.2019
3846 Clouds 24 1009 69 10000 6.7 170 20:40 24.11.2019
3847 Clouds 24 1009 69 10000 6.7 170 20:20 24.11.2019
3848 Clouds 24 1010 73 10000 7.2 190 19:57 24.11.2019
3849 Clouds 24 1010 73 10000 7.2 190 19:39 24.11.2019
3850 Clouds 24 1010 73 10000 7.2 190 19:21 24.11.2019
3851 Clouds 24 1011 73 10000 6.7 180 18:59 24.11.2019
3852 Clouds 24 1011 73 10000 6.7 180 18:59 24.11.2019
3853 Clouds 24 1011 73 10000 6.7 180 18:38 24.11.2019
3854 Clouds 23 1012 78 10000 4.6 190 18:20 24.11.2019
3855 Clouds 23 1012 78 10000 4.6 190 17:58 24.11.2019
3856 Clouds 23 1012 78 10000 4.6 190 17:40 24.11.2019
3857 Clouds 23 1012 78 10000 4.6 190 17:21 24.11.2019
3858 Clouds 23 1012 78 10000 4.1 190 16:58 24.11.2019
3859 Clouds 23 1012 78 10000 4.1 190 16:39 24.11.2019
3860 Clouds 23 1012 78 10000 4.1 190 16:20 24.11.2019
3861 Clouds 22 1012 78 10000 3.6 190 15:45 24.11.2019
3862 Clouds 22 1012 78 10000 3.6 190 15:27 24.11.2019
3863 Clouds 21 1011 83 10000 3.6 160 14:59 24.11.2019
3864 Clouds 21 1011 83 10000 3.6 160 14:39 24.11.2019
3865 Clouds 21 1011 83 10000 3.6 160 14:19 24.11.2019
3866 Clouds 20 1010 88 10000 3.6 170 13:55 24.11.2019
3867 Clouds 20 1010 88 10000 3.6 170 13:37 24.11.2019
3868 Clouds 20 1010 88 10000 3.6 170 13:18 24.11.2019
3869 Rain 20 1013 80 0 4.61 151 12:42 24.11.2019
3870 Rain 20 1013 80 0 4.61 151 12:20 24.11.2019
3871 Rain 20 1013 80 0 4.61 151 11:58 24.11.2019
3872 Rain 20 1013 80 0 4.61 151 11:37 24.11.2019
3873 Clouds 20 1012 82 0 5.18 148 11:19 24.11.2019
3874 Clouds 20 1012 82 0 5.18 148 10:47 24.11.2019
3875 Clouds 20 1012 82 0 5.18 148 10:29 24.11.2019
3876 Clouds 20 1012 82 0 5.18 148 09:58 24.11.2019
3877 Clouds 20 1012 82 0 5.18 148 09:38 24.11.2019
3878 Clouds 20 1012 82 0 5.18 148 09:19 24.11.2019
3879 Clouds 20 1012 82 0 5.18 148 08:45 24.11.2019
3880 Clouds 20 1013 82 0 5.13 157 08:23 24.11.2019
3881 Clouds 20 1013 82 0 5.13 157 08:23 24.11.2019
3882 Clouds 20 1013 82 0 5.13 157 07:58 24.11.2019
3883 Clouds 20 1013 82 0 5.13 157 07:38 24.11.2019
3884 Clouds 20 1013 82 0 5.13 157 07:20 24.11.2019
3885 Clouds 20 1013 82 0 5.13 157 06:20 24.11.2019
3886 Clouds 20 1013 82 0 5.13 157 06:20 24.11.2019
3887 Clouds 20 1013 82 0 5.13 157 06:20 24.11.2019
3888 Clouds 20 1015 78 0 4.44 155 04:49 24.11.2019
3889 Clouds 20 1015 78 0 4.44 155 03:38 24.11.2019
3890 Clouds 22 1010 68 10000 6.2 160 02:31 24.11.2019
3891 Clouds 22 1010 68 10000 6.2 160 01:41 24.11.2019
3892 Clouds 22 1010 68 10000 6.2 160 01:22 24.11.2019
3893 Clouds 23 1010 69 10000 7.2 160 00:47 24.11.2019
3894 Clouds 23 1010 69 10000 7.2 160 00:24 24.11.2019
3895 Clouds 24 1009 60 10000 7.7 180 23:46 23.11.2019
3896 Clouds 24 1009 60 10000 7.7 180 23:23 23.11.2019
3897 Clouds 25 1010 57 10000 7.7 170 22:59 23.11.2019
3898 Clouds 25 1010 57 10000 7.7 170 22:40 23.11.2019
3899 Clouds 25 1010 57 10000 7.7 170 22:22 23.11.2019
3900 Clouds 25 1010 57 10000 7.7 170 22:22 23.11.2019
3901 Clouds 25 1010 61 10000 6.7 190 21:59 23.11.2019
3902 Clouds 25 1010 61 10000 6.7 190 21:41 23.11.2019
3903 Clouds 25 1010 61 10000 6.7 190 21:22 23.11.2019
3904 Clouds 25 1011 61 10000 6.2 170 20:57 23.11.2019
3905 Clouds 25 1011 61 10000 6.2 170 20:36 23.11.2019
3906 Clouds 25 1011 61 10000 6.2 170 20:18 23.11.2019
3907 Clouds 25 1012 61 10000 6.7 170 19:54 23.11.2019
3908 Clouds 25 1012 61 10000 6.7 170 19:36 23.11.2019
3909 Clouds 25 1012 61 10000 6.7 170 19:18 23.11.2019
3910 Clouds 24 1012 64 10000 6.7 160 18:40 23.11.2019
3911 Clouds 24 1012 64 10000 6.7 160 18:20 23.11.2019
3912 Clouds 24 1012 64 10000 6.7 160 18:20 23.11.2019
3913 Clouds 24 1012 64 10000 6.7 160 18:20 23.11.2019
3914 Clouds 24 1013 64 10000 6.7 180 17:54 23.11.2019
3915 Clouds 24 1013 64 10000 6.7 180 17:36 23.11.2019
3916 Clouds 24 1013 64 10000 6.7 180 17:36 23.11.2019
3917 Clouds 24 1013 64 10000 6.7 180 17:18 23.11.2019
3918 Clouds 24 1013 64 10000 5.1 160 16:55 23.11.2019
3919 Clouds 24 1013 64 10000 5.1 160 16:36 23.11.2019
3920 Clouds 24 1013 64 10000 5.1 160 16:18 23.11.2019
3921 Clouds 23 1012 73 10000 6.2 150 15:54 23.11.2019
3922 Clouds 23 1012 73 10000 6.2 150 15:54 23.11.2019
3923 Clouds 23 1012 73 10000 6.2 150 15:36 23.11.2019
3924 Clouds 23 1012 73 10000 6.2 150 15:18 23.11.2019
3925 Clouds 22 1011 73 10000 4.1 160 14:42 23.11.2019
3926 Clouds 22 1011 73 10000 4.1 160 14:21 23.11.2019
3927 Clouds 22 1011 73 10000 4.1 160 14:21 23.11.2019
3928 Clouds 20 1011 82 10000 4.1 150 13:57 23.11.2019
3929 Clouds 20 1011 82 10000 4.1 150 13:38 23.11.2019
3930 Clouds 20 1011 82 10000 4.1 150 13:18 23.11.2019
3931 Clouds 20 1013 84 0 4.66 143 12:43 23.11.2019
3932 Clouds 20 1013 84 0 4.66 143 12:24 23.11.2019
3933 Clouds 20 1013 84 0 4.66 143 11:45 23.11.2019
3934 Clouds 20 1013 84 0 4.66 143 11:24 23.11.2019
3935 Clouds 20 1012 81 0 4.94 147 10:56 23.11.2019
3936 Clouds 20 1012 81 0 4.94 147 10:37 23.11.2019
3937 Clouds 20 1012 81 0 4.94 147 10:18 23.11.2019
3938 Clouds 20 1012 81 0 4.94 147 09:40 23.11.2019
3939 Clouds 20 1012 81 0 4.94 147 09:18 23.11.2019
3940 Clouds 20 1012 81 0 4.94 147 08:41 23.11.2019
3941 Clouds 20 1013 82 0 4.88 151 08:19 23.11.2019
3942 Clouds 20 1013 84 0 5.08 149 07:42 23.11.2019
3943 Clouds 20 1013 84 0 5.08 149 06:58 23.11.2019
3944 Clouds 20 1013 84 0 5.08 149 06:38 23.11.2019
3945 Clouds 20 1013 84 0 5.08 149 06:19 23.11.2019
3946 Clouds 20 1013 84 0 5.08 149 05:32 23.11.2019
3947 Clouds 21 1015 84 0 5.76 158 04:58 23.11.2019
3948 Clouds 21 1015 84 0 5.76 158 04:34 23.11.2019
3949 Clouds 21 1015 84 0 5.76 158 03:27 23.11.2019
3950 Clouds 21 1015 84 0 5.76 158 02:38 23.11.2019
3951 Clouds 22 1009 73 10000 5.1 180 01:40 23.11.2019
3952 Clouds 23 1009 69 10000 6.2 170 00:48 23.11.2019
3953 Clouds 23 1009 69 10000 6.2 170 00:20 23.11.2019
3954 Clouds 24 1009 64 10000 6.2 160 23:55 22.11.2019
3955 Clouds 24 1009 64 10000 6.2 160 23:36 22.11.2019
3956 Clouds 24 1009 64 10000 6.2 160 23:36 22.11.2019
3957 Clouds 24 1009 64 10000 6.2 160 23:36 22.11.2019
3958 Clouds 24 1009 64 10000 6.2 160 23:18 22.11.2019
3959 Clouds 25 1009 61 10000 6.2 170 22:55 22.11.2019
3960 Clouds 25 1009 61 10000 6.2 170 22:36 22.11.2019
3961 Clouds 25 1009 61 10000 6.2 170 22:18 22.11.2019
3962 Clouds 25 1009 61 10000 6.2 170 22:18 22.11.2019
3963 Clouds 25 1009 61 10000 6.2 170 22:18 22.11.2019
3964 Clouds 25 1009 61 10000 6.2 170 22:18 22.11.2019
3965 Clouds 25 1010 61 10000 6.7 170 21:40 22.11.2019
3966 Clouds 25 1010 61 10000 6.7 170 21:21 22.11.2019
3967 Clouds 25 1012 61 10000 6.7 190 20:55 22.11.2019
3968 Clouds 25 1012 61 10000 6.7 190 20:37 22.11.2019
3969 Clouds 25 1012 61 10000 6.7 190 20:19 22.11.2019
3970 Clouds 25 1013 61 10000 6.2 190 19:39 22.11.2019
3971 Clouds 25 1013 61 10000 6.2 190 19:20 22.11.2019
3972 Clouds 25 1014 65 10000 5.1 180 18:59 22.11.2019
3973 Clouds 25 1014 65 10000 5.1 180 18:37 22.11.2019
3974 Clouds 25 1014 65 10000 5.1 180 18:19 22.11.2019
3975 Clouds 24 1015 69 10000 4.6 180 17:41 22.11.2019
3976 Clouds 24 1015 69 10000 4.6 180 17:22 22.11.2019
3977 Clouds 23 1014 73 10000 4.1 170 16:48 22.11.2019
3978 Clouds 23 1014 73 10000 4.1 170 16:30 22.11.2019
3979 Clouds 22 1014 78 10000 4.6 170 15:56 22.11.2019
3980 Clouds 22 1014 78 10000 4.6 170 15:37 22.11.2019
3981 Clouds 22 1014 78 10000 4.6 170 15:37 22.11.2019
3982 Clouds 22 1014 78 10000 4.6 170 15:19 22.11.2019
3983 Clouds 22 1013 73 10000 4.1 160 14:54 22.11.2019
3984 Clouds 22 1013 73 10000 4.1 160 14:36 22.11.2019
3985 Clouds 22 1013 73 10000 4.1 160 14:18 22.11.2019
3986 Clouds 21 1012 88 10000 5.1 170 13:38 22.11.2019
3987 Clouds 21 1012 88 10000 5.1 170 13:19 22.11.2019
3988 Clouds 20 1015 82 0 4.47 155 12:58 22.11.2019
3989 Clouds 20 1015 82 0 4.47 155 12:40 22.11.2019
3990 Clouds 20 1015 82 0 4.47 155 12:19 22.11.2019
3991 Clouds 20 1015 82 0 4.47 155 11:56 22.11.2019
3992 Clouds 20 1015 82 0 4.47 155 11:36 22.11.2019
3993 Clouds 20 1015 82 0 4.47 155 11:36 22.11.2019
3994 Clouds 20 1013 83 0 4.54 170 11:18 22.11.2019
3995 Clouds 20 1013 83 0 4.54 170 10:42 22.11.2019
3996 Clouds 20 1013 83 0 4.54 170 10:23 22.11.2019
3997 Clouds 20 1013 83 0 4.54 170 09:59 22.11.2019
3998 Clouds 20 1013 83 0 4.54 170 09:40 22.11.2019
3999 Clouds 20 1013 83 0 4.54 170 09:21 22.11.2019
4000 Clouds 20 1013 83 0 4.54 170 08:48 22.11.2019
4001 Clouds 20 1013 83 0 4.54 170 08:48 22.11.2019
4002 Clouds 20 1013 83 0 4.39 169 08:28 22.11.2019
4003 Clouds 21 1014 84 0 4.8 167 07:58 22.11.2019
4004 Clouds 21 1014 84 0 4.8 167 07:40 22.11.2019
4005 Clouds 21 1014 84 0 4.8 167 07:19 22.11.2019
4006 Clouds 21 1014 84 0 4.8 167 06:41 22.11.2019
4007 Clouds 21 1014 84 0 4.8 167 05:57 22.11.2019
4008 Clouds 21 1015 83 0 4.8 166 04:53 22.11.2019
4009 Clouds 21 1015 83 0 4.8 166 02:57 22.11.2019
4010 Clouds 22 1011 73 10000 5.1 160 02:33 22.11.2019
4011 Clouds 22 1011 73 10000 5.1 160 01:46 22.11.2019
4012 Clouds 22 1011 73 10000 5.1 160 01:20 22.11.2019
4013 Clouds 23 1011 69 10000 7.7 170 00:54 22.11.2019
4014 Clouds 23 1011 69 10000 7.7 170 00:25 22.11.2019
4015 Clouds 24 1010 64 10000 7.7 180 23:57 21.11.2019
4016 Clouds 24 1010 64 10000 7.7 180 23:38 21.11.2019
4017 Clouds 24 1010 64 10000 7.7 180 23:20 21.11.2019
4018 Clouds 24 1011 64 10000 6.7 180 22:41 21.11.2019
4019 Clouds 24 1011 64 10000 6.7 180 22:22 21.11.2019
4020 Clouds 25 1011 61 10000 8.2 180 21:58 21.11.2019
4021 Clouds 25 1011 61 10000 8.2 180 21:39 21.11.2019
4022 Clouds 25 1011 61 10000 8.2 180 21:20 21.11.2019
4023 Clouds 25 1012 61 10000 7.7 170 20:59 21.11.2019
4024 Clouds 25 1012 61 10000 7.7 170 20:39 21.11.2019
4025 Clouds 25 1012 61 10000 7.7 170 20:39 21.11.2019
4026 Clouds 25 1012 61 10000 7.7 170 20:19 21.11.2019
4027 Clouds 24 1013 64 10000 8.2 180 19:59 21.11.2019
4028 Clouds 24 1013 64 10000 8.2 180 19:59 21.11.2019
4029 Clouds 24 1013 64 10000 8.2 180 19:41 21.11.2019
4030 Clouds 24 1013 64 10000 8.2 180 19:23 21.11.2019
4031 Clouds 24 1013 64 10000 7.2 170 18:58 21.11.2019
4032 Clouds 24 1013 64 10000 7.2 170 18:40 21.11.2019
4033 Clouds 24 1013 64 10000 7.2 170 18:19 21.11.2019
4034 Clouds 25 1014 61 10000 6.2 170 17:58 21.11.2019
4035 Clouds 25 1014 61 10000 6.2 170 17:39 21.11.2019
4036 Clouds 25 1014 61 10000 6.2 170 17:39 21.11.2019
4037 Clouds 25 1014 61 10000 6.2 170 17:19 21.11.2019
4038 Clouds 24 1014 64 10000 6.7 170 16:42 21.11.2019
4039 Clouds 24 1014 64 10000 6.7 170 16:22 21.11.2019
4040 Clouds 23 1013 69 10000 6.2 180 15:58 21.11.2019
4041 Clouds 23 1013 69 10000 6.2 180 15:40 21.11.2019
4042 Clouds 23 1013 69 10000 6.2 180 15:20 21.11.2019
4043 Clouds 22 1012 73 10000 5.7 160 14:57 21.11.2019
4044 Clouds 22 1012 73 10000 5.7 160 14:37 21.11.2019
4045 Clouds 22 1012 73 10000 5.7 160 14:18 21.11.2019
4046 Clouds 21 1012 77 10000 5.1 170 13:40 21.11.2019
4047 Clouds 21 1012 77 10000 5.1 170 13:21 21.11.2019
4048 Clouds 21 1014 81 0 4.37 162 12:59 21.11.2019
4049 Clouds 21 1014 81 0 4.37 162 12:39 21.11.2019
4050 Clouds 21 1014 81 0 4.37 162 12:20 21.11.2019
4051 Clouds 21 1014 81 0 4.37 162 11:43 21.11.2019
4052 Clouds 21 1013 82 0 3.86 167 11:23 21.11.2019
4053 Clouds 21 1013 82 0 3.86 167 10:59 21.11.2019
4054 Clouds 21 1013 82 0 3.86 167 10:41 21.11.2019
4055 Clouds 21 1013 82 0 3.86 167 10:23 21.11.2019
4056 Clouds 21 1013 82 0 3.86 167 09:57 21.11.2019
4057 Clouds 21 1013 82 0 3.86 167 09:57 21.11.2019
4058 Clouds 21 1013 82 0 3.86 167 09:39 21.11.2019
4059 Clouds 21 1013 82 0 3.86 167 09:20 21.11.2019
4060 Clouds 21 1013 82 0 3.86 167 08:42 21.11.2019
4061 Clouds 21 1014 81 0 3.22 167 08:20 21.11.2019
4062 Clouds 21 1014 81 0 2.98 169 07:43 21.11.2019
4063 Clouds 21 1014 81 0 2.98 169 07:18 21.11.2019
4064 Clouds 21 1014 81 0 2.98 169 06:57 21.11.2019
4065 Clouds 21 1014 81 0 2.98 169 06:34 21.11.2019
4066 Clouds 21 1014 81 0 2.98 169 05:38 21.11.2019
4067 Clear 21 1014 80 0 3.19 169 03:34 21.11.2019
4068 Clear 21 1014 80 0 3.19 169 02:42 21.11.2019
4069 Clouds 22 1010 78 10000 6.2 160 02:20 21.11.2019
4070 Clouds 22 1010 78 10000 6.2 160 01:42 21.11.2019
4071 Clouds 23 1009 73 10000 6.7 150 00:55 21.11.2019
4072 Clouds 23 1009 73 10000 6.7 150 00:55 21.11.2019
4073 Clouds 23 1009 73 10000 6.7 150 00:21 21.11.2019
4074 Clouds 24 1009 69 10000 7.2 170 23:59 20.11.2019
4075 Clouds 24 1009 69 10000 7.2 170 23:40 20.11.2019
4076 Clouds 24 1009 69 10000 7.2 170 23:20 20.11.2019
4077 Clouds 24 1009 69 10000 6.7 180 22:55 20.11.2019
4078 Clouds 24 1009 69 10000 6.7 180 22:37 20.11.2019
4079 Clouds 24 1009 69 10000 6.7 180 22:18 20.11.2019
4080 Clouds 25 1010 61 10000 8.2 170 21:55 20.11.2019
4081 Clouds 25 1010 61 10000 8.2 170 21:37 20.11.2019
4082 Clouds 25 1010 61 10000 8.2 170 21:18 20.11.2019
4083 Clouds 25 1011 65 10000 7.7 170 20:54 20.11.2019
4084 Clouds 25 1011 65 10000 7.7 170 20:36 20.11.2019
4085 Clouds 25 1011 65 10000 7.7 170 20:18 20.11.2019
4086 Clouds 25 1011 65 10000 7.7 170 20:18 20.11.2019
4087 Clouds 25 1012 65 10000 7.7 170 19:54 20.11.2019
4088 Clouds 25 1012 65 10000 7.7 170 19:36 20.11.2019
4089 Clouds 25 1012 65 10000 7.7 170 19:18 20.11.2019
4090 Clouds 24 1012 69 10000 6.7 150 18:41 20.11.2019
4091 Clouds 24 1012 69 10000 6.7 150 18:23 20.11.2019
4092 Clouds 24 1013 69 10000 6.7 140 17:59 20.11.2019
4093 Clouds 24 1013 69 10000 6.7 140 17:59 20.11.2019
4094 Clouds 24 1013 69 10000 6.7 140 17:39 20.11.2019
4095 Clouds 24 1013 69 10000 6.7 140 17:39 20.11.2019
4096 Clouds 24 1013 69 10000 6.7 140 17:21 20.11.2019
4097 Clouds 24 1013 69 10000 6.7 150 16:58 20.11.2019
4098 Clouds 24 1013 69 10000 6.7 150 16:39 20.11.2019
4099 Clouds 24 1013 69 10000 6.7 150 16:20 20.11.2019
4100 Clouds 24 1012 69 10000 5.7 170 15:57 20.11.2019
4101 Clouds 24 1012 69 10000 5.7 170 15:38 20.11.2019
4102 Clouds 24 1012 69 10000 5.7 170 15:19 20.11.2019
4103 Clouds 22 1012 78 10000 4.6 160 14:41 20.11.2019
4104 Clouds 22 1012 78 10000 4.6 160 14:22 20.11.2019
4105 Clouds 22 1012 78 10000 4.6 160 14:22 20.11.2019
4106 Clouds 22 1012 78 10000 4.6 160 14:22 20.11.2019
4107 Clouds 22 1011 73 10000 3.6 150 13:59 20.11.2019
4108 Clouds 22 1011 73 10000 3.6 150 13:39 20.11.2019
4109 Clouds 22 1011 73 10000 3.6 150 13:20 20.11.2019
4110 Clouds 21 1013 75 0 4.06 145 12:58 20.11.2019
4111 Clouds 21 1013 75 0 4.06 145 12:37 20.11.2019
4112 Clouds 21 1013 75 0 4.06 145 12:19 20.11.2019
4113 Clouds 21 1013 75 0 4.06 145 11:45 20.11.2019
4114 Clouds 21 1013 79 0 4.59 151 11:22 20.11.2019
4115 Clouds 21 1013 79 0 4.59 151 10:56 20.11.2019
4116 Clouds 21 1013 79 0 4.59 151 10:38 20.11.2019
4117 Clouds 21 1013 79 0 4.59 151 10:20 20.11.2019
4118 Clouds 21 1013 79 0 4.59 151 09:55 20.11.2019
4119 Clouds 21 1013 79 0 4.59 151 09:37 20.11.2019
4120 Clouds 21 1013 79 0 4.59 151 09:18 20.11.2019
4121 Clouds 21 1013 79 0 4.59 151 08:39 20.11.2019
4122 Clouds 21 1014 79 0 4.77 162 08:21 20.11.2019
4123 Clouds 21 1014 79 0 4.77 162 07:48 20.11.2019
4124 Clouds 21 1014 79 0 4.77 162 07:28 20.11.2019
4125 Clouds 21 1014 79 0 4.77 162 06:50 20.11.2019
4126 Clouds 21 1014 79 0 4.77 162 06:22 20.11.2019
4127 Clouds 21 1014 79 0 4.77 162 05:51 20.11.2019
4128 Clouds 21 1015 80 0 5.4 167 03:45 20.11.2019
4129 Clouds 22 1010 78 10000 6.7 180 02:22 20.11.2019
4130 Clouds 22 1010 78 10000 6.7 180 01:33 20.11.2019
4131 Clouds 23 1010 73 10000 6.7 170 00:42 20.11.2019
4132 Clouds 24 1010 69 10000 7.2 170 23:57 19.11.2019
4133 Clouds 24 1010 69 10000 7.2 170 23:27 19.11.2019
4134 Clouds 24 1010 69 10000 7.2 170 22:59 19.11.2019
4135 Clouds 24 1010 69 10000 7.2 170 22:41 19.11.2019
4136 Clouds 24 1010 69 10000 7.2 170 22:19 19.11.2019
4137 Clouds 24 1010 69 10000 7.2 170 22:19 19.11.2019
4138 Clouds 24 1011 69 10000 7.2 180 21:57 19.11.2019
4139 Clouds 24 1011 69 10000 7.2 180 21:38 19.11.2019
4140 Clouds 24 1011 69 10000 7.2 180 21:19 19.11.2019
4141 Clouds 24 1011 69 10000 7.2 180 21:19 19.11.2019
4142 Clouds 24 1011 69 10000 7.2 180 21:19 19.11.2019
4143 Clouds 25 1011 61 10000 8.2 170 20:56 19.11.2019
4144 Clouds 25 1011 61 10000 8.2 170 20:38 19.11.2019
4145 Clouds 25 1011 61 10000 8.2 170 20:19 19.11.2019
4146 Clouds 25 1012 61 10000 8.7 160 19:56 19.11.2019
4147 Clouds 25 1012 61 10000 8.7 160 19:38 19.11.2019
4148 Clouds 25 1012 61 10000 8.7 160 19:19 19.11.2019
4149 Clouds 24 1012 69 10000 8.7 170 18:55 19.11.2019
4150 Clouds 24 1012 69 10000 8.7 170 18:36 19.11.2019
4151 Clouds 24 1012 69 10000 8.7 170 18:18 19.11.2019
4152 Clouds 24 1012 69 10000 8.7 170 18:18 19.11.2019
4153 Clouds 25 1012 65 10000 7.7 180 17:55 19.11.2019
4154 Clouds 25 1012 65 10000 7.7 180 17:55 19.11.2019
4155 Clouds 25 1012 65 10000 7.7 180 17:36 19.11.2019
4156 Clouds 25 1012 65 10000 7.7 180 17:18 19.11.2019
4157 Clouds 24 1012 69 10000 8.2 180 16:42 19.11.2019
4158 Clouds 24 1012 69 10000 8.2 180 16:22 19.11.2019
4159 Clouds 23 1012 73 10000 8.2 180 15:54 19.11.2019
4160 Clouds 23 1012 73 10000 8.2 180 15:36 19.11.2019
4161 Clouds 23 1012 73 10000 8.2 180 15:36 19.11.2019
4162 Clouds 23 1012 73 10000 8.2 180 15:18 19.11.2019
4163 Clouds 22 1011 78 10000 6.7 170 14:54 19.11.2019
4164 Clouds 22 1011 78 10000 6.7 170 14:36 19.11.2019
4165 Clouds 22 1011 78 10000 6.7 170 14:36 19.11.2019
4166 Clouds 22 1011 78 10000 6.7 170 14:18 19.11.2019
4167 Clouds 21 1011 83 10000 6.7 190 13:40 19.11.2019
4168 Clouds 21 1011 83 10000 6.7 190 13:40 19.11.2019
4169 Clouds 21 1011 83 10000 6.7 190 13:19 19.11.2019
4170 Clouds 21 1013 81 0 6.4 174 12:40 19.11.2019
4171 Clouds 21 1013 81 0 6.4 174 12:21 19.11.2019
4172 Clouds 21 1013 81 0 6.4 174 11:57 19.11.2019
4173 Clouds 21 1013 81 0 6.4 174 11:38 19.11.2019
4174 Clouds 21 1012 79 0 5.08 176 11:19 19.11.2019
4175 Clouds 21 1012 79 0 5.08 176 11:19 19.11.2019
4176 Clouds 21 1012 79 0 5.08 176 10:45 19.11.2019
4177 Clouds 21 1012 79 0 5.08 176 10:22 19.11.2019
4178 Clouds 21 1012 79 0 5.08 176 09:56 19.11.2019
4179 Clouds 21 1012 79 0 5.08 176 09:38 19.11.2019
4180 Clouds 21 1012 79 0 5.08 176 09:18 19.11.2019
4181 Clouds 21 1012 79 0 5.08 176 08:40 19.11.2019
4182 Clouds 21 1013 81 0 5.01 175 08:22 19.11.2019
4183 Clouds 21 1013 80 0 4.48 171 08:22 19.11.2019
4184 Clouds 21 1013 81 0 5.01 175 07:56 19.11.2019
4185 Clouds 21 1013 81 0 5.01 175 07:37 19.11.2019
4186 Clouds 21 1013 81 0 5.01 175 07:37 19.11.2019
4187 Clouds 21 1013 81 0 5.01 175 07:19 19.11.2019
4188 Clouds 21 1013 81 0 5.01 175 06:44 19.11.2019
4189 Clouds 21 1013 81 0 5.01 175 06:24 19.11.2019
4190 Clouds 21 1013 82 0 6.49 180 05:19 19.11.2019
4191 Clouds 21 1013 82 0 6.49 180 03:41 19.11.2019
4192 Clouds 21 1013 82 0 6.49 180 03:20 19.11.2019
4193 Clouds 21 1013 82 0 6.49 180 02:50 19.11.2019
4194 Clouds 22 1009 78 10000 6.7 170 01:49 19.11.2019
4195 Clouds 23 1008 73 10000 8.2 170 00:49 19.11.2019
4196 Clouds 23 1008 73 10000 8.2 170 00:21 19.11.2019
4197 Clouds 23 1008 69 10000 8.2 170 23:40 18.11.2019
4198 Clouds 23 1008 69 10000 8.2 170 23:20 18.11.2019
4199 Clouds 24 1008 69 10000 8.7 190 22:48 18.11.2019
4200 Clouds 24 1008 69 10000 8.7 190 22:24 18.11.2019
4201 Clouds 25 1009 65 10000 8.7 170 21:59 18.11.2019
4202 Clouds 25 1009 65 10000 8.7 170 21:40 18.11.2019
4203 Clouds 25 1009 65 10000 8.7 170 21:21 18.11.2019
4204 Clouds 25 1010 65 10000 9.3 180 20:59 18.11.2019
4205 Clouds 25 1010 65 10000 9.3 180 20:59 18.11.2019
4206 Clouds 25 1010 65 10000 9.3 180 20:41 18.11.2019
4207 Clouds 25 1010 65 10000 9.3 180 20:41 18.11.2019
4208 Clouds 25 1010 65 10000 9.3 180 20:19 18.11.2019
4209 Clouds 25 1011 65 10000 8.7 190 19:57 18.11.2019
4210 Clouds 25 1011 65 10000 8.7 190 19:38 18.11.2019
4211 Clouds 25 1011 65 10000 8.7 190 19:20 18.11.2019
4212 Clouds 24 1012 69 10000 8.2 180 18:56 18.11.2019
4213 Clouds 24 1012 69 10000 8.2 180 18:38 18.11.2019
4214 Clouds 24 1012 69 10000 8.2 180 18:19 18.11.2019
4215 Clouds 24 1012 69 10000 6.2 190 17:55 18.11.2019
4216 Clouds 24 1012 69 10000 6.2 190 17:36 18.11.2019
4217 Clouds 24 1012 69 10000 6.2 190 17:18 18.11.2019
4218 Clouds 24 1012 69 10000 6.2 190 17:18 18.11.2019
4219 Clouds 22 1012 83 10000 7.2 180 16:42 18.11.2019
4220 Clouds 22 1012 83 10000 7.2 180 16:23 18.11.2019
4221 Clouds 22 1011 83 10000 6.7 190 15:56 18.11.2019
4222 Clouds 22 1011 83 10000 6.7 190 15:38 18.11.2019
4223 Clouds 22 1011 83 10000 6.7 190 15:20 18.11.2019
4224 Clouds 22 1010 78 10000 6.7 190 14:43 18.11.2019
4225 Clouds 22 1010 78 10000 6.7 190 14:24 18.11.2019
4226 Clouds 22 1010 78 10000 6.7 190 14:24 18.11.2019
4227 Clouds 22 1010 78 10000 6.2 190 13:57 18.11.2019
4228 Clouds 22 1010 78 10000 6.2 190 13:39 18.11.2019
4229 Clouds 22 1010 78 10000 6.2 190 13:21 18.11.2019
4230 Clouds 21 1012 81 0 6.35 186 12:39 18.11.2019
4231 Clouds 21 1012 81 0 6.35 186 12:19 18.11.2019
4232 Clouds 21 1012 81 0 6.35 186 11:46 18.11.2019
4233 Clouds 21 1012 81 0 6.35 186 11:46 18.11.2019
4234 Clouds 21 1012 81 0 6.35 186 11:27 18.11.2019
4235 -273 0 0 0 0 0 10:59 18.11.2019
4236 Clouds 21 1011 81 0 6.4 185 10:40 18.11.2019
4237 Clouds 21 1011 81 0 6.4 185 10:22 18.11.2019
4238 Clouds 21 1011 81 0 6.4 185 09:56 18.11.2019
4239 Clouds 21 1011 81 0 6.4 185 09:56 18.11.2019
4240 Clouds 21 1011 81 0 6.4 185 09:38 18.11.2019
4241 Clouds 21 1011 81 0 6.4 185 09:38 18.11.2019
4242 Clouds 21 1011 81 0 6.4 185 09:18 18.11.2019
4243 Clouds 21 1011 81 0 6.4 185 08:45 18.11.2019
4244 Clouds 21 1012 81 0 6.52 183 08:22 18.11.2019
4245 Clouds 21 1012 81 0 6.29 183 07:49 18.11.2019
4246 Clouds 21 1012 81 0 6.29 183 07:29 18.11.2019
4247 Clouds 21 1012 81 0 6.29 183 06:56 18.11.2019
4248 Clouds 21 1012 81 0 6.29 183 06:37 18.11.2019
4249 Clouds 21 1012 81 0 6.29 183 06:18 18.11.2019
4250 Clouds 21 1012 81 0 6.29 183 05:25 18.11.2019
4251 Clouds 22 1013 79 0 6.17 182 02:59 18.11.2019
4252 Clouds 22 1008 83 10000 5.7 170 01:31 18.11.2019
4253 Clouds 23 1008 78 10000 7.2 180 00:39 18.11.2019
4254 Clouds 23 1007 73 10000 8.7 180 23:45 17.11.2019
4255 Clouds 23 1007 73 10000 8.7 180 23:25 17.11.2019
4256 Clouds 24 1008 69 10000 7.7 180 22:59 17.11.2019
4257 Clouds 24 1008 69 10000 7.7 180 22:41 17.11.2019
4258 Clouds 24 1008 69 10000 7.7 180 22:23 17.11.2019
4259 Clouds 24 1008 73 10000 7.2 180 21:59 17.11.2019
4260 Clouds 24 1008 73 10000 7.2 180 21:41 17.11.2019
4261 Clouds 24 1008 73 10000 7.2 180 21:19 17.11.2019
4262 Clouds 24 1008 73 10000 7.2 180 21:19 17.11.2019
4263 Clouds 25 1009 69 10000 7.7 170 20:57 17.11.2019
4264 Clouds 25 1009 69 10000 7.7 170 20:38 17.11.2019
4265 Clouds 25 1009 69 10000 7.7 170 20:19 17.11.2019
4266 Clouds 24 1010 73 10000 7.7 180 19:56 17.11.2019
4267 Clouds 24 1010 73 10000 7.7 180 19:37 17.11.2019
4268 Clouds 24 1010 73 10000 7.7 180 19:19 17.11.2019
4269 Clouds 24 1011 73 10000 7.7 180 18:55 17.11.2019
4270 Clouds 24 1011 73 10000 7.7 180 18:55 17.11.2019
4271 Clouds 24 1011 73 10000 7.7 180 18:37 17.11.2019
4272 Clouds 24 1011 73 10000 7.7 180 18:37 17.11.2019
4273 Clouds 24 1011 73 10000 7.7 180 18:18 17.11.2019
4274 Clouds 24 1011 69 10000 7.2 190 17:57 17.11.2019
4275 Clouds 24 1011 69 10000 7.2 190 17:57 17.11.2019
4276 Clouds 24 1011 69 10000 7.2 190 17:39 17.11.2019
4277 Clouds 24 1011 69 10000 7.2 190 17:20 17.11.2019
4278 Clouds 23 1011 78 10000 6.2 180 16:57 17.11.2019
4279 Clouds 23 1011 78 10000 6.2 180 16:39 17.11.2019
4280 Clouds 23 1011 78 10000 6.2 180 16:21 17.11.2019
4281 Clouds 22 1011 83 10000 6.7 190 15:55 17.11.2019
4282 Clouds 22 1011 83 10000 6.7 190 15:36 17.11.2019
4283 Clouds 22 1011 83 10000 6.7 190 15:18 17.11.2019
4284 Clouds 22 1010 78 10000 6.2 190 14:55 17.11.2019
4285 Clouds 22 1010 78 10000 6.2 190 14:37 17.11.2019
4286 Clouds 22 1010 78 10000 6.2 190 14:18 17.11.2019
4287 Drizzle 21 1010 88 8000 5.7 200 13:41 17.11.2019
4288 Drizzle 21 1010 88 8000 5.7 200 13:21 17.11.2019
4289 Clouds 21 1012 83 0 6 193 12:59 17.11.2019
4290 Clouds 21 1012 83 0 6 193 12:38 17.11.2019
4291 Clouds 21 1012 83 0 6 193 12:19 17.11.2019
4292 Clouds 21 1012 83 0 6 193 11:55 17.11.2019
4293 Clouds 21 1012 83 0 6 193 11:37 17.11.2019
4294 Clouds 21 1011 82 0 5.2 190 11:18 17.11.2019
4295 Clouds 21 1011 82 0 5.2 190 10:41 17.11.2019
4296 Clouds 21 1011 82 0 5.2 190 10:22 17.11.2019
4297 Clouds 21 1011 82 0 5.2 190 09:43 17.11.2019
4298 Clouds 21 1011 82 0 5.2 190 09:24 17.11.2019
4299 Clouds 21 1011 82 0 5.2 190 08:57 17.11.2019
4300 Clouds 21 1011 82 0 5.2 190 08:37 17.11.2019
4301 Clouds 21 1013 82 0 5.76 188 08:18 17.11.2019
4302 Clouds 21 1013 82 0 5.76 188 07:42 17.11.2019
4303 Clouds 21 1013 82 0 5.76 188 07:21 17.11.2019
4304 Clouds 21 1013 82 0 5.76 188 06:54 17.11.2019
4305 Clouds 21 1013 82 0 5.76 188 06:30 17.11.2019
4306 Clouds 21 1013 82 0 5.76 188 06:30 17.11.2019
4307 Clouds 21 1013 82 0 5.76 188 05:39 17.11.2019
4308 Clouds 21 1014 83 0 5.99 189 04:18 17.11.2019
4309 Clouds 21 1014 83 0 5.99 189 03:39 17.11.2019
4310 Clouds 21 1014 83 0 5.99 189 03:20 17.11.2019
4311 Clouds 22 1009 83 10000 5.7 190 01:59 17.11.2019
4312 Clouds 22 1009 83 10000 5.7 190 01:21 17.11.2019
4313 Clouds 22 1008 83 10000 6.2 180 00:41 17.11.2019
4314 Clouds 22 1008 83 10000 6.2 180 00:21 17.11.2019
4315 Clouds 24 1008 73 10000 7.2 170 23:42 16.11.2019
4316 Clouds 24 1008 73 10000 7.2 170 23:19 16.11.2019
4317 Clouds 24 1008 73 10000 6.7 190 22:43 16.11.2019
4318 Clouds 24 1008 73 10000 6.7 190 22:20 16.11.2019
4319 Clouds 24 1009 73 10000 6.2 180 21:59 16.11.2019
4320 Clouds 24 1009 73 10000 6.2 180 21:40 16.11.2019
4321 Clouds 24 1009 73 10000 6.2 180 21:21 16.11.2019
4322 Clouds 24 1010 69 10000 5.1 180 20:58 16.11.2019
4323 Clouds 24 1010 69 10000 5.1 180 20:39 16.11.2019
4324 Clouds 24 1010 69 10000 5.1 180 20:19 16.11.2019
4325 Rain 23 1011 78 10000 5.1 200 19:41 16.11.2019
4326 Rain 23 1011 78 10000 5.1 200 19:22 16.11.2019
4327 Rain 23 1012 78 10000 5.1 180 18:59 16.11.2019
4328 Rain 23 1012 78 10000 5.1 180 18:39 16.11.2019
4329 Rain 23 1012 78 10000 5.1 180 18:20 16.11.2019
4330 Drizzle 22 1012 88 8000 6.2 160 17:55 16.11.2019
4331 Drizzle 22 1012 88 8000 6.2 160 17:36 16.11.2019
4332 Drizzle 22 1012 88 8000 6.2 160 17:18 16.11.2019
4333 Clouds 21 1015 85 0 6.22 170 16:44 16.11.2019
4334 Clouds 21 1015 85 0 6.22 170 16:44 16.11.2019
4335 Clouds 23 1012 78 10000 5.7 160 16:26 16.11.2019
4336 Clouds 23 1012 78 10000 5.1 160 15:54 16.11.2019
4337 Clouds 23 1012 78 10000 5.1 160 15:36 16.11.2019
4338 Clouds 23 1012 78 10000 5.1 160 15:18 16.11.2019
4339 Clouds 21 1012 88 10000 4.6 150 14:40 16.11.2019
4340 Clouds 21 1012 88 10000 4.6 150 14:21 16.11.2019
4341 Clouds 21 1012 88 10000 4.6 150 14:21 16.11.2019
4342 Clouds 21 1011 88 10000 4.1 170 13:56 16.11.2019
4343 Clouds 21 1011 88 10000 4.1 170 13:38 16.11.2019
4344 Clouds 21 1011 88 10000 4.1 170 13:19 16.11.2019
4345 Rain 21 1013 85 0 4.76 166 12:58 16.11.2019
4346 Rain 21 1013 85 0 4.76 166 12:57 16.11.2019
4347 Rain 21 1013 85 0 4.76 166 12:57 16.11.2019
4348 Rain 21 1013 85 0 4.76 166 12:57 16.11.2019
4349 Rain 21 1013 85 0 4.76 166 12:39 16.11.2019
4350 Rain 21 1013 85 0 4.76 166 12:20 16.11.2019
4351 Rain 21 1013 85 0 4.76 166 11:44 16.11.2019
4352 Rain 21 1013 85 0 4.76 166 11:26 16.11.2019
4353 Clouds 21 1013 86 0 4.94 164 10:56 16.11.2019
4354 Clouds 21 1013 86 0 4.94 164 10:38 16.11.2019
4355 Clouds 21 1013 86 0 4.94 164 10:20 16.11.2019
4356 Clouds 21 1013 86 0 4.94 164 09:43 16.11.2019
4357 Clouds 21 1013 86 0 4.94 164 09:20 16.11.2019
4358 Clouds 21 1013 86 0 4.94 164 08:57 16.11.2019
4359 Clouds 21 1013 86 0 4.94 164 08:37 16.11.2019
4360 Clouds 21 1014 86 0 4.56 160 08:18 16.11.2019
4361 Clouds 21 1014 85 0 4.4 160 07:41 16.11.2019
4362 Clouds 21 1014 85 0 4.4 160 07:19 16.11.2019
4363 Clouds 21 1014 85 0 4.4 160 06:44 16.11.2019
4364 Clouds 21 1014 85 0 4.4 160 06:25 16.11.2019
4365 Clouds 21 1015 86 0 4.73 161 04:49 16.11.2019
4366 Clouds 21 1015 86 0 4.73 161 03:26 16.11.2019
4367 Clouds 21 1015 86 0 4.73 161 03:26 16.11.2019
4368 Clouds 21 1015 86 0 4.73 161 02:55 16.11.2019
4369 Clouds 22 1011 83 10000 4.6 170 01:43 16.11.2019
4370 Clouds 23 1011 78 10000 4.1 170 00:59 16.11.2019
4371 Clouds 23 1011 78 10000 4.1 170 00:36 16.11.2019
4372 Clouds 23 1011 78 10000 4.1 170 00:18 16.11.2019
4373 Clouds 23 1010 83 10000 5.1 180 23:39 15.11.2019
4374 Clouds 23 1010 83 10000 5.1 180 23:20 15.11.2019
4375 Clouds 24 1010 78 10000 5.1 200 22:42 15.11.2019
4376 Clouds 24 1010 78 10000 5.1 200 22:20 15.11.2019
4377 Clouds 24 1011 78 10000 5.1 180 21:58 15.11.2019
4378 Clouds 24 1011 78 10000 5.1 180 21:40 15.11.2019
4379 Clouds 24 1011 78 10000 5.1 180 21:20 15.11.2019
4380 Clouds 24 1012 78 10000 5.1 170 20:56 15.11.2019
4381 Clouds 24 1012 78 10000 5.1 170 20:38 15.11.2019
4382 Clouds 24 1012 78 10000 5.1 170 20:20 15.11.2019
4383 Clouds 24 1013 78 10000 5.1 170 19:57 15.11.2019
4384 Clouds 24 1013 78 10000 5.1 170 19:38 15.11.2019
4385 Clouds 24 1013 78 10000 5.1 170 19:19 15.11.2019
4386 Rain 22 1014 88 10000 5.1 170 18:43 15.11.2019
4387 Rain 22 1014 88 10000 5.1 170 18:25 15.11.2019
4388 Clouds 24 1014 78 10000 5.7 180 17:59 15.11.2019
4389 Clouds 24 1014 78 10000 5.7 180 17:40 15.11.2019
4390 Clouds 24 1014 78 10000 5.7 180 17:22 15.11.2019
4391 Clouds 25 1014 69 10000 5.1 170 16:55 15.11.2019
4392 Clouds 25 1014 69 10000 5.1 170 16:37 15.11.2019
4393 Clouds 25 1014 69 10000 5.1 170 16:18 15.11.2019
4394 Clouds 23 1014 78 10000 4.1 160 15:38 15.11.2019
4395 Clouds 23 1014 78 10000 4.1 160 15:19 15.11.2019
4396 Clouds 22 1013 83 10000 3.1 160 14:56 15.11.2019
4397 Clouds 22 1013 83 10000 3.1 160 14:38 15.11.2019
4398 Clouds 22 1013 83 10000 3.1 160 14:19 15.11.2019
4399 Clouds 21 1012 88 10000 3.1 160 13:56 15.11.2019
4400 Clouds 21 1012 88 10000 3.1 160 13:38 15.11.2019
4401 Clouds 21 1012 88 10000 3.1 160 13:20 15.11.2019
4402 Rain 21 1015 81 0 4.52 160 12:57 15.11.2019
4403 Rain 21 1015 81 0 4.52 160 12:37 15.11.2019
4404 Rain 21 1015 81 0 4.52 160 12:18 15.11.2019
4405 Rain 21 1015 81 0 4.52 160 11:55 15.11.2019
4406 Rain 21 1015 81 0 4.52 160 11:37 15.11.2019
4407 Clouds 21 1013 83 0 4.33 160 11:18 15.11.2019
4408 Clouds 21 1013 83 0 4.33 160 10:39 15.11.2019
4409 Clouds 21 1013 83 0 4.33 160 10:21 15.11.2019
4410 Clouds 21 1013 83 0 4.33 160 09:42 15.11.2019
4411 Clouds 21 1013 83 0 4.33 160 09:21 15.11.2019
4412 Clouds 21 1013 83 0 4.33 160 08:58 15.11.2019
4413 Clouds 21 1013 83 0 4.33 160 08:40 15.11.2019
4414 Clouds 21 1015 83 0 4.41 170 08:21 15.11.2019
4415 Clouds 21 1015 83 0 4.41 170 07:44 15.11.2019
4416 Clouds 21 1015 83 0 4.41 170 07:25 15.11.2019
4417 Clouds 21 1015 83 0 4.41 170 06:36 15.11.2019
4418 Clouds 21 1015 83 0 4.41 170 05:54 15.11.2019
4419 Clouds 21 1015 83 0 4.41 170 05:35 15.11.2019
4420 Clouds 21 1016 83 0 4.96 180 04:53 15.11.2019
4421 Clouds 21 1016 83 0 4.96 180 03:39 15.11.2019
4422 Clouds 21 1016 83 0 4.96 180 02:34 15.11.2019
4423 Clouds 22 1011 83 10000 4.6 170 01:51 15.11.2019
4424 Clouds 22 1011 83 10000 4.6 170 01:32 15.11.2019
4425 Clouds 23 1011 78 10000 5.1 170 00:40 15.11.2019
4426 Clouds 23 1011 78 10000 5.1 170 00:20 15.11.2019
4427 Clouds 23 1011 78 10000 6.2 180 23:45 14.11.2019
4428 Clouds 23 1011 78 10000 6.2 180 23:25 14.11.2019
4429 Clouds 24 1011 73 10000 6.2 180 22:42 14.11.2019
4430 Clouds 24 1011 73 10000 6.2 180 22:22 14.11.2019
4431 Clouds 25 1012 65 10000 6.2 190 21:58 14.11.2019
4432 Clouds 25 1012 65 10000 6.2 190 21:40 14.11.2019
4433 Clouds 25 1012 65 10000 6.2 190 21:21 14.11.2019
4434 Clouds 27 1012 61 10000 6.7 180 20:54 14.11.2019
4435 Clouds 27 1012 61 10000 6.7 180 20:36 14.11.2019
4436 Clouds 27 1012 61 10000 6.7 180 20:18 14.11.2019
4437 Clouds 25 1013 69 10000 6.2 180 19:54 14.11.2019
4438 Clouds 25 1013 69 10000 6.2 180 19:36 14.11.2019
4439 Clouds 25 1013 69 10000 6.2 180 19:18 14.11.2019
4440 Clouds 25 1014 69 10000 5.1 180 18:41 14.11.2019
4441 Clouds 25 1014 69 10000 5.1 180 18:22 14.11.2019
4442 Clouds 25 1014 69 10000 5.1 180 17:57 14.11.2019
4443 Clouds 24 1014 73 10000 4.6 210 17:37 14.11.2019
4444 Clouds 23 1014 78 10000 4.1 170 17:19 14.11.2019
4445 Clouds 23 1014 78 10000 4.1 170 16:57 14.11.2019
4446 Clouds 23 1014 78 10000 4.1 170 16:37 14.11.2019
4447 Clouds 23 1014 78 10000 4.1 170 16:19 14.11.2019
4448 Rain 22 1014 83 10000 4.6 190 15:56 14.11.2019
4449 Rain 22 1014 83 10000 4.6 190 15:38 14.11.2019
4450 Rain 22 1014 83 10000 4.6 190 15:38 14.11.2019
4451 Rain 22 1014 83 10000 4.6 190 15:19 14.11.2019
4452 Rain 21 1013 88 10000 4.1 200 14:44 14.11.2019
4453 Rain 21 1013 88 10000 4.1 200 14:22 14.11.2019
4454 Clouds 21 1013 83 10000 2.1 210 13:57 14.11.2019
4455 Clouds 21 1013 83 10000 2.1 210 13:38 14.11.2019
4456 Clouds 21 1013 83 10000 2.1 210 13:19 14.11.2019
4457 Clouds 21 1014 81 0 4.66 183 12:55 14.11.2019
4458 Clouds 21 1014 81 0 4.66 183 12:36 14.11.2019
4459 Clouds 21 1014 81 0 4.66 183 12:18 14.11.2019
4460 Clouds 21 1014 81 0 4.66 183 11:39 14.11.2019
4461 Clouds 21 1013 80 0 4.32 191 11:20 14.11.2019
4462 Clouds 21 1013 80 0 4.32 191 11:20 14.11.2019
4463 Clouds 21 1013 80 0 4.32 191 11:20 14.11.2019
4464 Clouds 21 1013 80 0 4.32 191 10:58 14.11.2019
4465 Clouds 21 1013 80 0 4.32 191 10:39 14.11.2019
4466 Clouds 21 1013 80 0 4.32 191 10:20 14.11.2019
4467 Clouds 21 1013 80 0 4.32 191 09:56 14.11.2019
4468 Clouds 21 1013 80 0 4.32 191 09:38 14.11.2019
4469 Clouds 21 1013 80 0 4.32 191 09:19 14.11.2019
4470 Clouds 21 1013 80 0 4.32 191 08:47 14.11.2019
4471 Clouds 21 1013 80 0 4.32 191 08:47 14.11.2019
4472 Clouds 21 1013 81 0 4.88 186 08:25 14.11.2019
4473 Clouds 21 1014 82 0 4.36 186 07:43 14.11.2019
4474 Clouds 21 1014 82 0 4.36 186 07:25 14.11.2019
4475 Clouds 21 1014 82 0 4.36 186 06:55 14.11.2019
4476 Clouds 21 1014 82 0 4.36 186 06:37 14.11.2019
4477 Clouds 21 1014 82 0 4.36 186 06:18 14.11.2019
4478 Clouds 21 1015 82 0 4.79 192 04:40 14.11.2019
4479 Clouds 21 1015 82 0 4.79 192 03:52 14.11.2019
4480 Clouds 21 1015 82 0 4.79 192 02:41 14.11.2019
4481 Rain 22 1010 83 10000 5.1 210 01:41 14.11.2019
4482 Rain 22 1010 83 10000 5.1 210 01:20 14.11.2019
4483 Clouds 22 1009 83 10000 4.6 190 00:43 14.11.2019
4484 Clouds 22 1009 83 10000 4.6 190 00:43 14.11.2019
4485 Clouds 22 1009 83 10000 4.6 190 00:25 14.11.2019
4486 Clouds 22 1009 83 10000 5.1 200 23:40 13.11.2019
4487 Clouds 22 1009 83 10000 5.1 200 23:20 13.11.2019
4488 Clouds 23 1009 78 10000 5.1 200 22:55 13.11.2019
4489 Clouds 23 1009 78 10000 5.1 200 22:37 13.11.2019
4490 Clouds 23 1009 78 10000 5.1 200 22:19 13.11.2019
4491 Rain 23 1010 78 10000 6.2 200 21:55 13.11.2019
4492 Rain 23 1010 78 10000 6.2 200 21:37 13.11.2019
4493 Rain 23 1010 78 10000 6.2 200 21:18 13.11.2019
4494 Rain 24 1011 78 10000 6.7 200 20:55 13.11.2019
4495 Rain 24 1011 78 10000 6.7 200 20:37 13.11.2019
4496 Rain 24 1011 78 10000 6.7 200 20:18 13.11.2019
4497 Rain 24 1011 78 10000 6.7 200 20:18 13.11.2019
4498 Clouds 23 1012 78 10000 6.7 190 19:42 13.11.2019
4499 Clouds 23 1012 78 10000 6.7 190 19:19 13.11.2019
4500 Clouds 24 1013 73 10000 6.2 200 18:56 13.11.2019
4501 Clouds 24 1013 73 10000 6.2 200 18:56 13.11.2019
4502 Clouds 24 1013 73 10000 6.2 200 18:38 13.11.2019
4503 Clouds 24 1013 73 10000 6.2 200 18:38 13.11.2019
4504 Clouds 24 1013 73 10000 6.2 200 18:19 13.11.2019
4505 Clouds 25 1013 69 10000 6.2 200 17:57 13.11.2019
4506 Clouds 25 1013 69 10000 6.2 200 17:38 13.11.2019
4507 Clouds 25 1013 69 10000 6.2 200 17:19 13.11.2019
4508 Clouds 25 1013 69 10000 5.1 190 16:58 13.11.2019
4509 Clouds 25 1013 69 10000 5.1 190 16:39 13.11.2019
4510 Clouds 25 1013 69 10000 5.1 190 16:21 13.11.2019
4511 Clouds 24 1013 73 10000 5.7 200 15:57 13.11.2019
4512 Clouds 24 1013 73 10000 5.7 200 15:38 13.11.2019
4513 Clouds 24 1013 73 10000 5.7 200 15:19 13.11.2019
4514 Clouds 21 1012 88 10000 5.1 200 14:42 13.11.2019
4515 Clouds 21 1012 88 10000 5.1 200 14:21 13.11.2019
4516 Clouds 21 1012 88 10000 4.6 190 13:57 13.11.2019
4517 Clouds 21 1012 88 10000 4.6 190 13:36 13.11.2019
4518 Clouds 21 1012 88 10000 4.6 190 13:36 13.11.2019
4519 Clouds 21 1012 88 10000 4.6 190 13:18 13.11.2019
4520 Rain 21 1014 84 0 6.28 192 12:42 13.11.2019
4521 Rain 21 1014 84 0 6.28 192 12:24 13.11.2019
4522 Rain 21 1014 84 0 6.28 192 11:58 13.11.2019
4523 Rain 21 1014 84 0 6.28 192 11:38 13.11.2019
4524 Clouds 21 1013 81 0 5.88 205 11:19 13.11.2019
4525 Clouds 21 1013 81 0 5.88 205 10:56 13.11.2019
4526 Clouds 21 1013 81 0 5.88 205 10:38 13.11.2019
4527 Clouds 21 1013 81 0 5.88 205 10:19 13.11.2019
4528 Clouds 21 1013 81 0 5.88 205 09:43 13.11.2019
4529 Clouds 21 1013 81 0 5.88 205 09:21 13.11.2019
4530 Clouds 21 1013 81 0 5.88 205 09:21 13.11.2019
4531 Clouds 21 1013 81 0 5.88 205 09:21 13.11.2019
4532 Clouds 21 1013 81 0 5.88 205 09:21 13.11.2019
4533 Clouds 21 1013 81 0 5.88 205 08:44 13.11.2019
4534 Clouds 21 1013 80 0 5.6 204 08:26 13.11.2019
4535 Clouds 21 1014 79 0 5.16 205 07:59 13.11.2019
4536 Clouds 21 1014 79 0 5.16 205 07:40 13.11.2019
4537 Clouds 21 1014 79 0 5.16 205 07:18 13.11.2019
4538 Clouds 21 1014 79 0 5.16 205 07:18 13.11.2019
4539 Clouds 21 1014 79 0 5.16 205 06:42 13.11.2019
4540 Clouds 21 1014 79 0 5.16 205 06:19 13.11.2019
4541 Clouds 21 1014 79 0 5.16 205 05:47 13.11.2019
4542 Clouds 21 1015 80 0 4.64 203 05:19 13.11.2019
4543 Clouds 21 1015 80 0 4.64 203 03:56 13.11.2019
4544 Clouds 21 1015 80 0 4.64 203 03:56 13.11.2019
4545 Clouds 23 1009 78 10000 5.1 180 01:51 13.11.2019
4546 Clouds 23 1009 78 10000 5.1 180 01:27 13.11.2019
4547 Clouds 23 1009 78 10000 5.1 180 01:27 13.11.2019
4548 Clouds 23 1008 78 10000 6.2 200 00:43 13.11.2019
4549 Clouds 24 1008 69 10000 7.2 180 23:56 12.11.2019
4550 Clouds 24 1008 69 10000 7.2 180 23:37 12.11.2019
4551 Clouds 24 1008 69 10000 7.2 180 23:18 12.11.2019
4552 Clouds 25 1008 69 10000 6.7 170 22:42 12.11.2019
4553 Clouds 25 1008 69 10000 6.7 170 22:18 12.11.2019
4554 Clouds 25 1008 69 10000 6.7 170 22:18 12.11.2019
4555 Clouds 25 1009 69 10000 6.7 180 21:56 12.11.2019
4556 Clouds 25 1009 69 10000 6.7 180 21:36 12.11.2019
4557 Clouds 25 1009 69 10000 6.7 180 21:36 12.11.2019
4558 Clouds 25 1009 69 10000 6.7 180 21:18 12.11.2019
4559 Clouds 25 1010 69 10000 6.2 170 20:54 12.11.2019
4560 Clouds 25 1010 69 10000 6.2 170 20:36 12.11.2019
4561 Clouds 25 1010 69 10000 6.2 170 20:18 12.11.2019
4562 Clouds 24 1011 73 10000 6.2 200 19:54 12.11.2019
4563 Clouds 24 1011 73 10000 6.2 200 19:36 12.11.2019
4564 Clouds 24 1011 73 10000 6.2 200 19:18 12.11.2019
4565 Clouds 25 1011 69 10000 6.2 180 18:41 12.11.2019
4566 Clouds 25 1011 69 10000 6.2 180 18:23 12.11.2019
4567 Clouds 25 1012 69 10000 6.2 180 17:58 12.11.2019
4568 Clouds 25 1012 69 10000 6.2 180 17:58 12.11.2019
4569 Clouds 25 1012 69 10000 6.2 180 17:40 12.11.2019
4570 Clouds 25 1012 69 10000 6.2 180 17:21 12.11.2019
4571 Clouds 24 1012 73 10000 5.1 200 16:59 12.11.2019
4572 Clouds 24 1012 73 10000 5.1 200 16:40 12.11.2019
4573 Clouds 24 1012 73 10000 5.1 200 16:22 12.11.2019
4574 Clouds 23 1012 73 10000 5.1 220 15:42 12.11.2019
4575 Clouds 23 1012 73 10000 5.1 220 15:23 12.11.2019
4576 Clouds 22 1011 78 10000 4.6 210 14:57 12.11.2019
4577 Clouds 22 1011 78 10000 4.6 210 14:39 12.11.2019
4578 Clouds 22 1011 78 10000 4.6 210 14:19 12.11.2019
4579 Clouds 21 1010 83 10000 4.6 190 13:57 12.11.2019
4580 Clouds 21 1010 83 10000 4.6 190 13:57 12.11.2019
4581 Clouds 21 1010 83 10000 4.6 190 13:38 12.11.2019
4582 Clouds 21 1010 83 10000 4.6 190 13:19 12.11.2019
4583 Clouds 21 1012 82 0 5.76 183 12:43 12.11.2019
4584 Clouds 21 1012 82 0 5.76 183 12:20 12.11.2019
4585 Clouds 21 1012 82 0 5.76 183 11:59 12.11.2019
4586 Clouds 21 1012 82 0 5.76 183 11:41 12.11.2019
4587 Clouds 21 1011 80 0 5.03 182 11:22 12.11.2019
4588 Clouds 21 1011 82 0 5.1 179 10:56 12.11.2019
4589 Clouds 21 1011 82 0 5.1 179 10:38 12.11.2019
4590 Clouds 21 1011 80 0 5.03 182 10:19 12.11.2019
4591 Clouds 21 1011 82 0 5.1 179 09:42 12.11.2019
4592 Clouds 21 1011 82 0 5.1 179 09:23 12.11.2019
4593 Clouds 21 1011 82 0 5.1 179 08:57 12.11.2019
4594 Clouds 21 1011 82 0 5.1 179 08:39 12.11.2019
4595 Clouds 21 1013 80 0 4.37 179 08:19 12.11.2019
4596 Clouds 21 1013 80 0 4.37 179 07:40 12.11.2019
4597 Clouds 21 1013 80 0 4.37 179 07:40 12.11.2019
4598 Clouds 21 1013 80 0 4.37 179 07:22 12.11.2019
4599 Clouds 21 1013 80 0 4.37 179 06:45 12.11.2019
4600 Clouds 21 1013 80 0 4.37 179 06:23 12.11.2019
4601 Clouds 21 1013 80 0 4.37 179 05:46 12.11.2019
4602 Clouds 21 1014 77 0 3.92 180 04:46 12.11.2019
4603 Clouds 21 1014 77 0 3.92 180 03:40 12.11.2019
4604 Clouds 22 1008 83 10000 5.1 180 01:47 12.11.2019
4605 Clouds 22 1008 83 10000 5.1 180 01:22 12.11.2019
4606 Clouds 23 1008 78 10000 5.7 180 00:47 12.11.2019
4607 Clouds 23 1008 78 10000 5.7 180 00:24 12.11.2019
4608 Clouds 24 1008 73 10000 5.1 190 23:44 11.11.2019
4609 Clouds 24 1008 73 10000 5.1 190 23:23 11.11.2019
4610 Clouds 25 1008 69 10000 5.1 200 22:57 11.11.2019
4611 Clouds 25 1008 69 10000 5.1 200 22:36 11.11.2019
4612 Clouds 25 1008 69 10000 5.1 200 22:36 11.11.2019
4613 Clouds 25 1008 69 10000 5.1 200 22:18 11.11.2019
4614 Clouds 25 1008 69 10000 5.1 200 22:18 11.11.2019
4615 Clouds 25 1009 69 10000 5.1 210 21:56 11.11.2019
4616 Clouds 25 1009 69 10000 5.1 210 21:38 11.11.2019
4617 Clouds 25 1009 69 10000 5.1 210 21:19 11.11.2019
4618 Clouds 25 1010 69 10000 6.2 190 20:42 11.11.2019
4619 Clouds 25 1010 69 10000 6.2 190 20:20 11.11.2019
4620 Clouds 25 1010 69 10000 6.2 190 20:20 11.11.2019
4621 Clouds 25 1011 69 10000 6.2 210 19:57 11.11.2019
4622 Clouds 25 1011 69 10000 6.2 210 19:57 11.11.2019
4623 Clouds 25 1011 69 10000 6.2 210 19:39 11.11.2019
4624 Clouds 25 1011 69 10000 6.2 210 19:18 11.11.2019
4625 Clouds 25 1012 69 10000 5.1 200 18:54 11.11.2019
4626 Clouds 25 1012 69 10000 5.1 200 18:36 11.11.2019
4627 Clouds 25 1012 69 10000 5.1 200 18:18 11.11.2019
4628 Clouds 24 1012 73 10000 5.1 190 17:41 11.11.2019
4629 Clouds 24 1012 73 10000 5.1 190 17:23 11.11.2019
4630 Clouds 24 1012 78 10000 4.1 230 16:41 11.11.2019
4631 Clouds 24 1012 78 10000 4.1 230 16:22 11.11.2019
4632 Clouds 22 1012 88 10000 4.1 220 15:57 11.11.2019
4633 Clouds 22 1012 88 10000 4.1 220 15:39 11.11.2019
4634 Clouds 22 1012 88 10000 4.1 220 15:19 11.11.2019
4635 Clouds 22 1012 88 10000 4.1 220 15:19 11.11.2019
4636 Clouds 22 1011 83 10000 4.1 220 14:43 11.11.2019
4637 Clouds 22 1011 83 10000 4.1 220 14:25 11.11.2019
4638 Clouds 21 1011 88 10000 4.1 210 13:58 11.11.2019
4639 Clouds 21 1011 88 10000 4.1 210 13:37 11.11.2019
4640 Clouds 21 1011 88 10000 4.1 210 13:19 11.11.2019
4641 Clouds 21 1013 79 0 4.74 190 12:56 11.11.2019
4642 Clouds 21 1013 79 0 4.74 190 12:38 11.11.2019
4643 Clouds 21 1013 79 0 4.74 190 12:20 11.11.2019
4644 Clouds 21 1013 79 0 4.74 190 11:42 11.11.2019
4645 Clouds 21 1011 78 0 3.58 201 11:22 11.11.2019
4646 Clouds 21 1011 78 0 3.58 201 10:56 11.11.2019
4647 Clouds 21 1011 78 0 3.58 201 10:38 11.11.2019
4648 Clouds 21 1011 78 0 3.58 201 10:18 11.11.2019
4649 Clouds 21 1011 78 0 3.58 201 09:43 11.11.2019
4650 Clouds 21 1011 78 0 3.58 201 09:21 11.11.2019
4651 Clouds 21 1011 78 0 3.58 201 08:44 11.11.2019
4652 Clouds 21 1011 79 0 3.95 208 08:23 11.11.2019
4653 Clouds 21 1013 78 0 3.83 200 07:58 11.11.2019
4654 Clouds 21 1013 78 0 3.83 200 07:39 11.11.2019
4655 Clouds 21 1013 78 0 3.83 200 07:20 11.11.2019
4656 Clouds 21 1013 78 0 3.83 200 06:57 11.11.2019
4657 Clouds 21 1013 78 0 3.83 200 06:38 11.11.2019
4658 Clouds 21 1013 78 0 3.83 200 06:20 11.11.2019
4659 Clouds 21 1013 78 0 3.83 200 05:48 11.11.2019
4660 Clouds 21 1014 79 0 4.38 188 03:55 11.11.2019
4661 Clouds 21 1014 79 0 4.38 188 02:49 11.11.2019
4662 Clouds 22 1009 83 10000 4.1 170 01:59 11.11.2019
4663 Clouds 22 1009 83 10000 4.1 170 01:36 11.11.2019
4664 Drizzle 21 1008 94 8000 5.1 200 00:55 11.11.2019
4665 Drizzle 21 1008 94 8000 5.1 200 00:33 11.11.2019
4666 Drizzle 21 1008 94 6000 5.1 200 23:58 10.11.2019
4667 Drizzle 21 1008 94 6000 5.1 200 23:37 10.11.2019
4668 Drizzle 21 1008 94 6000 5.1 200 23:19 10.11.2019
4669 Drizzle 23 1008 83 6000 5.1 210 22:55 10.11.2019
4670 Drizzle 23 1008 83 6000 5.1 210 22:37 10.11.2019
4671 Drizzle 23 1008 83 6000 5.1 210 22:19 10.11.2019
4672 Rain 24 1009 78 10000 5.7 180 21:55 10.11.2019
4673 Rain 24 1009 78 10000 5.7 180 21:36 10.11.2019
4674 Rain 24 1009 78 10000 5.7 180 21:18 10.11.2019
4675 Clouds 24 1010 73 10000 5.7 170 20:41 10.11.2019
4676 Clouds 24 1010 73 10000 5.7 170 20:22 10.11.2019
4677 Clouds 24 1010 73 10000 5.7 170 20:22 10.11.2019
4678 Clouds 25 1011 69 10000 6.7 190 19:56 10.11.2019
4679 Clouds 25 1011 69 10000 6.7 190 19:56 10.11.2019
4680 Clouds 25 1011 69 10000 6.7 190 19:37 10.11.2019
4681 Clouds 25 1011 69 10000 6.7 190 19:18 10.11.2019
4682 Clouds 25 1012 73 10000 7.2 170 18:57 10.11.2019
4683 Clouds 25 1012 73 10000 7.2 170 18:57 10.11.2019
4684 Clouds 25 1012 73 10000 7.2 170 18:38 10.11.2019
4685 Clouds 25 1012 73 10000 7.2 170 18:19 10.11.2019
4686 Clouds 24 1013 78 10000 6.2 180 17:56 10.11.2019
4687 Clouds 24 1013 78 10000 6.2 180 17:38 10.11.2019
4688 Clouds 24 1013 78 10000 6.2 180 17:19 10.11.2019
4689 Clouds 23 1013 83 10000 6.7 190 16:57 10.11.2019
4690 Clouds 23 1013 83 10000 6.7 190 16:37 10.11.2019
4691 Clouds 23 1013 83 10000 6.7 190 16:19 10.11.2019
4692 Rain 23 1012 83 10000 6.2 180 15:54 10.11.2019
4693 Rain 23 1012 83 10000 6.2 180 15:36 10.11.2019
4694 Rain 23 1012 83 10000 6.2 180 15:18 10.11.2019
4695 Drizzle 21 1011 94 8000 5.1 180 14:40 10.11.2019
4696 Drizzle 21 1011 94 8000 5.1 180 14:22 10.11.2019
4697 Clouds 21 1010 88 10000 4.6 170 13:56 10.11.2019
4698 Clouds 21 1010 88 10000 4.6 170 13:38 10.11.2019
4699 Clouds 21 1010 88 10000 4.6 170 13:19 10.11.2019
4700 Clouds 21 1013 85 0 6.39 197 12:42 10.11.2019
4701 Clouds 21 1013 85 0 6.39 197 12:20 10.11.2019
4702 Clouds 21 1013 85 0 6.39 197 11:57 10.11.2019
4703 Clouds 21 1013 85 0 6.39 197 11:38 10.11.2019
4704 Clouds 21 1012 84 0 6.43 206 11:20 10.11.2019
4705 Clouds 21 1012 84 0 6.43 206 10:43 10.11.2019
4706 Clouds 21 1012 84 0 6.43 206 10:22 10.11.2019
4707 Clouds 21 1012 84 0 6.43 206 09:59 10.11.2019
4708 Clouds 21 1012 84 0 6.43 206 09:40 10.11.2019
4709 Clouds 21 1012 84 0 6.43 206 09:21 10.11.2019
4710 Clouds 21 1012 84 0 6.43 206 08:40 10.11.2019
4711 Clouds 21 1012 82 0 6.32 200 08:21 10.11.2019
4712 Clouds 21 1012 82 0 6.32 201 07:53 10.11.2019
4713 Clouds 21 1012 82 0 6.32 201 07:34 10.11.2019
4714 Clouds 21 1012 82 0 6.32 201 06:59 10.11.2019
4715 Clouds 21 1012 82 0 6.32 201 06:21 10.11.2019
4716 Clouds 21 1013 83 0 6.17 190 03:38 10.11.2019
4717 Clouds 22 1008 88 10000 5.1 190 02:30 10.11.2019
4718 Clouds 22 1008 88 10000 5.1 190 01:37 10.11.2019
4719 Clouds 22 1008 88 10000 5.1 190 01:18 10.11.2019
4720 Clouds 22 1007 83 10000 6.7 180 00:25 10.11.2019
4721 Clouds 21 1010 85 0 6.36 188 23:41 09.11.2019
4722 Clouds 23 1007 78 10000 6.7 190 23:19 09.11.2019
4723 Clouds 23 1007 78 10000 6.7 190 22:42 09.11.2019
4724 Clouds 23 1007 78 10000 6.7 190 22:22 09.11.2019
4725 Clouds 25 1008 73 10000 6.7 190 21:58 09.11.2019
4726 Clouds 25 1008 73 10000 6.7 190 21:39 09.11.2019
4727 Clouds 25 1008 73 10000 6.7 190 21:20 09.11.2019
4728 Clouds 24 1009 78 10000 6.2 180 20:56 09.11.2019
4729 Clouds 24 1009 78 10000 6.2 180 20:37 09.11.2019
4730 Clouds 24 1009 78 10000 6.2 180 20:18 09.11.2019
4731 Rain 24 1010 78 10000 6.7 180 19:41 09.11.2019
4732 Rain 24 1010 78 10000 6.7 180 19:22 09.11.2019
4733 Clouds 23 1011 83 10000 6.2 180 18:58 09.11.2019
4734 Clouds 23 1011 83 10000 6.2 180 18:39 09.11.2019
4735 Clouds 23 1011 83 10000 6.2 180 18:18 09.11.2019
4736 Clouds 23 1011 83 10000 7.2 180 17:43 09.11.2019
4737 Clouds 23 1011 83 10000 7.2 180 17:23 09.11.2019
4738 Clouds 24 1010 78 10000 7.7 200 16:57 09.11.2019
4739 Clouds 24 1010 78 10000 7.7 200 16:39 09.11.2019
4740 Clouds 24 1010 78 10000 7.7 200 16:19 09.11.2019
4741 Clouds 23 1010 88 10000 6.7 190 15:42 09.11.2019
4742 Clouds 23 1010 88 10000 6.7 190 15:23 09.11.2019
4743 Clouds 22 1009 94 10000 6.2 190 14:47 09.11.2019
4744 Clouds 22 1009 94 10000 6.2 190 14:24 09.11.2019
4745 Drizzle 22 1008 94 6000 5.7 190 13:58 09.11.2019
4746 Drizzle 22 1008 94 6000 5.7 190 13:40 09.11.2019
4747 Drizzle 22 1008 94 6000 5.7 190 13:21 09.11.2019
4748 Clouds 21 1011 87 0 6.42 185 12:58 09.11.2019
4749 Clouds 21 1011 87 0 6.42 185 12:40 09.11.2019
4750 Clouds 21 1011 87 0 6.42 185 12:22 09.11.2019
4751 Clouds 21 1011 87 0 6.42 185 11:48 09.11.2019
4752 Clouds 21 1010 90 0 7.18 197 11:23 09.11.2019
4753 Clouds 21 1010 90 0 7.18 197 10:59 09.11.2019
4754 Clouds 21 1010 90 0 7.18 197 10:39 09.11.2019
4755 Clouds 21 1010 90 0 7.18 197 10:19 09.11.2019
4756 Clouds 21 1010 90 0 7.18 197 09:45 09.11.2019
4757 Clouds 21 1010 90 0 7.18 197 09:27 09.11.2019
4758 Clouds 21 1010 90 0 7.18 197 08:57 09.11.2019
4759 Clouds 21 1010 90 0 7.18 197 08:39 09.11.2019
4760 Clouds 21 1010 90 0 7.32 198 08:19 09.11.2019
4761 Clouds 21 1011 90 0 7.43 198 07:44 09.11.2019
4762 Clouds 21 1011 90 0 7.43 198 07:22 09.11.2019
4763 Clouds 21 1011 90 0 7.43 198 06:49 09.11.2019
4764 Clouds 21 1011 90 0 7.43 198 06:30 09.11.2019
4765 Clouds 21 1011 90 0 7.43 198 05:42 09.11.2019
4766 Clouds 21 1012 90 0 6.05 190 04:58 09.11.2019
4767 Clouds 21 1012 90 0 6.05 190 03:37 09.11.2019
4768 Clouds 21 1012 90 0 6.05 190 02:42 09.11.2019
4769 Clouds 22 1007 88 10000 5.1 190 01:55 09.11.2019
4770 Clouds 23 1007 83 10000 5.7 200 00:49 09.11.2019
4771 Clouds 23 1007 83 10000 5.7 200 00:31 09.11.2019
4772 Clouds 23 1007 83 10000 6.2 180 23:57 08.11.2019
4773 Clouds 23 1007 83 10000 6.2 180 23:38 08.11.2019
4774 Clouds 23 1007 83 10000 6.2 180 23:19 08.11.2019
4775 Clouds 24 1007 78 10000 6.7 190 22:42 08.11.2019
4776 Clouds 24 1007 78 10000 6.7 190 22:21 08.11.2019
4777 Clouds 25 1007 73 10000 7.2 170 21:56 08.11.2019
4778 Clouds 25 1007 73 10000 7.2 170 21:56 08.11.2019
4779 Clouds 25 1007 73 10000 7.2 170 21:37 08.11.2019
4780 Clouds 25 1007 73 10000 7.2 170 21:18 08.11.2019
4781 Clouds 25 1008 73 10000 6.7 180 20:41 08.11.2019
4782 Clouds 25 1008 73 10000 6.7 180 20:21 08.11.2019
4783 Clouds 24 1009 78 10000 5.7 170 19:58 08.11.2019
4784 Clouds 24 1009 78 10000 5.7 170 19:58 08.11.2019
4785 Clouds 24 1009 78 10000 5.7 170 19:38 08.11.2019
4786 Clouds 24 1009 78 10000 5.7 170 19:18 08.11.2019
4787 Rain 23 1010 88 10000 6.7 180 18:55 08.11.2019
4788 Rain 23 1010 88 10000 6.7 180 18:37 08.11.2019
4789 Rain 23 1010 88 10000 6.7 180 18:19 08.11.2019
4790 Clouds 23 1010 88 10000 6.2 170 17:55 08.11.2019
4791 Clouds 23 1010 88 10000 6.2 170 17:36 08.11.2019
4792 Clouds 23 1010 88 10000 6.2 170 17:18 08.11.2019
4793 Rain 22 1010 88 8000 5.1 160 16:57 08.11.2019
4794 Rain 22 1010 88 8000 5.1 160 16:57 08.11.2019
4795 Rain 22 1010 88 8000 5.1 160 16:38 08.11.2019
4796 Rain 22 1010 88 8000 5.1 160 16:19 08.11.2019
4797 Rain 21 1010 94 8000 5.1 180 15:55 08.11.2019
4798 Rain 21 1010 94 8000 5.1 180 15:36 08.11.2019
4799 Rain 21 1010 94 8000 5.1 180 15:36 08.11.2019
4800 Rain 21 1010 94 8000 5.1 180 15:18 08.11.2019
4801 Clouds 21 1008 94 10000 4.6 170 14:54 08.11.2019
4802 Clouds 21 1008 94 10000 4.6 170 14:36 08.11.2019
4803 Clouds 21 1008 94 10000 4.6 170 14:36 08.11.2019
4804 Clouds 21 1008 94 10000 4.6 170 14:18 08.11.2019
4805 Clouds 20 1008 100 10000 4.1 180 13:42 08.11.2019
4806 Clouds 20 1008 100 10000 4.1 180 13:22 08.11.2019
4807 Clouds 21 1010 91 0 5.29 176 12:49 08.11.2019
4808 Clouds 21 1010 91 0 5.29 176 12:31 08.11.2019
4809 Clouds 21 1010 91 0 5.29 176 12:31 08.11.2019
4810 Clouds 21 1010 91 0 5.29 176 11:59 08.11.2019
4811 Clouds 21 1010 91 0 5.29 176 11:41 08.11.2019
4812 Rain 21 1010 91 0 3.84 180 11:22 08.11.2019
4813 Rain 21 1010 91 0 3.84 180 10:59 08.11.2019
4814 Rain 21 1010 91 0 3.84 180 10:41 08.11.2019
4815 Rain 21 1010 91 0 3.84 180 10:22 08.11.2019
4816 Rain 21 1010 91 0 3.84 180 09:58 08.11.2019
4817 Rain 21 1010 91 0 3.84 180 09:38 08.11.2019
4818 Rain 21 1010 91 0 3.84 180 09:19 08.11.2019
4819 Rain 21 1010 91 0 3.84 180 08:45 08.11.2019
4820 Rain 21 1010 90 0 3.13 170 08:21 08.11.2019
4821 Clouds 21 1010 88 0 3.38 170 07:45 08.11.2019
4822 Clouds 21 1010 88 0 3.38 170 07:24 08.11.2019
4823 Clouds 21 1010 88 0 3.38 170 06:57 08.11.2019
4824 Clouds 21 1010 88 0 3.38 170 06:37 08.11.2019
4825 Clouds 21 1010 88 0 3.38 170 06:19 08.11.2019
4826 Clouds 21 1010 88 0 3.38 170 05:32 08.11.2019
4827 Clouds 21 1011 90 0 4.09 164 04:29 08.11.2019
4828 Clouds 21 1011 90 0 4.09 164 04:29 08.11.2019
4829 Clouds 21 1011 90 0 4.09 164 03:42 08.11.2019
4830 Clouds 21 1011 90 0 4.09 164 03:18 08.11.2019
4831 Clouds 22 1006 88 10000 5.1 160 01:54 08.11.2019
4832 Clouds 22 1006 88 10000 5.1 160 01:35 08.11.2019
4833 Drizzle 22 1005 88 10000 6.2 170 00:45 08.11.2019
4834 Drizzle 22 1005 88 10000 6.2 170 00:21 08.11.2019
4835 Drizzle 22 1005 94 10000 6.2 170 23:48 07.11.2019
4836 Drizzle 22 1005 94 10000 6.2 170 23:27 07.11.2019
4837 Drizzle 23 1005 83 10000 6.2 180 22:57 07.11.2019
4838 Drizzle 23 1005 83 10000 6.2 180 22:39 07.11.2019
4839 Drizzle 23 1005 83 10000 6.2 180 22:20 07.11.2019
4840 Clouds 25 1007 69 10000 4.1 240 21:39 07.11.2019
4841 Clouds 25 1007 69 10000 4.1 240 21:21 07.11.2019
4842 Clouds 24 1007 83 10000 7.7 170 20:59 07.11.2019
4843 Clouds 24 1007 83 10000 7.7 170 20:40 07.11.2019
4844 Clouds 24 1007 83 10000 7.7 170 20:40 07.11.2019
4845 Clouds 24 1007 83 10000 7.7 170 20:22 07.11.2019
4846 Clouds 24 1007 78 10000 7.7 160 19:58 07.11.2019
4847 Clouds 24 1007 78 10000 7.7 160 19:39 07.11.2019
4848 Clouds 24 1007 78 10000 7.7 160 19:20 07.11.2019
4849 Clouds 24 1009 78 10000 6.2 190 18:57 07.11.2019
4850 Clouds 24 1009 78 10000 6.2 190 18:38 07.11.2019
4851 Clouds 24 1009 78 10000 6.2 190 18:19 07.11.2019
4852 Drizzle 22 1009 88 8000 5.7 180 17:54 07.11.2019
4853 Drizzle 22 1009 88 8000 5.7 180 17:36 07.11.2019
4854 Drizzle 22 1009 88 10000 3.6 170 17:18 07.11.2019
4855 Drizzle 22 1009 88 10000 3.6 170 16:54 07.11.2019
4856 Drizzle 22 1009 88 10000 3.6 170 16:36 07.11.2019
4857 Drizzle 22 1009 88 10000 3.6 170 16:18 07.11.2019
4858 Drizzle 21 1009 94 10000 3.6 160 15:40 07.11.2019
4859 Drizzle 21 1009 94 10000 3.6 160 15:20 07.11.2019
4860 Rain 21 1009 94 10000 4.1 160 14:54 07.11.2019
4861 Rain 21 1009 94 10000 4.1 160 14:36 07.11.2019
4862 Rain 21 1009 94 10000 4.1 160 14:18 07.11.2019
4863 Drizzle 20 1008 100 8000 3.6 160 13:54 07.11.2019
4864 Drizzle 20 1008 100 8000 3.6 160 13:36 07.11.2019
4865 Drizzle 20 1008 100 8000 3.6 160 13:18 07.11.2019
4866 Clouds 21 1010 93 0 5.58 145 12:54 07.11.2019
4867 Clouds 21 1010 93 0 5.58 145 12:54 07.11.2019
4868 Clouds 21 1010 93 0 5.58 145 12:36 07.11.2019
4869 Clouds 21 1010 93 0 5.58 145 12:18 07.11.2019
4870 Clouds 21 1010 93 0 5.58 145 11:40 07.11.2019
4871 Clouds 21 1010 93 0 5.37 141 11:22 07.11.2019
4872 Clouds 21 1010 93 0 5.37 141 10:42 07.11.2019
4873 Clouds 21 1010 93 0 5.37 141 10:19 07.11.2019
4874 Clouds 21 1010 93 0 5.37 141 09:45 07.11.2019
4875 Clouds 21 1010 93 0 5.37 141 09:24 07.11.2019
4876 -273 0 0 0 0 0 08:59 07.11.2019
4877 Clouds 21 1010 93 0 5.37 141 08:40 07.11.2019
4878 Rain 21 1011 93 0 5.3 149 08:22 07.11.2019
4879 Rain 21 1011 91 0 5.55 149 07:56 07.11.2019
4880 Rain 21 1011 91 0 5.55 149 07:37 07.11.2019
4881 Rain 21 1011 91 0 5.55 149 07:19 07.11.2019
4882 Rain 21 1011 91 0 5.55 149 06:42 07.11.2019
4883 Rain 21 1011 91 0 5.55 149 06:23 07.11.2019
4884 Rain 21 1011 91 0 5.55 149 06:22 07.11.2019
4885 Rain 21 1011 91 0 5.55 149 05:47 07.11.2019
4886 Rain 21 1011 91 0 5.55 149 05:29 07.11.2019
4887 Rain 21 1011 91 0 5.55 149 05:29 07.11.2019
4888 Clouds 21 1012 92 0 4.12 166 04:42 07.11.2019
4889 Clouds 21 1012 92 0 4.12 166 03:01 07.11.2019
4890 Clouds 23 1007 83 10000 4.6 180 00:58 07.11.2019
4891 Clouds 23 1007 83 10000 4.6 180 00:22 07.11.2019
4892 Clouds 23 1007 83 10000 5.7 190 23:48 06.11.2019
4893 Clouds 23 1007 83 10000 5.7 190 23:23 06.11.2019
4894 Clouds 23 1007 83 10000 5.7 190 23:22 06.11.2019
4895 Clouds 24 1007 78 10000 5.1 200 22:58 06.11.2019
4896 Clouds 24 1007 78 10000 5.1 200 22:39 06.11.2019
4897 Clouds 24 1007 78 10000 5.1 200 22:19 06.11.2019
4898 Clouds 24 1007 73 10000 5.7 180 21:56 06.11.2019
4899 Clouds 24 1007 73 10000 5.7 180 21:38 06.11.2019
4900 Clouds 24 1007 73 10000 5.7 180 21:38 06.11.2019
4901 Clouds 24 1007 73 10000 5.7 180 21:18 06.11.2019
4902 Clouds 24 1008 73 10000 6.7 190 20:41 06.11.2019
4903 Clouds 24 1008 73 10000 6.7 190 20:23 06.11.2019
4904 Clouds 24 1009 78 10000 7.7 170 19:59 06.11.2019
4905 Clouds 24 1009 78 10000 7.7 170 19:40 06.11.2019
4906 Clouds 24 1009 78 10000 7.7 170 19:21 06.11.2019
4907 Clouds 24 1011 78 10000 6.7 190 18:58 06.11.2019
4908 Clouds 24 1011 78 10000 6.7 190 18:39 06.11.2019
4909 Clouds 24 1011 78 10000 6.7 190 18:19 06.11.2019
4910 Clouds 24 1012 78 10000 6.2 160 17:57 06.11.2019
4911 Clouds 24 1012 78 10000 6.2 160 17:39 06.11.2019
4912 Clouds 24 1012 78 10000 6.2 160 17:21 06.11.2019
4913 Clouds 23 1012 78 10000 5.1 170 16:55 06.11.2019
4914 Clouds 23 1012 78 10000 5.1 170 16:37 06.11.2019
4915 Clouds 23 1012 78 10000 5.1 170 16:37 06.11.2019
4916 Clouds 23 1012 78 10000 5.1 170 16:18 06.11.2019
4917 Clouds 23 1012 78 10000 5.1 170 16:18 06.11.2019
4918 Clouds 22 1012 83 10000 7.2 180 15:54 06.11.2019
4919 Clouds 22 1012 83 10000 7.2 180 15:36 06.11.2019
4920 Clouds 22 1012 83 10000 7.2 180 15:18 06.11.2019
4921 Clouds 21 1011 88 10000 5.1 180 14:55 06.11.2019
4922 Clouds 21 1011 88 10000 5.1 180 14:37 06.11.2019
4923 Clouds 21 1011 88 10000 5.1 180 14:18 06.11.2019
4924 Clouds 21 1010 88 10000 5.1 190 13:39 06.11.2019
4925 Clouds 21 1010 88 10000 5.1 190 13:39 06.11.2019
4926 Clouds 21 1010 88 10000 5.1 190 13:21 06.11.2019
4927 Rain 21 1012 91 0 6.65 158 12:57 06.11.2019
4928 Rain 21 1012 91 0 6.65 158 12:39 06.11.2019
4929 Rain 21 1012 91 0 6.65 158 12:20 06.11.2019
4930 Rain 21 1012 91 0 6.65 158 11:58 06.11.2019
4931 Rain 21 1012 91 0 6.65 158 11:37 06.11.2019
4932 Rain 21 1011 91 0 5.43 163 11:18 06.11.2019
4933 Rain 21 1011 91 0 5.43 163 10:56 06.11.2019
4934 Rain 21 1011 91 0 5.43 163 10:37 06.11.2019
4935 Rain 21 1011 91 0 5.43 163 10:19 06.11.2019
4936 Rain 21 1011 91 0 5.43 163 09:43 06.11.2019
4937 Rain 21 1011 91 0 5.43 163 09:21 06.11.2019
4938 Rain 21 1011 91 0 5.43 163 08:57 06.11.2019
4939 Rain 21 1011 91 0 5.43 163 08:38 06.11.2019
4940 Clouds 21 1012 90 0 5.48 175 08:19 06.11.2019
4941 Clouds 21 1012 90 0 5.48 175 07:47 06.11.2019
4942 Clouds 21 1012 90 0 5.48 175 07:29 06.11.2019
4943 Clouds 21 1012 90 0 5.48 175 06:59 06.11.2019
4944 Clouds 21 1012 90 0 5.48 175 06:38 06.11.2019
4945 Clouds 21 1012 90 0 5.48 175 06:20 06.11.2019
4946 Clouds 21 1013 90 0 5.01 170 03:52 06.11.2019
4947 Clouds 22 1009 83 10000 5.7 160 02:18 06.11.2019
4948 Clouds 22 1008 83 10000 5.1 170 00:55 06.11.2019
4949 Clouds 22 1008 83 10000 5.1 170 00:26 06.11.2019
4950 Clouds 23 1007 83 10000 6.7 160 23:57 05.11.2019
4951 Clouds 23 1007 83 10000 6.7 160 23:37 05.11.2019
4952 Clouds 23 1007 83 10000 6.7 160 23:18 05.11.2019
4953 Clouds 23 1007 83 10000 6.7 160 23:18 05.11.2019
4954 Clouds 23 1007 83 10000 6.7 160 23:18 05.11.2019
4955 Clouds 24 1007 78 10000 7.7 180 22:41 05.11.2019
4956 Clouds 24 1007 78 10000 7.7 180 22:19 05.11.2019
4957 Clouds 25 1008 73 10000 7.7 170 21:57 05.11.2019
4958 Clouds 25 1008 73 10000 7.7 170 21:39 05.11.2019
4959 Clouds 25 1008 73 10000 7.7 170 21:19 05.11.2019
4960 Clouds 25 1008 73 10000 7.2 180 20:56 05.11.2019
4961 Clouds 25 1008 73 10000 7.2 180 20:37 05.11.2019
4962 Clouds 25 1008 73 10000 7.2 180 20:19 05.11.2019
4963 Clouds 25 1009 73 10000 7.7 190 19:42 05.11.2019
4964 Clouds 25 1009 73 10000 7.7 190 19:23 05.11.2019
4965 Clouds 24 1010 78 10000 7.2 160 18:58 05.11.2019
4966 Clouds 24 1010 78 10000 7.2 160 18:40 05.11.2019
4967 Clouds 24 1010 78 10000 7.2 160 18:21 05.11.2019
4968 Clouds 23 1010 83 10000 4.6 170 17:59 05.11.2019
4969 Clouds 23 1010 83 10000 4.6 170 17:39 05.11.2019
4970 Clouds 23 1010 83 10000 4.6 170 17:20 05.11.2019
4971 Clouds 23 1011 83 10000 5.1 150 16:56 05.11.2019
4972 Clouds 23 1011 83 10000 5.1 150 16:38 05.11.2019
4973 Clouds 23 1011 83 10000 5.1 150 16:19 05.11.2019
4974 Clouds 22 1011 94 10000 5.1 190 15:39 05.11.2019
4975 Clouds 22 1011 94 10000 5.1 190 15:20 05.11.2019
4976 Drizzle 21 1010 94 8000 4.1 150 14:58 05.11.2019
4977 Drizzle 21 1010 94 8000 4.1 150 14:40 05.11.2019
4978 Drizzle 21 1010 94 8000 4.1 150 14:21 05.11.2019
4979 Drizzle 20 1009 100 4000 4.1 160 13:55 05.11.2019
4980 Drizzle 20 1009 100 4000 4.1 160 13:37 05.11.2019
4981 Drizzle 20 1009 100 4000 4.1 160 13:18 05.11.2019
4982 Clouds 21 1012 89 0 6.56 151 12:39 05.11.2019
4983 Clouds 21 1012 89 0 6.56 151 12:20 05.11.2019
4984 Clouds 21 1012 89 0 6.56 151 12:20 05.11.2019
4985 Clouds 21 1012 89 0 6.56 151 11:56 05.11.2019
4986 Clouds 21 1012 89 0 6.56 151 11:37 05.11.2019
4987 Rain 21 1011 89 0 6.34 162 11:19 05.11.2019
4988 Rain 21 1011 89 0 6.34 162 10:42 05.11.2019
4989 Rain 21 1011 89 0 6.34 162 10:24 05.11.2019
4990 Rain 21 1011 89 0 6.34 162 09:58 05.11.2019
4991 Rain 21 1011 89 0 6.34 162 09:39 05.11.2019
4992 Rain 21 1011 89 0 6.34 162 09:19 05.11.2019
4993 Rain 21 1011 89 0 6.34 162 08:41 05.11.2019
4994 Clouds 21 1011 89 0 5.38 173 08:21 05.11.2019
4995 Clouds 21 1011 89 0 5.38 173 07:59 05.11.2019
4996 Clouds 21 1011 89 0 5.38 173 07:41 05.11.2019
4997 Clouds 21 1011 89 0 5.38 173 07:23 05.11.2019
4998 Clouds 21 1011 89 0 5.38 173 06:51 05.11.2019
4999 Clouds 21 1011 89 0 5.38 173 05:51 05.11.2019
5000 Clouds 21 1011 89 0 5.38 173 05:29 05.11.2019
5001 Clouds 21 1012 88 0 5.86 185 04:47 05.11.2019
5002 Clouds 21 1012 88 0 5.86 185 03:58 05.11.2019
5003 Clouds 21 1012 88 0 5.86 185 02:59 05.11.2019
5004 Clouds 21 1012 88 0 5.86 185 02:41 05.11.2019
5005 Drizzle 21 1008 94 10000 6.2 170 01:27 05.11.2019
5006 Clouds 22 1007 88 10000 6.7 170 00:38 05.11.2019
5007 Drizzle 22 1007 88 10000 4.6 170 23:59 04.11.2019
5008 Drizzle 22 1007 88 10000 4.6 170 23:38 04.11.2019
5009 Drizzle 22 1007 88 10000 4.6 170 23:18 04.11.2019
5010 Drizzle 22 1007 88 10000 4.6 170 23:18 04.11.2019
5011 Drizzle 22 1007 88 10000 4.6 170 23:18 04.11.2019
5012 Clouds 23 1008 78 10000 3.6 200 22:43 04.11.2019
5013 Clouds 23 1008 78 10000 3.6 200 22:24 04.11.2019
5014 Clouds 24 1007 73 10000 5.7 190 21:56 04.11.2019
5015 Clouds 24 1007 73 10000 5.7 190 21:56 04.11.2019
5016 Clouds 24 1007 73 10000 5.7 190 21:38 04.11.2019
5017 Clouds 24 1007 73 10000 5.7 190 21:19 04.11.2019
5018 Clouds 25 1008 69 10000 6.2 170 20:59 04.11.2019
5019 Clouds 25 1008 69 10000 6.2 170 20:40 04.11.2019
5020 Clouds 25 1008 69 10000 6.2 170 20:21 04.11.2019
5021 Clouds 25 1008 69 10000 6.2 170 20:21 04.11.2019
5022 Clouds 24 1009 73 10000 6.7 180 19:59 04.11.2019
5023 Clouds 24 1009 73 10000 6.7 180 19:41 04.11.2019
5024 Clouds 24 1009 73 10000 6.7 180 19:21 04.11.2019
5025 Clouds 24 1010 78 10000 7.2 170 18:57 04.11.2019
5026 Clouds 24 1010 78 10000 7.2 170 18:39 04.11.2019
5027 Clouds 24 1010 78 10000 7.2 170 18:19 04.11.2019
5028 Clouds 24 1011 78 10000 7.7 180 17:40 04.11.2019
5029 Clouds 24 1011 78 10000 7.7 180 17:21 04.11.2019
5030 Rain 23 1011 83 10000 6.2 160 16:59 04.11.2019
5031 Rain 23 1011 83 10000 6.2 160 16:41 04.11.2019
5032 Rain 23 1011 83 10000 6.2 160 16:22 04.11.2019
5033 Rain 21 1011 94 10000 6.7 170 15:56 04.11.2019
5034 Rain 21 1011 94 10000 6.7 170 15:56 04.11.2019
5035 Rain 21 1011 94 10000 6.7 170 15:38 04.11.2019
5036 Rain 21 1011 94 10000 6.7 170 15:19 04.11.2019
5037 Clouds 21 1010 88 10000 6.2 170 14:56 04.11.2019
5038 Clouds 21 1010 88 10000 6.2 170 14:37 04.11.2019
5039 Clouds 21 1010 88 10000 6.2 170 14:18 04.11.2019
5040 Drizzle 20 1009 94 5000 7.2 170 13:54 04.11.2019
5041 Drizzle 20 1009 94 5000 7.2 170 13:36 04.11.2019
5042 Drizzle 20 1009 94 5000 7.2 170 13:18 04.11.2019
5043 Rain 20 1012 88 0 6.46 170 12:41 04.11.2019
5044 Rain 20 1012 88 0 6.46 170 12:23 04.11.2019
5045 Rain 20 1012 88 0 6.46 170 11:57 04.11.2019
5046 Rain 20 1012 88 0 6.46 170 11:38 04.11.2019
5047 Clouds 20 1010 89 0 6.53 176 11:20 04.11.2019
5048 Clouds 20 1010 89 0 6.53 176 10:44 04.11.2019
5049 Clouds 20 1010 89 0 6.53 176 10:25 04.11.2019
5050 Clouds 20 1010 89 0 6.53 176 09:54 04.11.2019
5051 Clouds 20 1010 89 0 6.53 176 09:36 04.11.2019
5052 Clouds 20 1010 89 0 6.53 176 09:18 04.11.2019
5053 Clouds 20 1010 89 0 6.53 176 08:41 04.11.2019
5054 Clouds 20 1011 89 0 6.45 175 08:21 04.11.2019
5055 Clouds 20 1011 89 0 6.45 175 07:45 04.11.2019
5056 Clouds 20 1011 89 0 6.45 175 07:24 04.11.2019
5057 Clouds 20 1011 89 0 6.45 175 07:24 04.11.2019
5058 Clouds 20 1011 89 0 6.45 175 06:58 04.11.2019
5059 Clouds 20 1011 89 0 6.45 175 06:35 04.11.2019
5060 Clouds 20 1011 89 0 6.45 175 05:57 04.11.2019
5061 Clouds 21 1012 89 0 6.9 177 04:45 04.11.2019
5062 Clouds 21 1012 89 0 6.9 177 04:21 04.11.2019
5063 Clouds 21 1012 89 0 6.9 177 02:34 04.11.2019
5064 Clouds 21 1008 88 10000 4.6 180 01:22 04.11.2019
5065 Clouds 22 1007 83 10000 5.7 180 00:43 04.11.2019
5066 Clouds 22 1007 83 10000 5.7 180 00:21 04.11.2019
5067 Clouds 22 1007 83 10000 7.2 170 23:44 03.11.2019
5068 Clouds 22 1007 83 10000 7.2 170 23:44 03.11.2019
5069 Clouds 22 1007 83 10000 7.2 170 23:22 03.11.2019
5070 Clouds 23 1008 78 10000 5.1 180 22:59 03.11.2019
5071 Clouds 23 1008 78 10000 5.1 180 22:41 03.11.2019
5072 Clouds 23 1008 78 10000 5.1 180 22:20 03.11.2019
5073 Clouds 24 1008 78 10000 6.2 170 21:58 03.11.2019
5074 Clouds 24 1008 78 10000 6.2 170 21:39 03.11.2019
5075 Clouds 24 1008 78 10000 6.2 170 21:20 03.11.2019
5076 Clouds 24 1009 78 10000 6.7 180 20:55 03.11.2019
5077 Clouds 24 1009 78 10000 6.7 180 20:36 03.11.2019
5078 Clouds 24 1009 78 10000 6.7 180 20:18 03.11.2019
5079 Clouds 24 1010 78 10000 7.2 170 19:55 03.11.2019
5080 Clouds 24 1010 78 10000 7.2 170 19:37 03.11.2019
5081 Clouds 24 1010 78 10000 7.2 170 19:19 03.11.2019
5082 Clouds 20 1012 90 0 6 167 18:38 03.11.2019
5083 Clouds 20 1012 90 0 6 167 18:38 03.11.2019
5084 Clouds 23 1011 83 10000 5.7 170 18:18 03.11.2019
5085 Clouds 23 1011 83 10000 5.7 170 17:58 03.11.2019
5086 Clouds 23 1011 83 10000 5.7 170 17:39 03.11.2019
5087 Clouds 23 1011 83 10000 5.7 170 17:18 03.11.2019
5088 Drizzle 21 1012 94 10000 5.1 170 16:54 03.11.2019
5089 Drizzle 21 1012 94 10000 5.1 170 16:54 03.11.2019
5090 Drizzle 21 1012 94 10000 5.1 170 16:54 03.11.2019
5091 Drizzle 21 1012 94 10000 5.1 170 16:36 03.11.2019
5092 Drizzle 21 1012 94 10000 5.1 170 16:18 03.11.2019
5093 Drizzle 20 1011 94 8000 6.7 160 15:45 03.11.2019
5094 Drizzle 20 1011 94 8000 6.7 160 15:25 03.11.2019
5095 Drizzle 20 1011 94 5000 5.7 170 14:58 03.11.2019
5096 Drizzle 20 1011 94 5000 5.7 170 14:39 03.11.2019
5097 Drizzle 20 1011 94 5000 5.7 170 14:18 03.11.2019
5098 Drizzle 20 1010 94 5000 4.6 180 13:54 03.11.2019
5099 Drizzle 20 1010 94 5000 4.6 180 13:54 03.11.2019
5100 Drizzle 20 1010 94 5000 4.6 180 13:36 03.11.2019
5101 Drizzle 20 1010 94 5000 4.6 180 13:18 03.11.2019
5102 Rain 21 1012 90 0 6.69 172 12:37 03.11.2019
5103 Rain 21 1012 90 0 6.69 172 12:19 03.11.2019
5104 Rain 21 1012 90 0 6.69 172 11:54 03.11.2019
5105 Rain 21 1012 90 0 6.69 172 11:36 03.11.2019
5106 Rain 21 1011 91 0 6.65 172 11:18 03.11.2019
5107 Rain 21 1011 91 0 6.65 172 10:40 03.11.2019
5108 Rain 21 1011 91 0 6.65 172 10:22 03.11.2019
5109 Rain 21 1011 91 0 6.65 172 09:56 03.11.2019
5110 Rain 21 1011 91 0 6.65 172 09:38 03.11.2019
5111 Rain 21 1011 91 0 6.65 172 09:20 03.11.2019
5112 Rain 21 1011 91 0 6.65 172 08:39 03.11.2019
5113 Clouds 21 1011 90 0 5.4 165 08:20 03.11.2019
5114 Clouds 21 1011 90 0 5.4 165 07:46 03.11.2019
5115 Clouds 21 1011 90 0 5.4 165 07:25 03.11.2019
5116 Clouds 21 1011 90 0 5.4 165 06:49 03.11.2019
5117 Clouds 21 1011 90 0 5.4 165 06:30 03.11.2019
5118 Clouds 21 1011 90 0 5.4 165 05:39 03.11.2019
5119 Clouds 21 1012 89 0 4.75 167 04:56 03.11.2019
5120 Clouds 21 1012 89 0 4.75 167 04:33 03.11.2019
5121 Clouds 21 1012 89 0 4.75 167 03:30 03.11.2019
5122 Clouds 22 1008 83 10000 5.1 160 02:30 03.11.2019
5123 Clouds 22 1008 83 10000 5.1 160 01:59 03.11.2019
5124 Clouds 22 1008 83 10000 5.1 160 01:38 03.11.2019
5125 Clouds 22 1008 83 10000 5.1 160 01:19 03.11.2019
5126 Clouds 23 1008 78 10000 6.7 160 00:42 03.11.2019
5127 Clouds 23 1008 78 10000 6.7 160 00:23 03.11.2019
5128 Clouds 23 1007 78 10000 5.7 170 23:57 02.11.2019
5129 Clouds 23 1007 78 10000 5.7 170 23:37 02.11.2019
5130 Clouds 23 1007 78 10000 5.7 170 23:18 02.11.2019
5131 Clouds 24 1008 73 10000 6.2 160 22:55 02.11.2019
5132 Clouds 24 1008 73 10000 6.2 160 22:37 02.11.2019
5133 Clouds 24 1008 73 10000 6.2 160 22:37 02.11.2019
5134 Clouds 24 1008 73 10000 6.2 160 22:18 02.11.2019
5135 Clouds 24 1008 73 10000 6.2 160 22:18 02.11.2019
5136 Clouds 24 1008 73 10000 6.2 160 22:18 02.11.2019
5137 Clouds 21 1010 91 0 5.03 167 21:55 02.11.2019
5138 Clouds 21 1010 91 0 5.03 167 21:55 02.11.2019
5139 Clouds 21 1010 91 0 5.03 167 21:37 02.11.2019
5140 Clouds 24 1009 78 10000 7.2 170 21:18 02.11.2019
5141 Clouds 24 1009 78 10000 7.2 170 21:18 02.11.2019
5142 Clouds 24 1009 78 10000 7.2 170 20:56 02.11.2019
5143 Clouds 24 1009 78 10000 7.2 170 20:38 02.11.2019
5144 Clouds 24 1009 78 10000 7.2 170 20:18 02.11.2019
5145 Drizzle 24 1010 78 8000 7.2 160 19:39 02.11.2019
5146 Drizzle 24 1010 78 8000 7.2 160 19:20 02.11.2019
5147 Clouds 24 1011 78 10000 6.7 170 18:55 02.11.2019
5148 Clouds 24 1011 78 10000 6.7 170 18:55 02.11.2019
5149 Clouds 24 1011 78 10000 6.7 170 18:37 02.11.2019
5150 Clouds 24 1011 78 10000 6.7 170 18:18 02.11.2019
5151 Clouds 21 1012 91 0 5.99 164 17:55 02.11.2019
5152 Clouds 21 1012 91 0 5.99 164 17:37 02.11.2019
5153 Rain 22 1012 88 10000 6.7 140 17:18 02.11.2019
5154 Rain 22 1012 88 10000 6.7 140 16:40 02.11.2019
5155 Rain 22 1012 88 10000 6.7 140 16:20 02.11.2019
5156 Rain 21 1012 94 10000 6.7 160 15:44 02.11.2019
5157 Rain 21 1012 94 10000 6.7 160 15:22 02.11.2019
5158 Rain 21 1012 94 10000 5.1 150 14:59 02.11.2019
5159 Rain 21 1012 94 10000 5.1 150 14:41 02.11.2019
5160 Rain 21 1012 94 10000 5.1 150 14:41 02.11.2019
5161 Rain 21 1012 94 10000 5.1 150 14:22 02.11.2019
5162 Drizzle 20 1011 52 8000 6.2 150 13:54 02.11.2019
5163 Drizzle 20 1011 52 8000 6.2 150 13:54 02.11.2019
5164 Drizzle 20 1011 52 8000 6.2 150 13:36 02.11.2019
5165 Drizzle 20 1011 52 8000 6.2 150 13:18 02.11.2019
5166 Rain 21 1013 89 0 6.77 160 12:40 02.11.2019
5167 Rain 21 1013 89 0 6.77 160 12:22 02.11.2019
5168 Rain 21 1013 89 0 6.77 160 11:55 02.11.2019
5169 Rain 21 1013 89 0 6.77 160 11:37 02.11.2019
5170 Rain 21 1013 89 0 6.77 160 11:37 02.11.2019
5171 Rain 21 1012 90 0 7.28 168 11:19 02.11.2019
5172 Rain 21 1012 90 0 7.28 168 10:43 02.11.2019
5173 Rain 21 1012 90 0 7.28 168 10:24 02.11.2019
5174 Rain 21 1012 90 0 7.28 168 09:43 02.11.2019
5175 Rain 21 1012 90 0 7.28 168 09:22 02.11.2019
5176 Rain 21 1012 90 0 7.28 168 08:57 02.11.2019
5177 Rain 21 1012 90 0 7.28 168 08:39 02.11.2019
5178 Clouds 21 1013 91 0 6.87 165 08:19 02.11.2019
5179 Clouds 21 1013 91 0 6.87 165 07:45 02.11.2019
5180 Clouds 21 1013 91 0 6.87 165 07:26 02.11.2019
5181 Clouds 21 1013 91 0 6.87 165 07:26 02.11.2019
5182 Clouds 21 1013 91 0 6.87 165 06:52 02.11.2019
5183 Clouds 21 1013 91 0 6.87 165 06:25 02.11.2019
5184 Clouds 21 1013 91 0 6.87 165 05:50 02.11.2019
5185 Clouds 21 1014 89 0 5.3 153 04:28 02.11.2019
5186 Clouds 21 1014 89 0 5.3 153 03:59 02.11.2019
5187 Clouds 21 1014 89 0 5.3 153 03:31 02.11.2019
5188 Clouds 21 1010 88 10000 7.2 150 02:31 02.11.2019
5189 Clouds 21 1010 88 10000 7.2 150 01:36 02.11.2019
5190 Clouds 21 1010 88 10000 7.2 150 01:18 02.11.2019
5191 Clouds 21 1012 89 0 5.03 158 00:42 02.11.2019
5192 Clouds 23 1009 83 10000 6.2 160 00:21 02.11.2019
5193 Clouds 23 1009 83 10000 6.2 160 23:42 01.11.2019
5194 Clouds 23 1009 83 10000 6.2 160 23:42 01.11.2019
5195 Clouds 23 1009 83 10000 6.2 160 23:19 01.11.2019
5196 Clouds 23 1009 78 10000 7.2 150 22:42 01.11.2019
5197 Clouds 23 1009 78 10000 7.2 150 22:21 01.11.2019
5198 Clouds 23 1010 83 10000 8.7 160 21:43 01.11.2019
5199 Clouds 23 1010 83 10000 8.7 160 21:24 01.11.2019
5200 Clouds 23 1011 83 10000 8.2 170 20:59 01.11.2019
5201 Clouds 23 1011 83 10000 8.2 170 20:41 01.11.2019
5202 Clouds 23 1011 83 10000 8.2 170 20:23 01.11.2019
5203 Clouds 24 1011 78 10000 7.2 170 19:59 01.11.2019
5204 Clouds 24 1011 78 10000 7.2 170 19:59 01.11.2019
5205 Clouds 24 1011 78 10000 7.2 170 19:59 01.11.2019
5206 Clouds 24 1011 78 10000 7.2 170 19:40 01.11.2019
5207 Clouds 24 1011 78 10000 7.2 170 19:21 01.11.2019
5208 Clouds 24 1012 78 10000 7.2 160 18:41 01.11.2019
5209 Clouds 24 1012 78 10000 7.2 160 18:21 01.11.2019
5210 Drizzle 23 1013 83 10000 7.7 160 17:58 01.11.2019
5211 Drizzle 23 1013 83 10000 7.7 160 17:40 01.11.2019
5212 Drizzle 23 1013 83 10000 7.7 160 17:22 01.11.2019
5213 Clouds 23 1013 83 10000 9.3 150 16:40 01.11.2019
5214 Clouds 23 1013 83 10000 9.3 150 16:20 01.11.2019
5215 Clouds 22 1013 88 10000 5.7 160 15:56 01.11.2019
5216 Clouds 22 1013 88 10000 5.7 160 15:38 01.11.2019
5217 Clouds 22 1013 88 10000 5.7 160 15:20 01.11.2019
5218 Rain 21 1013 88 10000 6.7 150 14:43 01.11.2019
5219 Rain 21 1013 88 10000 6.7 150 14:24 01.11.2019
5220 Rain 20 1012 94 10000 6.7 140 13:58 01.11.2019
5221 Rain 20 1012 94 10000 6.7 140 13:39 01.11.2019
5222 Rain 20 1012 94 10000 6.7 140 13:21 01.11.2019
5223 Rain 21 1013 91 0 6.57 157 12:44 01.11.2019
5224 Rain 21 1013 91 0 6.57 157 12:26 01.11.2019
5225 Rain 21 1013 91 0 6.57 157 11:59 01.11.2019
5226 Rain 21 1013 91 0 6.57 157 11:40 01.11.2019
5227 Clouds 21 1013 90 0 6.37 157 11:22 01.11.2019
5228 Clouds 21 1013 90 0 6.37 157 10:42 01.11.2019
5229 Clouds 21 1013 90 0 6.37 157 10:24 01.11.2019
5230 Clouds 21 1013 90 0 6.37 157 09:58 01.11.2019
5231 Clouds 21 1013 90 0 6.37 157 09:40 01.11.2019
5232 Clouds 21 1013 90 0 6.37 157 09:20 01.11.2019
5233 Clouds 21 1013 90 0 6.37 157 08:44 01.11.2019
5234 Clouds 21 1014 89 0 6.32 167 08:22 01.11.2019
5235 Clouds 21 1014 89 0 6.32 167 07:56 01.11.2019
5236 Clouds 21 1014 89 0 6.32 167 07:37 01.11.2019
5237 Clouds 21 1014 89 0 6.32 167 07:19 01.11.2019
5238 Clouds 21 1014 89 0 6.32 167 06:41 01.11.2019
5239 Clouds 21 1014 89 0 6.32 167 06:22 01.11.2019
5240 Clouds 21 1014 89 0 6.32 167 05:43 01.11.2019
5241 Clouds 21 1014 89 0 6.27 174 03:42 01.11.2019
5242 Clouds 21 1014 89 0 6.27 174 02:49 01.11.2019
5243 Clouds 21 1010 94 10000 5.1 160 01:28 01.11.2019
5244 Clouds 22 1009 88 10000 8.2 160 00:39 01.11.2019
5245 Clouds 22 1009 88 10000 8.2 160 00:18 01.11.2019
5246 Rain 22 1009 88 10000 8.2 160 23:42 31.10.2019
5247 Rain 22 1009 88 10000 8.2 160 23:22 31.10.2019
5248 Clouds 23 1010 83 10000 6.2 160 22:55 31.10.2019
5249 Clouds 23 1010 83 10000 6.2 160 22:36 31.10.2019
5250 Clouds 23 1010 83 10000 6.2 160 22:18 31.10.2019
5251 Drizzle 23 1010 83 10000 7.7 160 21:41 31.10.2019
5252 Drizzle 23 1010 83 10000 7.7 160 21:41 31.10.2019
5253 Drizzle 23 1010 83 10000 7.7 160 21:20 31.10.2019
5254 Clouds 24 1011 78 10000 7.7 180 20:55 31.10.2019
5255 Clouds 24 1011 78 10000 7.7 180 20:37 31.10.2019
5256 Clouds 24 1011 78 10000 7.7 180 20:19 31.10.2019
5257 Clouds 24 1012 78 10000 6.2 150 19:40 31.10.2019
5258 Clouds 24 1012 78 10000 6.2 150 19:21 31.10.2019
5259 Clouds 24 1012 78 10000 6.2 150 19:21 31.10.2019
5260 Clouds 23 1012 83 10000 8.2 160 18:55 31.10.2019
5261 Clouds 23 1012 83 10000 8.2 160 18:36 31.10.2019
5262 Clouds 23 1012 83 10000 8.2 160 18:18 31.10.2019
5263 Drizzle 22 1013 88 10000 5.7 170 17:41 31.10.2019
5264 Drizzle 22 1013 88 10000 5.7 170 17:20 31.10.2019
5265 Drizzle 21 1013 94 8000 6.2 160 16:55 31.10.2019
5266 Drizzle 21 1013 94 8000 6.2 160 16:37 31.10.2019
5267 Drizzle 21 1013 94 8000 6.2 160 16:18 31.10.2019
5268 Drizzle 21 1013 94 8000 6.2 160 16:18 31.10.2019
5269 Drizzle 21 1013 94 8000 7.2 160 15:40 31.10.2019
5270 Drizzle 21 1013 94 8000 7.2 160 15:40 31.10.2019
5271 Drizzle 21 1013 94 8000 7.2 160 15:22 31.10.2019
5272 Rain 20 1012 100 10000 6.2 170 14:59 31.10.2019
5273 Rain 20 1012 100 10000 6.2 170 14:41 31.10.2019
5274 Rain 20 1012 100 10000 6.2 170 14:22 31.10.2019
5275 Drizzle 20 1011 94 10000 5.7 170 13:59 31.10.2019
5276 Drizzle 20 1011 94 10000 5.7 170 13:39 31.10.2019
5277 Drizzle 20 1011 94 10000 5.7 170 13:19 31.10.2019
5278 Rain 21 1013 91 0 6.28 166 12:57 31.10.2019
5279 Rain 21 1013 91 0 6.28 166 12:38 31.10.2019
5280 Rain 21 1013 91 0 6.28 166 12:18 31.10.2019
5281 Rain 21 1013 91 0 6.28 166 11:45 31.10.2019
5282 Clouds 21 1011 90 0 5.96 168 11:21 31.10.2019
5283 Clouds 21 1011 90 0 5.96 168 10:58 31.10.2019
5284 Clouds 21 1011 90 0 5.96 168 10:39 31.10.2019
5285 Clouds 21 1011 90 0 5.96 168 10:20 31.10.2019
5286 Clouds 21 1011 90 0 5.96 168 09:47 31.10.2019
5287 Clouds 21 1011 90 0 5.96 168 09:20 31.10.2019
5288 Clouds 21 1011 90 0 5.96 168 08:58 31.10.2019
5289 Clouds 21 1011 90 0 5.96 168 08:39 31.10.2019
5290 Clouds 21 1011 90 0 5.96 168 08:39 31.10.2019
5291 Clouds 21 1012 88 0 5.5 176 08:21 31.10.2019
5292 Clouds 21 1013 89 0 5.47 173 07:46 31.10.2019
5293 Clouds 21 1013 89 0 5.47 173 07:26 31.10.2019
5294 Clouds 21 1013 89 0 5.47 173 06:52 31.10.2019
5295 Clouds 21 1013 89 0 5.47 173 06:31 31.10.2019
5296 Clouds 21 1013 90 0 5.19 178 05:20 31.10.2019
5297 Clouds 21 1013 90 0 5.19 178 05:20 31.10.2019
5298 Clouds 21 1013 90 0 5.19 178 02:50 31.10.2019
5299 Drizzle 21 1008 94 10000 5.7 170 02:25 31.10.2019
5300 Drizzle 21 1008 94 10000 5.7 170 02:25 31.10.2019
5301 Drizzle 21 1008 94 10000 5.7 170 01:20 31.10.2019
5302 Drizzle 22 1008 88 8000 5.1 180 00:26 31.10.2019
5303 Clouds 24 1008 78 10000 6.7 160 23:42 30.10.2019
5304 Clouds 24 1008 78 10000 6.7 160 23:23 30.10.2019
5305 Clouds 25 1008 73 10000 6.7 160 22:42 30.10.2019
5306 Clouds 25 1008 73 10000 6.7 160 22:19 30.10.2019
5307 Clouds 25 1008 73 10000 6.7 190 21:55 30.10.2019
5308 Clouds 25 1008 73 10000 6.7 190 21:37 30.10.2019
5309 Clouds 25 1008 73 10000 6.7 190 21:37 30.10.2019
5310 Clouds 25 1008 73 10000 6.7 190 21:18 30.10.2019
5311 Clouds 25 1009 73 10000 8.2 200 20:57 30.10.2019
5312 Clouds 25 1009 73 10000 8.2 200 20:37 30.10.2019
5313 Clouds 25 1009 73 10000 8.2 200 20:37 30.10.2019
5314 Clouds 25 1009 73 10000 8.2 200 20:19 30.10.2019
5315 Clouds 25 1010 69 10000 7.2 200 19:43 30.10.2019
5316 Clouds 25 1010 69 10000 7.2 200 19:24 30.10.2019
5317 Clouds 24 1011 73 10000 6.2 180 18:59 30.10.2019
5318 Clouds 24 1011 73 10000 6.2 180 18:38 30.10.2019
5319 Clouds 24 1011 73 10000 6.2 180 18:19 30.10.2019
5320 Clouds 24 1011 73 10000 6.7 160 17:56 30.10.2019
5321 Clouds 24 1011 73 10000 6.7 160 17:37 30.10.2019
5322 Clouds 24 1011 73 10000 6.7 160 17:37 30.10.2019
5323 Clouds 24 1011 73 10000 6.7 160 17:37 30.10.2019
5324 Clouds 24 1011 73 10000 6.7 160 17:18 30.10.2019
5325 Clouds 22 1012 83 10000 5.1 150 16:42 30.10.2019
5326 Clouds 22 1012 83 10000 5.1 150 16:24 30.10.2019
5327 Clouds 22 1011 83 10000 6.7 160 15:59 30.10.2019
5328 Clouds 22 1011 83 10000 6.7 160 15:39 30.10.2019
5329 Clouds 22 1011 83 10000 6.7 160 15:20 30.10.2019
5330 Clouds 21 1010 88 10000 6.2 190 14:59 30.10.2019
5331 Clouds 21 1010 88 10000 6.2 190 14:40 30.10.2019
5332 Clouds 21 1010 88 10000 6.2 190 14:21 30.10.2019
5333 Clouds 21 1009 88 10000 4.6 150 13:55 30.10.2019
5334 Clouds 21 1009 88 10000 4.6 150 13:55 30.10.2019
5335 Clouds 21 1009 88 10000 4.6 150 13:36 30.10.2019
5336 Clouds 21 1009 88 10000 4.6 150 13:18 30.10.2019
5337 Clouds 21 1012 87 0 5.58 150 12:44 30.10.2019
5338 Clouds 21 1012 87 0 5.58 150 12:25 30.10.2019
5339 Clouds 21 1012 87 0 5.58 150 11:58 30.10.2019
5340 Clouds 21 1012 87 0 5.58 150 11:40 30.10.2019
5341 Clouds 21 1011 87 0 6.71 169 11:19 30.10.2019
5342 Clouds 21 1011 87 0 6.71 169 10:43 30.10.2019
5343 Clouds 21 1011 87 0 6.71 169 10:23 30.10.2019
5344 Clouds 21 1011 87 0 6.71 169 09:42 30.10.2019
5345 Clouds 21 1011 87 0 6.71 169 09:42 30.10.2019
5346 Clouds 21 1011 87 0 6.71 169 09:23 30.10.2019
5347 Clouds 21 1011 87 0 6.71 169 08:57 30.10.2019
5348 Clouds 21 1011 87 0 6.71 169 08:39 30.10.2019
5349 Clouds 21 1012 86 0 6.63 177 08:19 30.10.2019
5350 Clouds 21 1012 86 0 6.63 177 07:43 30.10.2019
5351 Clouds 21 1012 86 0 6.63 177 06:59 30.10.2019
5352 Clouds 21 1012 86 0 6.63 177 06:41 30.10.2019
5353 Clouds 21 1012 86 0 6.63 177 05:58 30.10.2019
5354 Clouds 21 1012 86 0 6.63 177 05:40 30.10.2019
5355 Clouds 21 1013 88 0 7.17 184 04:26 30.10.2019
5356 Clouds 21 1013 88 0 7.17 184 04:26 30.10.2019
5357 Clouds 21 1013 88 0 7.17 184 03:39 30.10.2019
5358 Clouds 21 1013 88 0 7.17 184 02:49 30.10.2019
5359 Clouds 22 1008 83 10000 7.7 180 01:49 30.10.2019
5360 Clouds 23 1008 73 10000 6.2 190 00:43 30.10.2019
5361 Clouds 23 1008 73 10000 6.2 190 00:25 30.10.2019
5362 Clouds 24 1008 73 10000 7.2 170 23:41 29.10.2019
5363 Clouds 24 1008 73 10000 7.2 170 23:22 29.10.2019
5364 Clouds 24 1009 73 10000 7.2 180 22:45 29.10.2019
5365 Clouds 24 1009 73 10000 7.2 180 22:20 29.10.2019
5366 Clouds 24 1009 73 10000 7.7 170 21:55 29.10.2019
5367 Clouds 24 1009 73 10000 7.7 170 21:37 29.10.2019
5368 Clouds 24 1009 73 10000 7.7 170 21:19 29.10.2019
5369 Clouds 25 1010 69 10000 6.7 170 20:42 29.10.2019
5370 Clouds 25 1010 69 10000 6.7 170 20:23 29.10.2019
5371 Clouds 24 1011 73 10000 6.7 200 19:59 29.10.2019
5372 Clouds 24 1011 73 10000 6.7 200 19:40 29.10.2019
5373 Clouds 24 1011 73 10000 6.7 200 19:22 29.10.2019
5374 Clouds 24 1012 73 10000 6.2 180 18:59 29.10.2019
5375 Clouds 24 1012 73 10000 6.2 180 18:40 29.10.2019
5376 Clouds 24 1012 73 10000 6.2 180 18:21 29.10.2019
5377 Clouds 23 1012 78 10000 4.6 170 17:58 29.10.2019
5378 Clouds 23 1012 78 10000 4.6 170 17:39 29.10.2019
5379 Clouds 23 1012 78 10000 4.6 170 17:21 29.10.2019
5380 Clouds 23 1012 73 10000 5.7 200 16:57 29.10.2019
5381 Clouds 23 1012 73 10000 5.7 200 16:38 29.10.2019
5382 Clouds 23 1012 73 10000 5.7 200 16:18 29.10.2019
5383 Clouds 23 1012 78 10000 6.2 160 15:42 29.10.2019
5384 Clouds 23 1012 78 10000 6.2 160 15:21 29.10.2019
5385 Clouds 22 1011 78 10000 7.2 180 14:57 29.10.2019
5386 Clouds 22 1011 78 10000 7.2 180 14:39 29.10.2019
5387 Clouds 22 1011 78 10000 7.2 180 14:21 29.10.2019
5388 Clouds 21 1010 83 10000 5.1 160 13:57 29.10.2019
5389 Clouds 21 1010 83 10000 5.1 160 13:36 29.10.2019
5390 Clouds 21 1010 83 10000 5.1 160 13:18 29.10.2019
5391 Clouds 21 1010 83 10000 5.1 160 13:18 29.10.2019
5392 Clouds 21 1012 86 0 6.16 177 12:42 29.10.2019
5393 Clouds 21 1012 86 0 6.16 177 12:24 29.10.2019
5394 Clouds 21 1012 86 0 6.16 177 11:54 29.10.2019
5395 Clouds 21 1012 86 0 6.16 177 11:36 29.10.2019
5396 Clouds 21 1011 86 0 6.97 173 11:18 29.10.2019
5397 Clouds 21 1011 86 0 6.97 173 10:55 29.10.2019
5398 Clouds 21 1011 86 0 6.97 173 10:36 29.10.2019
5399 Clouds 21 1011 86 0 6.97 173 10:18 29.10.2019
5400 Clouds 21 1011 86 0 6.97 173 09:41 29.10.2019
5401 Clouds 21 1011 86 0 6.97 173 09:41 29.10.2019
5402 Clouds 21 1011 86 0 6.97 173 09:23 29.10.2019
5403 Clouds 21 1011 86 0 6.97 173 08:55 29.10.2019
5404 Clouds 21 1011 86 0 6.97 173 08:36 29.10.2019
5405 Clouds 21 1013 85 0 7.15 177 08:18 29.10.2019
5406 Clouds 21 1013 85 0 7.15 177 07:47 29.10.2019
5407 Clouds 21 1013 85 0 7.15 177 07:19 29.10.2019
5408 Clouds 21 1013 85 0 7.15 177 06:46 29.10.2019
5409 Clouds 21 1013 85 0 7.15 177 06:26 29.10.2019
5410 Clouds 21 1013 85 0 7.15 177 05:52 29.10.2019
5411 Clouds 21 1013 85 0 7.15 177 05:34 29.10.2019
5412 Clouds 21 1013 83 0 6.16 184 04:32 29.10.2019
5413 Clouds 21 1009 88 10000 5.1 180 02:34 29.10.2019
5414 Clouds 21 1009 88 10000 5.1 180 01:49 29.10.2019
5415 Clouds 21 1009 88 10000 5.1 180 01:23 29.10.2019
5416 Clouds 22 1009 83 10000 4.6 180 00:48 29.10.2019
5417 Clouds 23 1009 78 10000 5.1 190 23:44 28.10.2019
5418 Clouds 23 1009 78 10000 5.1 190 23:21 28.10.2019
5419 Clouds 24 1009 73 10000 7.7 190 22:59 28.10.2019
5420 Clouds 24 1009 73 10000 7.7 190 22:38 28.10.2019
5421 Clouds 24 1009 73 10000 7.7 190 22:18 28.10.2019
5422 Clouds 24 1009 73 10000 5.7 180 21:56 28.10.2019
5423 Clouds 24 1009 73 10000 5.7 180 21:38 28.10.2019
5424 Clouds 24 1009 73 10000 5.7 180 21:20 28.10.2019
5425 Clouds 25 1011 69 10000 5.7 180 20:54 28.10.2019
5426 Clouds 25 1011 69 10000 5.7 180 20:36 28.10.2019
5427 Clouds 25 1011 69 10000 5.7 180 20:18 28.10.2019
5428 Clouds 25 1011 69 10000 7.2 160 19:39 28.10.2019
5429 Clouds 25 1011 69 10000 7.2 160 19:21 28.10.2019
5430 Clouds 25 1011 69 10000 7.2 160 19:21 28.10.2019
5431 Clouds 25 1012 69 10000 6.2 180 18:59 28.10.2019
5432 Clouds 25 1012 69 10000 6.2 180 18:59 28.10.2019
5433 Clouds 25 1012 69 10000 6.2 180 18:41 28.10.2019
5434 Clouds 25 1012 69 10000 6.2 180 18:21 28.10.2019
5435 Clouds 24 1013 73 10000 5.1 180 17:57 28.10.2019
5436 Clouds 24 1013 73 10000 5.1 180 17:38 28.10.2019
5437 Clouds 24 1013 73 10000 5.1 180 17:19 28.10.2019
5438 Clouds 23 1013 78 10000 5.7 180 16:57 28.10.2019
5439 Clouds 23 1013 78 10000 5.7 180 16:57 28.10.2019
5440 Clouds 23 1013 78 10000 5.7 180 16:39 28.10.2019
5441 Clouds 23 1013 78 10000 5.7 180 16:20 28.10.2019
5442 Clouds 22 1013 88 10000 4.1 190 15:58 28.10.2019
5443 Clouds 22 1013 88 10000 4.1 190 15:58 28.10.2019
5444 Clouds 22 1013 88 10000 4.1 190 15:39 28.10.2019
5445 Clouds 22 1013 88 10000 4.1 190 15:20 28.10.2019
5446 Clouds 21 1012 88 10000 4.1 180 14:56 28.10.2019
5447 Clouds 21 1012 88 10000 4.1 180 14:38 28.10.2019
5448 Clouds 21 1012 88 10000 4.1 180 14:18 28.10.2019
5449 Clouds 20 1012 94 10000 3.1 200 13:54 28.10.2019
5450 Clouds 20 1012 94 10000 3.1 200 13:36 28.10.2019
5451 Clouds 20 1012 94 10000 3.1 200 13:18 28.10.2019
5452 Rain 21 1013 86 0 6.02 197 12:41 28.10.2019
5453 Rain 21 1013 86 0 6.02 197 12:20 28.10.2019
5454 Rain 21 1013 86 0 6.02 197 11:40 28.10.2019
5455 Rain 21 1013 86 0 5.31 200 11:21 28.10.2019
5456 Rain 21 1013 86 0 5.31 200 10:57 28.10.2019
5457 Rain 21 1013 86 0 5.31 200 10:38 28.10.2019
5458 Rain 21 1013 86 0 5.31 200 10:19 28.10.2019
5459 Rain 21 1013 86 0 5.31 200 09:55 28.10.2019
5460 Rain 21 1013 86 0 5.31 200 09:36 28.10.2019
5461 Rain 21 1013 86 0 5.31 200 09:18 28.10.2019
5462 Rain 21 1013 86 0 5.31 200 08:56 28.10.2019
5463 Rain 21 1013 86 0 5.31 200 08:37 28.10.2019
5464 Clouds 21 1013 84 0 5.26 197 08:18 28.10.2019
5465 Clouds 21 1013 84 0 5.26 197 07:43 28.10.2019
5466 Clouds 21 1013 84 0 5.26 197 07:21 28.10.2019
5467 Clouds 21 1013 84 0 5.26 197 06:56 28.10.2019
5468 Clouds 21 1013 84 0 5.26 197 06:34 28.10.2019
5469 Clouds 21 1013 85 0 5.39 188 04:49 28.10.2019
5470 Clouds 21 1013 85 0 5.39 188 03:44 28.10.2019
5471 Clouds 21 1013 85 0 5.39 188 02:45 28.10.2019
5472 Clouds 21 1008 88 10000 4.1 150 01:36 28.10.2019
5473 Clouds 21 1008 88 10000 5.1 150 00:46 28.10.2019
5474 Clouds 21 1008 88 10000 5.1 150 00:23 28.10.2019
5475 Clouds 22 1008 83 10000 6.2 170 23:44 27.10.2019
5476 Clouds 22 1008 83 10000 6.2 170 23:21 27.10.2019
5477 Clouds 22 1008 83 10000 3.1 180 22:56 27.10.2019
5478 Clouds 22 1008 83 10000 3.1 180 22:36 27.10.2019
5479 Clouds 22 1008 83 10000 3.1 180 22:18 27.10.2019
5480 Rain 21 1008 88 10000 2.1 330 21:40 27.10.2019
5481 Rain 21 1008 88 10000 2.1 330 21:22 27.10.2019
5482 Drizzle 21 1010 88 10000 2.6 330 20:59 27.10.2019
5483 Drizzle 21 1010 88 10000 2.6 330 20:40 27.10.2019
5484 Drizzle 21 1010 88 10000 2.6 330 20:22 27.10.2019
5485 Drizzle 22 1011 83 10000 3.1 350 19:57 27.10.2019
5486 Drizzle 22 1011 83 10000 3.1 350 19:37 27.10.2019
5487 Drizzle 22 1011 83 10000 3.1 350 19:19 27.10.2019
5488 Rain 22 1012 83 10000 4.1 30 18:56 27.10.2019
5489 Rain 22 1012 83 10000 4.1 30 18:37 27.10.2019
5490 Rain 22 1012 83 10000 4.1 30 18:19 27.10.2019
5491 Rain 23 1012 78 10000 4.6 160 17:41 27.10.2019
5492 Rain 23 1012 78 10000 4.6 160 17:22 27.10.2019
5493 Drizzle 21 1012 88 10000 3.6 140 16:59 27.10.2019
5494 Drizzle 21 1012 88 10000 3.6 140 16:40 27.10.2019
5495 Drizzle 21 1012 88 10000 3.6 140 16:40 27.10.2019
5496 Drizzle 21 1012 88 10000 3.6 140 16:22 27.10.2019
5497 Clouds 21 1012 88 10000 2.1 160 15:58 27.10.2019
5498 Clouds 21 1012 88 10000 2.1 160 15:39 27.10.2019
5499 Clouds 21 1012 88 10000 2.1 160 15:20 27.10.2019
5500 Clouds 21 1011 88 10000 2.1 130 14:44 27.10.2019
5501 Clouds 21 1011 88 10000 2.1 130 14:24 27.10.2019
5502 Rain 20 1010 88 10000 2.6 60 13:59 27.10.2019
5503 Rain 20 1010 88 10000 2.6 60 13:40 27.10.2019
5504 Rain 20 1010 88 10000 2.6 60 13:22 27.10.2019
5505 Rain 21 1012 87 0 4.04 159 12:59 27.10.2019
5506 Rain 21 1012 87 0 4.04 159 12:41 27.10.2019
5507 Rain 21 1012 87 0 4.04 159 12:23 27.10.2019
5508 Rain 21 1012 87 0 4.04 159 11:42 27.10.2019
5509 Rain 21 1012 87 0 4.04 159 11:24 27.10.2019
5510 Rain 21 1011 86 0 3.31 153 10:55 27.10.2019
5511 Rain 21 1011 86 0 3.31 153 10:37 27.10.2019
5512 Rain 21 1011 86 0 3.31 153 10:18 27.10.2019
5513 Rain 21 1011 86 0 3.31 153 09:42 27.10.2019
5514 Rain 21 1011 86 0 3.31 153 09:19 27.10.2019
5515 Rain 21 1011 86 0 3.31 153 08:56 27.10.2019
5516 Clouds 21 1011 86 0 3.3 150 08:37 27.10.2019
5517 Clouds 21 1011 86 0 3.3 150 08:37 27.10.2019
5518 Rain 21 1012 82 0 3.75 157 08:18 27.10.2019
5519 Rain 21 1012 82 0 3.75 157 08:18 27.10.2019
5520 Rain 21 1012 82 0 3.75 157 07:45 27.10.2019
5521 Rain 21 1012 82 0 3.75 157 07:24 27.10.2019
5522 Rain 21 1012 82 0 3.75 157 06:51 27.10.2019
5523 Rain 21 1012 82 0 3.75 157 06:27 27.10.2019
5524 Rain 21 1012 82 0 3.75 157 05:45 27.10.2019
5525 Clouds 21 1013 83 0 3.93 156 04:55 27.10.2019
5526 Clouds 21 1013 83 0 3.93 156 03:24 27.10.2019
5527 Clouds 21 1009 88 10000 4.6 150 02:21 27.10.2019
5528 Clouds 22 1008 83 10000 5.1 150 01:51 27.10.2019
5529 Clouds 22 1008 83 10000 5.1 150 01:23 27.10.2019
5530 Clouds 23 1008 78 10000 6.7 160 00:48 27.10.2019
5531 Clouds 23 1008 78 10000 6.7 160 00:28 27.10.2019
5532 Clouds 24 1008 73 10000 6.7 160 23:56 26.10.2019
5533 Clouds 24 1008 73 10000 6.7 160 23:38 26.10.2019
5534 Clouds 24 1008 73 10000 6.7 160 23:20 26.10.2019
5535 Clouds 24 1009 73 10000 7.2 170 22:55 26.10.2019
5536 Clouds 24 1009 73 10000 7.2 170 22:36 26.10.2019
5537 Clouds 24 1009 73 10000 7.2 170 22:18 26.10.2019
5538 Clouds 24 1009 73 10000 7.2 170 22:18 26.10.2019
5539 Clouds 24 1010 73 10000 7.2 150 21:43 26.10.2019
5540 Clouds 24 1010 73 10000 7.2 150 21:21 26.10.2019
5541 Clouds 24 1010 69 10000 7.7 160 20:55 26.10.2019
5542 Clouds 24 1010 69 10000 7.7 160 20:36 26.10.2019
5543 Clouds 24 1010 69 10000 7.7 160 20:18 26.10.2019
5544 Clouds 24 1011 69 10000 7.2 160 19:41 26.10.2019
5545 Clouds 24 1011 69 10000 7.2 160 19:20 26.10.2019
5546 Clouds 24 1012 73 10000 4.6 160 18:56 26.10.2019
5547 Clouds 24 1012 73 10000 4.6 160 18:56 26.10.2019
5548 Clouds 24 1012 73 10000 4.6 160 18:38 26.10.2019
5549 Clouds 24 1012 73 10000 4.6 160 18:18 26.10.2019
5550 Clouds 23 1012 73 10000 4.1 140 17:56 26.10.2019
5551 Clouds 23 1012 73 10000 4.1 140 17:36 26.10.2019
5552 Clouds 23 1012 73 10000 4.1 140 17:18 26.10.2019
5553 Clouds 22 1011 83 10000 5.7 130 16:43 26.10.2019
5554 Clouds 22 1011 83 10000 5.7 130 16:24 26.10.2019
5555 Clouds 22 1011 83 10000 5.7 130 16:24 26.10.2019
5556 Clouds 21 1011 88 10000 5.1 160 15:43 26.10.2019
5557 Clouds 21 1011 88 10000 5.1 160 15:20 26.10.2019
5558 Clouds 21 1011 88 10000 6.2 150 14:54 26.10.2019
5559 Clouds 21 1011 88 10000 6.2 150 14:36 26.10.2019
5560 Clouds 21 1011 88 10000 6.2 150 14:18 26.10.2019
5561 Clouds 21 1012 85 0 5.58 141 13:41 26.10.2019
5562 Clouds 21 1012 85 0 5.58 141 13:21 26.10.2019
5563 Clouds 21 1012 85 0 5.58 141 12:48 26.10.2019
5564 Clouds 21 1012 85 0 5.58 141 12:25 26.10.2019
5565 Clouds 21 1011 85 0 4.67 152 11:50 26.10.2019
5566 Clouds 21 1011 85 0 4.67 152 11:29 26.10.2019
5567 Clouds 21 1011 85 0 4.67 152 10:55 26.10.2019
5568 Clouds 21 1011 85 0 4.67 152 10:36 26.10.2019
5569 Clouds 21 1011 85 0 4.67 152 10:18 26.10.2019
5570 Clouds 21 1011 85 0 4.67 152 09:43 26.10.2019
5571 Clouds 21 1011 85 0 4.78 152 09:25 26.10.2019
5572 Clouds 21 1012 87 0 5.09 160 08:43 26.10.2019
5573 Clouds 21 1012 87 0 5.09 160 08:25 26.10.2019
5574 Clouds 21 1012 87 0 5.09 160 07:54 26.10.2019
5575 Clouds 21 1012 87 0 5.09 160 07:28 26.10.2019
5576 Clouds 21 1012 87 0 5.09 160 06:45 26.10.2019
5577 Clouds 21 1012 87 0 5.09 160 06:26 26.10.2019
5578 Clouds 21 1013 85 0 5.75 162 05:21 26.10.2019
5579 Clouds 21 1013 85 0 5.75 162 04:24 26.10.2019
5580 Clouds 22 1009 78 10000 6.7 190 02:47 26.10.2019
5581 Clouds 22 1008 78 10000 7.2 200 01:55 26.10.2019
5582 Clouds 22 1008 78 10000 7.2 200 01:22 26.10.2019
5583 Clouds 23 1008 73 10000 7.7 190 00:24 26.10.2019
5584 Clouds 24 1008 73 10000 7.7 180 23:43 25.10.2019
5585 Clouds 24 1008 73 10000 7.7 180 23:20 25.10.2019
5586 Clouds 23 1009 78 10000 7.2 180 22:40 25.10.2019
5587 Clouds 23 1009 78 10000 7.2 180 22:22 25.10.2019
5588 Clouds 24 1010 73 10000 7.2 170 21:58 25.10.2019
5589 Clouds 24 1010 73 10000 7.2 170 21:58 25.10.2019
5590 Clouds 24 1010 73 10000 7.2 170 21:39 25.10.2019
5591 Clouds 24 1010 73 10000 7.2 170 21:19 25.10.2019
5592 Clouds 24 1010 73 10000 7.2 170 21:19 25.10.2019
5593 Clouds 24 1011 73 10000 6.7 180 20:55 25.10.2019
5594 Clouds 24 1011 73 10000 6.7 180 20:37 25.10.2019
5595 Clouds 24 1011 73 10000 6.7 180 20:18 25.10.2019
5596 Clouds 24 1012 73 10000 7.7 190 19:43 25.10.2019
5597 Clouds 24 1012 73 10000 7.7 190 19:23 25.10.2019
5598 Clouds 23 1012 78 10000 7.2 180 18:44 25.10.2019
5599 Clouds 23 1012 78 10000 7.2 180 18:22 25.10.2019
5600 Clouds 23 1013 83 10000 7.7 190 17:41 25.10.2019
5601 Clouds 23 1013 83 10000 7.7 190 17:41 25.10.2019
5602 Clouds 23 1013 83 10000 7.7 190 17:21 25.10.2019
5603 Rain 21 1013 88 10000 5.7 170 16:54 25.10.2019
5604 Rain 21 1013 88 10000 5.7 170 16:36 25.10.2019
5605 Rain 21 1013 88 10000 5.7 170 16:18 25.10.2019
5606 Drizzle 20 1012 94 8000 6.2 190 15:40 25.10.2019
5607 Drizzle 20 1012 94 8000 6.2 190 15:21 25.10.2019
5608 Drizzle 20 1011 94 10000 5.1 180 14:58 25.10.2019
5609 Drizzle 20 1011 94 10000 5.1 180 14:58 25.10.2019
5610 Drizzle 20 1011 94 10000 5.1 180 14:39 25.10.2019
5611 Drizzle 20 1011 94 10000 5.1 180 14:20 25.10.2019
5612 Clouds 21 1013 84 0 6.24 184 13:41 25.10.2019
5613 Clouds 21 1013 84 0 6.24 184 13:23 25.10.2019
5614 Clouds 21 1013 84 0 6.24 184 12:55 25.10.2019
5615 Clouds 21 1013 84 0 6.24 184 12:37 25.10.2019
5616 Rain 21 1012 86 0 6.52 186 12:19 25.10.2019
5617 Rain 21 1012 86 0 6.52 186 11:40 25.10.2019
5618 Rain 21 1012 86 0 6.52 186 11:22 25.10.2019
5619 Rain 21 1012 86 0 6.52 186 10:57 25.10.2019
5620 Rain 21 1012 86 0 6.52 186 10:36 25.10.2019
5621 Rain 21 1012 86 0 6.52 186 10:36 25.10.2019
5622 Rain 21 1012 86 0 6.52 186 10:18 25.10.2019
5623 Rain 21 1012 86 0 6.52 186 09:41 25.10.2019
5624 Rain 21 1013 87 0 6.24 186 09:21 25.10.2019
5625 Rain 21 1013 87 0 6.24 186 08:56 25.10.2019
5626 Rain 21 1013 87 0 6.24 186 08:38 25.10.2019
5627 Rain 21 1013 87 0 6.24 186 08:19 25.10.2019
5628 Rain 21 1013 87 0 6.24 186 07:44 25.10.2019
5629 Rain 21 1013 87 0 6.24 186 07:26 25.10.2019
5630 Rain 21 1013 87 0 6.24 186 06:37 25.10.2019
5631 Clouds 21 1014 84 0 6.36 177 05:48 25.10.2019
5632 Clouds 21 1014 84 0 6.36 177 05:28 25.10.2019
5633 Clouds 21 1014 84 0 6.36 177 04:19 25.10.2019
5634 Clouds 21 1008 88 10000 5.1 190 02:34 25.10.2019
5635 Clouds 21 1008 88 10000 5.7 180 01:52 25.10.2019
5636 Clouds 22 1008 83 10000 7.7 180 00:30 25.10.2019
5637 Rain 22 1008 83 10000 7.2 190 23:42 24.10.2019
5638 Rain 22 1008 83 10000 7.2 190 23:24 24.10.2019
5639 Rain 22 1009 83 10000 6.2 180 22:57 24.10.2019
5640 Rain 22 1009 83 10000 6.2 180 22:38 24.10.2019
5641 Rain 22 1009 83 10000 6.2 180 22:19 24.10.2019
5642 Rain 22 1009 83 10000 6.2 180 22:19 24.10.2019
5643 Drizzle 22 1009 83 10000 6.7 190 21:57 24.10.2019
5644 Drizzle 22 1009 83 10000 6.7 190 21:38 24.10.2019
5645 Drizzle 22 1009 83 10000 6.7 190 21:38 24.10.2019
5646 Drizzle 22 1009 83 10000 6.7 190 21:19 24.10.2019
5647 Drizzle 22 1009 83 10000 6.7 190 21:19 24.10.2019
5648 Clouds 23 1010 73 10000 7.2 170 20:57 24.10.2019
5649 Clouds 23 1010 73 10000 7.2 170 20:38 24.10.2019
5650 Clouds 23 1010 73 10000 7.2 170 20:20 24.10.2019
5651 Clouds 22 1012 83 10000 6.2 180 19:54 24.10.2019
5652 Clouds 22 1012 83 10000 6.2 180 19:54 24.10.2019
5653 Clouds 22 1012 83 10000 6.2 180 19:36 24.10.2019
5654 Clouds 22 1012 83 10000 6.2 180 19:18 24.10.2019
5655 Clouds 22 1012 83 10000 6.2 180 19:18 24.10.2019
5656 Clouds 22 1012 78 10000 6.2 170 18:40 24.10.2019
5657 Clouds 22 1012 78 10000 6.2 170 18:22 24.10.2019
5658 Clouds 22 1012 78 10000 6.7 170 17:59 24.10.2019
5659 Clouds 22 1012 78 10000 6.7 170 17:39 24.10.2019
5660 Clouds 22 1012 78 10000 6.7 170 17:20 24.10.2019
5661 Clouds 21 1012 83 10000 6.7 170 16:55 24.10.2019
5662 Clouds 21 1012 83 10000 6.7 170 16:37 24.10.2019
5663 Clouds 21 1012 83 10000 6.7 170 16:18 24.10.2019
5664 Clouds 21 1011 83 10000 5.1 160 15:55 24.10.2019
5665 Clouds 21 1011 83 10000 5.1 160 15:37 24.10.2019
5666 Clouds 21 1011 83 10000 5.1 160 15:18 24.10.2019
5667 Clouds 21 1010 83 10000 4.1 160 14:44 24.10.2019
5668 Clouds 21 1010 83 10000 4.1 160 14:44 24.10.2019
5669 Clouds 21 1010 83 10000 4.1 160 14:26 24.10.2019
5670 Clouds 21 1013 85 0 6.3 160 13:59 24.10.2019
5671 Clouds 21 1013 85 0 6.3 160 13:38 24.10.2019
5672 Clouds 21 1013 85 0 6.3 160 13:19 24.10.2019
5673 Clouds 21 1013 85 0 6.3 160 12:56 24.10.2019
5674 Clouds 21 1013 85 0 6.3 160 12:37 24.10.2019
5675 Clouds 21 1012 85 0 5.9 152 12:18 24.10.2019
5676 Clouds 21 1012 85 0 5.9 152 11:55 24.10.2019
5677 Clouds 21 1012 85 0 5.9 152 11:36 24.10.2019
5678 Clouds 21 1012 85 0 5.9 152 11:36 24.10.2019
5679 Clouds 21 1012 85 0 5.9 152 11:18 24.10.2019
5680 Clouds 21 1012 85 0 5.9 152 10:42 24.10.2019
5681 Clouds 21 1012 85 0 5.9 152 10:23 24.10.2019
5682 Clouds 21 1011 85 0 5.95 153 09:40 24.10.2019
5683 Clouds 21 1011 85 0 5.95 153 09:40 24.10.2019
5684 Clouds 21 1012 86 0 6.86 158 09:19 24.10.2019
5685 Clouds 21 1012 86 0 6.86 158 08:58 24.10.2019
5686 Clouds 21 1012 86 0 6.86 158 08:39 24.10.2019
5687 Clouds 21 1012 86 0 6.86 158 08:20 24.10.2019
5688 Clouds 21 1012 86 0 6.86 158 08:20 24.10.2019
5689 Clouds 21 1012 86 0 6.86 158 07:47 24.10.2019
5690 Clouds 21 1012 86 0 6.86 158 07:23 24.10.2019
5691 Clouds 21 1012 86 0 6.86 158 06:53 24.10.2019
5692 Clouds 21 1012 86 0 6.86 158 06:34 24.10.2019
5693 Clouds 21 1013 85 0 6.25 164 05:54 24.10.2019
5694 Clouds 21 1013 85 0 6.25 164 05:54 24.10.2019
5695 Clouds 21 1013 85 0 6.25 164 05:30 24.10.2019
5696 Clouds 21 1013 85 0 6.25 164 05:30 24.10.2019
5697 Clouds 21 1013 85 0 6.25 164 04:22 24.10.2019
5698 Clouds 22 1009 78 10000 6.7 170 03:29 24.10.2019
5699 Clouds 22 1009 78 10000 6.7 170 02:35 24.10.2019
5700 Clouds 22 1008 78 10000 7.7 170 01:59 24.10.2019
5701 Clouds 22 1008 78 10000 7.7 170 01:30 24.10.2019
5702 Clouds 24 1008 69 10000 7.2 170 00:53 24.10.2019
5703 Clouds 24 1008 69 10000 7.2 170 00:23 24.10.2019
5704 Clouds 24 1008 69 10000 7.7 170 23:44 23.10.2019
5705 Clouds 24 1008 69 10000 7.7 170 23:25 23.10.2019
5706 Clouds 24 1009 69 10000 7.2 170 22:58 23.10.2019
5707 Clouds 24 1009 69 10000 7.2 170 22:39 23.10.2019
5708 Clouds 24 1009 69 10000 7.2 170 22:39 23.10.2019
5709 Clouds 24 1009 69 10000 7.2 170 22:39 23.10.2019
5710 Clouds 24 1009 69 10000 7.2 170 22:19 23.10.2019
5711 Clouds 24 1010 69 10000 7.2 180 21:58 23.10.2019
5712 Clouds 24 1010 69 10000 7.2 180 21:39 23.10.2019
5713 Clouds 24 1010 69 10000 7.2 180 21:20 23.10.2019
5714 Clouds 24 1012 73 10000 5.7 180 20:58 23.10.2019
5715 Clouds 24 1012 73 10000 5.7 180 20:39 23.10.2019
5716 Clouds 24 1012 73 10000 5.7 180 20:21 23.10.2019
5717 Clouds 24 1013 69 10000 7.2 180 19:58 23.10.2019
5718 Clouds 24 1013 69 10000 7.2 180 19:40 23.10.2019
5719 Clouds 24 1013 69 10000 7.2 180 19:19 23.10.2019
5720 Clouds 22 1013 78 10000 6.2 170 18:55 23.10.2019
5721 Clouds 22 1013 78 10000 6.2 170 18:36 23.10.2019
5722 Clouds 22 1013 78 10000 6.2 170 18:18 23.10.2019
5723 Rain 22 1013 83 10000 5.1 190 17:44 23.10.2019
5724 Rain 22 1013 83 10000 5.1 190 17:20 23.10.2019
5725 Rain 22 1013 83 10000 5.1 190 17:20 23.10.2019
5726 Drizzle 21 1013 88 8000 4.1 180 16:57 23.10.2019
5727 Drizzle 21 1013 88 8000 4.1 180 16:38 23.10.2019
5728 Drizzle 21 1013 88 8000 4.1 180 16:19 23.10.2019
5729 Rain 21 1012 83 8000 5.1 180 15:42 23.10.2019
5730 Rain 21 1012 83 8000 5.1 180 15:22 23.10.2019
5731 Clouds 21 1011 83 10000 5.7 160 14:58 23.10.2019
5732 Clouds 21 1011 83 10000 5.7 160 14:38 23.10.2019
5733 Clouds 21 1011 83 10000 5.7 160 14:20 23.10.2019
5734 Clouds 20 1013 87 0 5.81 172 13:58 23.10.2019
5735 Clouds 20 1013 87 0 5.81 172 13:40 23.10.2019
5736 Clouds 20 1013 87 0 5.81 172 13:22 23.10.2019
5737 Clouds 20 1013 87 0 5.81 172 12:55 23.10.2019
5738 Clouds 20 1013 87 0 5.81 172 12:37 23.10.2019
5739 Rain 20 1013 87 0 5.72 167 12:18 23.10.2019
5740 Rain 20 1013 87 0 5.72 167 11:56 23.10.2019
5741 Rain 20 1013 87 0 5.72 167 11:56 23.10.2019
5742 Rain 20 1013 87 0 5.72 167 11:37 23.10.2019
5743 Rain 20 1013 87 0 5.72 167 11:19 23.10.2019
5744 Rain 20 1013 87 0 5.72 167 10:45 23.10.2019
5745 Rain 20 1013 87 0 5.72 167 10:25 23.10.2019
5746 Rain 20 1013 86 0 5.14 169 09:42 23.10.2019
5747 Clouds 20 1013 85 0 5.36 166 09:24 23.10.2019
5748 Clouds 20 1013 85 0 5.36 166 08:59 23.10.2019
5749 Clouds 20 1013 85 0 5.36 166 08:41 23.10.2019
5750 Clouds 20 1013 85 0 5.36 166 08:41 23.10.2019
5751 Clouds 20 1013 85 0 5.36 166 08:41 23.10.2019
5752 Clouds 20 1013 85 0 5.36 166 08:22 23.10.2019
5753 Clouds 20 1013 85 0 5.36 166 07:46 23.10.2019
5754 Clouds 20 1013 85 0 5.36 166 07:22 23.10.2019
5755 Clouds 20 1013 85 0 5.36 166 06:46 23.10.2019
5756 Clouds 21 1015 84 0 5.22 164 06:22 23.10.2019
5757 Clouds 21 1015 84 0 5.22 164 05:41 23.10.2019
5758 Clouds 21 1015 84 0 5.22 164 04:38 23.10.2019
5759 Rain 21 1011 88 10000 4.6 180 03:34 23.10.2019
5760 Rain 21 1011 88 10000 4.6 180 02:37 23.10.2019
5761 Drizzle 21 1011 88 10000 4.6 170 01:26 23.10.2019
5762 Rain 22 1010 83 10000 5.1 180 00:38 23.10.2019
5763 Rain 22 1010 83 10000 5.1 180 00:38 23.10.2019
5764 Rain 22 1010 83 10000 5.1 180 00:19 23.10.2019
5765 Drizzle 22 1010 83 8000 5.7 170 23:39 22.10.2019
5766 Drizzle 22 1010 83 8000 5.7 170 23:18 22.10.2019
5767 Drizzle 21 1011 88 10000 6.7 180 22:56 22.10.2019
5768 Drizzle 21 1011 88 10000 6.7 180 22:37 22.10.2019
5769 Drizzle 21 1011 88 10000 6.7 180 22:19 22.10.2019
5770 Rain 23 1012 83 10000 7.2 170 21:56 22.10.2019
5771 Rain 23 1012 83 10000 7.2 170 21:56 22.10.2019
5772 Rain 23 1012 83 10000 7.2 170 21:36 22.10.2019
5773 Rain 23 1012 83 10000 7.2 170 21:36 22.10.2019
5774 Rain 23 1012 83 10000 7.2 170 21:18 22.10.2019
5775 Rain 24 1013 78 10000 6.7 190 20:55 22.10.2019
5776 Rain 24 1013 78 10000 6.7 190 20:37 22.10.2019
5777 Rain 24 1013 78 10000 6.7 190 20:18 22.10.2019
5778 Clouds 24 1014 78 10000 6.7 190 19:42 22.10.2019
5779 Clouds 24 1014 78 10000 6.7 190 19:24 22.10.2019
5780 Clouds 22 1014 83 10000 6.2 190 18:57 22.10.2019
5781 Clouds 22 1014 83 10000 6.2 190 18:39 22.10.2019
5782 Clouds 22 1014 83 10000 6.2 190 18:20 22.10.2019
5783 Clouds 21 1014 88 10000 4.6 180 17:56 22.10.2019
5784 Clouds 21 1014 88 10000 4.6 180 17:37 22.10.2019
5785 Clouds 21 1014 88 10000 4.6 180 17:19 22.10.2019
5786 Rain 20 1014 100 5000 2.1 160 16:56 22.10.2019
5787 Rain 20 1014 100 5000 2.1 160 16:37 22.10.2019
5788 Rain 20 1014 100 5000 2.1 160 16:18 22.10.2019
5789 Drizzle 20 1014 94 5000 2.6 120 15:42 22.10.2019
5790 Drizzle 20 1014 94 5000 2.6 120 15:20 22.10.2019
5791 Rain 20 1015 86 0 5.23 177 14:50 22.10.2019
5792 Clouds 21 1013 88 10000 3.1 130 14:22 22.10.2019
5793 Rain 20 1014 84 0 4.8 180 13:59 22.10.2019
5794 Rain 20 1014 84 0 4.8 180 13:41 22.10.2019
5795 Rain 20 1014 84 0 4.8 180 13:19 22.10.2019
5796 Rain 20 1014 84 0 4.8 180 12:55 22.10.2019
5797 Rain 20 1014 84 0 4.8 180 12:37 22.10.2019
5798 Clouds 20 1013 86 0 4.42 180 12:19 22.10.2019
5799 Clouds 20 1013 86 0 4.42 180 11:40 22.10.2019
5800 Clouds 20 1013 86 0 4.42 180 11:22 22.10.2019
5801 Clouds 20 1013 86 0 4.42 180 10:59 22.10.2019
5802 Clouds 20 1013 86 0 4.42 180 10:38 22.10.2019
5803 Clouds 20 1013 86 0 4.42 180 10:19 22.10.2019
5804 Clouds 20 1013 86 0 4.42 180 09:57 22.10.2019
5805 Clouds 20 1013 86 0 3.99 182 09:39 22.10.2019
5806 Clouds 20 1013 86 0 4.42 180 09:39 22.10.2019
5807 Clouds 20 1015 84 0 3.64 177 09:21 22.10.2019
5808 Clouds 20 1015 84 0 3.64 177 08:43 22.10.2019
5809 Clouds 20 1015 84 0 3.64 177 08:22 22.10.2019
5810 Clouds 20 1015 84 0 3.64 177 07:57 22.10.2019
5811 Clouds 20 1015 84 0 3.64 177 07:39 22.10.2019
5812 Clouds 20 1015 84 0 3.64 177 07:20 22.10.2019
5813 Clouds 20 1015 84 0 3.64 177 06:37 22.10.2019
5814 Clouds 21 1016 80 0 3.6 168 06:19 22.10.2019
5815 Clouds 21 1016 80 0 3.6 168 05:27 22.10.2019
5816 Clouds 21 1016 80 0 3.6 168 03:53 22.10.2019
5817 Clouds 22 1011 78 10000 4.6 160 02:29 22.10.2019
5818 Clouds 22 1011 78 10000 5.7 160 01:36 22.10.2019
5819 Clouds 22 1011 78 10000 5.7 160 01:18 22.10.2019
5820 Clouds 23 1011 73 10000 5.7 170 00:41 22.10.2019
5821 Clouds 23 1011 73 10000 5.7 170 00:22 22.10.2019
5822 Clouds 23 1011 73 10000 6.2 180 23:57 21.10.2019
5823 Clouds 23 1011 73 10000 6.2 180 23:37 21.10.2019
5824 Clouds 23 1011 73 10000 6.2 180 23:18 21.10.2019
5825 Clouds 24 1012 69 10000 6.7 180 22:57 21.10.2019
5826 Clouds 24 1012 69 10000 6.7 180 22:38 21.10.2019
5827 Clouds 24 1012 69 10000 6.7 180 22:19 21.10.2019
5828 Clouds 23 1012 73 10000 6.7 180 21:55 21.10.2019
5829 Clouds 23 1012 73 10000 6.7 180 21:36 21.10.2019
5830 Clouds 23 1012 73 10000 6.7 180 21:18 21.10.2019
5831 Clouds 23 1014 73 10000 6.7 170 20:41 21.10.2019
5832 Clouds 23 1014 73 10000 6.7 170 20:21 21.10.2019
5833 Clouds 23 1014 73 10000 7.2 180 19:59 21.10.2019
5834 Clouds 23 1014 73 10000 7.2 180 19:41 21.10.2019
5835 Clouds 23 1014 73 10000 7.2 180 19:22 21.10.2019
5836 Clouds 22 1014 78 10000 6.2 170 18:57 21.10.2019
5837 Clouds 22 1014 78 10000 6.2 170 18:38 21.10.2019
5838 Clouds 22 1014 78 10000 6.2 170 18:19 21.10.2019
5839 Clouds 22 1014 78 10000 8.2 160 17:57 21.10.2019
5840 Clouds 22 1014 78 10000 8.2 160 17:38 21.10.2019
5841 Clouds 22 1014 78 10000 8.2 160 17:18 21.10.2019
5842 Clouds 22 1014 78 10000 5.7 170 16:56 21.10.2019
5843 Clouds 22 1014 78 10000 5.7 170 16:38 21.10.2019
5844 Clouds 22 1014 78 10000 5.7 170 16:20 21.10.2019
5845 Clouds 22 1014 78 10000 5.7 170 16:20 21.10.2019
5846 Clouds 21 1013 83 10000 4.6 160 15:46 21.10.2019
5847 Clouds 21 1013 83 10000 4.6 160 15:25 21.10.2019
5848 Clouds 21 1012 83 10000 4.1 170 14:58 21.10.2019
5849 Clouds 21 1012 83 10000 4.1 170 14:39 21.10.2019
5850 Clouds 21 1012 83 10000 4.1 170 14:20 21.10.2019
5851 Clouds 20 1014 81 0 5.7 166 13:56 21.10.2019
5852 Clouds 20 1014 81 0 5.7 166 13:38 21.10.2019
5853 Clouds 20 1014 81 0 5.7 166 13:19 21.10.2019
5854 Clouds 20 1014 81 0 5.7 166 12:41 21.10.2019
5855 Clouds 20 1013 84 0 5.76 169.352 12:22 21.10.2019
5856 Clouds 20 1013 84 0 5.76 169.352 11:56 21.10.2019
5857 Clouds 20 1013 84 0 5.76 169.352 11:38 21.10.2019
5858 Clouds 20 1013 84 0 5.76 169.352 11:19 21.10.2019
5859 Clouds 20 1013 84 0 5.76 169.352 10:56 21.10.2019
5860 Clouds 20 1013 84 0 5.76 169.352 10:37 21.10.2019
5861 Clouds 20 1013 84 0 5.76 169.352 10:18 21.10.2019
5862 Clouds 20 1013 84 0 5.76 169.352 09:44 21.10.2019
5863 Clouds 20 1013 84 0 5.76 169.352 09:25 21.10.2019
5864 Clouds 20 1014 84 0 6.11 165.786 08:44 21.10.2019
5865 Clouds 20 1014 84 0 6.11 165.786 08:24 21.10.2019
5866 Clouds 20 1014 84 0 6.11 165.786 08:24 21.10.2019
5867 Clouds 20 1014 84 0 6.11 165.786 07:59 21.10.2019
5868 Clouds 20 1014 84 0 6.11 165.786 07:37 21.10.2019
5869 Clouds 20 1014 84 0 6.11 165.786 07:37 21.10.2019
5870 Clouds 20 1014 84 0 6.11 165.786 07:19 21.10.2019
5871 Clouds 20 1014 84 0 6.11 165.786 06:53 21.10.2019
5872 Clouds 20 1014 84 0 6.11 165.786 06:33 21.10.2019
5873 Clouds 21 1015 82 0 5.68 166.688 05:50 21.10.2019
5874 Clouds 21 1015 82 0 5.68 166.688 05:50 21.10.2019
5875 Clouds 21 1015 82 0 5.68 166.688 04:44 21.10.2019
5876 Clouds 22 1011 78 10000 5.7 170 02:42 21.10.2019
5877 Clouds 22 1011 78 10000 5.7 170 02:23 21.10.2019
5878 Clouds 22 1011 78 10000 6.2 160 01:55 21.10.2019
5879 Clouds 22 1011 78 10000 6.2 160 01:23 21.10.2019
5880 Clouds 22 1011 78 10000 7.2 160 00:43 21.10.2019
5881 Clouds 22 1011 78 10000 7.2 160 00:24 21.10.2019
5882 Clouds 23 1011 73 10000 8.2 180 23:41 20.10.2019
5883 Clouds 23 1011 73 10000 8.2 180 23:22 20.10.2019
5884 Clouds 24 1011 73 10000 7.7 170 22:56 20.10.2019
5885 Clouds 24 1011 73 10000 7.7 170 22:37 20.10.2019
5886 Clouds 24 1011 73 10000 7.7 170 22:18 20.10.2019
5887 Clouds 24 1012 73 10000 8.2 170 21:57 20.10.2019
5888 Clouds 24 1012 73 10000 8.2 170 21:38 20.10.2019
5889 Clouds 24 1012 73 10000 8.2 170 21:20 20.10.2019
5890 Clouds 25 1013 65 10000 8.2 170 20:41 20.10.2019
5891 Clouds 25 1013 65 10000 8.2 170 20:18 20.10.2019
5892 Clouds 24 1014 69 10000 9.3 160 19:56 20.10.2019
5893 Clouds 24 1014 69 10000 9.3 160 19:37 20.10.2019
5894 Clouds 24 1014 69 10000 9.3 160 19:37 20.10.2019
5895 Clouds 24 1014 69 10000 9.3 160 19:19 20.10.2019
5896 Clouds 24 1014 69 10000 8.7 160 18:42 20.10.2019
5897 Clouds 24 1014 69 10000 8.7 160 18:24 20.10.2019
5898 Clouds 22 1014 78 10000 7.2 170 17:59 20.10.2019
5899 Clouds 22 1014 78 10000 7.2 170 17:59 20.10.2019
5900 Clouds 22 1014 78 10000 7.2 170 17:41 20.10.2019
5901 Clouds 22 1014 78 10000 7.2 170 17:22 20.10.2019
5902 Clouds 21 1014 83 10000 7.2 170 16:56 20.10.2019
5903 Clouds 21 1014 83 10000 7.2 170 16:37 20.10.2019
5904 Clouds 21 1014 83 10000 7.2 170 16:18 20.10.2019
5905 Clouds 21 1013 83 10000 6.7 160 15:54 20.10.2019
5906 Clouds 21 1013 83 10000 6.7 160 15:54 20.10.2019
5907 Clouds 21 1013 83 10000 6.7 160 15:54 20.10.2019
5908 Clouds 21 1013 83 10000 6.7 160 15:36 20.10.2019
5909 Clouds 21 1013 83 10000 6.7 160 15:18 20.10.2019
5910 Clouds 21 1013 83 10000 7.2 170 14:39 20.10.2019
5911 Clouds 21 1013 83 10000 7.2 170 14:21 20.10.2019
5912 Clouds 20 1015 80 0 6.8 170.877 13:56 20.10.2019
5913 Clouds 20 1015 80 0 6.8 170.877 13:37 20.10.2019
5914 Clouds 20 1015 81 0 6.86 174.185 13:19 20.10.2019
5915 Clouds 20 1015 81 0 6.86 174.185 12:57 20.10.2019
5916 Clouds 20 1015 81 0 6.86 174.185 12:39 20.10.2019
5917 Clouds 20 1015 81 0 6.86 174.185 12:39 20.10.2019
5918 Clouds 20 1014 82 0 7.2 174.335 12:21 20.10.2019
5919 Clouds 20 1014 82 0 7.2 174.335 11:59 20.10.2019
5920 Clouds 20 1014 82 0 7.2 174.335 11:40 20.10.2019
5921 Clouds 20 1014 82 0 7.2 174.335 11:40 20.10.2019
5922 Clouds 20 1014 82 0 7.2 174.335 11:22 20.10.2019
5923 Clouds 20 1014 82 0 7.2 174.335 10:57 20.10.2019
5924 Clouds 20 1014 82 0 7.2 174.335 10:37 20.10.2019
5925 Clouds 20 1014 82 0 7.2 174.335 10:18 20.10.2019
5926 Clouds 20 1014 82 0 7.2 174.335 09:43 20.10.2019
5927 Clouds 20 1015 80 0 6.31 184.328 09:22 20.10.2019
5928 Clouds 20 1015 81 0 6.48 184.928 08:56 20.10.2019
5929 Clouds 20 1015 81 0 6.48 184.928 08:37 20.10.2019
5930 Clouds 20 1015 81 0 6.48 184.928 08:18 20.10.2019
5931 Clouds 20 1015 81 0 6.48 184.928 07:43 20.10.2019
5932 Clouds 20 1015 81 0 6.48 184.928 07:24 20.10.2019
5933 Clouds 20 1015 81 0 6.48 184.928 07:24 20.10.2019
5934 Clouds 20 1015 81 0 6.48 184.928 07:24 20.10.2019
5935 Clouds 20 1015 81 0 6.48 184.928 06:26 20.10.2019
5936 Clouds 20 1015 81 0 6.61 191.368 04:28 20.10.2019
5937 Clouds 20 1015 81 0 6.61 191.368 03:49 20.10.2019
5938 Clouds 21 1011 83 10000 7.2 180 03:21 20.10.2019
5939 Clouds 21 1011 83 10000 7.2 180 02:45 20.10.2019
5940 Clouds 21 1011 83 10000 7.2 180 02:18 20.10.2019
5941 Clouds 21 1011 83 10000 8.2 190 01:43 20.10.2019
5942 Clouds 21 1011 83 10000 8.2 190 01:19 20.10.2019
5943 Clouds 22 1010 78 10000 8.2 170 00:42 20.10.2019
5944 Clouds 22 1010 78 10000 8.2 170 00:20 20.10.2019
5945 Clouds 23 1011 73 10000 8.2 180 23:43 19.10.2019
5946 Clouds 23 1011 73 10000 8.2 180 23:24 19.10.2019
5947 Clouds 23 1011 73 10000 8.7 170 22:57 19.10.2019
5948 Clouds 23 1011 73 10000 8.7 170 22:39 19.10.2019
5949 Clouds 23 1011 73 10000 8.7 170 22:20 19.10.2019
5950 Clouds 24 1012 69 10000 8.2 180 21:46 19.10.2019
5951 Clouds 24 1012 69 10000 8.2 180 21:24 19.10.2019
5952 Clouds 23 1013 73 10000 7.7 180 20:54 19.10.2019
5953 Clouds 23 1013 73 10000 7.7 180 20:36 19.10.2019
5954 Clouds 23 1013 73 10000 7.7 180 20:18 19.10.2019
5955 Clouds 23 1014 73 10000 7.2 180 19:40 19.10.2019
5956 Clouds 23 1014 73 10000 7.2 180 19:22 19.10.2019
5957 Rain 22 1014 83 10000 6.7 160 18:43 19.10.2019
5958 Rain 22 1014 83 10000 6.7 160 18:24 19.10.2019
5959 Rain 22 1014 83 8000 6.2 190 17:57 19.10.2019
5960 Rain 22 1014 83 8000 6.2 190 17:37 19.10.2019
5961 Rain 22 1014 83 8000 6.2 190 17:37 19.10.2019
5962 Rain 22 1014 83 8000 6.2 190 17:19 19.10.2019
5963 Rain 20 1014 94 8000 5.7 170 16:39 19.10.2019
5964 Rain 20 1014 94 8000 5.7 170 16:39 19.10.2019
5965 Rain 20 1014 94 8000 5.7 170 16:20 19.10.2019
5966 Clouds 21 1013 88 10000 5.1 190 15:56 19.10.2019
5967 Clouds 21 1013 88 10000 5.1 190 15:38 19.10.2019
5968 Clouds 21 1013 88 10000 5.1 190 15:19 19.10.2019
5969 Clouds 20 1013 94 10000 5.7 180 14:38 19.10.2019
5970 Clouds 20 1013 94 10000 5.7 180 14:20 19.10.2019
5971 Clouds 20 1014 83 0 5.28 176.361 13:55 19.10.2019
5972 Clouds 20 1014 83 0 5.28 176.361 13:37 19.10.2019
5973 Clouds 20 1014 82 0 5.09 178.672 13:18 19.10.2019
5974 Clouds 20 1014 82 0 5.09 178.672 13:18 19.10.2019
5975 Clouds 20 1014 82 0 5.09 178.672 12:39 19.10.2019
5976 Clouds 20 1013 84 0 5.93 185.769 12:21 19.10.2019
5977 Clouds 20 1013 84 0 5.93 185.769 11:57 19.10.2019
5978 Clouds 20 1013 84 0 5.93 185.769 11:39 19.10.2019
5979 Clouds 20 1013 84 0 5.93 185.769 11:21 19.10.2019
5980 Clouds 20 1013 84 0 5.93 185.769 10:41 19.10.2019
5981 Clouds 20 1013 84 0 5.93 185.769 10:23 19.10.2019
5982 Clouds 20 1013 84 0 5.93 185.769 09:59 19.10.2019
5983 Clouds 20 1013 84 0 5.93 185.769 09:59 19.10.2019
5984 Clouds 20 1013 84 0 5.93 185.769 09:40 19.10.2019
5985 Clouds 20 1015 83 0 5.99 183.687 09:22 19.10.2019
5986 Clouds 20 1015 83 0 5.93 182.048 08:41 19.10.2019
5987 Clouds 20 1015 83 0 5.93 182.048 08:23 19.10.2019
5988 Clouds 20 1015 83 0 5.93 182.048 07:59 19.10.2019
5989 Clouds 20 1015 83 0 5.93 182.048 07:41 19.10.2019
5990 Clouds 20 1015 83 0 5.93 182.048 07:23 19.10.2019
5991 Clouds 20 1015 83 0 5.93 182.048 06:35 19.10.2019
5992 Clouds 20 1016 82 0 6.51 181.356 05:51 19.10.2019
5993 Clouds 20 1016 82 0 6.51 181.356 04:26 19.10.2019
5994 Clouds 20 1016 82 0 6.51 181.356 04:26 19.10.2019
5995 Rain 21 1012 83 10000 7.2 190 03:18 19.10.2019
5996 Rain 21 1012 83 10000 7.2 190 02:20 19.10.2019
5997 Clouds 21 1011 83 10000 6.7 180 01:48 19.10.2019
5998 Clouds 22 1011 78 10000 6.2 190 00:52 19.10.2019
5999 Clouds 22 1011 78 10000 6.2 190 00:29 19.10.2019
6000 Clouds 22 1011 78 10000 6.2 190 23:57 18.10.2019
6001 Clouds 22 1011 78 10000 6.2 190 23:38 18.10.2019
6002 Clouds 22 1011 78 10000 6.2 190 23:20 18.10.2019
6003 Clouds 23 1012 73 10000 7.2 200 22:54 18.10.2019
6004 Clouds 23 1012 73 10000 7.2 200 22:36 18.10.2019
6005 Clouds 23 1012 73 10000 7.2 200 22:36 18.10.2019
6006 Clouds 23 1012 73 10000 7.2 200 22:18 18.10.2019
6007 Rain 22 1013 78 10000 7.2 190 21:54 18.10.2019
6008 Rain 22 1013 78 10000 7.2 190 21:36 18.10.2019
6009 Rain 22 1013 78 10000 7.2 190 21:18 18.10.2019
6010 Clouds 24 1013 69 10000 7.2 170 20:41 18.10.2019
6011 Clouds 24 1013 69 10000 7.2 170 20:22 18.10.2019
6012 Clouds 23 1014 73 10000 5.7 170 19:58 18.10.2019
6013 Clouds 23 1014 73 10000 5.7 170 19:40 18.10.2019
6014 Clouds 23 1014 73 10000 5.7 170 19:40 18.10.2019
6015 Clouds 23 1014 73 10000 5.7 170 19:21 18.10.2019
6016 Clouds 23 1015 73 10000 6.2 190 18:58 18.10.2019
6017 Clouds 23 1015 73 10000 6.2 190 18:39 18.10.2019
6018 Clouds 23 1015 73 10000 6.2 190 18:21 18.10.2019
6019 Clouds 22 1015 73 10000 5.1 200 17:40 18.10.2019
6020 Clouds 22 1015 73 10000 5.1 200 17:21 18.10.2019
6021 Clouds 21 1014 77 10000 5.1 200 16:59 18.10.2019
6022 Clouds 21 1014 77 10000 5.1 200 16:38 18.10.2019
6023 Clouds 21 1014 77 10000 5.1 200 16:38 18.10.2019
6024 Clouds 21 1014 77 10000 5.1 200 16:19 18.10.2019
6025 Clouds 21 1014 77 10000 5.1 190 15:54 18.10.2019
6026 Clouds 21 1014 77 10000 5.1 190 15:36 18.10.2019
6027 Clouds 21 1014 77 10000 5.1 190 15:18 18.10.2019
6028 Clouds 21 1014 77 10000 5.1 190 15:18 18.10.2019
6029 Clouds 20 1013 88 10000 4.6 180 14:54 18.10.2019
6030 Clouds 20 1013 88 10000 4.6 180 14:36 18.10.2019
6031 Clouds 20 1013 88 10000 4.6 180 14:36 18.10.2019
6032 Clouds 20 1013 88 10000 4.6 180 14:18 18.10.2019
6033 Clouds 20 1015 81 0 5.81 187.382 13:41 18.10.2019
6034 Clouds 20 1015 82 0 5.74 186.82 13:23 18.10.2019
6035 Clouds 20 1015 82 0 5.74 186.82 12:57 18.10.2019
6036 Clouds 20 1015 82 0 5.74 186.82 12:39 18.10.2019
6037 Clouds 20 1014 83 0 5.58 192.475 12:20 18.10.2019
6038 Clouds 20 1014 83 0 5.58 192.475 11:56 18.10.2019
6039 Clouds 20 1014 83 0 5.58 192.475 11:38 18.10.2019
6040 Clouds 20 1014 83 0 5.58 192.475 11:19 18.10.2019
6041 Clouds 20 1014 83 0 5.58 192.475 10:55 18.10.2019
6042 Clouds 20 1014 83 0 5.58 192.475 10:37 18.10.2019
6043 Clouds 20 1014 83 0 5.58 192.475 10:18 18.10.2019
6044 Clouds 20 1014 83 0 5.58 192.475 09:54 18.10.2019
6045 Clouds 20 1014 83 0 5.58 192.475 09:36 18.10.2019
6046 Clouds 20 1015 83 0 5.47 189.383 09:18 18.10.2019
6047 Clouds 20 1015 83 0 5.47 189.383 08:42 18.10.2019
6048 Clouds 20 1015 83 0 5.47 189.383 08:22 18.10.2019
6049 Clouds 20 1015 83 0 5.47 189.383 07:43 18.10.2019
6050 Clouds 20 1015 83 0 5.47 189.383 07:25 18.10.2019
6051 Clouds 20 1015 83 0 5.47 189.383 06:40 18.10.2019
6052 Clouds 20 1016 83 0 4.6 191.261 06:22 18.10.2019
6053 Clouds 20 1016 83 0 4.6 191.261 05:57 18.10.2019
6054 Clouds 20 1016 83 0 4.6 191.261 05:23 18.10.2019
6055 Clouds 20 1016 83 0 4.6 191.261 04:41 18.10.2019
6056 Rain 20 1012 88 10000 4.6 190 03:33 18.10.2019
6057 Rain 20 1012 88 10000 4.6 190 02:34 18.10.2019
6058 Drizzle 20 1012 88 8000 5.1 200 01:46 18.10.2019
6059 Drizzle 20 1012 88 8000 5.1 200 01:28 18.10.2019
6060 Drizzle 20 1012 88 8000 5.1 200 01:28 18.10.2019
6061 Clouds 23 1012 73 10000 5.7 190 00:45 18.10.2019
6062 Clouds 23 1012 73 10000 5.7 190 00:21 18.10.2019
6063 Clouds 23 1012 73 10000 5.7 190 00:21 18.10.2019
6064 Clouds 23 1012 73 10000 5.7 170 23:57 17.10.2019
6065 Clouds 23 1012 73 10000 5.7 170 23:36 17.10.2019
6066 Clouds 23 1012 73 10000 5.7 170 23:18 17.10.2019
6067 Clouds 23 1012 69 10000 6.2 190 22:54 17.10.2019
6068 Clouds 23 1012 69 10000 6.2 190 22:36 17.10.2019
6069 Clouds 23 1012 69 10000 6.2 190 22:18 17.10.2019
6070 Clouds 23 1013 73 10000 6.2 190 21:55 17.10.2019
6071 Clouds 23 1013 73 10000 6.2 190 21:55 17.10.2019
6072 Clouds 23 1013 73 10000 6.2 190 21:37 17.10.2019
6073 Clouds 23 1013 73 10000 6.2 190 21:19 17.10.2019
6074 Rain 22 1014 83 10000 6.2 200 20:56 17.10.2019
6075 Rain 22 1014 83 10000 6.2 200 20:56 17.10.2019
6076 Rain 22 1014 83 10000 6.2 200 20:56 17.10.2019
6077 Rain 22 1014 83 10000 6.2 200 20:37 17.10.2019
6078 Rain 22 1014 83 10000 6.2 200 20:18 17.10.2019
6079 Clouds 23 1014 73 10000 6.7 180 19:42 17.10.2019
6080 Clouds 23 1014 73 10000 6.7 180 19:20 17.10.2019
6081 Clouds 23 1014 73 10000 6.7 180 19:20 17.10.2019
6082 Clouds 23 1014 73 10000 6.7 180 19:20 17.10.2019
6083 Clouds 23 1014 73 10000 6.2 180 18:59 17.10.2019
6084 Clouds 23 1014 73 10000 6.2 180 18:38 17.10.2019
6085 Clouds 23 1014 73 10000 6.2 180 18:20 17.10.2019
6086 Clouds 23 1014 73 10000 6.2 180 18:20 17.10.2019
6087 -273 0 0 0 0 0 17:43 17.10.2019
6088 Clouds 22 1014 83 0 6.2 180 17:24 17.10.2019
6089 Drizzle 19 1014 93 8000 5.7 170 16:58 17.10.2019
6090 Drizzle 19 1014 93 8000 5.7 170 16:39 17.10.2019
6091 Drizzle 19 1014 93 8000 5.7 170 16:18 17.10.2019
6092 Clouds 20 1013 88 10000 4.6 170 15:56 17.10.2019
6093 Clouds 20 1013 88 10000 4.6 170 15:38 17.10.2019
6094 Clouds 20 1013 88 10000 4.6 170 15:20 17.10.2019
6095 Drizzle 19 1013 93 5000 4.1 160 14:55 17.10.2019
6096 Drizzle 19 1013 93 5000 4.1 160 14:37 17.10.2019
6097 Drizzle 19 1013 93 5000 4.1 160 14:18 17.10.2019
6098 Clouds 20 1015 85 0 5.401 163 13:39 17.10.2019
6099 Clouds 20 1015 85 0 5.401 163 13:20 17.10.2019
6100 Clouds 20 1015 85 0 5.401 163 12:55 17.10.2019
6101 Clouds 20 1015 85 0 5.401 163 12:55 17.10.2019
6102 Clouds 20 1015 85 0 5.401 163 12:55 17.10.2019
6103 Clouds 20 1015 85 0 5.401 163 12:36 17.10.2019
6104 Clouds 20 1014 86 0 4.673 166 12:18 17.10.2019
6105 Clouds 20 1014 86 0 4.673 166 11:41 17.10.2019
6106 Clouds 20 1014 86 0 4.673 166 11:41 17.10.2019
6107 Clouds 20 1014 86 0 4.673 166 11:22 17.10.2019
6108 Clouds 20 1014 86 0 4.673 166 10:58 17.10.2019
6109 Clouds 20 1014 86 0 4.673 166 10:39 17.10.2019
6110 Clouds 20 1014 86 0 4.673 166 10:19 17.10.2019
6111 Clouds 20 1014 86 0 4.673 166 09:55 17.10.2019
6112 Clouds 20 1014 86 0 4.673 166 09:55 17.10.2019
6113 Clouds 20 1014 84 0 4.637 165 09:36 17.10.2019
6114 Clouds 20 1015 83 0 4.238 168 09:18 17.10.2019
6115 Clouds 20 1015 83 0 4.238 168 09:18 17.10.2019
6116 Clouds 20 1015 83 0 4.238 168 08:46 17.10.2019
6117 Clouds 20 1015 83 0 4.238 168 08:26 17.10.2019
6118 -273 0 0 0 0 0 07:56 17.10.2019
6119 Clouds 20 1015 83 0 4.238 168 07:38 17.10.2019
6120 Clouds 20 1015 83 0 4.238 168 07:18 17.10.2019
6121 Clouds 20 1015 83 0 4.238 168 06:40 17.10.2019
6122 Clouds 20 1016 83 0 4.818 170 06:21 17.10.2019
6123 Clouds 20 1016 83 0 4.818 170 05:57 17.10.2019
6124 Clouds 20 1016 83 0 4.818 170 05:32 17.10.2019
6125 Clouds 20 1016 83 0 4.818 170 04:56 17.10.2019
6126 Clouds 20 1016 83 0 4.818 170 03:55 17.10.2019
6127 Clouds 21 1011 77 10000 5.1 170 02:50 17.10.2019
6128 Clouds 21 1011 77 10000 5.7 180 01:31 17.10.2019
6129 Clouds 22 1011 78 10000 6.2 180 00:40 17.10.2019
6130 Clouds 22 1011 78 10000 6.2 180 00:19 17.10.2019
6131 Clouds 23 1011 73 10000 6.7 180 23:42 16.10.2019
6132 Clouds 23 1011 73 10000 6.7 180 23:21 16.10.2019
6133 Clouds 23 1011 73 10000 7.2 180 22:56 16.10.2019
6134 Clouds 23 1011 73 10000 7.2 180 22:37 16.10.2019
6135 Clouds 23 1011 73 10000 7.2 180 22:19 16.10.2019
6136 Clouds 24 1012 69 10000 7.7 190 21:56 16.10.2019
6137 Clouds 24 1012 69 10000 7.7 190 21:37 16.10.2019
6138 Clouds 24 1012 69 10000 7.7 190 21:19 16.10.2019
6139 Clouds 24 1012 69 10000 7.7 190 21:19 16.10.2019
6140 Clouds 24 1013 69 10000 6.7 170 20:57 16.10.2019
6141 Clouds 24 1013 69 10000 6.7 170 20:38 16.10.2019
6142 Clouds 24 1013 69 10000 6.7 170 20:20 16.10.2019
6143 Clouds 23 1014 69 10000 6.7 160 19:57 16.10.2019
6144 Clouds 23 1014 69 10000 6.7 160 19:38 16.10.2019
6145 Clouds 23 1014 69 10000 6.7 160 19:20 16.10.2019
6146 Clouds 23 1014 69 10000 7.2 150 18:39 16.10.2019
6147 Clouds 23 1014 69 10000 7.2 150 18:39 16.10.2019
6148 Clouds 23 1014 69 10000 7.2 150 18:19 16.10.2019
6149 Clouds 23 1014 73 10000 7.2 160 17:56 16.10.2019
6150 Clouds 23 1014 73 10000 7.2 160 17:38 16.10.2019
6151 Clouds 23 1014 73 10000 7.2 160 17:20 16.10.2019
6152 Clouds 22 1014 73 10000 6.2 170 16:58 16.10.2019
6153 Clouds 22 1014 73 10000 6.2 170 16:58 16.10.2019
6154 Clouds 22 1014 73 10000 6.2 170 16:40 16.10.2019
6155 Clouds 22 1014 73 10000 6.2 170 16:20 16.10.2019
6156 Clouds 21 1013 77 10000 4.6 180 15:56 16.10.2019
6157 -273 0 0 0 0 0 15:55 16.10.2019
6158 Clouds 20 1017 84 0 6.153 146 15:36 16.10.2019
6159 Clouds 21 1012 77 10000 4.1 170 15:18 16.10.2019
6160 -273 0 0 0 0 0 14:55 16.10.2019
6161 Clouds 21 1012 77 10000 4.1 170 14:36 16.10.2019
6162 Clouds 21 1012 77 10000 4.1 170 14:18 16.10.2019
6163 Clouds 19 1014 85 0 4.798 149 13:42 16.10.2019
6164 Clouds 19 1014 85 0 4.798 149 13:23 16.10.2019
6165 Clouds 19 1014 85 0 4.798 149 12:57 16.10.2019
6166 Clouds 19 1014 85 0 4.798 149 12:39 16.10.2019
6167 Clouds 19 1013 84 0 4.794 154 12:18 16.10.2019
6168 Clouds 19 1013 84 0 4.794 154 11:42 16.10.2019
6169 Clouds 19 1013 84 0 4.794 154 11:42 16.10.2019
6170 Clouds 19 1013 84 0 4.794 154 11:18 16.10.2019
6171 Clouds 19 1013 84 0 4.794 154 11:18 16.10.2019
6172 Clouds 19 1013 84 0 4.794 154 10:38 16.10.2019
6173 Clouds 19 1013 84 0 4.794 154 10:20 16.10.2019
6174 Clouds 19 1013 84 0 4.794 154 09:55 16.10.2019
6175 Clouds 19 1013 84 0 4.563 152 09:36 16.10.2019
6176 Clouds 20 1014 83 0 5.269 156 09:18 16.10.2019
6177 Clouds 20 1014 83 0 5.269 156 08:42 16.10.2019
6178 Clouds 20 1014 83 0 5.269 156 08:23 16.10.2019
6179 Clouds 20 1014 83 0 5.269 156 07:45 16.10.2019
6180 -273 0 0 0 0 0 07:24 16.10.2019
6181 -273 0 0 0 0 0 07:24 16.10.2019
6182 Clouds 20 1014 83 0 5.269 156 06:57 16.10.2019
6183 Clouds 20 1014 83 0 5.269 156 06:57 16.10.2019
6184 Clouds 20 1014 83 0 5.269 156 06:35 16.10.2019
6185 Clouds 20 1015 84 0 5.011 150 05:39 16.10.2019
6186 Clouds 21 1011 83 10000 6.2 170 02:57 16.10.2019
6187 Clouds 21 1011 83 10000 6.2 170 02:37 16.10.2019
6188 Clouds 22 1010 73 10000 6.2 180 01:18 16.10.2019
6189 Clouds 23 1010 73 10000 7.7 180 00:46 16.10.2019
6190 Clouds 23 1010 73 10000 7.7 180 00:25 16.10.2019
6191 Clouds 24 1010 64 10000 7.7 180 23:39 15.10.2019
6192 Clouds 24 1010 64 10000 7.7 180 23:21 15.10.2019
6193 Clouds 24 1010 64 10000 7.7 170 22:55 15.10.2019
6194 Clouds 24 1010 64 10000 7.7 170 22:37 15.10.2019
6195 Clouds 24 1010 64 10000 7.7 170 22:19 15.10.2019
6196 Clouds 24 1010 64 10000 8.2 160 21:55 15.10.2019
6197 Clouds 24 1010 64 10000 8.2 160 21:55 15.10.2019
6198 Clouds 24 1010 64 10000 8.2 160 21:37 15.10.2019
6199 Clouds 24 1010 64 10000 8.2 160 21:19 15.10.2019
6200 Clouds 24 1012 64 10000 8.7 160 20:56 15.10.2019
6201 Clouds 24 1012 64 10000 8.7 160 20:38 15.10.2019
6202 Clouds 24 1012 64 10000 8.7 160 20:19 15.10.2019
6203 Clouds 24 1013 64 10000 7.7 170 19:56 15.10.2019
6204 Clouds 24 1013 64 10000 7.7 170 19:37 15.10.2019
6205 Clouds 24 1013 64 10000 7.7 170 19:19 15.10.2019
6206 Clouds 24 1013 64 10000 7.2 170 18:44 15.10.2019
6207 Clouds 24 1013 64 10000 7.2 170 18:26 15.10.2019
6208 Clouds 24 1013 69 10000 6.2 170 17:56 15.10.2019
6209 Clouds 24 1013 69 10000 6.2 170 17:38 15.10.2019
6210 Clouds 24 1013 69 10000 6.2 170 17:19 15.10.2019
6211 Clouds 22 1013 73 10000 6.2 170 16:45 15.10.2019
6212 Clouds 22 1013 73 10000 6.2 170 16:22 15.10.2019
6213 Clouds 22 1013 73 10000 6.2 170 15:58 15.10.2019
6214 Clouds 21 1012 83 10000 5.1 170 15:40 15.10.2019
6215 Clouds 21 1012 83 10000 5.1 170 15:40 15.10.2019
6216 Clouds 21 1012 83 10000 5.1 170 15:20 15.10.2019
6217 Clouds 21 1012 77 10000 5.1 170 14:56 15.10.2019
6218 Clouds 21 1012 77 10000 5.1 170 14:37 15.10.2019
6219 Clouds 21 1012 77 10000 5.1 170 14:19 15.10.2019
6220 Clouds 19 1014 83 0 4.831 183 13:43 15.10.2019
6221 Clouds 19 1014 83 0 4.831 183 13:43 15.10.2019
6222 Clouds 19 1014 83 0 4.831 183 13:21 15.10.2019
6223 Clouds 19 1014 83 0 4.831 183 12:59 15.10.2019
6224 Clouds 19 1014 83 0 4.831 183 12:38 15.10.2019
6225 Clouds 19 1013 84 0 5.718 189 12:20 15.10.2019
6226 Clouds 19 1013 84 0 5.718 189 11:44 15.10.2019
6227 Clouds 19 1013 84 0 5.718 189 11:20 15.10.2019
6228 Clouds 19 1013 83 0 5.77 191.957 10:56 15.10.2019
6229 Clouds 19 1013 84 0 5.718 189 10:56 15.10.2019
6230 Clouds 19 1013 83 0 5.77 191.957 10:38 15.10.2019
6231 Clouds 19 1013 83 0 5.77 191.957 10:18 15.10.2019
6232 Clouds 19 1013 83 0 5.77 191.957 09:55 15.10.2019
6233 Clouds 19 1013 83 0 5.77 191.957 09:55 15.10.2019
6234 Clouds 19 1013 83 0 5.77 191.957 09:36 15.10.2019
6235 Clouds 19 1013 83 0 5.77 191.957 09:36 15.10.2019
6236 Clouds 20 1015 83 0 3.83 184.858 09:18 15.10.2019
6237 Clouds 19 1015 84 0 4.08 184.106 08:41 15.10.2019
6238 Clouds 19 1015 84 0 4.08 184.106 08:21 15.10.2019
6239 Clouds 19 1015 84 0 4.08 184.106 07:48 15.10.2019
6240 Clouds 19 1015 84 0 4.08 184.106 07:23 15.10.2019
6241 Clouds 19 1015 84 0 4.08 184.106 06:58 15.10.2019
6242 Clouds 19 1015 84 0 4.08 184.106 06:40 15.10.2019
6243 Clouds 19 1015 85 0 5.47 185.346 05:58 15.10.2019
6244 Clouds 19 1015 85 0 5.47 185.346 05:37 15.10.2019
6245 Clouds 19 1015 85 0 5.47 185.346 04:53 15.10.2019
6246 Clouds 19 1015 85 0 5.47 185.346 04:19 15.10.2019
6247 Clouds 19 1015 85 0 5.47 185.346 03:35 15.10.2019
6248 Clouds 21 1009 83 10000 6.7 190 01:59 15.10.2019
6249 Clouds 22 1009 73 10000 6.7 170 01:40 15.10.2019
6250 Clouds 22 1009 73 10000 6.7 170 00:59 15.10.2019
6251 Clouds 22 1009 73 10000 6.7 170 00:59 15.10.2019
6252 Clouds 23 1009 69 10000 8.2 170 00:26 15.10.2019
6253 Clouds 23 1009 69 10000 8.2 170 23:59 14.10.2019
6254 Clouds 23 1009 73 10000 7.7 170 23:37 14.10.2019
6255 Clouds 23 1009 73 10000 7.7 170 23:18 14.10.2019
6256 Clouds 24 1011 69 10000 7.7 160 22:39 14.10.2019
6257 Clouds 24 1011 69 10000 7.7 160 22:21 14.10.2019
6258 Clouds 24 1011 69 10000 7.7 160 21:58 14.10.2019
6259 Clouds 24 1012 69 10000 7.7 180 21:40 14.10.2019
6260 Clouds 24 1012 69 10000 7.7 180 21:21 14.10.2019
6261 Clouds 24 1012 69 10000 7.7 180 21:21 14.10.2019
6262 Clouds 24 1012 69 10000 7.7 180 20:58 14.10.2019
6263 Clouds 24 1012 69 10000 7.7 180 20:38 14.10.2019
6264 Clouds 24 1012 69 10000 7.7 180 20:38 14.10.2019
6265 Clouds 24 1012 69 10000 7.7 180 20:19 14.10.2019
6266 Clouds 24 1012 69 10000 7.7 180 19:44 14.10.2019
6267 Clouds 24 1012 69 10000 7.7 180 19:26 14.10.2019
6268 Clouds 24 1012 69 10000 7.7 180 18:59 14.10.2019
6269 Clouds 24 1013 69 10000 7.7 180 18:40 14.10.2019
6270 Clouds 24 1013 69 10000 7.7 180 18:21 14.10.2019
6271 Clouds 23 1012 73 10000 7.7 180 17:59 14.10.2019
6272 Clouds 23 1012 73 10000 7.7 180 17:41 14.10.2019
6273 Clouds 23 1012 73 10000 7.7 180 17:22 14.10.2019
6274 Clear 22 1012 78 10000 7.2 170 16:45 14.10.2019
6275 Clear 22 1012 78 10000 7.2 170 16:22 14.10.2019
6276 Clear 21 1011 77 10000 5.1 170 15:58 14.10.2019
6277 Clear 21 1011 77 10000 5.1 170 15:38 14.10.2019
6278 Clear 21 1011 77 10000 5.1 170 15:20 14.10.2019
6279 Clear 20 1011 82 10000 5.1 170 14:43 14.10.2019
6280 Clear 20 1011 82 10000 5.1 170 14:24 14.10.2019
6281 Clear 20 1013 88 0 5.47 174.599 13:57 14.10.2019
6282 Clear 20 1013 88 0 5.47 174.599 13:38 14.10.2019
6283 Clouds 19 1013 88 0 5.59 174.072 13:19 14.10.2019
6284 Clouds 19 1013 88 0 5.59 174.072 12:41 14.10.2019
6285 Clear 19 1012 89 0 5.86 178.592 12:19 14.10.2019
6286 Clear 19 1012 89 0 5.86 178.592 11:47 14.10.2019
6287 Clear 19 1012 89 0 5.86 178.592 11:27 14.10.2019
6288 Clear 19 1012 89 0 5.86 178.592 10:59 14.10.2019
6289 Clear 19 1012 89 0 5.86 178.592 10:40 14.10.2019
6290 Clear 19 1012 89 0 5.86 178.592 10:20 14.10.2019
6291 Clear 19 1012 89 0 5.86 178.592 09:56 14.10.2019
6292 Clear 19 1012 89 0 5.86 178.592 09:37 14.10.2019
6293 Clouds 20 1014 88 0 6.05 174.878 09:18 14.10.2019
6294 Clouds 20 1014 88 0 6.05 174.878 08:44 14.10.2019
6295 Clouds 20 1014 88 0 6.05 174.878 08:22 14.10.2019
6296 Clouds 20 1014 88 0 6.05 174.878 07:42 14.10.2019
6297 Clouds 20 1014 88 0 6.05 174.878 07:19 14.10.2019
6298 Clouds 20 1014 88 0 6.05 174.878 06:48 14.10.2019
6299 Clouds 20 1015 87 0 4.49 176.769 06:20 14.10.2019
6300 Clouds 20 1015 87 0 4.49 176.769 05:49 14.10.2019
6301 Clouds 20 1015 87 0 4.49 176.769 04:43 14.10.2019
6302 Clear 21 1009 77 10000 6.7 170 03:28 14.10.2019
6303 Clear 21 1009 77 10000 6.7 170 02:42 14.10.2019
6304 Clear 22 1009 73 10000 7.7 170 01:23 14.10.2019
6305 Clouds 23 1009 73 10000 7.7 180 00:56 14.10.2019
6306 Clouds 23 1009 73 10000 7.7 180 00:19 14.10.2019
6307 Clouds 24 1009 69 10000 7.7 180 23:45 13.10.2019
6308 Clouds 24 1009 69 10000 7.7 180 23:20 13.10.2019
6309 Clouds 25 1009 61 10000 8.7 200 22:58 13.10.2019
6310 Clouds 25 1009 61 10000 8.7 200 22:40 13.10.2019
6311 Clouds 25 1009 61 10000 8.7 200 22:21 13.10.2019
6312 Clouds 25 1011 61 10000 8.7 200 21:58 13.10.2019
6313 Clouds 25 1011 61 10000 8.7 200 21:37 13.10.2019
6314 Clouds 25 1011 61 10000 8.7 200 21:19 13.10.2019
6315 Clouds 25 1011 61 10000 8.7 200 21:19 13.10.2019
6316 Clouds 24 1012 69 10000 7.7 200 20:57 13.10.2019
6317 Clouds 24 1012 69 10000 7.7 200 20:38 13.10.2019
6318 Clouds 24 1012 69 10000 7.7 200 20:20 13.10.2019
6319 Clouds 24 1012 69 10000 7.2 180 19:58 13.10.2019
6320 Clouds 24 1012 69 10000 7.2 180 19:39 13.10.2019
6321 Clouds 24 1012 69 10000 7.2 180 19:39 13.10.2019
6322 Clouds 24 1012 69 10000 7.2 180 19:21 13.10.2019
6323 -273 0 0 0 0 0 18:56 13.10.2019
6324 Clouds 23 1012 69 10000 8.2 170 18:36 13.10.2019
6325 Clouds 23 1012 69 10000 8.2 170 18:18 13.10.2019
6326 Clouds 23 1012 69 10000 7.2 180 17:55 13.10.2019
6327 Clouds 23 1012 69 10000 7.2 180 17:36 13.10.2019
6328 Clouds 23 1012 69 10000 7.2 180 17:18 13.10.2019
6329 Clouds 21 1012 77 10000 6.2 180 16:41 13.10.2019
6330 Clouds 21 1012 77 10000 6.2 180 16:18 13.10.2019
6331 Clouds 20 1012 88 10000 6.2 190 15:56 13.10.2019
6332 Clouds 20 1012 88 10000 6.2 190 15:37 13.10.2019
6333 Clouds 20 1012 88 10000 6.2 190 15:37 13.10.2019
6334 Clouds 20 1012 88 10000 6.2 190 15:18 13.10.2019
6335 Clouds 20 1012 88 10000 6.2 190 15:18 13.10.2019
6336 Clouds 19 1011 93 10000 5.1 180 14:56 13.10.2019
6337 Clouds 19 1011 93 10000 5.1 180 14:38 13.10.2019
6338 Clouds 19 1011 93 10000 5.1 180 14:18 13.10.2019
6339 Clouds 20 1013 89 0 6.45 181.964 13:39 13.10.2019
6340 Clouds 20 1014 88 0 6.42 181.983 13:21 13.10.2019
6341 Clouds 20 1014 88 0 6.42 181.983 12:57 13.10.2019
6342 Clouds 20 1014 88 0 6.42 181.983 12:39 13.10.2019
6343 Clouds 20 1012 88 0 5.65 193.244 12:20 13.10.2019
6344 Clouds 20 1012 88 0 5.65 193.244 11:58 13.10.2019
6345 Clouds 20 1012 88 0 5.65 193.244 11:38 13.10.2019
6346 Clouds 20 1012 88 0 5.65 193.244 11:38 13.10.2019
6347 Clouds 20 1012 88 0 5.65 193.244 11:19 13.10.2019
6348 Clouds 20 1012 88 0 5.65 193.244 10:42 13.10.2019
6349 Clouds 20 1012 88 0 5.65 193.244 10:23 13.10.2019
6350 Clouds 20 1012 88 0 5.65 193.244 09:58 13.10.2019
6351 Clouds 20 1012 88 0 5.65 193.244 09:58 13.10.2019
6352 Clouds 20 1012 88 0 5.65 193.244 09:38 13.10.2019
6353 Clouds 20 1013 87 0 4.79 183.643 09:19 13.10.2019
6354 Clouds 20 1014 85 0 4.75 181.387 08:43 13.10.2019
6355 Clouds 20 1014 85 0 4.75 181.387 08:23 13.10.2019
6356 Clouds 20 1014 85 0 4.75 181.387 07:50 13.10.2019
6357 Clouds 20 1014 85 0 4.75 181.387 07:30 13.10.2019
6358 Clouds 20 1014 85 0 4.75 181.387 06:49 13.10.2019
6359 Clouds 20 1013 85 0 5.21 193.019 05:59 13.10.2019
6360 Clouds 20 1013 85 0 5.21 193.019 04:59 13.10.2019
6361 Clouds 20 1013 85 0 5.21 193.019 04:33 13.10.2019
6362 Clouds 21 1009 83 10000 6.2 180 02:48 13.10.2019
6363 Clouds 21 1009 83 10000 6.2 180 02:23 13.10.2019
6364 Clouds 21 1008 83 10000 6.7 180 01:34 13.10.2019
6365 Clouds 22 1008 78 10000 6.7 180 00:52 13.10.2019
6366 Clouds 22 1008 78 10000 6.7 180 00:52 13.10.2019
6367 Clouds 22 1008 78 10000 6.7 180 00:22 13.10.2019
6368 Clouds 21 1008 83 10000 6.2 180 23:58 12.10.2019
6369 Clouds 21 1008 83 10000 6.2 180 23:39 12.10.2019
6370 Clouds 21 1008 83 10000 6.2 180 23:21 12.10.2019
6371 Clouds 21 1009 83 10000 6.2 170 22:58 12.10.2019
6372 Clouds 21 1009 83 10000 6.2 170 22:58 12.10.2019
6373 Clouds 21 1009 83 10000 6.2 170 22:39 12.10.2019
6374 Clouds 21 1009 83 10000 6.2 170 22:20 12.10.2019
6375 Clouds 23 1010 73 10000 6.2 180 21:55 12.10.2019
6376 -273 0 0 0 0 0 21:55 12.10.2019
6377 Clouds 23 1010 73 10000 6.2 180 21:37 12.10.2019
6378 Clouds 23 1010 73 10000 6.2 180 21:19 12.10.2019
6379 Drizzle 21 1011 83 10000 6.2 190 20:43 12.10.2019
6380 Drizzle 21 1011 83 10000 6.2 190 20:25 12.10.2019
6381 Clouds 23 1012 73 10000 6.7 190 19:40 12.10.2019
6382 Clouds 23 1012 73 10000 6.7 190 19:22 12.10.2019
6383 Clouds 23 1012 73 10000 6.7 190 19:22 12.10.2019
6384 Clouds 21 1012 83 0 5.1 170 18:59 12.10.2019
6385 Clouds 21 1012 83 0 5.1 170 18:40 12.10.2019
6386 Clouds 21 1012 83 0 5.1 170 18:22 12.10.2019
6387 Clouds 20 1014 85 0 5.78 195.906 17:44 12.10.2019
6388 Drizzle 20 1012 88 5000 6.2 180 17:19 12.10.2019
6389 Clouds 20 1011 88 10000 3.6 190 16:55 12.10.2019
6390 Clouds 20 1011 88 10000 3.6 190 16:36 12.10.2019
6391 Clouds 20 1011 88 10000 3.6 190 16:36 12.10.2019
6392 Clouds 20 1011 88 10000 3.6 190 16:18 12.10.2019
6393 Clouds 20 1011 88 10000 3.6 190 15:44 12.10.2019
6394 Clouds 20 1011 88 10000 3.6 190 15:25 12.10.2019
6395 Clouds 20 1010 88 10000 4.1 190 14:43 12.10.2019
6396 Clouds 20 1010 88 10000 4.1 190 14:22 12.10.2019
6397 Clouds 19 1012 86 0 5.09 197.135 13:59 12.10.2019
6398 Clouds 19 1012 86 0 5.09 197.135 13:40 12.10.2019
6399 Clouds 19 1012 85 0 4.63 198.341 13:21 12.10.2019
6400 Clouds 19 1012 85 0 4.63 198.341 12:40 12.10.2019
6401 Clouds 19 1012 85 0 4.63 198.341 12:40 12.10.2019
6402 Clouds 19 1011 87 0 5.19 205.968 12:21 12.10.2019
6403 Clouds 19 1011 87 0 5.19 205.968 11:59 12.10.2019
6404 Clouds 19 1011 87 0 5.19 205.968 11:39 12.10.2019
6405 Clouds 19 1011 87 0 5.19 205.968 11:20 12.10.2019
6406 Clouds 19 1011 87 0 5.19 205.968 10:44 12.10.2019
6407 Clouds 19 1011 87 0 5.19 205.968 10:24 12.10.2019
6408 Clouds 19 1011 87 0 5.19 205.968 09:58 12.10.2019
6409 Clouds 19 1011 87 0 5.19 205.968 09:39 12.10.2019
6410 Clouds 19 1012 87 0 5.55 205.517 09:21 12.10.2019
6411 Clouds 19 1012 87 0 5.67 203.997 08:57 12.10.2019
6412 Clouds 19 1012 87 0 5.67 203.997 08:38 12.10.2019
6413 Clouds 19 1012 87 0 5.67 203.997 08:19 12.10.2019
6414 Clouds 19 1012 87 0 5.67 203.997 07:34 12.10.2019
6415 Clouds 19 1012 87 0 5.67 203.997 06:56 12.10.2019
6416 Clouds 19 1013 86 0 6.48 194.034 05:47 12.10.2019
6417 Clouds 19 1013 86 0 6.48 194.034 05:23 12.10.2019
6418 Clouds 19 1013 86 0 6.48 194.034 04:24 12.10.2019
6419 Clouds 20 1008 82 10000 6.2 170 03:30 12.10.2019
6420 Clouds 21 1007 77 10000 7.2 160 01:38 12.10.2019
6421 Clouds 21 1007 77 10000 7.2 160 01:19 12.10.2019
6422 Clouds 22 1007 73 10000 7.2 170 00:40 12.10.2019
6423 Clouds 22 1007 73 10000 7.2 180 23:57 11.10.2019
6424 Clouds 22 1007 73 10000 7.2 180 23:39 11.10.2019
6425 Clouds 22 1007 73 10000 7.2 180 23:20 11.10.2019
6426 Clouds 22 1007 73 10000 7.2 180 23:20 11.10.2019
6427 Clouds 22 1008 73 10000 9.3 170 22:40 11.10.2019
6428 Clouds 22 1008 73 10000 9.3 170 22:21 11.10.2019
6429 Clouds 23 1009 73 10000 9.3 160 21:56 11.10.2019
6430 Clouds 23 1009 73 10000 9.3 160 21:38 11.10.2019
6431 Clouds 23 1009 73 10000 9.3 160 21:19 11.10.2019
6432 Clouds 23 1010 69 10000 8.2 170 20:43 11.10.2019
6433 Clouds 23 1010 69 10000 8.2 170 20:25 11.10.2019
6434 Clouds 23 1011 69 10000 8.2 160 19:56 11.10.2019
6435 Clouds 23 1011 69 10000 8.2 160 19:38 11.10.2019
6436 Clouds 23 1011 69 10000 8.2 160 19:18 11.10.2019
6437 Clouds 22 1012 73 10000 8.2 150 18:57 11.10.2019
6438 Clouds 22 1012 73 10000 8.2 150 18:37 11.10.2019
6439 Clouds 22 1012 73 10000 8.2 150 18:19 11.10.2019
6440 Clouds 22 1012 73 10000 8.2 160 17:57 11.10.2019
6441 Clouds 22 1012 73 10000 8.2 160 17:37 11.10.2019
6442 Clouds 22 1012 73 10000 8.2 160 17:18 11.10.2019
6443 Clouds 21 1011 77 10000 6.2 170 16:42 11.10.2019
6444 Clouds 21 1011 77 10000 6.2 170 16:21 11.10.2019
6445 Clouds 20 1010 77 10000 5.7 170 15:59 11.10.2019
6446 Clouds 20 1010 77 10000 5.7 170 15:39 11.10.2019
6447 Clouds 20 1010 77 10000 5.7 170 15:19 11.10.2019
6448 Clouds 19 1009 82 10000 6.2 170 14:47 11.10.2019
6449 Clouds 19 1009 82 10000 6.2 170 14:29 11.10.2019
6450 Clouds 19 1012 87 0 6.38 178.67 13:57 11.10.2019
6451 Clouds 19 1012 87 0 6.38 178.67 13:38 11.10.2019
6452 Clouds 19 1012 87 0 5.78 181.438 13:19 11.10.2019
6453 Clouds 19 1012 87 0 5.78 181.438 12:56 11.10.2019
6454 Clouds 19 1012 87 0 5.78 181.438 12:38 11.10.2019
6455 Clouds 19 1011 89 0 5.67 184.251 12:18 11.10.2019
6456 Clouds 19 1011 89 0 5.67 184.251 11:41 11.10.2019
6457 Clouds 19 1011 89 0 5.67 184.251 11:22 11.10.2019
6458 Clouds 19 1011 89 0 5.67 184.251 11:22 11.10.2019
6459 Clouds 19 1011 89 0 5.67 184.251 10:58 11.10.2019
6460 Clouds 19 1011 89 0 5.67 184.251 10:58 11.10.2019
6461 Clouds 19 1011 89 0 5.67 184.251 10:40 11.10.2019
6462 Clouds 19 1011 89 0 5.67 184.251 10:22 11.10.2019
6463 Clouds 19 1011 89 0 5.67 184.251 09:55 11.10.2019
6464 Clouds 19 1011 89 0 5.62 184.969 09:37 11.10.2019
6465 Clear 19 1012 89 0 4.18 182.907 09:18 11.10.2019
6466 -273 0 0 0 0 0 08:54 11.10.2019
6467 -273 0 0 0 0 0 08:54 11.10.2019
6468 Clear 19 1012 89 0 4.18 182.907 08:36 11.10.2019
6469 Clear 19 1012 89 0 4.18 182.907 08:18 11.10.2019
6470 Clear 19 1012 89 0 4.18 182.907 07:41 11.10.2019
6471 Clear 19 1012 89 0 4.18 182.907 07:22 11.10.2019
6472 Clear 19 1012 89 0 4.18 182.907 06:47 11.10.2019
6473 Clear 19 1012 87 0 4.45 168.432 06:22 11.10.2019
6474 Clear 19 1012 87 0 4.45 168.432 05:37 11.10.2019
6475 Clear 19 1012 87 0 4.45 168.432 04:59 11.10.2019
6476 Clear 19 1012 87 0 4.45 168.432 04:24 11.10.2019
6477 Clear 20 1008 82 10000 6.2 160 02:18 11.10.2019
6478 Clear 22 1007 73 10000 7.2 160 00:43 11.10.2019
6479 Clear 22 1007 73 10000 7.2 160 00:25 11.10.2019
6480 Clouds 23 1007 64 10000 6.7 170 23:42 10.10.2019
6481 Clouds 23 1007 64 10000 6.7 170 23:21 10.10.2019
6482 Clouds 22 1008 68 10000 7.2 190 22:57 10.10.2019
6483 Clouds 22 1008 68 10000 7.2 190 22:38 10.10.2019
6484 Clouds 22 1008 68 10000 7.2 190 22:19 10.10.2019
6485 Clouds 23 1009 64 10000 7.2 170 21:54 10.10.2019
6486 Clouds 23 1009 64 10000 7.2 170 21:36 10.10.2019
6487 Clouds 23 1009 64 10000 7.2 170 21:18 10.10.2019
6488 Clouds 23 1010 64 10000 7.2 180 20:41 10.10.2019
6489 Clouds 23 1010 64 10000 7.2 180 20:21 10.10.2019
6490 Clouds 22 1011 68 10000 6.7 170 19:58 10.10.2019
6491 Clouds 22 1011 68 10000 6.7 170 19:39 10.10.2019
6492 Clouds 22 1011 68 10000 6.7 170 19:19 10.10.2019
6493 Clouds 21 1012 77 10000 6.2 150 18:54 10.10.2019
6494 Clouds 21 1012 77 10000 6.2 150 18:36 10.10.2019
6495 Clouds 21 1012 77 10000 6.2 150 18:36 10.10.2019
6496 Clouds 21 1012 77 10000 6.2 150 18:18 10.10.2019
6497 Clouds 20 1011 82 10000 5.7 180 17:40 10.10.2019
6498 Clouds 20 1011 82 10000 5.7 180 17:20 10.10.2019
6499 Clouds 20 1011 77 10000 5.7 180 16:58 10.10.2019
6500 Clouds 20 1011 77 10000 5.7 180 16:39 10.10.2019
6501 Clouds 20 1011 77 10000 5.7 180 16:21 10.10.2019
6502 Clouds 19 1011 88 10000 5.1 170 15:43 10.10.2019
6503 Clouds 19 1011 88 10000 5.1 170 15:23 10.10.2019
6504 Clouds 18 1010 93 10000 5.1 170 14:59 10.10.2019
6505 Clouds 18 1010 93 10000 5.1 170 14:37 10.10.2019
6506 Clouds 18 1010 93 10000 5.1 170 14:19 10.10.2019
6507 Clouds 19 1012 83 0 4.88 161.031 13:58 10.10.2019
6508 Clouds 19 1012 83 0 4.88 161.031 13:39 10.10.2019
6509 Clouds 19 1012 84 0 4.88 166.112 13:18 10.10.2019
6510 Clouds 19 1012 84 0 4.88 166.112 12:42 10.10.2019
6511 Clouds 19 1012 84 0 4.7 170.836 12:21 10.10.2019
6512 Clouds 19 1012 84 0 4.7 170.836 11:58 10.10.2019
6513 Clouds 19 1012 84 0 4.7 170.836 11:40 10.10.2019
6514 Clouds 19 1012 84 0 4.7 170.836 11:19 10.10.2019
6515 Clouds 19 1012 84 0 4.7 170.836 10:57 10.10.2019
6516 Clouds 19 1012 84 0 4.7 170.836 10:39 10.10.2019
6517 Clouds 19 1012 84 0 4.7 170.836 10:20 10.10.2019
6518 Clouds 19 1012 84 0 4.7 170.836 09:41 10.10.2019
6519 Clouds 19 1013 84 0 4.12 169.801 09:23 10.10.2019
6520 Clouds 19 1013 86 0 4.36 173.926 08:59 10.10.2019
6521 Clouds 19 1013 86 0 4.36 173.926 08:40 10.10.2019
6522 Clouds 19 1013 86 0 4.36 173.926 08:21 10.10.2019
6523 Clouds 19 1013 86 0 4.36 173.926 07:47 10.10.2019
6524 Clouds 19 1013 86 0 4.36 173.926 07:26 10.10.2019
6525 Clouds 19 1013 86 0 4.36 173.926 06:55 10.10.2019
6526 Clouds 19 1013 86 0 4.36 173.926 06:36 10.10.2019
6527 Clouds 19 1014 86 0 5.18 174.819 05:39 10.10.2019
6528 Clouds 19 1014 86 0 5.18 174.819 05:18 10.10.2019
6529 Clouds 19 1014 86 0 5.18 174.819 04:34 10.10.2019
6530 Clouds 20 1010 82 10000 6.2 170 02:29 10.10.2019
6531 Clouds 20 1009 82 10000 6.2 160 01:37 10.10.2019
6532 Clouds 20 1009 82 10000 6.2 160 01:37 10.10.2019
6533 Clouds 20 1009 82 10000 6.2 160 01:18 10.10.2019
6534 Clouds 21 1009 77 10000 6.7 160 00:29 10.10.2019
6535 Clouds 22 1009 73 10000 6.7 150 23:42 09.10.2019
6536 Clouds 22 1009 73 10000 6.7 150 23:23 09.10.2019
6537 Clouds 22 1009 73 10000 7.7 160 22:59 09.10.2019
6538 Clouds 22 1009 73 10000 7.7 160 22:59 09.10.2019
6539 Clouds 22 1009 73 10000 7.7 160 22:40 09.10.2019
6540 Clouds 22 1009 73 10000 7.7 160 22:22 09.10.2019
6541 Clouds 22 1009 73 10000 7.7 180 21:42 09.10.2019
6542 Clouds 22 1009 73 10000 7.7 180 21:21 09.10.2019
6543 Clouds 22 1009 73 10000 7.7 180 21:21 09.10.2019
6544 Clouds 23 1011 69 10000 6.7 170 20:56 09.10.2019
6545 Clouds 23 1011 69 10000 6.7 170 20:38 09.10.2019
6546 Clouds 23 1011 69 10000 6.7 170 20:19 09.10.2019
6547 Clouds 22 1011 73 10000 5.7 150 19:59 09.10.2019
6548 Clouds 22 1011 73 10000 5.7 150 19:59 09.10.2019
6549 Clouds 22 1011 73 10000 5.7 150 19:59 09.10.2019
6550 Clouds 22 1011 73 10000 5.7 150 19:40 09.10.2019
6551 Clouds 22 1011 73 10000 5.7 150 19:22 09.10.2019
6552 Clouds 21 1011 83 10000 6.2 150 18:38 09.10.2019
6553 Clouds 21 1011 83 10000 6.2 150 18:20 09.10.2019
6554 Clouds 20 1011 82 10000 6.2 150 17:58 09.10.2019
6555 Clouds 20 1011 82 10000 6.2 150 17:58 09.10.2019
6556 Clouds 20 1011 82 10000 6.2 150 17:39 09.10.2019
6557 Clouds 20 1011 82 10000 6.2 150 17:21 09.10.2019
6558 Clouds 19 1011 88 10000 5.7 160 16:56 09.10.2019
6559 Clouds 19 1011 88 10000 5.7 160 16:56 09.10.2019
6560 Clouds 19 1011 88 10000 5.7 160 16:37 09.10.2019
6561 Clouds 19 1011 88 10000 5.7 160 16:18 09.10.2019
6562 Clouds 19 1011 88 10000 5.7 160 16:18 09.10.2019
6563 Clouds 19 1011 88 10000 5.1 160 15:55 09.10.2019
6564 Clouds 19 1011 88 10000 5.1 160 15:36 09.10.2019
6565 Clouds 19 1011 88 10000 5.1 160 15:18 09.10.2019
6566 Clouds 18 1010 93 10000 4.1 160 14:44 09.10.2019
6567 Clouds 18 1010 93 10000 4.1 160 14:19 09.10.2019
6568 Rain 19 1012 87 0 5 173.799 13:58 09.10.2019
6569 Rain 19 1012 87 0 5 173.799 13:36 09.10.2019
6570 Clouds 19 1012 84 0 5 174.64 13:18 09.10.2019
6571 Clouds 19 1012 84 0 5 174.64 12:42 09.10.2019
6572 Clouds 19 1011 88 0 4.67 169.472 12:22 09.10.2019
6573 Clouds 19 1011 88 0 4.67 169.472 12:22 09.10.2019
6574 Clouds 19 1011 88 0 4.67 169.472 11:58 09.10.2019
6575 Clouds 19 1011 88 0 4.67 169.472 11:39 09.10.2019
6576 Clouds 19 1011 88 0 4.67 169.472 11:20 09.10.2019
6577 Clouds 19 1011 88 0 4.67 169.472 10:57 09.10.2019
6578 Clouds 19 1011 88 0 4.67 169.472 10:57 09.10.2019
6579 Clouds 19 1011 88 0 4.67 169.472 10:39 09.10.2019
6580 Clouds 19 1011 88 0 4.67 169.472 10:18 09.10.2019
6581 Clouds 19 1011 88 0 4.67 169.472 09:42 09.10.2019
6582 Clouds 19 1013 87 0 3.97 164.942 09:19 09.10.2019
6583 Clouds 19 1013 87 0 3.97 164.942 08:56 09.10.2019
6584 Clouds 19 1013 87 0 4.26 170.004 08:37 09.10.2019
6585 Clouds 19 1013 87 0 4.26 170.004 08:18 09.10.2019
6586 Clouds 19 1013 87 0 4.26 170.004 07:42 09.10.2019
6587 Clouds 19 1013 87 0 4.26 170.004 07:22 09.10.2019
6588 Clouds 19 1013 87 0 4.26 170.004 06:52 09.10.2019
6589 Clouds 19 1013 86 0 4.6 163.876 06:20 09.10.2019
6590 Clouds 19 1013 86 0 4.6 163.876 06:20 09.10.2019
6591 Clouds 19 1013 86 0 4.6 163.876 05:46 09.10.2019
6592 Clouds 19 1013 86 0 4.6 163.876 04:27 09.10.2019
6593 Clouds 19 1009 88 10000 6.7 160 02:54 09.10.2019
6594 Clouds 20 1009 88 10000 7.2 150 01:44 09.10.2019
6595 Clouds 20 1009 88 10000 7.2 150 01:21 09.10.2019
6596 Clouds 21 1008 83 10000 6.7 160 00:57 09.10.2019
6597 Clouds 21 1008 83 10000 6.7 160 00:38 09.10.2019
6598 Clouds 21 1008 83 10000 6.7 160 00:20 09.10.2019
6599 Clouds 22 1008 78 10000 7.2 160 23:39 08.10.2019
6600 Clouds 22 1008 78 10000 7.2 160 23:19 08.10.2019
6601 Clouds 22 1008 78 10000 7.2 160 23:19 08.10.2019
6602 Clouds 22 1009 78 10000 7.2 170 22:57 08.10.2019
6603 Clouds 22 1009 78 10000 7.2 170 22:38 08.10.2019
6604 Clouds 22 1009 78 10000 7.2 170 22:19 08.10.2019
6605 Clouds 22 1010 78 10000 8.2 160 21:57 08.10.2019
6606 Clouds 22 1010 78 10000 8.2 160 21:39 08.10.2019
6607 Clouds 22 1010 78 10000 8.2 160 21:19 08.10.2019
6608 Clouds 22 1010 78 10000 8.2 160 21:19 08.10.2019
6609 Clouds 23 1011 73 10000 9.3 150 20:56 08.10.2019
6610 Clouds 23 1011 73 10000 9.3 150 20:37 08.10.2019
6611 Clouds 23 1011 73 10000 9.3 150 20:19 08.10.2019
6612 Clouds 22 1012 78 10000 7.7 150 19:56 08.10.2019
6613 Clouds 22 1012 78 10000 7.7 150 19:37 08.10.2019
6614 Clouds 22 1012 78 10000 7.7 150 19:19 08.10.2019
6615 Clouds 22 1012 73 10000 8.7 170 18:46 08.10.2019
6616 Clouds 22 1012 73 10000 8.7 170 18:27 08.10.2019
6617 Drizzle 20 1012 88 10000 7.7 170 17:59 08.10.2019
6618 Drizzle 20 1012 88 10000 7.7 170 17:40 08.10.2019
6619 Drizzle 20 1012 88 10000 7.7 170 17:40 08.10.2019
6620 Drizzle 20 1012 88 10000 7.7 170 17:40 08.10.2019
6621 Drizzle 20 1012 88 10000 7.7 170 17:20 08.10.2019
6622 Drizzle 20 1012 88 10000 7.7 170 17:20 08.10.2019
6623 Drizzle 19 1012 93 10000 6.7 170 16:56 08.10.2019
6624 Drizzle 19 1012 93 10000 6.7 170 16:37 08.10.2019
6625 Drizzle 19 1012 93 10000 6.7 170 16:19 08.10.2019
6626 Drizzle 19 1011 88 8000 5.1 160 15:40 08.10.2019
6627 Drizzle 19 1011 88 8000 5.1 160 15:21 08.10.2019
6628 Rain 18 1011 93 10000 4.6 180 14:57 08.10.2019
6629 Rain 18 1011 93 10000 4.6 180 14:38 08.10.2019
6630 Rain 18 1011 93 10000 4.6 180 14:38 08.10.2019
6631 Rain 18 1011 93 10000 4.6 180 14:20 08.10.2019
6632 Rain 20 1013 86 0 6.06 170.975 13:55 08.10.2019
6633 Rain 20 1013 86 0 6.06 170.975 13:37 08.10.2019
6634 Rain 20 1013 86 0 6.06 170.975 13:18 08.10.2019
6635 Rain 20 1013 86 0 6.04 175.716 12:41 08.10.2019
6636 Rain 20 1012 86 0 6.46 179.76 12:20 08.10.2019
6637 Rain 20 1012 86 0 6.46 179.76 11:58 08.10.2019
6638 Rain 20 1012 86 0 6.46 179.76 11:39 08.10.2019
6639 Rain 20 1012 86 0 6.46 179.76 11:21 08.10.2019
6640 Rain 20 1012 86 0 6.46 179.76 10:54 08.10.2019
6641 Rain 20 1012 86 0 6.46 179.76 10:54 08.10.2019
6642 Rain 20 1012 86 0 6.46 179.76 10:36 08.10.2019
6643 Rain 20 1012 86 0 6.46 179.76 10:18 08.10.2019
6644 Rain 20 1012 86 0 6.46 179.76 09:40 08.10.2019
6645 Rain 20 1013 88 0 6.19 169.857 09:22 08.10.2019
6646 Rain 20 1013 88 0 6.19 169.857 08:45 08.10.2019
6647 Rain 20 1013 88 0 6.25 173.564 08:25 08.10.2019
6648 Rain 20 1013 88 0 6.25 173.564 07:58 08.10.2019
6649 Rain 20 1013 88 0 6.25 173.564 07:40 08.10.2019
6650 Rain 20 1013 88 0 6.25 173.564 07:19 08.10.2019
6651 Rain 20 1013 88 0 6.25 173.564 06:46 08.10.2019
6652 Clouds 20 1014 86 0 5.41 172.938 06:23 08.10.2019
6653 Clouds 20 1014 86 0 5.41 172.938 05:43 08.10.2019
6654 Clouds 20 1014 86 0 5.41 172.938 05:43 08.10.2019
6655 Clouds 20 1014 86 0 5.41 172.938 05:19 08.10.2019
6656 Clouds 19 1009 88 10000 6.7 170 03:32 08.10.2019
6657 Clouds 19 1009 88 10000 6.7 170 02:43 08.10.2019
6658 Clouds 19 1009 88 10000 6.7 170 02:25 08.10.2019
6659 Clouds 20 1009 82 10000 8.2 160 01:41 08.10.2019
6660 Clouds 20 1009 88 10000 7.2 170 00:56 08.10.2019
6661 Clouds 20 1009 88 10000 7.2 170 00:25 08.10.2019
6662 Clouds 22 1008 73 10000 7.7 170 23:56 07.10.2019
6663 Clouds 22 1008 73 10000 7.7 170 23:37 07.10.2019
6664 Clouds 22 1008 73 10000 7.7 170 23:19 07.10.2019
6665 Clouds 23 1009 69 10000 9.3 170 22:54 07.10.2019
6666 Clouds 23 1009 69 10000 9.3 170 22:54 07.10.2019
6667 Clouds 23 1009 69 10000 9.3 170 22:36 07.10.2019
6668 Clouds 23 1009 69 10000 9.3 170 22:18 07.10.2019
6669 Clouds 23 1010 69 10000 8.2 200 21:54 07.10.2019
6670 Clouds 23 1010 69 10000 8.2 200 21:36 07.10.2019
6671 Clouds 23 1010 69 10000 8.2 200 21:18 07.10.2019
6672 Clouds 23 1010 69 10000 8.2 200 21:18 07.10.2019
6673 Clouds 22 1011 73 10000 8.2 140 20:54 07.10.2019
6674 Clouds 22 1011 73 10000 8.2 140 20:36 07.10.2019
6675 Clouds 22 1011 73 10000 8.2 140 20:18 07.10.2019
6676 Clouds 22 1012 73 10000 8.7 160 19:41 07.10.2019
6677 Clouds 22 1012 73 10000 8.7 160 19:20 07.10.2019
6678 Rain 21 1013 77 10000 8.7 170 18:59 07.10.2019
6679 Rain 21 1013 77 10000 8.7 170 18:40 07.10.2019
6680 Rain 21 1013 77 10000 8.7 170 18:19 07.10.2019
6681 Rain 21 1013 77 10000 8.7 170 18:19 07.10.2019
6682 Rain 20 1012 88 10000 7.2 150 17:55 07.10.2019
6683 Rain 20 1012 88 10000 7.2 150 17:37 07.10.2019
6684 Rain 20 1012 88 10000 7.2 150 17:18 07.10.2019
6685 Clouds 20 1012 82 10000 5.1 150 16:43 07.10.2019
6686 Clouds 20 1012 82 10000 5.1 150 16:25 07.10.2019
6687 Drizzle 19 1012 88 10000 5.1 160 15:46 07.10.2019
6688 Drizzle 19 1012 88 10000 5.1 160 15:27 07.10.2019
6689 Drizzle 18 1011 93 10000 5.1 150 14:59 07.10.2019
6690 Drizzle 18 1011 93 10000 5.1 150 14:59 07.10.2019
6691 Drizzle 18 1011 93 10000 5.1 150 14:40 07.10.2019
6692 Drizzle 18 1011 93 10000 5.1 150 14:22 07.10.2019
6693 Clouds 20 1013 86 0 4.95